﻿_id	data_ora	id_station	denominazione	temperatura	cod_validazione_temperatura	umidita	cod_validazione_umidita_rel	precipitazione	cod_validazione_precipitazione	velocita_vento	cod_validazione_velocita_vento	direzione_vento	cod_validazione_direzione_vento	rad_solare_globale	cod_validazione_rad_solare_globale	pressione_atmosferica	cod_validazione_pressione_atmosferica	Latitude	Longitude
1	2024-01-01 00:00:00	7	brindisi_sisri	11.62	1	95.68	1	0.0	1	3.33	1	137.43	1	0.0	5	1013.76	1	40.624723	17.975036
2	2024-01-01 01:00:00	7	brindisi_sisri	12.02	1	94.23	1	0.0	1	2.35	1	134.97	1	0.0	5	1013.54	1	40.624723	17.975036
3	2024-01-01 02:00:00	7	brindisi_sisri	11.46	1	94.45	1	0.0	1	1.95	1	144.69	1	0.0	5	1013.15	1	40.624723	17.975036
4	2024-01-01 03:00:00	7	brindisi_sisri	10.48	1	96.74	1	0.0	1	2.62	1	137.61	1	0.0	5	1012.78	1	40.624723	17.975036
5	2024-01-01 04:00:00	7	brindisi_sisri	11.06	1	98.6	1	0.0	1	2.3	1	152.43	1	0.0	5	1012.31	1	40.624723	17.975036
6	2024-01-01 05:00:00	7	brindisi_sisri	10.0	1	99.01	1	0.0	1	1.61	1	156.87	1	0.0	5	1012.0	1	40.624723	17.975036
7	2024-01-01 06:00:00	7	brindisi_sisri	10.1	1	99.02	1	0.0	1	1.33	1	147.76	1	0.0	5	1011.75	1	40.624723	17.975036
8	2024-01-01 07:00:00	7	brindisi_sisri	9.61	1	99.02	1	0.0	1	1.12	1	171.15	1	0.0	5	1011.79	1	40.624723	17.975036
9	2024-01-01 08:00:00	7	brindisi_sisri	9.8	1	99.03	1	0.0	1	1.95	1	132.35	1	26.39	1	1011.76	1	40.624723	17.975036
10	2024-01-01 09:00:00	7	brindisi_sisri	11.01	1	99.07	1	0.0	1	1.96	1	149.97	1	88.54	1	1011.82	1	40.624723	17.975036
11	2024-01-01 10:00:00	7	brindisi_sisri	13.54	1	99.09	1	0.0	1	2.45	1	156.52	1	299.42	1	1011.93	1	40.624723	17.975036
12	2024-01-01 11:00:00	7	brindisi_sisri	15.77	1	94.65	1	0.0	1	4.44	1	181.39	1	345.95	1	1011.82	1	40.624723	17.975036
13	2024-01-01 12:00:00	7	brindisi_sisri	16.87	1	77.56	1	0.0	1	3.79	1	178.52	1	192.53	1	1011.25	1	40.624723	17.975036
14	2024-01-01 13:00:00	7	brindisi_sisri	17.83	1	70.13	1	0.0	1	3.57	1	183.95	1	184.74	1	1010.82	1	40.624723	17.975036
15	2024-01-01 14:00:00	7	brindisi_sisri	17.77	1	69.39	1	0.0	1	3.16	1	174.08	1	165.32	1	1010.42	1	40.624723	17.975036
16	2024-01-01 15:00:00	7	brindisi_sisri	17.39	1	70.11	1	0.0	1	3.85	1	169.88	1	123.63	1	1010.2	1	40.624723	17.975036
17	2024-01-01 16:00:00	7	brindisi_sisri	16.52	1	75.37	1	0.0	1	3.27	1	168.46	1	48.08	1	1010.2	1	40.624723	17.975036
18	2024-01-01 17:00:00	7	brindisi_sisri	14.7	1	80.81	1	0.0	1	2.91	1	181.44	1	6.27	1	1010.17	1	40.624723	17.975036
19	2024-01-01 18:00:00	7	brindisi_sisri	13.82	1	88.66	1	0.0	1	2.97	1	179.57	1	0.0	5	1010.33	1	40.624723	17.975036
20	2024-01-01 19:00:00	7	brindisi_sisri	13.34	1	91.69	1	0.0	1	2.78	1	167.44	1	0.0	5	1010.63	1	40.624723	17.975036
21	2024-01-01 20:00:00	7	brindisi_sisri	13.15	1	93.12	1	0.0	1	2.2	1	163.54	1	0.0	5	1010.79	1	40.624723	17.975036
22	2024-01-01 21:00:00	7	brindisi_sisri	13.04	1	94.64	1	0.0	1	2.73	1	177.27	1	0.0	5	1010.86	1	40.624723	17.975036
23	2024-01-01 22:00:00	7	brindisi_sisri	12.93	1	95.08	1	0.0	1	2.26	1	174.53	1	0.0	5	1010.79	1	40.624723	17.975036
24	2024-01-01 23:00:00	7	brindisi_sisri	12.52	1	94.63	1	0.0	1	2.0	1	191.64	1	0.0	5	1010.62	1	40.624723	17.975036
25	2024-01-02 00:00:00	7	brindisi_sisri	12.62	1	92.44	1	0.0	1	1.89	1	184.01	1	0.0	5	1010.66	1	40.624723	17.975036
26	2024-01-02 01:00:00	7	brindisi_sisri	12.61	1	92.96	1	0.0	1	1.93	1	205.7	1	0.0	5	1010.6	1	40.624723	17.975036
27	2024-01-02 02:00:00	7	brindisi_sisri	12.33	1	92.52	1	1.0	1	2.67	1	212.76	1	0.0	5	1010.93	1	40.624723	17.975036
28	2024-01-02 03:00:00	7	brindisi_sisri	12.0	1	95.08	1	0.4	1	2.2	1	222.02	1	0.0	5	1011.14	1	40.624723	17.975036
29	2024-01-02 04:00:00	7	brindisi_sisri	11.72	1	97.02	1	0.4	1	1.0	1	194.6	1	0.0	5	1010.65	1	40.624723	17.975036
30	2024-01-02 05:00:00	7	brindisi_sisri	11.32	1	98.43	1	0.0	1	1.92	1	156.13	1	0.0	5	1010.39	1	40.624723	17.975036
31	2024-01-02 06:00:00	7	brindisi_sisri	11.11	1	99.02	1	0.0	1	1.67	1	223.06	1	0.0	5	1010.89	1	40.624723	17.975036
32	2024-01-02 07:00:00	7	brindisi_sisri	10.72	1	null	3	0.0	1	1.64	1	221.97	1	0.0	5	1011.54	1	40.624723	17.975036
33	2024-01-02 08:00:00	7	brindisi_sisri	9.46	1	99.02	1	0.0	1	1.63	1	195.48	1	16.0	1	1012.2	1	40.624723	17.975036
34	2024-01-02 09:00:00	7	brindisi_sisri	10.05	1	98.88	1	0.2	1	1.82	1	212.13	1	143.26	1	1012.51	1	40.624723	17.975036
35	2024-01-02 10:00:00	7	brindisi_sisri	12.36	1	89.91	1	0.0	1	2.18	1	226.09	1	307.61	1	1012.98	1	40.624723	17.975036
36	2024-01-02 11:00:00	7	brindisi_sisri	14.18	1	71.1	1	0.0	1	4.03	1	270.64	1	444.9	1	1013.18	1	40.624723	17.975036
37	2024-01-02 12:00:00	7	brindisi_sisri	15.15	1	64.13	1	0.0	1	4.23	1	275.97	1	161.27	1	1013.08	1	40.624723	17.975036
38	2024-01-02 13:00:00	7	brindisi_sisri	15.3	1	60.41	1	0.0	1	4.17	1	284.15	1	85.8	1	1012.84	1	40.624723	17.975036
39	2024-01-02 14:00:00	7	brindisi_sisri	15.21	1	63.03	1	0.0	1	3.86	1	295.23	1	65.29	1	1012.51	1	40.624723	17.975036
40	2024-01-02 15:00:00	7	brindisi_sisri	14.72	1	66.6	1	0.0	1	3.84	1	312.95	1	53.0	1	1012.64	1	40.624723	17.975036
41	2024-01-02 16:00:00	7	brindisi_sisri	14.08	1	73.9	1	0.0	1	2.56	1	332.96	1	42.33	1	1012.77	1	40.624723	17.975036
42	2024-01-02 17:00:00	7	brindisi_sisri	13.17	1	81.19	1	0.0	1	2.27	1	338.74	1	8.87	1	1013.21	1	40.624723	17.975036
43	2024-01-02 18:00:00	7	brindisi_sisri	10.89	1	87.0	1	0.0	1	1.56	1	164.31	1	0.0	5	1013.27	1	40.624723	17.975036
44	2024-01-02 19:00:00	7	brindisi_sisri	8.91	1	91.87	1	0.0	1	1.85	1	169.06	1	0.0	5	1013.57	1	40.624723	17.975036
45	2024-01-02 20:00:00	7	brindisi_sisri	8.38	1	95.45	1	0.0	1	2.28	1	165.29	1	0.0	5	1013.86	1	40.624723	17.975036
46	2024-01-02 21:00:00	7	brindisi_sisri	8.22	1	98.06	1	0.0	1	2.37	1	155.67	1	0.0	5	1013.94	1	40.624723	17.975036
47	2024-01-02 22:00:00	7	brindisi_sisri	8.86	1	99.02	1	0.0	1	2.67	1	147.41	1	0.0	5	1013.71	1	40.624723	17.975036
48	2024-01-02 23:00:00	7	brindisi_sisri	8.88	1	99.02	1	0.0	1	3.38	1	157.58	1	0.0	5	1013.55	1	40.624723	17.975036
49	2024-01-03 00:00:00	7	brindisi_sisri	8.81	1	98.97	1	0.0	1	3.19	1	156.86	1	0.0	5	1013.08	1	40.624723	17.975036
50	2024-01-03 01:00:00	7	brindisi_sisri	8.46	1	99.02	1	0.0	1	2.82	1	161.13	1	0.0	5	1012.38	1	40.624723	17.975036
51	2024-01-03 02:00:00	7	brindisi_sisri	8.35	1	null	3	0.0	1	2.37	1	163.83	1	0.0	5	1012.12	1	40.624723	17.975036
52	2024-01-03 03:00:00	7	brindisi_sisri	8.34	1	null	3	0.0	1	2.82	1	163.54	1	0.0	5	1012.12	1	40.624723	17.975036
53	2024-01-03 04:00:00	7	brindisi_sisri	8.47	1	null	3	0.0	1	2.46	1	175.85	1	0.0	5	1011.71	1	40.624723	17.975036
54	2024-01-03 05:00:00	7	brindisi_sisri	9.01	1	null	3	0.0	1	2.31	1	178.74	1	0.0	5	1011.18	1	40.624723	17.975036
55	2024-01-03 06:00:00	7	brindisi_sisri	8.56	1	null	3	0.0	1	1.89	1	175.61	1	0.0	5	1010.94	1	40.624723	17.975036
56	2024-01-03 07:00:00	7	brindisi_sisri	9.05	1	99.02	1	0.0	1	1.97	1	174.39	1	0.0	5	1010.89	1	40.624723	17.975036
57	2024-01-03 08:00:00	7	brindisi_sisri	10.16	1	98.62	1	0.0	1	2.58	1	172.18	1	13.28	1	1010.71	1	40.624723	17.975036
58	2024-01-03 09:00:00	7	brindisi_sisri	11.1	1	95.35	1	0.0	1	2.93	1	178.83	1	66.5	1	1010.67	1	40.624723	17.975036
59	2024-01-03 10:00:00	7	brindisi_sisri	12.8	1	87.58	1	0.0	1	3.22	1	159.85	1	136.78	1	1010.65	1	40.624723	17.975036
60	2024-01-03 11:00:00	7	brindisi_sisri	15.14	1	77.65	1	0.0	1	3.91	1	185.88	1	223.49	1	1010.29	1	40.624723	17.975036
61	2024-01-03 12:00:00	7	brindisi_sisri	15.98	1	67.84	1	0.0	1	4.75	1	190.88	1	152.21	1	1009.82	1	40.624723	17.975036
62	2024-01-03 13:00:00	7	brindisi_sisri	16.45	1	67.43	1	0.0	1	5.46	1	194.24	1	132.67	1	1009.1	1	40.624723	17.975036
63	2024-01-03 14:00:00	7	brindisi_sisri	16.94	1	65.87	1	0.0	1	5.99	1	183.67	1	119.01	1	1008.49	1	40.624723	17.975036
64	2024-01-03 15:00:00	7	brindisi_sisri	16.27	1	68.94	1	0.0	1	4.95	1	173.08	1	92.18	1	1008.43	1	40.624723	17.975036
65	2024-01-03 16:00:00	7	brindisi_sisri	15.35	1	74.12	1	0.0	1	3.54	1	169.02	1	43.03	1	1008.28	1	40.624723	17.975036
66	2024-01-03 17:00:00	7	brindisi_sisri	13.81	1	80.4	1	0.0	1	2.7	1	152.39	1	6.7	1	1008.49	1	40.624723	17.975036
67	2024-01-03 18:00:00	7	brindisi_sisri	12.25	1	88.02	1	0.0	1	2.91	1	156.81	1	0.0	5	1008.43	1	40.624723	17.975036
68	2024-01-03 19:00:00	7	brindisi_sisri	11.29	1	91.89	1	0.0	1	2.74	1	165.54	1	0.0	5	1008.43	1	40.624723	17.975036
69	2024-01-03 20:00:00	7	brindisi_sisri	10.53	1	94.89	1	0.0	1	2.07	1	170.15	1	0.0	5	1008.71	1	40.624723	17.975036
70	2024-01-03 21:00:00	7	brindisi_sisri	10.44	1	96.74	1	0.0	1	2.3	1	170.1	1	0.0	5	1008.38	1	40.624723	17.975036
71	2024-01-03 22:00:00	7	brindisi_sisri	11.62	1	95.18	1	0.0	1	3.31	1	176.9	1	0.0	5	1008.3	1	40.624723	17.975036
72	2024-01-03 23:00:00	7	brindisi_sisri	11.92	1	92.2	1	0.0	1	3.85	1	174.95	1	0.0	5	1007.91	1	40.624723	17.975036
73	2024-01-04 00:00:00	7	brindisi_sisri	11.92	1	89.51	1	0.0	1	3.24	1	149.86	1	0.0	5	1007.77	1	40.624723	17.975036
74	2024-01-04 01:00:00	7	brindisi_sisri	11.08	1	92.16	1	0.0	1	3.93	1	161.07	1	0.0	5	1007.39	1	40.624723	17.975036
75	2024-01-04 02:00:00	7	brindisi_sisri	11.68	1	92.74	1	0.0	1	4.18	1	177.92	1	0.0	5	1007.27	1	40.624723	17.975036
76	2024-01-04 03:00:00	7	brindisi_sisri	12.26	1	88.33	1	0.0	1	3.5	1	154.13	1	0.0	5	1006.85	1	40.624723	17.975036
77	2024-01-04 04:00:00	7	brindisi_sisri	11.45	1	89.15	1	0.0	1	2.06	1	152.98	1	0.0	5	1006.66	1	40.624723	17.975036
78	2024-01-04 05:00:00	7	brindisi_sisri	10.45	1	92.99	1	0.0	1	2.34	1	174.53	1	0.0	5	1006.17	1	40.624723	17.975036
79	2024-01-04 06:00:00	7	brindisi_sisri	10.23	1	96.26	1	0.0	1	1.95	1	178.11	1	0.0	5	1006.24	1	40.624723	17.975036
80	2024-01-04 07:00:00	7	brindisi_sisri	10.26	1	98.06	1	0.0	1	1.8	1	166.3	1	0.0	5	1006.4	1	40.624723	17.975036
81	2024-01-04 08:00:00	7	brindisi_sisri	10.53	1	99.01	1	0.0	1	2.33	1	172.53	1	37.43	1	1006.63	1	40.624723	17.975036
82	2024-01-04 09:00:00	7	brindisi_sisri	12.35	1	98.39	1	0.0	1	2.6	1	167.37	1	112.8	1	1007.12	1	40.624723	17.975036
83	2024-01-04 10:00:00	7	brindisi_sisri	15.42	1	93.02	1	0.0	1	3.18	1	174.81	1	324.37	1	1007.19	1	40.624723	17.975036
84	2024-01-04 11:00:00	7	brindisi_sisri	17.68	1	70.66	1	0.0	1	4.1	1	190.17	1	416.46	1	1007.24	1	40.624723	17.975036
85	2024-01-04 12:00:00	7	brindisi_sisri	19.33	1	56.24	1	0.0	1	4.75	1	198.84	1	152.4	1	1006.59	1	40.624723	17.975036
86	2024-01-04 13:00:00	7	brindisi_sisri	19.57	1	50.01	1	0.0	1	4.93	1	214.11	1	89.38	1	1006.23	1	40.624723	17.975036
87	2024-01-04 14:00:00	7	brindisi_sisri	18.67	5	null	6	0.0	5	null	6	null	6	null	6	1006.4	5	40.624723	17.975036
88	2024-01-04 15:00:00	7	brindisi_sisri	17.76	1	56.85	1	0.0	1	3.17	1	311.43	1	68.99	1	1006.56	1	40.624723	17.975036
89	2024-01-04 16:00:00	7	brindisi_sisri	16.26	1	64.42	1	0.0	1	1.44	1	267.27	1	31.84	1	1007.2	1	40.624723	17.975036
90	2024-01-04 17:00:00	7	brindisi_sisri	14.64	1	70.65	1	0.0	1	0.96	1	182.38	1	7.1	1	1007.69	1	40.624723	17.975036
91	2024-01-04 18:00:00	7	brindisi_sisri	13.23	1	72.57	1	0.0	1	1.15	1	157.64	1	0.0	5	1008.38	1	40.624723	17.975036
92	2024-01-04 19:00:00	7	brindisi_sisri	10.62	1	83.96	1	0.0	1	1.9	1	172.4	1	0.0	5	1009.27	1	40.624723	17.975036
93	2024-01-04 20:00:00	7	brindisi_sisri	9.5	1	89.97	1	0.0	1	1.66	1	192.01	1	0.0	5	1009.96	1	40.624723	17.975036
94	2024-01-04 21:00:00	7	brindisi_sisri	8.91	1	92.93	1	0.0	1	1.22	1	212.17	1	0.0	5	1010.43	1	40.624723	17.975036
95	2024-01-04 22:00:00	7	brindisi_sisri	8.33	1	94.6	1	0.0	1	1.71	1	210.29	1	0.0	5	1010.67	1	40.624723	17.975036
96	2024-01-04 23:00:00	7	brindisi_sisri	7.73	1	95.66	1	0.0	1	1.45	1	211.28	1	0.0	5	1010.94	1	40.624723	17.975036
97	2024-01-05 00:00:00	7	brindisi_sisri	7.38	1	96.9	1	0.0	1	1.66	1	210.57	1	0.0	5	1011.03	1	40.624723	17.975036
98	2024-01-05 01:00:00	7	brindisi_sisri	7.14	1	97.94	1	0.0	1	1.44	1	214.18	1	0.0	5	1010.88	1	40.624723	17.975036
99	2024-01-05 02:00:00	7	brindisi_sisri	6.55	1	98.46	1	0.0	1	1.3	1	178.39	1	0.0	5	1011.0	1	40.624723	17.975036
100	2024-01-05 03:00:00	7	brindisi_sisri	5.92	1	98.88	1	0.0	1	1.89	1	150.93	1	0.0	5	1011.08	1	40.624723	17.975036
101	2024-01-05 04:00:00	7	brindisi_sisri	6.22	1	99.02	1	0.0	1	1.78	1	151.15	1	0.0	5	1010.68	1	40.624723	17.975036
102	2024-01-05 05:00:00	7	brindisi_sisri	6.24	1	null	3	0.0	1	1.58	1	106.49	1	0.0	5	1010.28	1	40.624723	17.975036
103	2024-01-05 06:00:00	7	brindisi_sisri	6.28	1	null	3	0.0	1	1.89	1	146.36	1	0.0	5	1010.0	1	40.624723	17.975036
104	2024-01-05 07:00:00	7	brindisi_sisri	6.28	1	null	3	0.0	1	2.51	1	135.06	1	0.0	5	1010.27	1	40.624723	17.975036
105	2024-01-05 08:00:00	7	brindisi_sisri	6.9	1	99.02	1	0.0	1	3.04	1	146.88	1	46.91	1	1010.29	1	40.624723	17.975036
106	2024-01-05 09:00:00	7	brindisi_sisri	10.69	1	98.42	1	0.0	1	2.57	1	152.24	1	198.4	1	1010.34	1	40.624723	17.975036
107	2024-01-05 10:00:00	7	brindisi_sisri	14.59	1	88.24	1	0.0	1	4.57	1	143.96	1	331.68	1	1010.41	1	40.624723	17.975036
108	2024-01-05 11:00:00	7	brindisi_sisri	16.09	1	78.27	1	0.0	1	5.4	1	127.98	1	339.64	1	1010.1	1	40.624723	17.975036
109	2024-01-05 12:00:00	7	brindisi_sisri	17.0	1	72.15	1	0.0	1	6.54	1	131.7	1	213.16	1	1009.23	1	40.624723	17.975036
110	2024-01-05 13:00:00	7	brindisi_sisri	17.31	1	68.78	1	0.0	1	7.56	1	141.9	1	169.04	1	1008.45	1	40.624723	17.975036
111	2024-01-05 14:00:00	7	brindisi_sisri	17.59	1	71.04	1	0.0	1	6.77	1	143.68	1	156.72	1	1007.93	1	40.624723	17.975036
112	2024-01-05 15:00:00	7	brindisi_sisri	17.15	1	74.05	1	0.0	1	6.59	1	136.29	1	82.22	1	1007.72	1	40.624723	17.975036
113	2024-01-05 16:00:00	7	brindisi_sisri	16.74	1	77.88	1	0.0	1	6.54	1	128.91	1	29.99	1	1007.23	1	40.624723	17.975036
114	2024-01-05 17:00:00	7	brindisi_sisri	16.35	1	82.16	1	0.0	1	6.15	1	136.53	1	7.66	1	1007.18	1	40.624723	17.975036
115	2024-01-05 18:00:00	7	brindisi_sisri	15.88	1	84.37	1	0.0	1	5.84	1	133.67	1	0.0	5	1006.99	1	40.624723	17.975036
116	2024-01-05 19:00:00	7	brindisi_sisri	15.61	1	85.08	1	0.0	1	5.58	1	134.28	1	0.0	5	1007.07	1	40.624723	17.975036
117	2024-01-05 20:00:00	7	brindisi_sisri	15.71	1	85.67	1	0.0	1	5.99	1	130.78	1	0.0	5	1006.79	1	40.624723	17.975036
118	2024-01-05 21:00:00	7	brindisi_sisri	15.93	1	83.98	1	0.0	1	7.94	1	137.37	1	0.0	5	1006.49	1	40.624723	17.975036
119	2024-01-05 22:00:00	7	brindisi_sisri	15.84	1	83.29	1	0.0	1	9.03	1	140.71	1	0.0	5	1006.07	1	40.624723	17.975036
120	2024-01-05 23:00:00	7	brindisi_sisri	15.75	1	83.69	1	0.0	1	7.76	1	138.7	1	0.0	5	1005.94	1	40.624723	17.975036
121	2024-01-06 00:00:00	7	brindisi_sisri	15.53	1	84.0	1	0.0	1	6.58	1	132.78	1	0.0	5	1005.51	1	40.624723	17.975036
122	2024-01-06 01:00:00	7	brindisi_sisri	15.28	1	83.32	1	0.0	1	5.92	1	128.26	1	0.0	5	1004.99	1	40.624723	17.975036
123	2024-01-06 02:00:00	7	brindisi_sisri	15.47	1	83.45	1	0.0	1	7.15	1	134.54	1	0.0	5	1004.62	1	40.624723	17.975036
124	2024-01-06 03:00:00	7	brindisi_sisri	15.69	1	83.22	1	0.0	1	6.98	1	137.88	1	0.0	5	1004.39	1	40.624723	17.975036
125	2024-01-06 04:00:00	7	brindisi_sisri	15.76	1	82.94	1	0.0	1	7.25	1	134.08	1	0.0	5	1003.56	1	40.624723	17.975036
126	2024-01-06 05:00:00	7	brindisi_sisri	15.45	1	83.95	1	0.0	1	6.5	1	131.97	1	0.0	5	1003.05	1	40.624723	17.975036
127	2024-01-06 06:00:00	7	brindisi_sisri	15.06	1	85.4	1	0.0	1	5.05	1	127.07	1	0.0	5	1002.67	1	40.624723	17.975036
128	2024-01-06 07:00:00	7	brindisi_sisri	15.14	1	86.31	1	0.0	1	5.97	1	123.5	1	0.0	5	1002.39	1	40.624723	17.975036
129	2024-01-06 08:00:00	7	brindisi_sisri	15.32	1	86.09	1	0.0	1	5.51	1	122.77	1	15.14	1	1001.84	1	40.624723	17.975036
130	2024-01-06 09:00:00	7	brindisi_sisri	15.94	1	84.62	1	0.0	1	7.2	1	126.19	1	58.81	1	1001.55	1	40.624723	17.975036
131	2024-01-06 10:00:00	7	brindisi_sisri	16.41	1	83.37	1	0.0	1	8.0	1	124.18	1	83.47	1	1001.19	1	40.624723	17.975036
132	2024-01-06 11:00:00	7	brindisi_sisri	16.99	1	79.91	1	0.0	1	8.43	1	125.8	1	138.65	1	1000.5	1	40.624723	17.975036
133	2024-01-06 12:00:00	7	brindisi_sisri	17.57	1	76.74	1	0.0	1	9.27	1	125.46	1	136.55	1	999.11	1	40.624723	17.975036
134	2024-01-06 13:00:00	7	brindisi_sisri	17.5	1	76.81	1	0.0	1	8.98	1	121.62	1	107.87	1	997.29	1	40.624723	17.975036
135	2024-01-06 14:00:00	7	brindisi_sisri	17.3	1	78.54	1	0.8	1	9.98	1	121.44	1	92.56	1	995.13	1	40.624723	17.975036
136	2024-01-06 15:00:00	7	brindisi_sisri	16.24	1	81.94	1	0.0	1	9.77	1	122.79	1	78.8	1	993.6	1	40.624723	17.975036
137	2024-01-06 16:00:00	7	brindisi_sisri	16.88	1	80.73	1	0.2	1	11.39	1	122.74	1	40.38	1	992.53	1	40.624723	17.975036
138	2024-01-06 17:00:00	7	brindisi_sisri	16.73	1	79.21	1	0.0	1	10.44	1	121.2	1	5.14	1	991.49	1	40.624723	17.975036
139	2024-01-06 18:00:00	7	brindisi_sisri	16.03	1	75.9	1	0.0	1	10.69	1	117.91	1	0.0	5	991.18	1	40.624723	17.975036
140	2024-01-06 19:00:00	7	brindisi_sisri	12.88	1	86.97	1	3.6	1	6.79	1	124.19	1	0.0	5	991.02	1	40.624723	17.975036
141	2024-01-06 20:00:00	7	brindisi_sisri	10.54	1	94.1	1	0.0	1	1.73	1	99.58	1	0.0	5	990.75	1	40.624723	17.975036
142	2024-01-06 21:00:00	7	brindisi_sisri	10.73	1	97.02	1	0.0	1	2.31	1	87.93	1	0.0	5	990.17	1	40.624723	17.975036
143	2024-01-06 22:00:00	7	brindisi_sisri	11.35	1	94.85	1	0.0	1	3.42	1	94.56	1	0.0	5	990.27	1	40.624723	17.975036
144	2024-01-06 23:00:00	7	brindisi_sisri	11.41	1	88.57	1	0.0	1	4.56	1	105.0	1	0.0	5	989.79	1	40.624723	17.975036
145	2024-01-07 00:00:00	7	brindisi_sisri	11.32	1	85.0	1	0.0	1	4.44	1	105.95	1	0.0	5	989.34	1	40.624723	17.975036
146	2024-01-07 01:00:00	7	brindisi_sisri	11.78	1	83.82	1	0.0	1	5.79	1	106.79	1	0.0	5	989.24	1	40.624723	17.975036
147	2024-01-07 02:00:00	7	brindisi_sisri	11.34	1	83.23	1	0.0	1	5.43	1	113.19	1	0.0	5	988.79	1	40.624723	17.975036
148	2024-01-07 03:00:00	7	brindisi_sisri	10.93	1	85.64	1	0.0	1	3.98	1	117.41	1	0.0	5	988.44	1	40.624723	17.975036
149	2024-01-07 04:00:00	7	brindisi_sisri	9.36	1	89.23	1	0.0	1	2.21	1	150.71	1	0.0	5	988.2	1	40.624723	17.975036
150	2024-01-07 05:00:00	7	brindisi_sisri	8.39	1	93.73	1	0.0	1	1.77	1	146.56	1	0.0	5	987.98	1	40.624723	17.975036
151	2024-01-07 06:00:00	7	brindisi_sisri	8.78	1	95.76	1	0.0	1	1.3	1	116.38	1	0.0	5	988.26	1	40.624723	17.975036
152	2024-01-07 07:00:00	7	brindisi_sisri	9.46	1	96.53	1	0.0	1	1.34	1	124.76	1	0.0	5	988.94	1	40.624723	17.975036
153	2024-01-07 08:00:00	7	brindisi_sisri	10.05	1	97.13	1	0.2	1	1.22	1	139.96	1	25.3	1	989.49	1	40.624723	17.975036
154	2024-01-07 09:00:00	7	brindisi_sisri	12.23	1	96.4	1	0.0	1	0.79	1	143.58	1	200.44	1	989.81	1	40.624723	17.975036
155	2024-01-07 10:00:00	7	brindisi_sisri	13.9	1	89.47	1	0.0	1	0.87	1	218.29	1	165.58	1	990.26	1	40.624723	17.975036
156	2024-01-07 11:00:00	7	brindisi_sisri	13.69	1	85.68	1	0.0	1	1.84	1	164.04	1	156.48	1	990.63	1	40.624723	17.975036
157	2024-01-07 12:00:00	7	brindisi_sisri	13.95	1	83.44	1	0.0	1	1.71	1	201.98	1	124.83	1	990.76	1	40.624723	17.975036
158	2024-01-07 13:00:00	7	brindisi_sisri	14.21	1	79.5	1	0.0	1	2.96	1	217.41	1	162.96	1	990.53	1	40.624723	17.975036
159	2024-01-07 14:00:00	7	brindisi_sisri	13.62	1	77.9	1	0.0	1	4.08	1	209.62	1	80.91	1	990.53	1	40.624723	17.975036
160	2024-01-07 15:00:00	7	brindisi_sisri	13.19	1	77.47	1	0.0	1	4.28	1	206.52	1	44.19	1	990.79	1	40.624723	17.975036
161	2024-01-07 16:00:00	7	brindisi_sisri	12.37	1	77.44	1	0.4	1	3.72	1	222.54	1	18.48	1	991.68	1	40.624723	17.975036
162	2024-01-07 17:00:00	7	brindisi_sisri	11.66	1	73.98	1	0.2	1	3.41	1	217.4	1	0.0	5	992.34	1	40.624723	17.975036
163	2024-01-07 18:00:00	7	brindisi_sisri	11.15	1	76.03	1	0.2	1	2.47	1	217.26	1	0.0	5	993.31	1	40.624723	17.975036
164	2024-01-07 19:00:00	7	brindisi_sisri	10.76	1	79.78	1	0.0	1	1.46	1	202.38	1	0.0	5	994.35	1	40.624723	17.975036
165	2024-01-07 20:00:00	7	brindisi_sisri	10.19	1	84.79	1	0.2	1	1.68	1	200.55	1	0.0	5	995.06	1	40.624723	17.975036
166	2024-01-07 21:00:00	7	brindisi_sisri	9.67	1	89.69	1	0.6	1	1.59	1	200.02	1	0.0	5	995.59	1	40.624723	17.975036
167	2024-01-07 22:00:00	7	brindisi_sisri	9.03	1	93.24	1	0.0	1	0.91	1	160.26	1	0.0	5	995.95	1	40.624723	17.975036
168	2024-01-07 23:00:00	7	brindisi_sisri	8.55	1	95.47	1	0.0	1	0.64	1	119.69	1	0.0	5	996.42	1	40.624723	17.975036
169	2024-01-08 00:00:00	7	brindisi_sisri	8.36	1	96.43	1	0.0	1	1.33	1	156.94	1	0.0	5	996.85	1	40.624723	17.975036
170	2024-01-08 01:00:00	7	brindisi_sisri	8.42	1	97.4	1	0.0	1	0.46	1	132.38	1	0.0	5	996.85	1	40.624723	17.975036
171	2024-01-08 02:00:00	7	brindisi_sisri	7.98	1	97.94	1	0.0	1	1.48	1	164.55	1	0.0	5	997.14	1	40.624723	17.975036
172	2024-01-08 03:00:00	7	brindisi_sisri	7.54	1	98.56	1	0.0	1	1.64	1	158.38	1	0.0	5	997.17	1	40.624723	17.975036
173	2024-01-08 04:00:00	7	brindisi_sisri	7.4	1	98.95	1	0.0	1	1.28	1	167.31	1	0.0	5	997.16	1	40.624723	17.975036
174	2024-01-08 05:00:00	7	brindisi_sisri	7.03	1	99.01	1	0.0	1	1.38	1	145.92	1	0.0	5	997.32	1	40.624723	17.975036
175	2024-01-08 06:00:00	7	brindisi_sisri	6.53	1	99.02	1	0.0	1	1.46	1	144.31	1	0.0	5	997.71	1	40.624723	17.975036
176	2024-01-08 07:00:00	7	brindisi_sisri	6.2	1	null	3	0.0	1	1.91	1	145.84	1	0.0	5	998.16	1	40.624723	17.975036
177	2024-01-08 08:00:00	7	brindisi_sisri	6.97	1	99.02	1	0.0	1	2.45	1	145.16	1	20.56	1	998.89	1	40.624723	17.975036
178	2024-01-08 09:00:00	7	brindisi_sisri	8.25	1	98.72	1	0.0	1	2.56	1	140.72	1	77.41	1	999.42	1	40.624723	17.975036
179	2024-01-08 10:00:00	7	brindisi_sisri	10.03	1	95.39	1	0.0	1	4.24	1	138.13	1	132.48	1	1000.06	1	40.624723	17.975036
180	2024-01-08 11:00:00	7	brindisi_sisri	10.07	1	87.5	1	1.4	1	4.57	1	134.95	1	75.22	1	1000.17	1	40.624723	17.975036
181	2024-01-08 12:00:00	7	brindisi_sisri	11.43	1	86.78	1	0.0	1	2.38	1	143.33	1	200.73	1	999.8	1	40.624723	17.975036
182	2024-01-08 13:00:00	7	brindisi_sisri	13.01	1	77.02	1	0.0	1	2.85	1	178.84	1	190.85	1	999.41	1	40.624723	17.975036
183	2024-01-08 14:00:00	7	brindisi_sisri	13.51	1	71.97	1	0.0	1	2.67	1	177.42	1	105.92	1	999.3	1	40.624723	17.975036
184	2024-01-08 15:00:00	7	brindisi_sisri	11.16	1	78.51	1	1.4	1	4.05	1	123.8	1	22.56	1	1000.02	1	40.624723	17.975036
185	2024-01-08 16:00:00	7	brindisi_sisri	8.57	1	89.26	1	1.2	1	2.08	1	88.43	1	5.58	1	1000.35	1	40.624723	17.975036
186	2024-01-08 17:00:00	7	brindisi_sisri	8.84	1	92.47	1	0.2	1	0.89	1	92.21	1	0.0	5	1000.63	1	40.624723	17.975036
187	2024-01-08 18:00:00	7	brindisi_sisri	8.59	1	94.37	1	0.0	1	0.75	1	133.48	1	0.0	5	1000.83	1	40.624723	17.975036
188	2024-01-08 19:00:00	7	brindisi_sisri	8.42	1	95.48	1	0.0	1	1.44	1	41.43	1	0.0	5	1001.31	1	40.624723	17.975036
189	2024-01-08 20:00:00	7	brindisi_sisri	9.98	1	89.87	1	0.0	1	2.72	1	28.34	1	0.0	5	1001.73	1	40.624723	17.975036
190	2024-01-08 21:00:00	7	brindisi_sisri	11.03	1	83.62	1	0.0	1	3.38	1	35.96	1	0.0	5	1002.33	1	40.624723	17.975036
191	2024-01-08 22:00:00	7	brindisi_sisri	11.32	1	81.14	1	0.0	1	2.59	1	37.07	1	0.0	5	1002.68	1	40.624723	17.975036
192	2024-01-08 23:00:00	7	brindisi_sisri	11.43	1	82.59	1	0.0	1	4.15	1	93.83	1	0.0	5	1003.22	1	40.624723	17.975036
193	2024-01-09 00:00:00	7	brindisi_sisri	10.73	1	81.54	1	0.0	1	3.46	1	128.62	1	0.0	5	1003.9	1	40.624723	17.975036
194	2024-01-09 01:00:00	7	brindisi_sisri	10.05	1	80.85	1	0.0	1	1.57	1	239.65	1	0.0	5	1004.15	1	40.624723	17.975036
195	2024-01-09 02:00:00	7	brindisi_sisri	8.22	1	88.39	1	0.2	1	1.02	1	205.39	1	0.0	5	1004.39	1	40.624723	17.975036
196	2024-01-09 03:00:00	7	brindisi_sisri	7.99	1	93.28	1	0.6	1	1.42	1	271.65	1	0.0	5	1004.91	1	40.624723	17.975036
197	2024-01-09 04:00:00	7	brindisi_sisri	8.25	1	95.61	1	0.6	1	1.24	1	259.34	1	0.0	5	1005.2	1	40.624723	17.975036
198	2024-01-09 05:00:00	7	brindisi_sisri	8.84	1	96.59	1	0.0	1	1.29	1	347.92	1	0.0	5	1005.37	1	40.624723	17.975036
199	2024-01-09 06:00:00	7	brindisi_sisri	10.14	1	86.42	1	0.0	1	3.66	1	353.83	1	0.0	5	1005.87	1	40.624723	17.975036
200	2024-01-09 07:00:00	7	brindisi_sisri	10.41	1	77.8	1	0.0	1	4.2	1	358.1	1	0.0	5	1006.59	1	40.624723	17.975036
201	2024-01-09 08:00:00	7	brindisi_sisri	10.52	1	74.64	1	0.0	1	4.93	1	355.46	1	45.87	1	1007.54	1	40.624723	17.975036
202	2024-01-09 09:00:00	7	brindisi_sisri	11.09	1	71.26	1	0.0	1	6.29	1	347.23	1	180.17	1	1008.69	1	40.624723	17.975036
203	2024-01-09 10:00:00	7	brindisi_sisri	11.4	1	66.74	1	0.0	1	6.77	1	358.76	1	345.24	1	1009.51	1	40.624723	17.975036
204	2024-01-09 11:00:00	7	brindisi_sisri	11.59	1	66.11	1	0.0	1	6.43	1	357.2	1	443.23	1	1010.24	1	40.624723	17.975036
205	2024-01-09 12:00:00	7	brindisi_sisri	12.03	1	64.1	1	0.0	1	6.17	1	356.97	1	276.5	1	1010.8	1	40.624723	17.975036
206	2024-01-09 13:00:00	7	brindisi_sisri	11.91	1	63.48	1	0.0	1	5.86	1	347.49	1	178.82	1	1011.02	1	40.624723	17.975036
207	2024-01-09 14:00:00	7	brindisi_sisri	11.92	1	61.81	1	0.0	1	5.81	1	339.53	1	106.44	1	1011.25	1	40.624723	17.975036
208	2024-01-09 15:00:00	7	brindisi_sisri	11.45	1	62.11	1	0.0	1	5.98	1	339.77	1	103.74	1	1011.91	1	40.624723	17.975036
209	2024-01-09 16:00:00	7	brindisi_sisri	11.27	1	61.56	1	0.0	1	5.97	1	323.96	1	63.6	1	1012.49	1	40.624723	17.975036
210	2024-01-09 17:00:00	7	brindisi_sisri	10.76	1	62.38	1	0.0	1	5.67	1	325.12	1	10.28	1	1013.04	1	40.624723	17.975036
211	2024-01-09 18:00:00	7	brindisi_sisri	10.73	1	62.9	1	0.0	1	6.15	1	328.91	1	0.0	5	1013.66	1	40.624723	17.975036
212	2024-01-09 19:00:00	7	brindisi_sisri	11.0	1	63.87	1	0.0	1	6.03	1	314.83	1	0.0	5	1014.24	1	40.624723	17.975036
213	2024-01-09 20:00:00	7	brindisi_sisri	10.84	1	63.45	1	0.0	1	5.71	1	317.03	1	0.0	5	1014.88	1	40.624723	17.975036
214	2024-01-09 21:00:00	7	brindisi_sisri	11.0	1	62.25	1	0.0	1	5.39	1	317.39	1	0.0	5	1015.53	1	40.624723	17.975036
215	2024-01-09 22:00:00	7	brindisi_sisri	11.06	1	60.73	1	0.0	1	5.11	1	321.96	1	0.0	5	1016.02	1	40.624723	17.975036
216	2024-01-09 23:00:00	7	brindisi_sisri	10.98	1	64.2	1	0.0	1	4.3	1	339.83	1	0.0	5	1016.38	1	40.624723	17.975036
217	2024-01-10 00:00:00	7	brindisi_sisri	10.64	1	66.72	1	0.0	1	3.46	1	346.75	1	0.0	5	1016.69	1	40.624723	17.975036
218	2024-01-10 01:00:00	7	brindisi_sisri	10.41	1	66.24	1	0.0	1	3.33	1	353.92	1	0.0	5	1016.76	1	40.624723	17.975036
219	2024-01-10 02:00:00	7	brindisi_sisri	9.96	1	66.72	1	0.0	1	2.9	1	357.16	1	0.0	5	1017.14	1	40.624723	17.975036
220	2024-01-10 03:00:00	7	brindisi_sisri	9.46	1	67.95	1	0.0	1	2.92	1	5.59	1	0.0	5	1017.6	1	40.624723	17.975036
221	2024-01-10 04:00:00	7	brindisi_sisri	9.73	1	67.64	1	0.0	1	2.31	1	2.92	1	0.0	5	1017.86	1	40.624723	17.975036
222	2024-01-10 05:00:00	7	brindisi_sisri	9.67	1	69.06	1	0.0	1	1.27	1	null	3	0.0	5	1017.96	1	40.624723	17.975036
223	2024-01-10 06:00:00	7	brindisi_sisri	9.26	1	76.28	1	0.0	1	1.0	1	231.43	1	0.0	5	1018.34	1	40.624723	17.975036
224	2024-01-10 07:00:00	7	brindisi_sisri	8.85	1	82.21	1	0.0	1	1.56	1	249.82	1	0.0	5	1018.79	1	40.624723	17.975036
225	2024-01-10 08:00:00	7	brindisi_sisri	9.04	1	82.75	1	0.0	1	1.83	1	250.89	1	41.9	1	1019.39	1	40.624723	17.975036
226	2024-01-10 09:00:00	7	brindisi_sisri	10.01	1	79.02	1	0.0	1	1.91	1	253.82	1	128.45	1	1019.86	1	40.624723	17.975036
227	2024-01-10 10:00:00	7	brindisi_sisri	10.77	1	78.25	1	0.0	1	2.05	1	253.72	1	164.09	1	1020.48	1	40.624723	17.975036
228	2024-01-10 11:00:00	7	brindisi_sisri	11.17	1	73.67	1	0.0	1	2.26	1	318.58	1	236.77	1	1020.62	1	40.624723	17.975036
229	2024-01-10 12:00:00	7	brindisi_sisri	11.52	1	65.45	1	0.0	1	2.62	1	318.5	1	219.2	1	1020.36	1	40.624723	17.975036
230	2024-01-10 13:00:00	7	brindisi_sisri	11.43	1	66.06	1	0.0	1	2.24	1	305.35	1	135.12	1	1020.03	1	40.624723	17.975036
231	2024-01-10 14:00:00	7	brindisi_sisri	11.05	1	76.34	1	0.0	1	2.45	1	275.2	1	89.52	1	1019.78	1	40.624723	17.975036
232	2024-01-10 15:00:00	7	brindisi_sisri	10.73	1	77.18	1	0.0	1	2.32	1	290.74	1	55.52	1	1019.72	1	40.624723	17.975036
233	2024-01-10 16:00:00	7	brindisi_sisri	10.6	1	77.2	1	0.0	1	1.66	1	282.81	1	20.89	1	1019.9	1	40.624723	17.975036
234	2024-01-10 17:00:00	7	brindisi_sisri	10.02	1	83.07	1	0.0	1	1.29	1	250.59	1	0.0	5	1020.03	1	40.624723	17.975036
235	2024-01-10 18:00:00	7	brindisi_sisri	9.72	1	85.6	1	0.0	1	1.1	1	266.59	1	0.0	5	1020.34	1	40.624723	17.975036
236	2024-01-10 19:00:00	7	brindisi_sisri	9.45	1	88.69	1	0.0	1	0.84	1	252.19	1	0.0	5	1020.4	1	40.624723	17.975036
237	2024-01-10 20:00:00	7	brindisi_sisri	8.97	1	91.77	1	0.0	1	0.48	1	207.76	1	0.0	5	1020.05	1	40.624723	17.975036
238	2024-01-10 21:00:00	7	brindisi_sisri	7.99	1	93.98	1	0.0	1	0.85	1	223.73	1	0.0	5	1020.05	1	40.624723	17.975036
239	2024-01-10 22:00:00	7	brindisi_sisri	8.37	1	94.49	1	0.0	1	1.77	1	230.02	1	0.0	5	1020.37	1	40.624723	17.975036
240	2024-01-10 23:00:00	7	brindisi_sisri	8.73	1	90.82	1	0.0	1	0.99	1	262.12	1	0.0	5	1020.06	1	40.624723	17.975036
241	2024-01-11 00:00:00	7	brindisi_sisri	8.96	1	85.81	1	0.0	1	1.26	1	9.34	1	0.0	5	1019.69	1	40.624723	17.975036
242	2024-01-11 01:00:00	7	brindisi_sisri	10.01	1	72.19	1	0.0	1	2.72	1	17.24	1	0.0	5	1019.26	1	40.624723	17.975036
243	2024-01-11 02:00:00	7	brindisi_sisri	10.2	1	69.51	1	0.0	1	2.9	1	20.23	1	0.0	5	1018.84	1	40.624723	17.975036
244	2024-01-11 03:00:00	7	brindisi_sisri	10.12	1	69.93	1	0.0	1	2.23	1	18.87	1	0.0	5	1018.65	1	40.624723	17.975036
245	2024-01-11 04:00:00	7	brindisi_sisri	9.74	1	70.07	1	0.0	1	1.44	1	8.79	1	0.0	5	1018.39	1	40.624723	17.975036
246	2024-01-11 05:00:00	7	brindisi_sisri	9.8	1	72.11	1	0.0	1	1.84	1	4.71	1	0.0	5	1018.02	1	40.624723	17.975036
247	2024-01-11 06:00:00	7	brindisi_sisri	9.95	1	72.59	1	0.0	1	2.01	1	3.73	1	0.0	5	1017.58	1	40.624723	17.975036
248	2024-01-11 07:00:00	7	brindisi_sisri	10.04	1	71.38	1	0.0	1	2.02	1	356.46	1	0.0	5	1017.68	1	40.624723	17.975036
249	2024-01-11 08:00:00	7	brindisi_sisri	10.23	1	71.03	1	0.0	1	2.24	1	354.95	1	20.1	1	1017.69	1	40.624723	17.975036
250	2024-01-11 09:00:00	7	brindisi_sisri	10.94	1	69.97	1	0.0	1	2.5	1	0.28	1	94.08	1	1017.74	1	40.624723	17.975036
251	2024-01-11 10:00:00	7	brindisi_sisri	11.7	1	66.81	1	0.0	1	2.55	1	2.72	1	212.68	1	1017.63	1	40.624723	17.975036
252	2024-01-11 11:00:00	7	brindisi_sisri	12.35	1	62.36	1	0.0	1	3.37	1	17.19	1	275.98	1	1017.14	1	40.624723	17.975036
253	2024-01-11 12:00:00	7	brindisi_sisri	12.49	1	65.85	1	0.0	1	4.12	1	20.03	1	265.71	1	1016.35	1	40.624723	17.975036
254	2024-01-11 13:00:00	7	brindisi_sisri	11.74	1	64.48	1	0.0	1	3.69	1	18.46	1	148.47	1	1015.67	1	40.624723	17.975036
255	2024-01-11 14:00:00	7	brindisi_sisri	11.44	1	66.24	1	0.0	1	3.0	1	29.18	1	99.49	1	1015.03	1	40.624723	17.975036
256	2024-01-11 15:00:00	7	brindisi_sisri	11.58	1	64.89	1	0.0	1	3.16	1	22.41	1	140.01	1	1014.5	1	40.624723	17.975036
257	2024-01-11 16:00:00	7	brindisi_sisri	11.15	1	64.72	1	0.0	1	3.05	1	22.47	1	42.76	1	1014.24	1	40.624723	17.975036
258	2024-01-11 17:00:00	7	brindisi_sisri	10.12	1	69.08	1	0.0	1	2.15	1	13.04	1	10.0	1	1014.22	1	40.624723	17.975036
259	2024-01-11 18:00:00	7	brindisi_sisri	9.72	1	70.89	1	0.0	1	2.48	1	359.62	1	0.0	5	1014.1	1	40.624723	17.975036
260	2024-01-11 19:00:00	7	brindisi_sisri	9.8	1	68.94	1	0.0	1	2.93	1	0.3	1	0.0	5	1013.83	1	40.624723	17.975036
261	2024-01-11 20:00:00	7	brindisi_sisri	9.71	1	67.96	1	0.0	1	2.49	1	358.27	1	0.0	5	1013.49	1	40.624723	17.975036
262	2024-01-11 21:00:00	7	brindisi_sisri	9.51	1	68.62	1	0.0	1	2.15	1	354.98	1	0.0	5	1013.2	1	40.624723	17.975036
263	2024-01-11 22:00:00	7	brindisi_sisri	9.77	1	68.39	1	0.0	1	2.62	1	340.25	1	0.0	5	1013.31	1	40.624723	17.975036
264	2024-01-11 23:00:00	7	brindisi_sisri	10.07	1	68.89	1	0.0	1	2.84	1	339.34	1	0.0	5	1013.18	1	40.624723	17.975036
265	2024-01-12 00:00:00	7	brindisi_sisri	10.06	1	70.71	1	0.0	1	2.29	1	324.84	1	0.0	5	1012.84	1	40.624723	17.975036
266	2024-01-12 01:00:00	7	brindisi_sisri	10.18	1	68.45	1	0.0	1	3.0	1	321.78	1	0.0	5	1012.21	1	40.624723	17.975036
267	2024-01-12 02:00:00	7	brindisi_sisri	9.62	1	70.06	1	0.0	1	2.42	1	317.12	1	0.0	5	1011.69	1	40.624723	17.975036
268	2024-01-12 03:00:00	7	brindisi_sisri	7.96	1	82.48	1	0.0	1	1.68	1	245.2	1	0.0	5	1011.45	1	40.624723	17.975036
269	2024-01-12 04:00:00	7	brindisi_sisri	9.45	1	86.67	1	0.0	1	2.15	1	266.73	1	0.0	5	1010.86	1	40.624723	17.975036
270	2024-01-12 05:00:00	7	brindisi_sisri	11.08	1	68.33	1	0.0	1	5.96	1	335.05	1	0.0	5	1010.42	1	40.624723	17.975036
271	2024-01-12 06:00:00	7	brindisi_sisri	11.25	1	66.08	1	0.0	1	5.82	1	331.71	1	0.0	5	1010.25	1	40.624723	17.975036
272	2024-01-12 07:00:00	7	brindisi_sisri	11.28	1	62.68	1	0.0	1	6.12	1	318.15	1	0.0	5	1010.42	1	40.624723	17.975036
273	2024-01-12 08:00:00	7	brindisi_sisri	11.41	1	64.64	1	0.0	1	5.6	1	321.13	1	20.85	1	1010.31	1	40.624723	17.975036
274	2024-01-12 09:00:00	7	brindisi_sisri	11.51	1	63.51	1	0.0	1	6.27	1	317.03	1	38.8	1	1010.57	1	40.624723	17.975036
275	2024-01-12 10:00:00	7	brindisi_sisri	11.66	1	60.22	1	0.0	1	6.97	1	321.42	1	241.56	1	1010.98	1	40.624723	17.975036
276	2024-01-12 11:00:00	7	brindisi_sisri	11.95	1	48.75	1	0.0	1	6.97	1	321.32	1	478.12	1	1011.4	1	40.624723	17.975036
277	2024-01-12 12:00:00	7	brindisi_sisri	12.35	1	44.64	1	0.0	1	6.18	1	320.38	1	269.83	1	1011.22	1	40.624723	17.975036
278	2024-01-12 13:00:00	7	brindisi_sisri	11.72	1	51.85	1	0.0	1	6.42	1	348.16	1	141.25	1	1010.83	1	40.624723	17.975036
279	2024-01-12 14:00:00	7	brindisi_sisri	11.75	1	42.51	1	0.0	1	6.02	1	339.86	1	78.36	1	1010.65	1	40.624723	17.975036
280	2024-01-12 15:00:00	7	brindisi_sisri	11.51	1	44.33	1	0.0	1	6.64	1	331.42	1	53.81	1	1010.81	1	40.624723	17.975036
281	2024-01-12 16:00:00	7	brindisi_sisri	11.0	1	48.34	1	0.0	1	5.71	1	333.44	1	45.3	1	1011.09	1	40.624723	17.975036
282	2024-01-12 17:00:00	7	brindisi_sisri	10.47	1	53.08	1	0.0	1	5.27	1	335.69	1	11.56	1	1011.33	1	40.624723	17.975036
283	2024-01-12 18:00:00	7	brindisi_sisri	10.26	1	52.38	1	0.0	1	5.48	1	336.31	1	0.0	5	1011.68	1	40.624723	17.975036
284	2024-01-12 19:00:00	7	brindisi_sisri	10.05	1	54.04	1	0.0	1	4.16	1	332.03	1	0.0	5	1012.03	1	40.624723	17.975036
285	2024-01-12 20:00:00	7	brindisi_sisri	10.52	1	52.45	1	0.0	1	5.71	1	315.05	1	0.0	5	1012.17	1	40.624723	17.975036
286	2024-01-12 21:00:00	7	brindisi_sisri	10.33	1	49.34	1	0.0	1	6.58	1	311.67	1	0.0	5	1012.52	1	40.624723	17.975036
287	2024-01-12 22:00:00	7	brindisi_sisri	10.12	1	52.9	1	0.0	1	4.96	1	341.73	1	0.0	5	1013.13	1	40.624723	17.975036
288	2024-01-12 23:00:00	7	brindisi_sisri	9.69	1	53.1	1	0.0	1	3.86	1	347.07	1	0.0	5	1013.45	1	40.624723	17.975036
289	2024-01-13 00:00:00	7	brindisi_sisri	9.04	1	54.03	1	0.0	1	3.99	1	341.26	1	0.0	5	1013.47	1	40.624723	17.975036
290	2024-01-13 01:00:00	7	brindisi_sisri	8.65	1	54.91	1	0.0	1	3.92	1	340.98	1	0.0	5	1013.45	1	40.624723	17.975036
291	2024-01-13 02:00:00	7	brindisi_sisri	8.71	1	54.37	1	0.0	1	4.21	1	340.31	1	0.0	5	1013.72	1	40.624723	17.975036
292	2024-01-13 03:00:00	7	brindisi_sisri	8.67	1	54.51	1	0.0	1	3.96	1	333.94	1	0.0	5	1013.89	1	40.624723	17.975036
293	2024-01-13 04:00:00	7	brindisi_sisri	8.65	1	56.05	1	0.0	1	4.7	1	343.39	1	0.0	5	1013.61	1	40.624723	17.975036
294	2024-01-13 05:00:00	7	brindisi_sisri	8.31	1	56.07	1	0.0	1	4.69	1	335.48	1	0.0	5	1013.73	1	40.624723	17.975036
295	2024-01-13 06:00:00	7	brindisi_sisri	8.08	1	56.72	1	0.0	1	4.85	1	336.29	1	0.0	5	1014.08	1	40.624723	17.975036
296	2024-01-13 07:00:00	7	brindisi_sisri	8.16	1	55.81	1	0.0	1	4.77	1	335.41	1	0.0	5	1014.43	1	40.624723	17.975036
297	2024-01-13 08:00:00	7	brindisi_sisri	8.19	1	57.28	1	0.0	1	3.36	1	330.77	1	38.74	1	1014.77	1	40.624723	17.975036
298	2024-01-13 09:00:00	7	brindisi_sisri	8.71	1	57.07	1	0.0	1	4.52	1	334.72	1	91.5	1	1015.69	1	40.624723	17.975036
299	2024-01-13 10:00:00	7	brindisi_sisri	9.31	1	56.73	1	0.0	1	4.44	1	338.64	1	287.29	1	1016.1	1	40.624723	17.975036
300	2024-01-13 11:00:00	7	brindisi_sisri	9.71	1	56.58	1	0.0	1	4.3	1	328.51	1	314.34	1	1016.35	1	40.624723	17.975036
301	2024-01-13 12:00:00	7	brindisi_sisri	9.77	1	58.35	1	0.0	1	4.37	1	317.85	1	189.33	1	1016.14	1	40.624723	17.975036
302	2024-01-13 13:00:00	7	brindisi_sisri	10.08	1	51.13	1	0.0	1	5.69	1	305.59	1	175.18	1	1015.76	1	40.624723	17.975036
303	2024-01-13 14:00:00	7	brindisi_sisri	10.13	1	48.24	1	0.0	1	5.34	1	302.91	1	93.55	1	1015.44	1	40.624723	17.975036
304	2024-01-13 15:00:00	7	brindisi_sisri	9.92	1	53.44	1	0.0	1	4.88	1	312.48	1	100.26	1	1015.3	1	40.624723	17.975036
305	2024-01-13 16:00:00	7	brindisi_sisri	9.95	1	54.25	1	0.0	1	4.2	1	292.73	1	59.87	1	1015.22	1	40.624723	17.975036
306	2024-01-13 17:00:00	7	brindisi_sisri	9.21	1	55.11	1	0.0	1	3.89	1	296.73	1	15.67	1	1015.27	1	40.624723	17.975036
307	2024-01-13 18:00:00	7	brindisi_sisri	8.87	1	58.0	1	0.0	1	3.99	1	298.88	1	0.0	5	1015.34	1	40.624723	17.975036
308	2024-01-13 19:00:00	7	brindisi_sisri	9.18	1	58.42	1	0.0	1	4.55	1	307.04	1	0.0	5	1015.41	1	40.624723	17.975036
309	2024-01-13 20:00:00	7	brindisi_sisri	7.25	1	68.11	1	0.0	1	2.17	1	210.27	1	0.0	5	1015.31	1	40.624723	17.975036
310	2024-01-13 21:00:00	7	brindisi_sisri	5.5	1	78.35	1	0.0	1	2.25	1	202.42	1	0.0	5	1015.23	1	40.624723	17.975036
311	2024-01-13 22:00:00	7	brindisi_sisri	5.11	1	82.13	1	0.0	1	2.98	1	220.21	1	0.0	5	1015.26	1	40.624723	17.975036
312	2024-01-13 23:00:00	7	brindisi_sisri	5.26	1	81.59	1	0.0	1	2.87	1	231.26	1	0.0	5	1015.17	1	40.624723	17.975036
313	2024-01-14 00:00:00	7	brindisi_sisri	5.09	1	81.99	1	0.0	1	2.35	1	228.41	1	0.0	5	1015.07	1	40.624723	17.975036
314	2024-01-14 01:00:00	7	brindisi_sisri	3.91	1	85.95	1	0.0	1	3.48	1	219.33	1	0.0	5	1014.74	1	40.624723	17.975036
315	2024-01-14 02:00:00	7	brindisi_sisri	4.74	1	83.67	1	0.0	1	2.44	1	221.03	1	0.0	5	1014.5	1	40.624723	17.975036
316	2024-01-14 03:00:00	7	brindisi_sisri	3.88	1	83.72	1	0.0	1	2.43	1	219.27	1	0.0	5	1014.07	1	40.624723	17.975036
317	2024-01-14 04:00:00	7	brindisi_sisri	3.04	1	86.38	1	0.0	1	2.36	1	219.73	1	0.0	5	1013.61	1	40.624723	17.975036
318	2024-01-14 05:00:00	7	brindisi_sisri	2.71	1	87.07	1	0.0	1	3.11	1	216.96	1	0.0	5	1013.27	1	40.624723	17.975036
319	2024-01-14 06:00:00	7	brindisi_sisri	2.57	1	84.84	1	0.0	1	2.62	1	215.01	1	0.0	5	1013.25	1	40.624723	17.975036
320	2024-01-14 07:00:00	7	brindisi_sisri	1.77	1	86.21	1	0.0	1	2.19	1	213.29	1	0.0	5	1013.29	1	40.624723	17.975036
321	2024-01-14 08:00:00	7	brindisi_sisri	1.55	1	87.19	1	0.0	1	1.71	1	207.17	1	42.8	1	1013.27	1	40.624723	17.975036
322	2024-01-14 09:00:00	7	brindisi_sisri	5.12	1	79.78	1	0.0	1	1.49	1	202.88	1	210.66	1	1013.45	1	40.624723	17.975036
323	2024-01-14 10:00:00	7	brindisi_sisri	8.53	1	66.75	1	0.0	1	1.4	1	213.7	1	371.89	1	1013.58	1	40.624723	17.975036
324	2024-01-14 11:00:00	7	brindisi_sisri	10.6	1	56.53	1	0.0	1	1.95	1	201.75	1	492.45	1	1013.57	1	40.624723	17.975036
325	2024-01-14 12:00:00	7	brindisi_sisri	12.48	1	43.59	1	0.0	1	2.59	1	198.03	1	233.29	1	1012.94	1	40.624723	17.975036
326	2024-01-14 13:00:00	7	brindisi_sisri	12.8	1	39.02	1	0.0	1	2.93	1	201.01	1	161.22	1	1012.09	1	40.624723	17.975036
327	2024-01-14 14:00:00	7	brindisi_sisri	13.41	1	38.31	1	0.0	1	3.97	1	190.55	1	166.42	1	1011.19	1	40.624723	17.975036
328	2024-01-14 15:00:00	7	brindisi_sisri	12.66	1	44.52	1	0.0	1	3.72	1	190.29	1	128.11	1	1010.86	1	40.624723	17.975036
329	2024-01-14 16:00:00	7	brindisi_sisri	12.22	1	54.86	1	0.0	1	2.95	1	173.15	1	69.49	1	1010.58	1	40.624723	17.975036
330	2024-01-14 17:00:00	7	brindisi_sisri	10.83	1	68.28	1	0.0	1	2.56	1	164.67	1	9.5	1	1010.43	1	40.624723	17.975036
331	2024-01-14 18:00:00	7	brindisi_sisri	10.09	1	75.24	1	0.0	1	2.74	1	165.84	1	0.0	5	1010.08	1	40.624723	17.975036
332	2024-01-14 19:00:00	7	brindisi_sisri	9.67	1	75.38	1	0.0	1	2.81	1	158.34	1	0.0	5	1009.74	1	40.624723	17.975036
333	2024-01-14 20:00:00	7	brindisi_sisri	9.64	1	71.65	1	0.0	1	2.28	1	129.11	1	0.0	5	1009.37	1	40.624723	17.975036
334	2024-01-14 21:00:00	7	brindisi_sisri	9.48	1	70.2	1	0.0	1	3.18	1	161.62	1	0.0	5	1009.09	1	40.624723	17.975036
335	2024-01-14 22:00:00	7	brindisi_sisri	9.4	1	71.19	1	0.0	1	2.87	1	173.66	1	0.0	5	1008.8	1	40.624723	17.975036
336	2024-01-14 23:00:00	7	brindisi_sisri	8.54	1	77.8	1	0.0	1	2.39	1	163.53	1	0.0	5	1008.1	1	40.624723	17.975036
337	2024-01-15 00:00:00	7	brindisi_sisri	7.71	1	85.77	1	0.0	1	2.18	1	168.97	1	0.0	5	1007.67	1	40.624723	17.975036
338	2024-01-15 01:00:00	7	brindisi_sisri	7.83	1	87.98	1	0.0	1	1.98	1	162.04	1	0.0	5	1007.13	1	40.624723	17.975036
339	2024-01-15 02:00:00	7	brindisi_sisri	8.06	1	89.65	1	0.0	1	2.33	1	168.52	1	0.0	5	1006.46	1	40.624723	17.975036
340	2024-01-15 03:00:00	7	brindisi_sisri	8.23	1	89.33	1	0.0	1	1.79	1	153.24	1	0.0	5	1005.67	1	40.624723	17.975036
341	2024-01-15 04:00:00	7	brindisi_sisri	9.29	1	90.18	1	0.0	1	2.74	1	156.33	1	0.0	5	1004.86	1	40.624723	17.975036
342	2024-01-15 05:00:00	7	brindisi_sisri	10.3	1	90.39	1	0.0	1	3.78	1	157.71	1	0.0	5	1003.94	1	40.624723	17.975036
343	2024-01-15 06:00:00	7	brindisi_sisri	10.51	1	92.56	1	0.0	1	3.47	1	158.18	1	0.0	5	1003.31	1	40.624723	17.975036
344	2024-01-15 07:00:00	7	brindisi_sisri	10.41	1	94.11	1	0.0	1	2.51	1	152.8	1	0.0	5	1002.88	1	40.624723	17.975036
345	2024-01-15 08:00:00	7	brindisi_sisri	10.53	1	95.34	1	0.0	1	2.32	1	146.2	1	16.66	1	1002.26	1	40.624723	17.975036
346	2024-01-15 09:00:00	7	brindisi_sisri	11.34	1	95.36	1	0.0	1	3.57	1	152.44	1	62.17	1	1001.84	1	40.624723	17.975036
347	2024-01-15 10:00:00	7	brindisi_sisri	12.49	1	90.81	1	0.0	1	4.22	1	157.96	1	83.42	1	1001.59	1	40.624723	17.975036
348	2024-01-15 11:00:00	7	brindisi_sisri	13.39	1	82.52	1	0.0	1	5.48	1	160.13	1	73.99	1	1001.12	1	40.624723	17.975036
349	2024-01-15 12:00:00	7	brindisi_sisri	13.32	1	83.27	1	1.0	1	4.5	1	161.44	1	60.55	1	1000.14	1	40.624723	17.975036
350	2024-01-15 13:00:00	7	brindisi_sisri	12.73	1	91.71	1	1.2	1	3.39	1	157.19	1	52.02	1	999.55	1	40.624723	17.975036
351	2024-01-15 14:00:00	7	brindisi_sisri	12.38	1	92.8	1	0.2	1	4.62	1	157.85	1	90.59	1	998.63	1	40.624723	17.975036
352	2024-01-15 15:00:00	7	brindisi_sisri	12.97	1	88.22	1	0.0	1	5.01	1	159.61	1	74.78	1	997.92	1	40.624723	17.975036
353	2024-01-15 16:00:00	7	brindisi_sisri	13.09	1	87.32	1	0.0	1	4.15	1	164.98	1	63.49	1	997.77	1	40.624723	17.975036
354	2024-01-15 17:00:00	7	brindisi_sisri	12.63	1	87.91	1	0.0	1	3.74	1	166.64	1	13.55	1	997.57	1	40.624723	17.975036
355	2024-01-15 18:00:00	7	brindisi_sisri	12.3	1	89.49	1	0.0	1	3.48	1	172.18	1	0.0	5	997.78	1	40.624723	17.975036
356	2024-01-15 19:00:00	7	brindisi_sisri	11.6	1	91.44	1	0.0	1	2.09	1	173.7	1	0.0	5	997.97	1	40.624723	17.975036
357	2024-01-15 20:00:00	7	brindisi_sisri	11.5	1	93.36	1	0.0	1	2.08	2	177.92	1	0.0	5	998.12	1	40.624723	17.975036
358	2024-01-15 21:00:00	7	brindisi_sisri	10.94	1	94.17	1	0.0	1	2.09	1	175.53	1	0.0	5	998.21	1	40.624723	17.975036
359	2024-01-15 22:00:00	7	brindisi_sisri	10.81	1	94.89	1	0.0	1	2.55	1	190.06	1	0.0	5	998.34	1	40.624723	17.975036
360	2024-01-15 23:00:00	7	brindisi_sisri	10.98	1	94.88	1	0.0	1	2.13	1	190.38	1	0.0	5	998.41	1	40.624723	17.975036
361	2024-01-16 00:00:00	7	brindisi_sisri	10.29	1	94.63	1	0.0	1	2.45	1	199.87	1	0.0	5	998.55	1	40.624723	17.975036
362	2024-01-16 01:00:00	7	brindisi_sisri	10.17	1	91.49	1	0.0	1	3.1	1	211.83	1	0.0	5	998.94	1	40.624723	17.975036
363	2024-01-16 02:00:00	7	brindisi_sisri	9.6	1	88.92	1	0.0	1	2.77	1	215.56	1	0.0	5	999.49	1	40.624723	17.975036
364	2024-01-16 03:00:00	7	brindisi_sisri	9.39	1	84.7	1	0.0	1	2.68	1	215.83	1	0.0	5	999.93	1	40.624723	17.975036
365	2024-01-16 04:00:00	7	brindisi_sisri	9.48	1	84.67	1	0.0	1	2.82	1	227.78	1	0.0	5	1000.19	1	40.624723	17.975036
366	2024-01-16 05:00:00	7	brindisi_sisri	10.08	1	79.58	1	0.0	1	2.44	1	230.78	1	0.0	5	1000.46	1	40.624723	17.975036
367	2024-01-16 06:00:00	7	brindisi_sisri	9.79	1	76.84	1	0.0	1	2.21	1	227.54	1	0.0	5	1001.15	1	40.624723	17.975036
368	2024-01-16 07:00:00	7	brindisi_sisri	8.37	1	83.74	1	0.0	1	2.05	1	227.14	1	0.0	5	1001.92	1	40.624723	17.975036
369	2024-01-16 08:00:00	7	brindisi_sisri	8.19	1	87.15	1	0.0	1	1.85	1	221.7	1	37.3	1	1002.64	1	40.624723	17.975036
370	2024-01-16 09:00:00	7	brindisi_sisri	12.45	1	74.44	1	0.0	1	1.93	1	233.83	1	195.29	1	1003.54	1	40.624723	17.975036
371	2024-01-16 10:00:00	7	brindisi_sisri	15.16	1	64.1	1	0.0	1	2.11	1	212.39	1	353.9	1	1004.61	1	40.624723	17.975036
372	2024-01-16 11:00:00	7	brindisi_sisri	14.98	1	62.5	1	0.0	1	2.88	1	269.24	1	472.32	1	1005.3	1	40.624723	17.975036
373	2024-01-16 12:00:00	7	brindisi_sisri	15.55	1	59.52	1	0.0	1	3.53	1	277.65	1	233.0	1	1005.37	1	40.624723	17.975036
374	2024-01-16 13:00:00	7	brindisi_sisri	15.7	1	60.54	1	0.0	1	3.02	1	297.26	1	114.84	1	1005.23	1	40.624723	17.975036
375	2024-01-16 14:00:00	7	brindisi_sisri	15.44	1	65.93	1	0.0	1	3.07	1	317.3	1	76.78	1	1005.21	1	40.624723	17.975036
376	2024-01-16 15:00:00	7	brindisi_sisri	14.92	1	73.64	1	0.0	1	2.56	1	344.51	1	56.68	1	1005.63	1	40.624723	17.975036
377	2024-01-16 16:00:00	7	brindisi_sisri	14.63	1	76.44	1	0.0	1	2.34	1	8.43	1	48.94	1	1006.02	1	40.624723	17.975036
378	2024-01-16 17:00:00	7	brindisi_sisri	13.53	1	82.45	1	0.0	1	1.16	1	96.66	1	9.85	1	1006.69	1	40.624723	17.975036
379	2024-01-16 18:00:00	7	brindisi_sisri	11.91	1	89.42	1	0.0	1	1.87	1	152.15	1	0.0	5	1007.23	1	40.624723	17.975036
380	2024-01-16 19:00:00	7	brindisi_sisri	11.42	1	92.59	1	0.0	1	1.78	1	165.15	1	0.0	5	1008.0	1	40.624723	17.975036
381	2024-01-16 20:00:00	7	brindisi_sisri	11.31	1	93.99	1	0.0	1	1.16	1	147.18	1	0.0	5	1008.02	1	40.624723	17.975036
382	2024-01-16 21:00:00	7	brindisi_sisri	10.63	1	94.89	1	0.0	1	1.37	1	140.95	1	0.0	5	1007.83	1	40.624723	17.975036
383	2024-01-16 22:00:00	7	brindisi_sisri	9.65	1	95.83	1	0.0	1	2.42	1	151.77	1	0.0	5	1008.26	1	40.624723	17.975036
384	2024-01-16 23:00:00	7	brindisi_sisri	9.88	1	96.08	1	0.0	1	2.68	1	152.79	1	0.0	5	1008.64	1	40.624723	17.975036
385	2024-01-17 00:00:00	7	brindisi_sisri	9.6	1	96.57	1	0.0	1	3.17	1	157.7	1	0.0	5	1008.48	1	40.624723	17.975036
386	2024-01-17 01:00:00	7	brindisi_sisri	9.48	1	97.7	1	0.0	1	3.19	1	161.04	1	0.0	5	1008.04	1	40.624723	17.975036
387	2024-01-17 02:00:00	7	brindisi_sisri	9.7	1	98.54	1	0.0	1	3.03	1	156.41	1	0.0	5	1008.07	1	40.624723	17.975036
388	2024-01-17 03:00:00	7	brindisi_sisri	9.09	1	98.83	1	0.0	1	2.62	1	166.3	1	0.0	5	1008.58	1	40.624723	17.975036
389	2024-01-17 04:00:00	7	brindisi_sisri	8.79	1	99.02	1	0.0	1	2.36	1	172.12	1	0.0	5	1008.66	1	40.624723	17.975036
390	2024-01-17 05:00:00	7	brindisi_sisri	8.66	1	null	3	0.0	1	2.24	1	174.37	1	0.0	5	1008.53	1	40.624723	17.975036
391	2024-01-17 06:00:00	7	brindisi_sisri	8.32	1	null	3	0.0	1	2.51	1	158.58	1	0.0	5	1008.4	1	40.624723	17.975036
392	2024-01-17 07:00:00	7	brindisi_sisri	8.46	1	null	3	0.0	1	1.71	1	170.84	1	0.0	5	1008.59	1	40.624723	17.975036
393	2024-01-17 08:00:00	7	brindisi_sisri	9.44	1	null	3	0.0	1	2.34	1	170.65	1	37.19	1	1009.05	1	40.624723	17.975036
394	2024-01-17 09:00:00	7	brindisi_sisri	11.11	1	99.02	1	0.0	1	2.85	1	168.03	1	87.09	1	1009.55	1	40.624723	17.975036
395	2024-01-17 10:00:00	7	brindisi_sisri	13.28	1	97.03	1	0.0	1	4.15	1	158.54	1	303.64	1	1009.43	1	40.624723	17.975036
396	2024-01-17 11:00:00	7	brindisi_sisri	16.11	1	83.3	1	0.0	1	4.78	1	168.57	1	333.49	1	1009.31	1	40.624723	17.975036
397	2024-01-17 12:00:00	7	brindisi_sisri	17.77	1	69.1	1	0.0	1	6.12	1	171.04	1	249.28	1	1008.58	1	40.624723	17.975036
398	2024-01-17 13:00:00	7	brindisi_sisri	18.11	1	60.64	1	0.0	1	6.75	1	166.11	1	191.38	1	1007.86	1	40.624723	17.975036
399	2024-01-17 14:00:00	7	brindisi_sisri	17.5	1	57.53	1	0.0	1	4.72	1	153.26	1	106.61	1	1007.18	1	40.624723	17.975036
400	2024-01-17 15:00:00	7	brindisi_sisri	16.68	1	65.17	1	0.0	1	5.72	1	151.4	1	83.11	1	1007.14	1	40.624723	17.975036
401	2024-01-17 16:00:00	7	brindisi_sisri	16.09	1	73.57	1	0.0	1	6.01	1	147.29	1	50.3	1	1006.92	1	40.624723	17.975036
402	2024-01-17 17:00:00	7	brindisi_sisri	15.34	1	81.22	1	0.0	1	4.95	1	140.14	1	12.27	1	1006.88	1	40.624723	17.975036
403	2024-01-17 18:00:00	7	brindisi_sisri	14.82	1	86.0	1	0.0	1	4.81	1	137.18	1	0.0	5	1007.12	1	40.624723	17.975036
404	2024-01-17 19:00:00	7	brindisi_sisri	14.49	1	91.13	1	0.2	1	5.35	1	149.81	1	0.0	5	1007.28	1	40.624723	17.975036
405	2024-01-17 20:00:00	7	brindisi_sisri	14.33	1	94.35	1	0.2	1	5.11	1	154.51	1	0.0	5	1007.19	1	40.624723	17.975036
406	2024-01-17 21:00:00	7	brindisi_sisri	14.1	1	96.11	1	0.2	1	4.78	1	138.56	1	0.0	5	1006.61	1	40.624723	17.975036
407	2024-01-17 22:00:00	7	brindisi_sisri	13.9	1	95.71	1	0.0	1	5.11	1	145.91	1	0.0	5	1006.47	1	40.624723	17.975036
408	2024-01-17 23:00:00	7	brindisi_sisri	13.92	1	96.31	1	0.0	1	4.91	1	145.76	1	0.0	5	1006.11	1	40.624723	17.975036
409	2024-01-18 00:00:00	7	brindisi_sisri	14.28	1	96.85	1	0.0	1	4.9	1	139.7	1	0.0	5	1005.72	1	40.624723	17.975036
410	2024-01-18 01:00:00	7	brindisi_sisri	14.32	1	97.17	1	0.0	1	5.36	1	138.87	1	0.0	5	1004.9	1	40.624723	17.975036
411	2024-01-18 02:00:00	7	brindisi_sisri	14.41	1	97.0	1	0.0	1	4.47	1	133.64	1	0.0	5	1004.29	1	40.624723	17.975036
412	2024-01-18 03:00:00	7	brindisi_sisri	14.21	1	96.71	1	0.0	1	3.76	1	137.19	1	0.0	5	1004.12	1	40.624723	17.975036
413	2024-01-18 04:00:00	7	brindisi_sisri	14.09	1	96.33	1	0.0	1	1.52	1	86.51	1	0.0	5	1003.71	1	40.624723	17.975036
414	2024-01-18 05:00:00	7	brindisi_sisri	14.02	1	95.83	1	0.0	1	2.71	1	85.85	1	0.0	5	1003.01	1	40.624723	17.975036
415	2024-01-18 06:00:00	7	brindisi_sisri	13.75	1	96.63	1	0.0	1	3.62	1	142.71	1	0.0	5	1002.44	1	40.624723	17.975036
416	2024-01-18 07:00:00	7	brindisi_sisri	13.8	1	96.55	1	0.0	1	6.06	1	141.34	1	0.0	5	1001.2	1	40.624723	17.975036
417	2024-01-18 08:00:00	7	brindisi_sisri	13.79	1	94.9	1	0.0	1	6.9	1	157.91	1	15.81	1	1001.26	1	40.624723	17.975036
418	2024-01-18 09:00:00	7	brindisi_sisri	14.61	1	92.4	1	0.0	1	6.9	1	154.6	1	189.72	1	1001.33	1	40.624723	17.975036
419	2024-01-18 10:00:00	7	brindisi_sisri	17.13	1	77.89	1	0.0	1	5.72	1	156.38	1	267.75	1	1001.07	1	40.624723	17.975036
420	2024-01-18 11:00:00	7	brindisi_sisri	18.78	1	66.02	1	0.0	1	5.74	1	171.18	1	256.21	1	1001.07	1	40.624723	17.975036
421	2024-01-18 12:00:00	7	brindisi_sisri	19.06	1	63.25	1	0.0	1	7.72	1	184.05	1	177.64	1	1000.79	1	40.624723	17.975036
422	2024-01-18 13:00:00	7	brindisi_sisri	19.46	1	63.61	1	0.0	1	6.66	1	177.27	1	189.96	1	1000.32	1	40.624723	17.975036
423	2024-01-18 14:00:00	7	brindisi_sisri	20.39	1	59.35	1	0.0	1	7.58	1	193.17	1	140.22	1	999.8	1	40.624723	17.975036
424	2024-01-18 15:00:00	7	brindisi_sisri	19.52	1	62.47	1	0.0	1	7.22	1	199.13	1	66.89	1	999.74	1	40.624723	17.975036
425	2024-01-18 16:00:00	7	brindisi_sisri	18.84	1	62.87	1	0.0	1	6.95	1	194.87	1	52.52	1	999.54	1	40.624723	17.975036
426	2024-01-18 17:00:00	7	brindisi_sisri	17.35	1	67.1	1	0.0	1	6.46	1	198.55	1	12.72	1	999.97	1	40.624723	17.975036
427	2024-01-18 18:00:00	7	brindisi_sisri	15.75	1	72.95	1	0.0	1	5.11	1	201.01	1	0.0	5	1000.52	1	40.624723	17.975036
428	2024-01-18 19:00:00	7	brindisi_sisri	15.13	1	74.14	1	0.0	1	5.02	1	189.26	1	0.0	5	1000.73	1	40.624723	17.975036
429	2024-01-18 20:00:00	7	brindisi_sisri	14.29	1	75.03	1	0.0	1	2.94	1	182.5	1	0.0	5	1001.09	1	40.624723	17.975036
430	2024-01-18 21:00:00	7	brindisi_sisri	13.01	1	80.48	1	0.0	1	1.35	1	154.97	1	0.0	5	1001.88	1	40.624723	17.975036
431	2024-01-18 22:00:00	7	brindisi_sisri	11.3	1	87.88	1	0.0	1	2.1	1	154.05	1	0.0	5	1002.43	1	40.624723	17.975036
432	2024-01-18 23:00:00	7	brindisi_sisri	12.34	1	88.89	1	0.0	1	3.03	1	139.09	1	0.0	5	1002.84	1	40.624723	17.975036
433	2024-01-19 00:00:00	7	brindisi_sisri	11.88	1	89.23	1	0.0	1	2.8	1	144.27	1	0.0	5	1002.92	1	40.624723	17.975036
434	2024-01-19 01:00:00	7	brindisi_sisri	11.17	1	91.73	1	0.0	1	2.81	1	147.5	1	0.0	5	1002.93	1	40.624723	17.975036
435	2024-01-19 02:00:00	7	brindisi_sisri	10.64	1	94.62	1	0.0	1	2.91	1	156.46	1	0.0	5	1002.97	1	40.624723	17.975036
436	2024-01-19 03:00:00	7	brindisi_sisri	10.82	1	95.38	1	0.0	1	3.69	1	158.95	1	0.0	5	1003.14	1	40.624723	17.975036
437	2024-01-19 04:00:00	7	brindisi_sisri	10.5	1	96.43	1	0.0	1	2.06	1	148.45	1	0.0	5	1003.35	1	40.624723	17.975036
438	2024-01-19 05:00:00	7	brindisi_sisri	10.21	1	97.04	1	0.0	1	3.01	1	163.9	1	0.0	5	1003.54	1	40.624723	17.975036
439	2024-01-19 06:00:00	7	brindisi_sisri	10.81	1	97.35	1	0.0	1	2.94	1	158.03	1	0.0	5	1003.64	1	40.624723	17.975036
440	2024-01-19 07:00:00	7	brindisi_sisri	10.97	1	97.32	1	0.0	1	2.29	1	150.67	1	0.0	5	1004.03	1	40.624723	17.975036
441	2024-01-19 08:00:00	7	brindisi_sisri	11.24	1	97.52	1	0.0	1	2.29	1	140.21	1	45.19	1	1004.57	1	40.624723	17.975036
442	2024-01-19 09:00:00	7	brindisi_sisri	13.59	1	91.47	1	0.0	1	2.95	1	150.96	1	179.46	1	1004.66	1	40.624723	17.975036
443	2024-01-19 10:00:00	7	brindisi_sisri	17.14	1	74.4	1	0.0	1	5.39	1	182.11	1	322.73	1	1004.7	1	40.624723	17.975036
444	2024-01-19 11:00:00	7	brindisi_sisri	18.1	1	66.57	1	0.0	1	5.54	1	185.42	1	373.82	1	1004.93	1	40.624723	17.975036
445	2024-01-19 12:00:00	7	brindisi_sisri	19.31	1	59.44	1	0.0	1	6.35	1	192.39	1	240.13	1	1005.03	1	40.624723	17.975036
446	2024-01-19 13:00:00	7	brindisi_sisri	19.49	1	55.83	1	0.0	1	7.02	1	201.2	1	176.91	1	1004.89	1	40.624723	17.975036
447	2024-01-19 14:00:00	7	brindisi_sisri	18.98	1	58.45	1	0.0	1	5.07	1	181.43	1	171.33	1	1004.62	1	40.624723	17.975036
448	2024-01-19 15:00:00	7	brindisi_sisri	18.44	1	59.01	1	0.0	1	3.87	1	163.72	1	92.94	1	1004.23	1	40.624723	17.975036
449	2024-01-19 16:00:00	7	brindisi_sisri	17.3	1	62.71	1	0.0	1	3.39	1	170.7	1	66.04	1	1004.6	1	40.624723	17.975036
450	2024-01-19 17:00:00	7	brindisi_sisri	16.09	1	67.35	1	0.0	1	2.87	1	185.67	1	20.67	1	1004.63	1	40.624723	17.975036
451	2024-01-19 18:00:00	7	brindisi_sisri	14.18	1	76.93	1	0.0	1	2.25	1	165.72	1	0.0	5	1004.85	1	40.624723	17.975036
452	2024-01-19 19:00:00	7	brindisi_sisri	13.49	1	84.97	1	0.0	1	3.17	1	162.3	1	0.0	5	1004.87	1	40.624723	17.975036
453	2024-01-19 20:00:00	7	brindisi_sisri	13.59	1	87.55	1	0.0	1	4.42	1	168.0	1	0.0	5	1005.2	1	40.624723	17.975036
454	2024-01-19 21:00:00	7	brindisi_sisri	13.67	1	85.3	1	0.0	1	4.38	1	167.6	1	0.0	5	1005.26	1	40.624723	17.975036
455	2024-01-19 22:00:00	7	brindisi_sisri	14.06	1	83.98	1	0.0	1	4.78	1	182.17	1	0.0	5	1005.37	1	40.624723	17.975036
456	2024-01-19 23:00:00	7	brindisi_sisri	14.28	1	81.99	1	0.0	1	3.33	1	185.13	1	0.0	5	1005.6	1	40.624723	17.975036
457	2024-01-20 00:00:00	7	brindisi_sisri	14.27	1	80.2	1	0.0	1	2.08	1	191.73	1	0.0	5	1005.88	1	40.624723	17.975036
458	2024-01-20 01:00:00	7	brindisi_sisri	14.15	1	80.0	1	0.0	1	2.72	1	197.79	1	0.0	5	1005.74	1	40.624723	17.975036
459	2024-01-20 02:00:00	7	brindisi_sisri	14.16	1	83.67	1	0.0	1	3.69	1	279.49	1	0.0	5	1006.44	1	40.624723	17.975036
460	2024-01-20 03:00:00	7	brindisi_sisri	13.37	1	90.37	1	0.0	1	4.0	1	285.03	1	0.0	5	1006.69	1	40.624723	17.975036
461	2024-01-20 04:00:00	7	brindisi_sisri	12.84	1	91.16	1	0.0	1	5.01	1	278.96	1	0.0	5	1006.89	1	40.624723	17.975036
462	2024-01-20 05:00:00	7	brindisi_sisri	12.02	1	91.18	1	0.2	1	5.94	1	301.45	1	0.0	5	1007.4	1	40.624723	17.975036
463	2024-01-20 06:00:00	7	brindisi_sisri	11.04	1	93.56	1	0.2	1	6.95	1	303.6	1	0.0	5	1008.05	1	40.624723	17.975036
464	2024-01-20 07:00:00	7	brindisi_sisri	10.51	1	88.26	1	0.2	1	8.04	1	301.96	1	0.0	5	1008.68	1	40.624723	17.975036
465	2024-01-20 08:00:00	7	brindisi_sisri	10.05	1	86.67	1	0.0	1	9.27	1	312.04	1	5.0	1	1009.43	1	40.624723	17.975036
466	2024-01-20 09:00:00	7	brindisi_sisri	9.39	1	85.47	1	2.0	1	8.35	1	315.11	1	14.47	1	1010.36	1	40.624723	17.975036
467	2024-01-20 10:00:00	7	brindisi_sisri	9.0	1	89.65	1	2.2	1	8.18	1	312.23	1	23.61	1	1010.92	1	40.624723	17.975036
468	2024-01-20 11:00:00	7	brindisi_sisri	8.81	1	92.16	1	3.6	1	6.94	1	332.35	1	34.83	1	1011.57	1	40.624723	17.975036
469	2024-01-20 12:00:00	7	brindisi_sisri	8.25	1	93.45	1	0.6	1	6.84	1	354.64	1	92.73	1	1011.61	1	40.624723	17.975036
470	2024-01-20 13:00:00	7	brindisi_sisri	8.12	1	89.39	1	0.2	1	7.07	1	357.47	1	56.06	1	1011.81	1	40.624723	17.975036
471	2024-01-20 14:00:00	7	brindisi_sisri	8.03	1	85.33	1	0.0	1	8.27	1	356.7	1	74.93	1	1011.8	1	40.624723	17.975036
472	2024-01-20 15:00:00	7	brindisi_sisri	7.81	1	79.84	1	0.0	1	8.75	1	356.83	1	57.66	1	1012.1	1	40.624723	17.975036
473	2024-01-20 16:00:00	7	brindisi_sisri	8.14	1	72.68	1	0.0	1	8.78	1	353.27	1	36.05	1	1012.69	1	40.624723	17.975036
474	2024-01-20 17:00:00	7	brindisi_sisri	8.03	1	72.18	1	0.0	1	8.95	1	349.45	1	8.71	1	1013.15	1	40.624723	17.975036
475	2024-01-20 18:00:00	7	brindisi_sisri	7.42	1	77.7	1	0.2	1	8.16	1	336.09	1	0.0	5	1013.79	1	40.624723	17.975036
476	2024-01-20 19:00:00	7	brindisi_sisri	8.21	1	69.51	1	0.0	1	8.49	1	341.68	1	0.0	5	1014.08	1	40.624723	17.975036
477	2024-01-20 20:00:00	7	brindisi_sisri	8.16	1	63.35	1	0.0	1	8.18	1	342.86	1	0.0	5	1014.29	1	40.624723	17.975036
478	2024-01-20 21:00:00	7	brindisi_sisri	8.22	1	56.72	1	0.0	1	10.67	1	343.83	1	0.0	5	1014.78	1	40.624723	17.975036
479	2024-01-20 22:00:00	7	brindisi_sisri	8.1	1	56.17	1	0.2	1	11.42	1	345.29	1	0.0	5	1014.8	1	40.624723	17.975036
480	2024-01-20 23:00:00	7	brindisi_sisri	7.99	1	55.05	1	0.0	1	11.87	1	349.18	1	0.0	5	1015.12	1	40.624723	17.975036
481	2024-01-21 00:00:00	7	brindisi_sisri	8.06	1	56.27	1	0.0	1	11.8	1	351.76	1	0.0	5	1015.39	1	40.624723	17.975036
482	2024-01-21 01:00:00	7	brindisi_sisri	8.15	1	57.51	1	0.0	1	10.29	1	347.83	1	0.0	5	1015.57	1	40.624723	17.975036
483	2024-01-21 02:00:00	7	brindisi_sisri	8.12	1	54.85	1	0.0	1	11.11	1	346.35	1	0.0	5	1015.9	1	40.624723	17.975036
484	2024-01-21 03:00:00	7	brindisi_sisri	8.27	1	54.05	1	0.0	1	11.01	1	350.71	1	0.0	5	1016.11	1	40.624723	17.975036
485	2024-01-21 04:00:00	7	brindisi_sisri	7.96	1	54.44	1	0.0	1	10.4	1	347.11	1	0.0	5	1016.33	1	40.624723	17.975036
486	2024-01-21 05:00:00	7	brindisi_sisri	8.02	1	55.67	1	0.0	1	10.79	1	343.82	1	0.0	5	1016.63	1	40.624723	17.975036
487	2024-01-21 06:00:00	7	brindisi_sisri	8.07	1	56.78	1	0.0	1	10.34	1	341.14	1	0.0	5	1017.04	1	40.624723	17.975036
488	2024-01-21 07:00:00	7	brindisi_sisri	8.2	1	57.84	1	0.0	1	9.73	1	342.44	1	0.0	5	1017.61	1	40.624723	17.975036
489	2024-01-21 08:00:00	7	brindisi_sisri	8.31	1	58.49	1	0.0	1	9.74	1	341.91	1	36.57	1	1018.29	1	40.624723	17.975036
490	2024-01-21 09:00:00	7	brindisi_sisri	8.82	1	58.23	1	0.0	1	9.34	1	343.99	1	207.59	1	1018.87	1	40.624723	17.975036
491	2024-01-21 10:00:00	7	brindisi_sisri	9.48	1	59.59	1	0.0	1	9.13	1	340.05	1	355.79	1	1019.57	1	40.624723	17.975036
492	2024-01-21 11:00:00	7	brindisi_sisri	9.82	1	57.42	1	0.0	1	9.01	1	340.98	1	465.48	1	1020.29	1	40.624723	17.975036
493	2024-01-21 12:00:00	7	brindisi_sisri	10.14	1	54.32	1	0.0	1	9.21	1	338.95	1	387.53	1	1020.47	1	40.624723	17.975036
494	2024-01-21 13:00:00	7	brindisi_sisri	10.42	1	52.19	1	0.0	1	8.91	1	339.73	1	241.23	1	1020.52	1	40.624723	17.975036
495	2024-01-21 14:00:00	7	brindisi_sisri	10.51	1	46.95	1	0.0	1	9.02	1	341.49	1	143.72	1	1020.51	1	40.624723	17.975036
496	2024-01-21 15:00:00	7	brindisi_sisri	10.55	1	42.8	1	0.0	1	8.7	1	340.43	1	62.53	1	1020.59	1	40.624723	17.975036
497	2024-01-21 16:00:00	7	brindisi_sisri	10.47	1	41.42	1	0.0	1	8.55	1	344.16	1	46.21	1	1020.93	1	40.624723	17.975036
498	2024-01-21 17:00:00	7	brindisi_sisri	10.31	1	42.25	1	0.0	1	8.01	1	345.84	1	19.63	1	1021.48	1	40.624723	17.975036
499	2024-01-21 18:00:00	7	brindisi_sisri	10.56	1	36.39	1	0.0	1	8.45	1	344.08	1	0.0	5	1022.37	1	40.624723	17.975036
500	2024-01-21 19:00:00	7	brindisi_sisri	10.34	1	46.6	1	0.0	1	7.28	1	329.65	1	0.0	5	1023.01	1	40.624723	17.975036
501	2024-01-21 20:00:00	7	brindisi_sisri	10.65	1	37.28	1	0.0	1	8.22	1	343.49	1	0.0	5	1023.47	1	40.624723	17.975036
502	2024-01-21 21:00:00	7	brindisi_sisri	10.33	1	41.56	1	0.0	1	7.47	1	341.26	1	0.0	5	1023.69	1	40.624723	17.975036
503	2024-01-21 22:00:00	7	brindisi_sisri	10.24	1	52.67	1	0.0	1	5.46	1	353.97	1	0.0	5	1023.85	1	40.624723	17.975036
504	2024-01-21 23:00:00	7	brindisi_sisri	10.08	1	52.11	1	0.0	1	5.17	1	352.5	1	0.0	5	1024.28	1	40.624723	17.975036
505	2024-01-22 00:00:00	7	brindisi_sisri	9.97	1	50.14	1	0.0	1	4.82	1	5.9	1	0.0	5	1024.46	1	40.624723	17.975036
506	2024-01-22 01:00:00	7	brindisi_sisri	9.89	1	43.12	1	0.0	1	5.43	1	6.47	1	0.0	5	1024.33	1	40.624723	17.975036
507	2024-01-22 02:00:00	7	brindisi_sisri	9.95	1	40.57	1	0.0	1	5.79	1	5.6	1	0.0	5	1024.78	1	40.624723	17.975036
508	2024-01-22 03:00:00	7	brindisi_sisri	9.97	1	43.77	1	0.0	1	6.03	1	358.23	1	0.0	5	1024.95	1	40.624723	17.975036
509	2024-01-22 04:00:00	7	brindisi_sisri	9.97	1	44.66	1	0.0	1	5.29	1	5.28	1	0.0	5	1024.99	1	40.624723	17.975036
510	2024-01-22 05:00:00	7	brindisi_sisri	9.93	1	45.38	1	0.0	1	5.55	1	0.47	1	0.0	5	1025.18	1	40.624723	17.975036
511	2024-01-22 06:00:00	7	brindisi_sisri	9.76	1	44.16	1	0.0	1	4.85	1	359.49	1	0.0	5	1025.32	1	40.624723	17.975036
512	2024-01-22 07:00:00	7	brindisi_sisri	9.59	1	46.63	1	0.0	1	4.61	1	1.75	1	0.0	5	1025.61	1	40.624723	17.975036
513	2024-01-22 08:00:00	7	brindisi_sisri	9.78	1	45.26	1	0.0	1	4.31	1	1.27	1	41.01	1	1025.86	1	40.624723	17.975036
514	2024-01-22 09:00:00	7	brindisi_sisri	10.98	1	44.51	1	0.0	1	5.21	1	2.05	1	235.19	1	1026.4	1	40.624723	17.975036
515	2024-01-22 10:00:00	7	brindisi_sisri	11.99	1	43.97	1	0.0	1	6.08	1	358.56	1	399.66	1	1026.94	1	40.624723	17.975036
516	2024-01-22 11:00:00	7	brindisi_sisri	12.29	1	47.29	1	0.0	1	5.78	1	343.35	1	516.84	1	1027.18	1	40.624723	17.975036
517	2024-01-22 12:00:00	7	brindisi_sisri	12.91	1	48.65	1	0.0	1	4.99	1	334.4	1	357.24	1	1026.93	1	40.624723	17.975036
518	2024-01-22 13:00:00	7	brindisi_sisri	12.75	1	57.33	1	0.0	1	5.4	1	304.75	1	155.43	1	1026.63	1	40.624723	17.975036
519	2024-01-22 14:00:00	7	brindisi_sisri	12.61	1	61.19	1	0.0	1	4.98	1	307.1	1	102.3	1	1025.91	1	40.624723	17.975036
520	2024-01-22 15:00:00	7	brindisi_sisri	12.78	1	55.67	1	0.0	1	5.97	1	314.04	1	82.13	1	1025.44	1	40.624723	17.975036
521	2024-01-22 16:00:00	7	brindisi_sisri	12.32	1	56.87	1	0.0	1	5.16	1	309.64	1	45.66	1	1025.22	1	40.624723	17.975036
522	2024-01-22 17:00:00	7	brindisi_sisri	11.44	1	60.37	1	0.0	1	4.15	1	307.44	1	18.54	1	1025.07	1	40.624723	17.975036
523	2024-01-22 18:00:00	7	brindisi_sisri	10.53	1	65.76	1	0.0	1	2.81	1	302.92	1	0.0	5	1024.89	1	40.624723	17.975036
524	2024-01-22 19:00:00	7	brindisi_sisri	9.66	1	68.7	1	0.0	1	1.29	1	266.46	1	0.0	5	1024.81	1	40.624723	17.975036
525	2024-01-22 20:00:00	7	brindisi_sisri	7.6	1	77.14	1	0.0	1	1.48	1	229.13	1	0.0	5	1024.75	1	40.624723	17.975036
526	2024-01-22 21:00:00	7	brindisi_sisri	5.41	1	84.93	1	0.0	1	1.05	1	229.58	1	0.0	5	1024.65	1	40.624723	17.975036
527	2024-01-22 22:00:00	7	brindisi_sisri	4.45	1	90.07	1	0.0	1	1.42	1	216.98	1	0.0	5	1024.42	1	40.624723	17.975036
528	2024-01-22 23:00:00	7	brindisi_sisri	4.11	1	92.63	1	0.0	1	1.62	1	216.38	1	0.0	5	1024.25	1	40.624723	17.975036
529	2024-01-23 00:00:00	7	brindisi_sisri	3.46	1	93.9	1	0.0	1	1.55	1	212.41	1	0.0	5	1023.94	1	40.624723	17.975036
530	2024-01-23 01:00:00	7	brindisi_sisri	2.83	1	94.78	1	0.0	1	1.56	1	212.29	1	0.0	5	1023.46	1	40.624723	17.975036
531	2024-01-23 02:00:00	7	brindisi_sisri	2.06	1	95.45	1	0.0	1	1.42	1	202.79	1	0.0	5	1022.92	1	40.624723	17.975036
532	2024-01-23 03:00:00	7	brindisi_sisri	1.35	1	96.13	1	0.0	1	1.54	1	201.14	1	0.0	5	1022.25	1	40.624723	17.975036
533	2024-01-23 04:00:00	7	brindisi_sisri	1.05	1	96.78	1	0.0	1	1.81	1	185.39	1	0.0	5	1021.59	1	40.624723	17.975036
534	2024-01-23 05:00:00	7	brindisi_sisri	1.86	1	97.84	1	0.0	1	1.86	1	197.34	1	0.0	5	1021.5	1	40.624723	17.975036
535	2024-01-23 06:00:00	7	brindisi_sisri	1.73	1	97.99	1	0.0	1	1.16	1	170.36	1	0.0	5	1021.27	1	40.624723	17.975036
536	2024-01-23 07:00:00	7	brindisi_sisri	2.36	1	98.52	1	0.0	1	1.78	1	197.18	1	0.0	5	1021.37	1	40.624723	17.975036
537	2024-01-23 08:00:00	7	brindisi_sisri	3.25	1	98.27	1	0.0	1	1.56	1	229.18	1	20.81	1	1021.25	1	40.624723	17.975036
538	2024-01-23 09:00:00	7	brindisi_sisri	5.54	1	93.54	1	0.0	1	2.18	1	257.47	1	119.68	1	1021.19	1	40.624723	17.975036
539	2024-01-23 10:00:00	7	brindisi_sisri	9.23	1	66.3	1	0.0	1	2.93	1	263.41	1	210.87	1	1021.43	1	40.624723	17.975036
540	2024-01-23 11:00:00	7	brindisi_sisri	11.36	1	67.66	1	0.0	1	3.82	1	274.62	1	289.21	1	1021.31	1	40.624723	17.975036
541	2024-01-23 12:00:00	7	brindisi_sisri	12.38	1	66.62	1	0.0	1	5.05	1	279.81	1	285.27	1	1020.98	1	40.624723	17.975036
542	2024-01-23 13:00:00	7	brindisi_sisri	12.55	1	67.97	1	0.0	1	5.4	1	282.08	1	208.12	1	1020.42	1	40.624723	17.975036
543	2024-01-23 14:00:00	7	brindisi_sisri	12.15	1	66.1	1	0.0	1	6.43	1	302.89	1	95.2	1	1020.05	1	40.624723	17.975036
544	2024-01-23 15:00:00	7	brindisi_sisri	11.1	1	80.84	1	0.0	1	6.6	1	298.71	1	81.68	1	1020.17	1	40.624723	17.975036
545	2024-01-23 16:00:00	7	brindisi_sisri	11.68	1	71.55	1	0.0	1	6.76	1	307.57	1	43.35	1	1020.17	1	40.624723	17.975036
546	2024-01-23 17:00:00	7	brindisi_sisri	10.9	1	78.54	1	0.2	1	7.22	1	329.16	1	9.5	1	1020.44	1	40.624723	17.975036
547	2024-01-23 18:00:00	7	brindisi_sisri	11.03	1	73.91	1	0.0	1	6.76	1	334.93	1	0.0	5	1020.91	1	40.624723	17.975036
548	2024-01-23 19:00:00	7	brindisi_sisri	10.44	1	80.79	1	0.6	1	6.33	1	324.48	1	0.0	5	1021.52	1	40.624723	17.975036
549	2024-01-23 20:00:00	7	brindisi_sisri	10.72	1	72.3	1	0.0	1	6.59	1	322.62	1	0.0	5	1021.93	1	40.624723	17.975036
550	2024-01-23 21:00:00	7	brindisi_sisri	11.46	1	63.48	1	0.2	1	8.17	1	325.82	1	0.0	5	1022.14	1	40.624723	17.975036
551	2024-01-23 22:00:00	7	brindisi_sisri	12.08	1	61.87	1	0.0	1	8.47	1	319.84	1	0.0	5	1022.13	1	40.624723	17.975036
552	2024-01-23 23:00:00	7	brindisi_sisri	12.32	1	56.65	1	0.0	1	8.62	1	326.47	1	0.0	5	1021.89	1	40.624723	17.975036
553	2024-01-24 00:00:00	7	brindisi_sisri	12.2	1	50.19	1	0.0	1	8.43	1	342.41	1	0.0	5	1022.22	1	40.624723	17.975036
554	2024-01-24 01:00:00	7	brindisi_sisri	12.07	1	48.93	1	0.0	1	8.31	1	329.94	1	0.0	5	1022.24	1	40.624723	17.975036
555	2024-01-24 02:00:00	7	brindisi_sisri	11.96	1	49.4	1	0.0	1	7.38	1	338.44	1	0.0	5	1022.43	1	40.624723	17.975036
556	2024-01-24 03:00:00	7	brindisi_sisri	11.66	1	52.67	1	0.0	1	6.47	1	349.77	1	0.0	5	1022.58	1	40.624723	17.975036
557	2024-01-24 04:00:00	7	brindisi_sisri	11.44	1	53.27	1	0.0	1	6.59	1	348.76	1	0.0	5	1022.48	1	40.624723	17.975036
558	2024-01-24 05:00:00	7	brindisi_sisri	11.49	1	49.2	1	0.0	1	7.17	1	340.73	1	0.0	5	1022.52	1	40.624723	17.975036
559	2024-01-24 06:00:00	7	brindisi_sisri	11.17	1	51.85	1	0.0	1	5.98	1	343.75	1	0.0	5	1022.86	1	40.624723	17.975036
560	2024-01-24 07:00:00	7	brindisi_sisri	10.99	1	50.64	1	0.0	1	5.33	1	342.21	1	0.0	5	1023.43	1	40.624723	17.975036
561	2024-01-24 08:00:00	7	brindisi_sisri	11.09	1	51.3	1	0.0	1	5.33	1	349.82	1	40.98	1	1023.51	1	40.624723	17.975036
562	2024-01-24 09:00:00	7	brindisi_sisri	11.87	1	49.31	1	0.0	1	5.81	1	343.7	1	230.45	1	1023.96	1	40.624723	17.975036
563	2024-01-24 10:00:00	7	brindisi_sisri	12.84	1	44.6	1	0.0	1	5.28	1	326.01	1	389.39	1	1024.6	1	40.624723	17.975036
564	2024-01-24 11:00:00	7	brindisi_sisri	13.18	1	42.89	1	0.0	1	6.21	1	320.06	1	507.01	1	1024.86	1	40.624723	17.975036
565	2024-01-24 12:00:00	7	brindisi_sisri	13.59	1	47.03	1	0.0	1	5.65	1	316.59	1	323.46	1	1024.71	1	40.624723	17.975036
566	2024-01-24 13:00:00	7	brindisi_sisri	13.76	1	50.01	1	0.0	1	6.49	1	313.61	1	169.73	1	1024.13	1	40.624723	17.975036
567	2024-01-24 14:00:00	7	brindisi_sisri	13.42	1	46.07	1	0.0	1	5.68	1	320.76	1	101.78	1	1023.5	1	40.624723	17.975036
568	2024-01-24 15:00:00	7	brindisi_sisri	12.76	1	51.28	1	0.0	1	5.75	1	323.75	1	80.05	1	1023.32	1	40.624723	17.975036
569	2024-01-24 16:00:00	7	brindisi_sisri	12.8	1	54.6	1	0.0	1	5.81	1	317.84	1	55.98	1	1022.73	1	40.624723	17.975036
570	2024-01-24 17:00:00	7	brindisi_sisri	12.45	1	62.04	1	0.0	1	4.87	1	300.76	1	25.97	1	1022.49	1	40.624723	17.975036
571	2024-01-24 18:00:00	7	brindisi_sisri	11.54	1	71.66	1	0.0	1	2.39	1	281.9	1	0.0	5	1022.43	1	40.624723	17.975036
572	2024-01-24 19:00:00	7	brindisi_sisri	10.18	1	76.58	1	0.0	1	1.3	1	230.68	1	0.0	5	1022.59	1	40.624723	17.975036
573	2024-01-24 20:00:00	7	brindisi_sisri	9.43	1	80.15	1	0.0	1	1.49	1	256.78	1	0.0	5	1022.21	1	40.624723	17.975036
574	2024-01-24 21:00:00	7	brindisi_sisri	9.04	1	77.29	1	0.0	1	1.48	1	223.0	1	0.0	5	1022.28	1	40.624723	17.975036
575	2024-01-24 22:00:00	7	brindisi_sisri	7.32	1	76.99	1	0.0	1	2.19	1	212.76	1	0.0	5	1022.04	1	40.624723	17.975036
576	2024-01-24 23:00:00	7	brindisi_sisri	6.84	1	69.82	1	0.0	1	1.32	1	223.94	1	0.0	5	1021.58	1	40.624723	17.975036
577	2024-01-25 00:00:00	7	brindisi_sisri	5.53	1	76.56	1	0.0	1	1.82	1	204.87	1	0.0	5	1021.2	1	40.624723	17.975036
578	2024-01-25 01:00:00	7	brindisi_sisri	5.85	1	72.62	1	0.0	1	1.42	1	228.59	1	0.0	5	1020.45	1	40.624723	17.975036
579	2024-01-25 02:00:00	7	brindisi_sisri	5.21	1	73.81	1	0.0	1	1.77	1	160.67	1	0.0	5	1019.85	1	40.624723	17.975036
580	2024-01-25 03:00:00	7	brindisi_sisri	4.6	1	78.04	1	0.0	1	1.58	1	218.95	1	0.0	5	1019.72	1	40.624723	17.975036
581	2024-01-25 04:00:00	7	brindisi_sisri	4.37	1	77.46	1	0.0	1	1.59	1	200.99	1	0.0	5	1019.14	1	40.624723	17.975036
582	2024-01-25 05:00:00	7	brindisi_sisri	3.69	1	81.43	1	0.0	1	2.23	1	171.4	1	0.0	5	1018.85	1	40.624723	17.975036
583	2024-01-25 06:00:00	7	brindisi_sisri	3.48	1	83.6	1	0.0	1	1.73	1	197.87	1	0.0	5	1018.78	1	40.624723	17.975036
584	2024-01-25 07:00:00	7	brindisi_sisri	3.1	1	83.94	1	0.0	1	1.44	1	196.71	1	0.0	5	1018.92	1	40.624723	17.975036
585	2024-01-25 08:00:00	7	brindisi_sisri	3.55	1	86.36	1	0.0	1	1.41	1	198.31	1	36.1	1	1018.86	1	40.624723	17.975036
586	2024-01-25 09:00:00	7	brindisi_sisri	8.28	1	77.85	1	0.0	1	1.21	1	190.59	1	214.3	1	1018.71	1	40.624723	17.975036
587	2024-01-25 10:00:00	7	brindisi_sisri	10.29	5	null	6	0.0	5	null	6	null	6	null	6	1018.5	5	40.624723	17.975036
588	2024-01-25 11:00:00	7	brindisi_sisri	12.3	5	null	6	0.0	5	null	6	null	6	null	6	1018.3	5	40.624723	17.975036
589	2024-01-25 12:00:00	7	brindisi_sisri	14.31	1	68.79	1	0.0	1	4.18	1	296.51	1	145.79	1	1018.09	1	40.624723	17.975036
590	2024-01-25 13:00:00	7	brindisi_sisri	14.54	1	68.65	1	0.0	1	4.53	1	298.02	1	145.19	1	1017.96	1	40.624723	17.975036
591	2024-01-25 14:00:00	7	brindisi_sisri	14.37	1	68.83	1	0.0	1	4.53	1	317.31	1	127.59	1	1018.13	1	40.624723	17.975036
592	2024-01-25 15:00:00	7	brindisi_sisri	14.02	1	64.67	1	0.0	1	3.94	1	321.38	1	57.84	1	1018.32	1	40.624723	17.975036
593	2024-01-25 16:00:00	7	brindisi_sisri	13.68	1	68.55	1	0.0	1	3.86	1	316.94	1	48.73	1	1018.5	1	40.624723	17.975036
594	2024-01-25 17:00:00	7	brindisi_sisri	12.99	1	71.17	1	0.0	1	3.75	1	313.87	1	21.22	1	1018.56	1	40.624723	17.975036
595	2024-01-25 18:00:00	7	brindisi_sisri	12.0	1	75.82	1	0.0	1	2.82	1	279.93	1	0.0	5	1018.35	1	40.624723	17.975036
596	2024-01-25 19:00:00	7	brindisi_sisri	11.51	1	81.58	1	0.0	1	3.74	1	282.59	1	0.0	5	1018.67	1	40.624723	17.975036
597	2024-01-25 20:00:00	7	brindisi_sisri	11.62	1	82.43	1	0.0	1	4.19	1	290.2	1	0.0	5	1019.29	1	40.624723	17.975036
598	2024-01-25 21:00:00	7	brindisi_sisri	11.28	1	86.55	1	0.0	1	4.04	1	278.17	1	0.0	5	1019.35	1	40.624723	17.975036
599	2024-01-25 22:00:00	7	brindisi_sisri	10.77	1	88.87	1	0.0	1	4.3	1	278.94	1	0.0	5	1019.34	1	40.624723	17.975036
600	2024-01-25 23:00:00	7	brindisi_sisri	10.53	1	93.09	1	0.0	1	3.71	1	283.96	1	0.0	5	1019.29	1	40.624723	17.975036
601	2024-01-26 00:00:00	7	brindisi_sisri	11.0	1	94.95	1	0.0	1	3.64	1	284.3	1	0.0	5	1019.34	1	40.624723	17.975036
602	2024-01-26 01:00:00	7	brindisi_sisri	11.56	1	93.49	1	0.0	1	3.99	1	292.28	1	0.0	5	1019.38	1	40.624723	17.975036
603	2024-01-26 02:00:00	7	brindisi_sisri	10.04	1	92.24	1	0.0	1	3.62	1	271.59	1	0.0	5	1019.55	1	40.624723	17.975036
604	2024-01-26 03:00:00	7	brindisi_sisri	9.78	1	93.74	1	0.0	1	3.2	1	270.55	1	0.0	5	1019.69	1	40.624723	17.975036
605	2024-01-26 04:00:00	7	brindisi_sisri	9.31	1	94.68	1	0.0	1	2.64	1	265.62	1	0.0	5	1019.79	1	40.624723	17.975036
606	2024-01-26 05:00:00	7	brindisi_sisri	9.86	1	95.41	1	0.0	1	3.02	1	276.7	1	0.0	5	1019.81	1	40.624723	17.975036
607	2024-01-26 06:00:00	7	brindisi_sisri	10.28	1	95.78	1	0.0	1	3.84	1	287.5	1	0.0	5	1019.98	1	40.624723	17.975036
608	2024-01-26 07:00:00	7	brindisi_sisri	10.58	1	95.8	1	0.0	1	3.54	1	285.78	1	0.0	5	1020.15	1	40.624723	17.975036
609	2024-01-26 08:00:00	7	brindisi_sisri	10.53	1	94.38	1	0.0	1	3.31	1	283.78	1	35.9	1	1020.33	1	40.624723	17.975036
610	2024-01-26 09:00:00	7	brindisi_sisri	11.95	1	90.05	1	0.0	1	3.97	1	281.45	1	208.77	1	1020.85	1	40.624723	17.975036
611	2024-01-26 10:00:00	7	brindisi_sisri	13.58	1	84.0	1	0.0	1	4.19	1	285.06	1	394.13	1	1021.07	1	40.624723	17.975036
612	2024-01-26 11:00:00	7	brindisi_sisri	14.16	1	80.35	1	0.0	1	4.49	1	290.61	1	512.03	1	1021.37	1	40.624723	17.975036
613	2024-01-26 12:00:00	7	brindisi_sisri	14.45	1	78.03	1	0.0	1	4.7	1	296.65	1	299.83	1	1021.19	1	40.624723	17.975036
614	2024-01-26 13:00:00	7	brindisi_sisri	14.39	1	78.27	1	0.0	1	4.51	1	298.95	1	155.77	1	1020.64	1	40.624723	17.975036
615	2024-01-26 14:00:00	7	brindisi_sisri	14.27	1	77.35	1	0.0	1	3.68	1	301.73	1	133.53	1	1020.04	1	40.624723	17.975036
616	2024-01-26 15:00:00	7	brindisi_sisri	14.13	1	73.05	1	0.0	1	3.76	1	310.94	1	51.77	1	1019.9	1	40.624723	17.975036
617	2024-01-26 16:00:00	7	brindisi_sisri	13.55	1	76.87	1	0.0	1	3.25	1	332.97	1	45.14	1	1019.85	1	40.624723	17.975036
618	2024-01-26 17:00:00	7	brindisi_sisri	12.82	1	80.38	1	0.0	1	2.84	1	305.43	1	19.9	1	1019.87	1	40.624723	17.975036
619	2024-01-26 18:00:00	7	brindisi_sisri	11.45	1	85.46	1	0.0	1	1.63	1	287.53	1	0.0	5	1020.09	1	40.624723	17.975036
620	2024-01-26 19:00:00	7	brindisi_sisri	10.6	1	90.56	1	0.0	1	1.98	1	247.59	1	0.0	5	1020.26	1	40.624723	17.975036
621	2024-01-26 20:00:00	7	brindisi_sisri	9.4	1	91.5	1	0.0	1	0.83	1	148.54	1	0.0	5	1020.18	1	40.624723	17.975036
622	2024-01-26 21:00:00	7	brindisi_sisri	7.54	1	94.09	1	0.0	1	1.81	1	170.74	1	0.0	5	1020.22	1	40.624723	17.975036
623	2024-01-26 22:00:00	7	brindisi_sisri	6.1	1	94.61	1	0.0	1	1.46	1	186.88	1	0.0	5	1020.17	1	40.624723	17.975036
624	2024-01-26 23:00:00	7	brindisi_sisri	4.98	1	95.06	1	0.0	1	1.71	1	201.86	1	0.0	5	1020.15	1	40.624723	17.975036
625	2024-01-27 00:00:00	7	brindisi_sisri	4.93	1	93.85	1	0.0	1	1.67	1	211.17	1	0.0	5	1020.2	1	40.624723	17.975036
626	2024-01-27 01:00:00	7	brindisi_sisri	5.55	1	88.83	1	0.0	1	1.67	1	189.1	1	0.0	5	1019.79	1	40.624723	17.975036
627	2024-01-27 02:00:00	7	brindisi_sisri	5.51	1	86.53	1	0.0	1	1.46	1	250.29	1	0.0	5	1019.88	1	40.624723	17.975036
628	2024-01-27 03:00:00	7	brindisi_sisri	6.06	1	86.1	1	0.0	1	1.6	1	252.44	1	0.0	5	1020.11	1	40.624723	17.975036
629	2024-01-27 04:00:00	7	brindisi_sisri	6.79	1	88.81	1	0.0	1	2.67	1	270.63	1	0.0	5	1020.15	1	40.624723	17.975036
630	2024-01-27 05:00:00	7	brindisi_sisri	9.71	1	87.14	1	0.0	1	2.89	1	282.2	1	0.0	5	1019.89	1	40.624723	17.975036
631	2024-01-27 06:00:00	7	brindisi_sisri	9.98	1	91.92	1	0.0	1	2.87	1	282.88	1	0.0	5	1020.24	1	40.624723	17.975036
632	2024-01-27 07:00:00	7	brindisi_sisri	11.02	1	95.42	1	0.0	1	3.81	1	284.53	1	0.0	5	1020.75	1	40.624723	17.975036
633	2024-01-27 08:00:00	7	brindisi_sisri	10.68	1	95.59	1	0.0	1	4.23	1	278.77	1	20.01	1	1020.99	1	40.624723	17.975036
634	2024-01-27 09:00:00	7	brindisi_sisri	11.37	1	93.71	1	0.0	1	3.88	1	282.41	1	66.74	1	1020.97	1	40.624723	17.975036
635	2024-01-27 10:00:00	7	brindisi_sisri	12.45	1	90.0	1	0.0	1	5.39	1	301.48	1	209.12	1	1021.34	1	40.624723	17.975036
636	2024-01-27 11:00:00	7	brindisi_sisri	13.17	1	89.43	1	0.0	1	6.41	1	298.42	1	300.6	1	1022.03	1	40.624723	17.975036
637	2024-01-27 12:00:00	7	brindisi_sisri	13.86	1	86.99	1	0.0	1	6.12	1	289.28	1	325.18	1	1022.07	1	40.624723	17.975036
638	2024-01-27 13:00:00	7	brindisi_sisri	14.23	1	84.55	1	0.0	1	6.63	1	291.55	1	260.82	1	1021.85	1	40.624723	17.975036
639	2024-01-27 14:00:00	7	brindisi_sisri	13.77	1	82.94	1	0.0	1	6.78	1	281.37	1	164.47	1	1021.55	1	40.624723	17.975036
640	2024-01-27 15:00:00	7	brindisi_sisri	13.73	1	83.44	1	0.0	1	6.36	1	284.88	1	79.41	1	1021.33	1	40.624723	17.975036
641	2024-01-27 16:00:00	7	brindisi_sisri	13.93	1	71.94	1	0.0	1	5.83	1	310.5	1	57.71	1	1021.44	1	40.624723	17.975036
642	2024-01-27 17:00:00	7	brindisi_sisri	13.54	1	54.47	1	0.0	1	5.75	1	312.78	1	22.96	1	1021.84	1	40.624723	17.975036
643	2024-01-27 18:00:00	7	brindisi_sisri	12.98	1	58.37	1	0.0	1	6.03	1	313.37	1	0.0	5	1022.15	1	40.624723	17.975036
644	2024-01-27 19:00:00	7	brindisi_sisri	13.01	1	51.8	1	0.0	1	6.99	1	318.75	1	0.0	5	1022.55	1	40.624723	17.975036
645	2024-01-27 20:00:00	7	brindisi_sisri	12.84	1	50.2	1	0.0	1	6.02	1	311.7	1	0.0	5	1023.01	1	40.624723	17.975036
646	2024-01-27 21:00:00	7	brindisi_sisri	12.6	1	53.45	1	0.0	1	5.77	1	304.44	1	0.0	5	1023.45	1	40.624723	17.975036
647	2024-01-27 22:00:00	7	brindisi_sisri	12.99	1	40.47	1	0.0	1	6.71	1	326.52	1	0.0	5	1023.8	1	40.624723	17.975036
648	2024-01-27 23:00:00	7	brindisi_sisri	12.73	1	37.32	1	0.0	1	7.0	1	333.01	1	0.0	5	1023.79	1	40.624723	17.975036
649	2024-01-28 00:00:00	7	brindisi_sisri	12.53	1	36.71	1	0.0	1	7.34	1	339.16	1	0.0	5	1024.14	1	40.624723	17.975036
650	2024-01-28 01:00:00	7	brindisi_sisri	12.21	1	37.31	1	0.0	1	7.15	1	338.04	1	0.0	5	1024.34	1	40.624723	17.975036
651	2024-01-28 02:00:00	7	brindisi_sisri	11.85	1	38.27	1	0.0	1	6.99	1	339.65	1	0.0	5	1024.61	1	40.624723	17.975036
652	2024-01-28 03:00:00	7	brindisi_sisri	11.52	1	37.61	1	0.0	1	7.1	1	339.39	1	0.0	5	1024.74	1	40.624723	17.975036
653	2024-01-28 04:00:00	7	brindisi_sisri	11.14	1	36.66	1	0.0	1	7.09	1	338.08	1	0.0	5	1024.76	1	40.624723	17.975036
654	2024-01-28 05:00:00	7	brindisi_sisri	10.96	1	38.6	1	0.0	1	7.5	1	329.84	1	0.0	5	1025.09	1	40.624723	17.975036
655	2024-01-28 06:00:00	7	brindisi_sisri	10.9	1	40.49	1	0.0	1	8.29	1	338.26	1	0.0	5	1025.29	1	40.624723	17.975036
656	2024-01-28 07:00:00	7	brindisi_sisri	10.72	1	41.53	1	0.0	1	8.34	1	337.57	1	0.0	5	1025.87	1	40.624723	17.975036
657	2024-01-28 08:00:00	7	brindisi_sisri	10.59	1	44.58	1	0.0	1	8.07	1	343.84	1	53.28	1	1026.57	1	40.624723	17.975036
658	2024-01-28 09:00:00	7	brindisi_sisri	10.8	1	43.03	1	0.0	1	7.98	1	357.04	1	245.34	1	1026.97	1	40.624723	17.975036
659	2024-01-28 10:00:00	7	brindisi_sisri	11.27	1	41.61	1	0.0	1	7.03	1	348.67	1	415.73	1	1027.51	1	40.624723	17.975036
660	2024-01-28 11:00:00	7	brindisi_sisri	11.51	1	42.79	1	0.0	1	6.22	1	344.18	1	539.51	1	1028.0	1	40.624723	17.975036
661	2024-01-28 12:00:00	7	brindisi_sisri	11.81	1	43.42	1	0.0	1	6.19	1	338.51	1	421.8	1	1028.07	1	40.624723	17.975036
662	2024-01-28 13:00:00	7	brindisi_sisri	11.72	1	46.52	1	0.0	1	5.64	1	343.21	1	266.32	1	1027.92	1	40.624723	17.975036
663	2024-01-28 14:00:00	7	brindisi_sisri	11.41	1	45.54	1	0.0	1	5.66	1	335.81	1	192.4	1	1027.46	1	40.624723	17.975036
664	2024-01-28 15:00:00	7	brindisi_sisri	11.19	1	42.91	1	0.0	1	6.53	1	330.89	1	69.97	1	1027.33	1	40.624723	17.975036
665	2024-01-28 16:00:00	7	brindisi_sisri	10.57	1	46.58	1	0.0	1	6.15	1	335.78	1	53.88	1	1027.46	1	40.624723	17.975036
666	2024-01-28 17:00:00	7	brindisi_sisri	10.17	1	46.19	1	0.0	1	5.66	1	329.87	1	25.82	1	1027.58	1	40.624723	17.975036
667	2024-01-28 18:00:00	7	brindisi_sisri	9.95	1	47.64	1	0.0	1	5.49	1	325.32	1	0.0	5	1027.93	1	40.624723	17.975036
668	2024-01-28 19:00:00	7	brindisi_sisri	10.29	1	50.08	1	0.0	1	5.91	1	321.55	1	0.0	5	1027.99	1	40.624723	17.975036
669	2024-01-28 20:00:00	7	brindisi_sisri	10.75	1	48.89	1	0.0	1	5.63	1	339.94	1	0.0	5	1028.01	1	40.624723	17.975036
670	2024-01-28 21:00:00	7	brindisi_sisri	10.56	1	46.83	1	0.0	1	5.23	1	346.41	1	0.0	5	1028.2	1	40.624723	17.975036
671	2024-01-28 22:00:00	7	brindisi_sisri	10.42	1	47.07	1	0.0	1	5.01	1	357.81	1	0.0	5	1028.25	1	40.624723	17.975036
672	2024-01-28 23:00:00	7	brindisi_sisri	10.1	1	48.69	1	0.0	1	4.15	1	356.96	1	0.0	5	1028.25	1	40.624723	17.975036
673	2024-01-29 00:00:00	7	brindisi_sisri	10.04	1	50.38	1	0.0	1	4.36	1	2.13	1	0.0	5	1028.32	1	40.624723	17.975036
674	2024-01-29 01:00:00	7	brindisi_sisri	9.87	1	51.42	1	0.0	1	4.41	1	7.33	1	0.0	5	1028.36	1	40.624723	17.975036
675	2024-01-29 02:00:00	7	brindisi_sisri	9.87	1	50.55	1	0.0	1	4.82	1	1.04	1	0.0	5	1028.45	1	40.624723	17.975036
676	2024-01-29 03:00:00	7	brindisi_sisri	10.02	1	49.82	1	0.0	1	5.85	1	357.0	1	0.0	5	1028.43	1	40.624723	17.975036
677	2024-01-29 04:00:00	7	brindisi_sisri	9.93	1	48.78	1	0.0	1	6.08	1	357.38	1	0.0	5	1028.25	1	40.624723	17.975036
678	2024-01-29 05:00:00	7	brindisi_sisri	9.37	1	50.68	1	0.0	1	4.25	1	6.04	1	0.0	5	1028.18	1	40.624723	17.975036
679	2024-01-29 06:00:00	7	brindisi_sisri	9.19	1	50.38	1	0.0	1	4.28	1	1.53	1	0.0	5	1028.41	1	40.624723	17.975036
680	2024-01-29 07:00:00	7	brindisi_sisri	9.18	1	50.47	1	0.0	1	4.27	1	3.47	1	0.0	5	1028.76	1	40.624723	17.975036
681	2024-01-29 08:00:00	7	brindisi_sisri	9.75	1	50.08	1	0.0	1	4.38	1	1.06	1	68.9	1	1029.11	1	40.624723	17.975036
682	2024-01-29 09:00:00	7	brindisi_sisri	10.69	1	46.02	1	0.0	1	5.05	1	355.93	1	195.84	1	1029.29	1	40.624723	17.975036
683	2024-01-29 10:00:00	7	brindisi_sisri	10.89	1	45.53	1	0.0	1	5.94	1	355.19	1	283.65	1	1029.81	1	40.624723	17.975036
684	2024-01-29 11:00:00	7	brindisi_sisri	10.97	1	46.27	1	0.0	1	6.22	1	1.46	1	446.17	1	1030.02	1	40.624723	17.975036
685	2024-01-29 12:00:00	7	brindisi_sisri	11.3	1	46.39	1	0.0	1	6.55	1	4.47	1	449.55	1	1029.63	1	40.624723	17.975036
686	2024-01-29 13:00:00	7	brindisi_sisri	11.25	1	46.16	1	0.0	1	6.48	1	4.88	1	292.44	1	1029.34	1	40.624723	17.975036
687	2024-01-29 14:00:00	7	brindisi_sisri	11.18	1	46.8	1	0.0	1	5.86	1	359.27	1	236.81	1	1029.04	1	40.624723	17.975036
688	2024-01-29 15:00:00	7	brindisi_sisri	10.72	1	47.52	1	0.0	1	5.42	1	358.5	1	69.23	1	1028.85	1	40.624723	17.975036
689	2024-01-29 16:00:00	7	brindisi_sisri	10.43	1	48.65	1	0.0	1	5.16	1	346.33	1	51.34	1	1028.57	1	40.624723	17.975036
690	2024-01-29 17:00:00	7	brindisi_sisri	9.69	1	52.87	1	0.0	1	4.63	1	344.07	1	24.05	1	1028.59	1	40.624723	17.975036
691	2024-01-29 18:00:00	7	brindisi_sisri	9.3	1	55.74	1	0.0	1	4.3	1	340.44	1	0.0	5	1028.65	1	40.624723	17.975036
692	2024-01-29 19:00:00	7	brindisi_sisri	9.41	1	56.66	1	0.0	1	4.61	1	340.35	1	0.0	5	1029.0	1	40.624723	17.975036
693	2024-01-29 20:00:00	7	brindisi_sisri	9.76	1	54.89	1	0.0	1	5.1	1	339.34	1	0.0	5	1029.18	1	40.624723	17.975036
694	2024-01-29 21:00:00	7	brindisi_sisri	9.84	1	50.63	1	0.0	1	4.99	1	342.82	1	0.0	5	1029.36	1	40.624723	17.975036
695	2024-01-29 22:00:00	7	brindisi_sisri	9.75	1	48.28	1	0.0	1	5.49	1	355.89	1	0.0	5	1029.44	1	40.624723	17.975036
696	2024-01-29 23:00:00	7	brindisi_sisri	9.51	1	47.93	1	0.0	1	5.71	1	359.78	1	0.0	5	1029.64	1	40.624723	17.975036
697	2024-01-30 00:00:00	7	brindisi_sisri	9.42	1	48.07	1	0.0	1	5.49	1	352.66	1	0.0	5	1029.82	1	40.624723	17.975036
698	2024-01-30 01:00:00	7	brindisi_sisri	9.17	1	48.13	1	0.0	1	4.86	1	0.61	1	0.0	5	1029.63	1	40.624723	17.975036
699	2024-01-30 02:00:00	7	brindisi_sisri	9.02	1	48.1	1	0.0	1	4.75	1	353.85	1	0.0	5	1029.55	1	40.624723	17.975036
700	2024-01-30 03:00:00	7	brindisi_sisri	8.92	1	48.58	1	0.0	1	4.56	1	353.28	1	0.0	5	1029.49	1	40.624723	17.975036
701	2024-01-30 04:00:00	7	brindisi_sisri	8.61	1	47.95	1	0.0	1	4.57	1	4.67	1	0.0	5	1029.3	1	40.624723	17.975036
702	2024-01-30 05:00:00	7	brindisi_sisri	8.29	1	49.7	1	0.0	1	3.98	1	10.29	1	0.0	5	1029.28	1	40.624723	17.975036
703	2024-01-30 06:00:00	7	brindisi_sisri	8.12	1	49.22	1	0.0	1	3.79	1	21.15	1	0.0	5	1029.19	1	40.624723	17.975036
704	2024-01-30 07:00:00	7	brindisi_sisri	7.74	1	47.69	1	0.0	1	3.7	1	20.75	1	0.0	5	1029.53	1	40.624723	17.975036
705	2024-01-30 08:00:00	7	brindisi_sisri	8.17	1	48.66	1	0.0	1	3.41	1	8.17	1	50.68	1	1029.96	1	40.624723	17.975036
706	2024-01-30 09:00:00	7	brindisi_sisri	9.65	1	44.93	1	0.0	1	4.54	1	359.42	1	245.85	1	1030.33	1	40.624723	17.975036
707	2024-01-30 10:00:00	7	brindisi_sisri	10.4	1	43.99	1	0.0	1	4.88	1	0.86	1	416.13	1	1030.57	1	40.624723	17.975036
708	2024-01-30 11:00:00	7	brindisi_sisri	10.41	1	44.98	1	0.0	1	4.72	1	356.22	1	536.16	1	1030.72	1	40.624723	17.975036
709	2024-01-30 12:00:00	7	brindisi_sisri	10.83	1	46.38	1	0.0	1	4.58	1	354.32	1	400.22	1	1030.51	1	40.624723	17.975036
710	2024-01-30 13:00:00	7	brindisi_sisri	10.73	1	46.24	1	0.0	1	4.66	1	350.48	1	223.17	1	1030.11	1	40.624723	17.975036
711	2024-01-30 14:00:00	7	brindisi_sisri	10.74	1	46.78	1	0.0	1	4.55	1	336.62	1	179.13	1	1029.67	1	40.624723	17.975036
712	2024-01-30 15:00:00	7	brindisi_sisri	10.34	1	47.36	1	0.0	1	5.71	1	341.64	1	59.27	1	1029.48	1	40.624723	17.975036
713	2024-01-30 16:00:00	7	brindisi_sisri	10.23	1	48.92	1	0.0	1	5.79	1	344.12	1	52.89	1	1029.44	1	40.624723	17.975036
714	2024-01-30 17:00:00	7	brindisi_sisri	10.02	1	48.24	1	0.0	1	5.46	1	341.73	1	30.42	1	1029.32	1	40.624723	17.975036
715	2024-01-30 18:00:00	7	brindisi_sisri	9.57	1	52.33	1	0.0	1	4.77	1	331.36	1	0.0	5	1029.5	1	40.624723	17.975036
716	2024-01-30 19:00:00	7	brindisi_sisri	9.59	1	51.72	1	0.0	1	4.35	1	331.91	1	0.0	5	1029.68	1	40.624723	17.975036
717	2024-01-30 20:00:00	7	brindisi_sisri	9.6	1	57.79	1	0.0	1	4.54	1	327.34	1	0.0	5	1029.76	1	40.624723	17.975036
718	2024-01-30 21:00:00	7	brindisi_sisri	9.71	1	59.49	1	0.0	1	4.79	1	330.06	1	0.0	5	1029.77	1	40.624723	17.975036
719	2024-01-30 22:00:00	7	brindisi_sisri	9.98	1	61.44	1	0.0	1	4.9	1	327.31	1	0.0	5	1029.6	1	40.624723	17.975036
720	2024-01-30 23:00:00	7	brindisi_sisri	10.11	1	63.65	1	0.0	1	4.58	1	330.72	1	0.0	5	1029.45	1	40.624723	17.975036
721	2024-01-31 00:00:00	7	brindisi_sisri	10.38	1	63.51	1	0.0	1	4.42	1	326.62	1	0.0	5	1029.33	1	40.624723	17.975036
722	2024-01-31 01:00:00	7	brindisi_sisri	10.46	1	63.51	1	0.0	1	4.17	1	324.33	1	0.0	5	1029.12	1	40.624723	17.975036
723	2024-01-31 02:00:00	7	brindisi_sisri	10.51	1	63.41	1	0.0	1	4.16	1	318.81	1	0.0	5	1029.07	1	40.624723	17.975036
724	2024-01-31 03:00:00	7	brindisi_sisri	10.52	1	63.42	1	0.0	1	4.57	1	320.92	1	0.0	5	1028.93	1	40.624723	17.975036
725	2024-01-31 04:00:00	7	brindisi_sisri	10.59	1	57.5	1	0.0	1	4.47	1	339.08	1	0.0	5	1028.41	1	40.624723	17.975036
726	2024-01-31 05:00:00	7	brindisi_sisri	10.39	1	48.09	1	0.0	1	3.61	1	341.36	1	0.0	5	1028.08	1	40.624723	17.975036
727	2024-01-31 06:00:00	7	brindisi_sisri	10.15	1	64.51	1	0.0	1	3.48	1	318.46	1	0.0	5	1028.01	1	40.624723	17.975036
728	2024-01-31 07:00:00	7	brindisi_sisri	10.05	1	65.29	1	0.0	1	3.53	1	319.11	1	0.0	5	1028.12	1	40.624723	17.975036
729	2024-01-31 08:00:00	7	brindisi_sisri	9.28	1	84.92	1	0.0	1	3.3	1	280.06	1	58.02	1	1028.37	1	40.624723	17.975036
730	2024-01-31 09:00:00	7	brindisi_sisri	9.82	1	85.56	1	0.0	1	3.77	1	277.37	1	172.76	1	1028.46	1	40.624723	17.975036
731	2024-01-31 10:00:00	7	brindisi_sisri	11.32	1	81.98	1	0.0	1	4.39	1	286.1	1	317.09	1	1028.47	1	40.624723	17.975036
732	2024-01-31 11:00:00	7	brindisi_sisri	12.32	1	77.03	1	0.0	1	6.01	1	307.84	1	510.83	1	1028.28	1	40.624723	17.975036
733	2024-01-31 12:00:00	7	brindisi_sisri	13.25	1	63.12	1	0.0	1	5.65	1	311.34	1	382.69	1	1027.74	1	40.624723	17.975036
734	2024-01-31 13:00:00	7	brindisi_sisri	12.92	1	75.81	1	0.0	1	5.44	1	292.43	1	254.0	1	1027.24	1	40.624723	17.975036
735	2024-01-31 14:00:00	7	brindisi_sisri	12.97	1	69.45	1	0.0	1	5.35	1	302.18	1	177.65	1	1026.84	1	40.624723	17.975036
736	2024-01-31 15:00:00	7	brindisi_sisri	12.85	1	74.61	1	0.0	1	5.77	1	301.51	1	117.14	1	1026.52	1	40.624723	17.975036
737	2024-01-31 16:00:00	7	brindisi_sisri	12.55	1	73.14	1	0.0	1	5.98	1	301.36	1	82.42	1	1026.37	1	40.624723	17.975036
738	2024-01-31 17:00:00	7	brindisi_sisri	11.87	1	73.71	1	0.0	1	4.59	1	302.43	1	27.07	1	1026.23	1	40.624723	17.975036
739	2024-01-31 18:00:00	7	brindisi_sisri	11.25	1	72.81	1	0.0	1	4.49	1	302.75	1	0.0	5	1026.23	1	40.624723	17.975036
740	2024-01-31 19:00:00	7	brindisi_sisri	11.01	1	72.9	1	0.0	1	3.9	1	298.97	1	0.0	5	1026.38	1	40.624723	17.975036
741	2024-01-31 20:00:00	7	brindisi_sisri	9.82	1	85.71	1	0.0	1	3.07	1	274.59	1	0.0	5	1026.23	1	40.624723	17.975036
742	2024-01-31 21:00:00	7	brindisi_sisri	9.39	1	89.43	1	0.0	1	3.21	1	277.18	1	0.0	5	1026.05	1	40.624723	17.975036
743	2024-01-31 22:00:00	7	brindisi_sisri	9.06	1	90.91	1	0.0	1	2.58	1	276.86	1	0.0	5	1025.99	1	40.624723	17.975036
744	2024-01-31 23:00:00	7	brindisi_sisri	9.19	1	92.11	1	0.0	1	2.86	1	279.46	1	0.0	5	1025.71	1	40.624723	17.975036
745	2024-02-01 00:00:00	7	brindisi_sisri	8.87	1	92.65	1	0.0	1	2.24	1	276.95	1	0.0	5	1025.54	1	40.624723	17.975036
746	2024-02-01 01:00:00	7	brindisi_sisri	8.62	1	93.57	1	0.0	1	2.54	1	274.4	1	0.0	5	1025.35	1	40.624723	17.975036
747	2024-02-01 02:00:00	7	brindisi_sisri	8.51	1	93.5	1	0.0	1	2.18	1	273.3	1	0.0	5	1025.17	1	40.624723	17.975036
748	2024-02-01 03:00:00	7	brindisi_sisri	8.3	1	93.15	1	0.0	1	2.47	1	276.7	1	0.0	5	1024.85	1	40.624723	17.975036
749	2024-02-01 04:00:00	7	brindisi_sisri	8.23	1	93.38	1	0.0	1	2.23	1	263.76	1	0.0	5	1024.38	1	40.624723	17.975036
750	2024-02-01 05:00:00	7	brindisi_sisri	8.05	1	93.8	1	0.0	1	2.64	1	265.08	1	0.0	5	1024.17	1	40.624723	17.975036
751	2024-02-01 06:00:00	7	brindisi_sisri	7.24	1	93.39	1	0.0	1	2.13	1	247.47	1	0.0	5	1023.98	1	40.624723	17.975036
752	2024-02-01 07:00:00	7	brindisi_sisri	6.38	1	95.02	1	0.0	1	2.19	1	246.23	1	0.0	5	1023.9	1	40.624723	17.975036
753	2024-02-01 08:00:00	7	brindisi_sisri	7.02	1	95.15	1	0.0	1	2.28	1	259.06	1	64.26	1	1023.94	1	40.624723	17.975036
754	2024-02-01 09:00:00	7	brindisi_sisri	9.04	1	88.85	1	0.0	1	2.77	1	251.37	1	258.24	1	1024.05	1	40.624723	17.975036
755	2024-02-01 10:00:00	7	brindisi_sisri	11.17	1	81.07	1	0.0	1	2.8	1	249.54	1	411.94	1	1024.19	1	40.624723	17.975036
756	2024-02-01 11:00:00	7	brindisi_sisri	12.6	1	72.74	1	0.0	1	3.21	1	270.02	1	487.94	1	1024.14	1	40.624723	17.975036
757	2024-02-01 12:00:00	7	brindisi_sisri	13.33	1	66.48	1	0.0	1	3.63	1	275.17	1	379.73	1	1023.62	1	40.624723	17.975036
758	2024-02-01 13:00:00	7	brindisi_sisri	13.2	1	64.2	1	0.0	1	3.06	1	296.99	1	206.16	1	1022.8	1	40.624723	17.975036
759	2024-02-01 14:00:00	7	brindisi_sisri	13.06	1	64.61	1	0.0	1	3.56	1	302.77	1	212.09	1	1022.1	1	40.624723	17.975036
760	2024-02-01 15:00:00	7	brindisi_sisri	12.32	1	64.02	1	0.0	1	3.6	1	308.38	1	114.69	1	1021.63	1	40.624723	17.975036
761	2024-02-01 16:00:00	7	brindisi_sisri	11.92	1	66.6	1	0.0	1	3.26	1	322.86	1	75.11	1	1021.16	1	40.624723	17.975036
762	2024-02-01 17:00:00	7	brindisi_sisri	11.25	1	70.01	1	0.0	1	2.08	1	319.69	1	31.09	1	1021.03	1	40.624723	17.975036
763	2024-02-01 18:00:00	7	brindisi_sisri	9.96	1	65.47	1	0.0	1	1.72	1	302.46	1	0.0	5	1021.04	1	40.624723	17.975036
764	2024-02-01 19:00:00	7	brindisi_sisri	9.0	1	65.86	1	0.0	1	1.13	1	269.3	1	0.0	5	1021.08	1	40.624723	17.975036
765	2024-02-01 20:00:00	7	brindisi_sisri	6.81	1	75.36	1	0.0	1	1.68	1	211.2	1	0.0	5	1021.04	1	40.624723	17.975036
766	2024-02-01 21:00:00	7	brindisi_sisri	5.69	1	84.55	1	0.0	1	1.58	1	221.85	1	0.0	5	1020.94	1	40.624723	17.975036
767	2024-02-01 22:00:00	7	brindisi_sisri	4.88	1	88.45	1	0.0	1	1.63	1	216.38	1	0.0	5	1020.72	1	40.624723	17.975036
768	2024-02-01 23:00:00	7	brindisi_sisri	5.03	1	91.67	1	0.0	1	1.32	1	228.1	1	0.0	5	1020.51	1	40.624723	17.975036
769	2024-02-02 00:00:00	7	brindisi_sisri	4.63	1	92.83	1	0.0	1	1.24	1	231.45	1	0.0	5	1020.52	1	40.624723	17.975036
770	2024-02-02 01:00:00	7	brindisi_sisri	4.48	1	92.78	1	0.0	1	1.27	1	230.25	1	0.0	5	1020.36	1	40.624723	17.975036
771	2024-02-02 02:00:00	7	brindisi_sisri	3.33	1	93.45	1	0.0	1	1.25	1	228.2	1	0.0	5	1020.04	1	40.624723	17.975036
772	2024-02-02 03:00:00	7	brindisi_sisri	3.34	1	94.49	1	0.0	1	1.69	1	226.23	1	0.0	5	1019.67	1	40.624723	17.975036
773	2024-02-02 04:00:00	7	brindisi_sisri	4.71	1	94.91	1	0.0	1	1.79	1	229.22	1	0.0	5	1019.3	1	40.624723	17.975036
774	2024-02-02 05:00:00	7	brindisi_sisri	6.29	1	92.5	1	0.0	1	1.75	1	247.9	1	0.0	5	1019.19	1	40.624723	17.975036
775	2024-02-02 06:00:00	7	brindisi_sisri	7.16	1	91.06	1	0.0	1	2.49	1	259.39	1	0.0	5	1019.2	1	40.624723	17.975036
776	2024-02-02 07:00:00	7	brindisi_sisri	7.91	1	91.94	1	0.0	1	2.77	1	262.17	1	0.0	5	1019.41	1	40.624723	17.975036
777	2024-02-02 08:00:00	7	brindisi_sisri	9.07	1	90.56	1	0.0	1	2.06	1	264.24	1	27.92	1	1019.83	1	40.624723	17.975036
778	2024-02-02 09:00:00	7	brindisi_sisri	11.76	1	73.9	1	0.0	1	5.21	1	324.64	1	126.47	1	1020.17	1	40.624723	17.975036
779	2024-02-02 10:00:00	7	brindisi_sisri	12.86	1	67.03	1	0.0	1	5.98	1	338.98	1	326.62	1	1020.57	1	40.624723	17.975036
780	2024-02-02 11:00:00	7	brindisi_sisri	13.22	1	64.98	1	0.0	1	5.21	1	332.63	1	364.98	1	1020.73	1	40.624723	17.975036
781	2024-02-02 12:00:00	7	brindisi_sisri	13.58	1	61.84	1	0.0	1	5.16	1	334.4	1	323.57	1	1020.7	1	40.624723	17.975036
782	2024-02-02 13:00:00	7	brindisi_sisri	14.04	1	59.94	1	0.0	1	5.09	1	334.2	1	295.22	1	1020.29	1	40.624723	17.975036
783	2024-02-02 14:00:00	7	brindisi_sisri	13.89	1	58.58	1	0.0	1	5.07	1	327.78	1	203.84	1	1019.66	1	40.624723	17.975036
784	2024-02-02 15:00:00	7	brindisi_sisri	13.6	1	57.37	1	0.0	1	4.71	1	325.17	1	72.94	1	1019.57	1	40.624723	17.975036
785	2024-02-02 16:00:00	7	brindisi_sisri	13.2	1	55.91	1	0.0	1	5.13	1	325.61	1	59.26	1	1019.78	1	40.624723	17.975036
786	2024-02-02 17:00:00	7	brindisi_sisri	12.81	1	50.94	1	0.0	1	6.03	1	314.17	1	35.76	1	1019.65	1	40.624723	17.975036
787	2024-02-02 18:00:00	7	brindisi_sisri	12.38	1	50.17	1	0.0	1	6.1	1	317.34	1	0.0	5	1019.84	1	40.624723	17.975036
788	2024-02-02 19:00:00	7	brindisi_sisri	12.43	1	52.03	1	0.0	1	5.62	1	321.22	1	0.0	5	1020.1	1	40.624723	17.975036
789	2024-02-02 20:00:00	7	brindisi_sisri	12.61	1	45.56	1	0.0	1	5.84	1	331.88	1	0.0	5	1020.3	1	40.624723	17.975036
790	2024-02-02 21:00:00	7	brindisi_sisri	12.63	1	45.6	1	0.0	1	5.93	1	329.69	1	0.0	5	1020.47	1	40.624723	17.975036
791	2024-02-02 22:00:00	7	brindisi_sisri	12.6	1	44.78	1	0.0	1	6.06	1	324.14	1	0.0	5	1020.43	1	40.624723	17.975036
792	2024-02-02 23:00:00	7	brindisi_sisri	12.34	1	47.22	1	0.0	1	5.18	1	327.35	1	0.0	5	1020.5	1	40.624723	17.975036
793	2024-02-03 00:00:00	7	brindisi_sisri	12.13	1	48.43	1	0.0	1	4.8	1	332.96	1	0.0	5	1020.52	1	40.624723	17.975036
794	2024-02-03 01:00:00	7	brindisi_sisri	11.44	1	52.92	1	0.0	1	3.9	1	344.32	1	0.0	5	1020.52	1	40.624723	17.975036
795	2024-02-03 02:00:00	7	brindisi_sisri	11.02	1	52.92	1	0.0	1	3.85	1	349.21	1	0.0	5	1020.58	1	40.624723	17.975036
796	2024-02-03 03:00:00	7	brindisi_sisri	11.16	1	49.98	1	0.0	1	4.47	1	341.38	1	0.0	5	1020.69	1	40.624723	17.975036
797	2024-02-03 04:00:00	7	brindisi_sisri	10.81	1	53.04	1	0.0	1	3.85	1	340.06	1	0.0	5	1020.59	1	40.624723	17.975036
798	2024-02-03 05:00:00	7	brindisi_sisri	10.72	1	52.72	1	0.0	1	4.19	1	339.83	1	0.0	5	1020.84	1	40.624723	17.975036
799	2024-02-03 06:00:00	7	brindisi_sisri	10.63	1	53.2	1	0.0	1	3.73	1	342.41	1	0.0	5	1020.91	1	40.624723	17.975036
800	2024-02-03 07:00:00	7	brindisi_sisri	10.21	1	55.83	1	0.0	1	3.13	1	340.51	1	0.0	5	1021.11	1	40.624723	17.975036
801	2024-02-03 08:00:00	7	brindisi_sisri	10.68	1	57.78	1	0.0	1	2.11	1	339.36	1	60.05	1	1021.63	1	40.624723	17.975036
802	2024-02-03 09:00:00	7	brindisi_sisri	12.58	1	56.44	1	0.0	1	1.92	1	335.89	1	251.12	1	1021.88	1	40.624723	17.975036
803	2024-02-03 10:00:00	7	brindisi_sisri	13.52	1	52.24	1	0.0	1	3.0	1	336.33	1	425.89	1	1022.05	1	40.624723	17.975036
804	2024-02-03 11:00:00	7	brindisi_sisri	13.58	1	53.4	1	0.0	1	3.5	1	339.64	1	547.07	1	1022.25	1	40.624723	17.975036
805	2024-02-03 12:00:00	7	brindisi_sisri	14.38	1	52.6	1	0.0	1	4.28	1	326.44	1	410.15	1	1022.21	1	40.624723	17.975036
806	2024-02-03 13:00:00	7	brindisi_sisri	14.46	1	62.68	1	0.0	1	5.32	1	301.6	1	267.9	1	1021.9	1	40.624723	17.975036
807	2024-02-03 14:00:00	7	brindisi_sisri	14.31	1	68.56	1	0.0	1	5.45	1	295.63	1	183.58	1	1021.36	1	40.624723	17.975036
808	2024-02-03 15:00:00	7	brindisi_sisri	13.99	1	69.84	1	0.0	1	5.52	1	295.56	1	70.37	1	1021.0	1	40.624723	17.975036
809	2024-02-03 16:00:00	7	brindisi_sisri	13.84	1	72.55	1	0.0	1	4.31	1	291.53	1	56.89	1	1020.9	1	40.624723	17.975036
810	2024-02-03 17:00:00	7	brindisi_sisri	13.4	1	72.24	1	0.0	1	2.15	1	267.42	1	31.4	1	1020.5	1	40.624723	17.975036
811	2024-02-03 18:00:00	7	brindisi_sisri	11.81	1	74.47	1	0.0	1	1.12	1	241.4	1	0.0	5	1020.58	1	40.624723	17.975036
812	2024-02-03 19:00:00	7	brindisi_sisri	9.93	1	80.63	1	0.0	1	1.16	1	293.78	1	0.0	5	1020.96	1	40.624723	17.975036
813	2024-02-03 20:00:00	7	brindisi_sisri	8.73	1	85.29	1	0.0	1	0.94	1	301.54	1	0.0	5	1021.19	1	40.624723	17.975036
814	2024-02-03 21:00:00	7	brindisi_sisri	6.27	1	88.38	1	0.0	1	1.65	1	184.46	1	0.0	5	1021.28	1	40.624723	17.975036
815	2024-02-03 22:00:00	7	brindisi_sisri	6.18	1	92.06	1	0.0	1	2.14	1	208.13	1	0.0	5	1021.17	1	40.624723	17.975036
816	2024-02-03 23:00:00	7	brindisi_sisri	5.75	1	92.75	1	0.0	1	1.76	1	209.25	1	0.0	5	1021.08	1	40.624723	17.975036
817	2024-02-04 00:00:00	7	brindisi_sisri	4.84	1	93.0	1	0.0	1	1.61	1	195.55	1	0.0	5	1020.91	1	40.624723	17.975036
818	2024-02-04 01:00:00	7	brindisi_sisri	4.05	1	93.62	1	0.0	1	1.57	1	185.21	1	0.0	5	1020.57	1	40.624723	17.975036
819	2024-02-04 02:00:00	7	brindisi_sisri	4.26	1	95.02	1	0.0	1	1.11	1	229.54	1	0.0	5	1020.48	1	40.624723	17.975036
820	2024-02-04 03:00:00	7	brindisi_sisri	3.89	1	95.75	1	0.0	1	2.03	1	213.09	1	0.0	5	1020.37	1	40.624723	17.975036
821	2024-02-04 04:00:00	7	brindisi_sisri	4.97	1	96.36	1	0.0	1	2.24	1	211.38	1	0.0	5	1020.22	1	40.624723	17.975036
822	2024-02-04 05:00:00	7	brindisi_sisri	4.11	1	97.15	1	0.0	1	1.69	1	217.79	1	0.0	5	1019.81	1	40.624723	17.975036
823	2024-02-04 06:00:00	7	brindisi_sisri	4.3	1	97.78	1	0.0	1	2.0	1	211.85	1	0.0	5	1019.61	1	40.624723	17.975036
824	2024-02-04 07:00:00	7	brindisi_sisri	4.59	1	98.43	1	0.0	1	2.45	1	214.25	1	0.0	5	1019.59	1	40.624723	17.975036
825	2024-02-04 08:00:00	7	brindisi_sisri	5.16	1	97.98	1	0.0	1	1.3	1	216.94	1	63.79	1	1020.06	1	40.624723	17.975036
826	2024-02-04 09:00:00	7	brindisi_sisri	8.3	1	93.56	1	0.0	1	1.01	1	194.96	1	193.23	1	1020.17	1	40.624723	17.975036
827	2024-02-04 10:00:00	7	brindisi_sisri	10.92	1	82.96	2	0.0	1	0.73	1	198.74	1	215.15	1	1020.15	1	40.624723	17.975036
828	2024-02-04 11:00:00	7	brindisi_sisri	12.31	1	68.45	2	0.0	1	1.05	1	240.84	1	430.92	1	1020.54	1	40.624723	17.975036
829	2024-02-04 12:00:00	7	brindisi_sisri	14.75	1	55.83	1	0.0	1	1.91	1	324.1	1	378.11	1	1020.67	1	40.624723	17.975036
830	2024-02-04 13:00:00	7	brindisi_sisri	15.29	1	51.17	1	0.0	1	1.65	1	340.3	1	245.71	1	1020.24	1	40.624723	17.975036
831	2024-02-04 14:00:00	7	brindisi_sisri	15.93	1	46.96	1	0.0	1	1.56	1	328.63	1	178.45	1	1019.53	1	40.624723	17.975036
832	2024-02-04 15:00:00	7	brindisi_sisri	15.44	1	50.14	1	0.0	1	1.85	1	317.46	1	66.1	1	1019.12	1	40.624723	17.975036
833	2024-02-04 16:00:00	7	brindisi_sisri	15.28	1	52.52	1	0.0	1	1.17	1	329.33	1	54.78	1	1018.97	1	40.624723	17.975036
834	2024-02-04 17:00:00	7	brindisi_sisri	14.5	1	55.67	1	0.0	1	1.06	1	8.9	1	33.17	1	1018.88	1	40.624723	17.975036
835	2024-02-04 18:00:00	7	brindisi_sisri	12.03	1	66.1	1	0.0	1	0.98	1	39.66	1	0.0	5	1019.52	1	40.624723	17.975036
836	2024-02-04 19:00:00	7	brindisi_sisri	9.6	1	75.3	1	0.0	1	1.05	1	178.95	1	0.0	5	1019.95	1	40.624723	17.975036
837	2024-02-04 20:00:00	7	brindisi_sisri	8.3	1	82.88	1	0.0	1	1.26	1	182.51	1	0.0	5	1020.0	1	40.624723	17.975036
838	2024-02-04 21:00:00	7	brindisi_sisri	6.87	1	87.03	1	0.0	1	1.37	1	194.41	1	0.0	5	1020.07	1	40.624723	17.975036
839	2024-02-04 22:00:00	7	brindisi_sisri	6.35	1	88.8	1	0.0	1	1.34	1	204.99	1	0.0	5	1020.36	1	40.624723	17.975036
840	2024-02-04 23:00:00	7	brindisi_sisri	5.8	1	90.12	1	0.0	1	1.53	1	211.64	1	0.0	5	1020.41	1	40.624723	17.975036
841	2024-02-05 00:00:00	7	brindisi_sisri	5.58	1	90.91	1	0.0	1	1.34	1	221.91	1	0.0	5	1020.45	1	40.624723	17.975036
842	2024-02-05 01:00:00	7	brindisi_sisri	5.84	1	90.68	1	0.0	1	1.39	1	229.73	1	0.0	5	1020.63	1	40.624723	17.975036
843	2024-02-05 02:00:00	7	brindisi_sisri	5.4	1	90.51	1	0.0	1	2.08	1	197.82	1	0.0	5	1020.38	1	40.624723	17.975036
844	2024-02-05 03:00:00	7	brindisi_sisri	5.34	1	91.12	1	0.0	1	1.77	1	207.65	1	0.0	5	1020.25	1	40.624723	17.975036
845	2024-02-05 04:00:00	7	brindisi_sisri	5.62	1	92.03	1	0.0	1	1.87	1	219.47	1	0.0	5	1019.97	1	40.624723	17.975036
846	2024-02-05 05:00:00	7	brindisi_sisri	5.99	1	91.74	1	0.0	1	2.2	1	216.64	1	0.0	5	1020.15	1	40.624723	17.975036
847	2024-02-05 06:00:00	7	brindisi_sisri	5.8	1	92.31	1	0.0	1	1.78	1	221.69	1	0.0	5	1020.25	1	40.624723	17.975036
848	2024-02-05 07:00:00	7	brindisi_sisri	5.18	1	92.62	1	0.0	1	1.58	1	204.86	1	0.0	5	1020.5	1	40.624723	17.975036
849	2024-02-05 08:00:00	7	brindisi_sisri	6.4	1	93.56	1	0.0	1	1.81	1	210.88	1	53.61	1	1020.54	1	40.624723	17.975036
850	2024-02-05 09:00:00	7	brindisi_sisri	10.56	1	86.82	1	0.0	1	1.17	1	203.21	1	237.01	1	1020.59	1	40.624723	17.975036
851	2024-02-05 10:00:00	7	brindisi_sisri	16.07	1	67.95	1	0.0	1	1.05	1	193.22	1	434.08	1	1020.89	1	40.624723	17.975036
852	2024-02-05 11:00:00	7	brindisi_sisri	16.75	1	60.04	1	0.0	1	1.73	1	42.42	1	414.89	1	1020.93	1	40.624723	17.975036
853	2024-02-05 12:00:00	7	brindisi_sisri	16.21	1	62.3	1	0.0	1	2.28	1	72.63	1	341.18	1	1020.84	1	40.624723	17.975036
854	2024-02-05 13:00:00	7	brindisi_sisri	16.07	1	65.08	1	0.0	1	2.53	1	85.21	1	220.07	1	1020.25	1	40.624723	17.975036
855	2024-02-05 14:00:00	7	brindisi_sisri	16.5	1	63.34	1	0.0	1	2.75	1	75.18	1	200.48	1	1019.46	1	40.624723	17.975036
856	2024-02-05 15:00:00	7	brindisi_sisri	15.26	1	66.8	1	0.0	1	3.09	1	67.31	1	60.67	1	1019.16	1	40.624723	17.975036
857	2024-02-05 16:00:00	7	brindisi_sisri	14.01	1	80.12	1	0.0	1	3.4	1	78.19	1	49.18	1	1019.41	1	40.624723	17.975036
858	2024-02-05 17:00:00	7	brindisi_sisri	13.41	1	81.62	1	0.0	1	1.88	1	77.58	1	26.04	1	1019.59	1	40.624723	17.975036
859	2024-02-05 18:00:00	7	brindisi_sisri	11.66	1	86.44	1	0.0	1	0.95	1	100.59	1	0.0	5	1019.66	1	40.624723	17.975036
860	2024-02-05 19:00:00	7	brindisi_sisri	9.36	1	90.5	1	0.0	1	1.96	1	175.29	1	0.0	5	1020.11	1	40.624723	17.975036
861	2024-02-05 20:00:00	7	brindisi_sisri	8.24	1	93.08	1	0.0	1	1.68	1	205.37	1	0.0	5	1020.4	1	40.624723	17.975036
862	2024-02-05 21:00:00	7	brindisi_sisri	7.01	1	91.76	1	0.0	1	1.89	1	186.38	1	0.0	5	1020.53	1	40.624723	17.975036
863	2024-02-05 22:00:00	7	brindisi_sisri	6.04	1	93.14	1	0.0	1	1.63	1	176.23	1	0.0	5	1020.47	1	40.624723	17.975036
864	2024-02-05 23:00:00	7	brindisi_sisri	6.58	1	96.1	1	0.0	1	1.59	1	158.31	1	0.0	5	1020.36	1	40.624723	17.975036
865	2024-02-06 00:00:00	7	brindisi_sisri	5.66	1	97.5	1	0.0	1	1.29	1	178.13	1	0.0	5	1020.72	1	40.624723	17.975036
866	2024-02-06 01:00:00	7	brindisi_sisri	5.13	1	98.83	1	0.0	1	1.52	1	214.57	1	0.0	5	1020.83	1	40.624723	17.975036
867	2024-02-06 02:00:00	7	brindisi_sisri	5.05	1	98.98	1	0.0	1	1.31	1	195.3	1	0.0	5	1020.58	1	40.624723	17.975036
868	2024-02-06 03:00:00	7	brindisi_sisri	4.85	1	99.02	1	0.0	1	1.11	1	236.9	1	0.0	5	1020.35	1	40.624723	17.975036
869	2024-02-06 04:00:00	7	brindisi_sisri	4.13	1	null	3	0.0	1	1.26	1	154.81	1	0.0	5	1020.01	1	40.624723	17.975036
870	2024-02-06 05:00:00	7	brindisi_sisri	3.16	1	null	3	0.0	1	2.42	1	169.41	1	0.0	5	1020.03	1	40.624723	17.975036
871	2024-02-06 06:00:00	7	brindisi_sisri	3.43	1	null	3	0.0	1	1.37	1	197.93	1	0.0	5	1019.78	1	40.624723	17.975036
872	2024-02-06 07:00:00	7	brindisi_sisri	2.99	1	99.02	1	0.0	1	1.13	1	214.06	1	0.0	5	1019.67	1	40.624723	17.975036
873	2024-02-06 08:00:00	7	brindisi_sisri	4.26	1	99.04	1	0.0	1	1.21	1	223.43	1	65.81	1	1019.8	1	40.624723	17.975036
874	2024-02-06 09:00:00	7	brindisi_sisri	8.0	1	99.02	1	0.0	1	1.13	1	178.4	1	161.83	1	1019.91	1	40.624723	17.975036
875	2024-02-06 10:00:00	7	brindisi_sisri	10.92	1	99.03	1	0.0	1	1.07	1	144.67	1	211.99	1	1020.07	1	40.624723	17.975036
876	2024-02-06 11:00:00	7	brindisi_sisri	11.76	1	99.02	1	0.0	1	1.32	1	91.9	1	356.03	1	1020.06	1	40.624723	17.975036
877	2024-02-06 12:00:00	7	brindisi_sisri	13.37	1	96.44	1	0.0	1	1.72	1	87.44	1	401.17	1	1019.6	1	40.624723	17.975036
878	2024-02-06 13:00:00	7	brindisi_sisri	14.65	1	86.3	2	0.0	1	1.62	1	56.99	1	243.71	1	1018.87	1	40.624723	17.975036
879	2024-02-06 14:00:00	7	brindisi_sisri	15.13	1	73.35	1	0.0	1	1.94	1	352.65	1	203.92	1	1018.32	1	40.624723	17.975036
880	2024-02-06 15:00:00	7	brindisi_sisri	15.04	1	67.43	1	0.0	1	2.66	1	353.06	1	74.81	1	1018.03	1	40.624723	17.975036
881	2024-02-06 16:00:00	7	brindisi_sisri	14.44	1	69.03	1	0.0	1	2.68	1	6.35	1	63.54	1	1017.83	1	40.624723	17.975036
882	2024-02-06 17:00:00	7	brindisi_sisri	14.01	1	69.8	1	0.0	1	1.96	1	40.76	1	39.25	1	1017.4	1	40.624723	17.975036
883	2024-02-06 18:00:00	7	brindisi_sisri	12.04	1	82.46	1	0.0	1	0.86	1	103.42	1	0.0	5	1017.66	1	40.624723	17.975036
884	2024-02-06 19:00:00	7	brindisi_sisri	9.81	1	89.93	1	0.0	1	1.31	1	173.25	1	0.0	5	1017.94	1	40.624723	17.975036
885	2024-02-06 20:00:00	7	brindisi_sisri	8.44	1	93.49	1	0.0	1	1.59	1	203.16	1	0.0	5	1017.97	1	40.624723	17.975036
886	2024-02-06 21:00:00	7	brindisi_sisri	8.22	1	95.21	1	0.0	1	2.17	1	215.68	1	0.0	5	1017.82	1	40.624723	17.975036
887	2024-02-06 22:00:00	7	brindisi_sisri	8.35	1	95.1	1	0.0	1	2.44	1	211.55	1	0.0	5	1017.62	1	40.624723	17.975036
888	2024-02-06 23:00:00	7	brindisi_sisri	7.33	1	95.45	1	0.0	1	2.01	1	202.03	1	0.0	5	1017.35	1	40.624723	17.975036
889	2024-02-07 00:00:00	7	brindisi_sisri	7.34	1	96.53	1	0.0	1	1.99	1	197.95	1	0.0	5	1017.09	1	40.624723	17.975036
890	2024-02-07 01:00:00	7	brindisi_sisri	6.33	1	97.02	1	0.0	1	1.95	1	171.5	1	0.0	5	1016.76	1	40.624723	17.975036
891	2024-02-07 02:00:00	7	brindisi_sisri	5.56	1	98.21	1	0.0	1	2.17	1	171.44	1	0.0	5	1016.41	1	40.624723	17.975036
892	2024-02-07 03:00:00	7	brindisi_sisri	5.54	1	99.02	1	0.0	1	1.99	1	165.78	1	0.0	5	1015.83	1	40.624723	17.975036
893	2024-02-07 04:00:00	7	brindisi_sisri	5.26	1	99.02	1	0.0	1	2.17	1	170.49	1	0.0	5	1015.4	1	40.624723	17.975036
894	2024-02-07 05:00:00	7	brindisi_sisri	6.74	1	99.05	1	0.0	1	2.19	1	173.9	1	0.0	5	1014.93	1	40.624723	17.975036
895	2024-02-07 06:00:00	7	brindisi_sisri	6.79	1	99.03	1	0.0	1	2.55	1	165.67	1	0.0	5	1014.49	1	40.624723	17.975036
896	2024-02-07 07:00:00	7	brindisi_sisri	6.55	1	99.05	1	0.0	1	2.71	1	159.02	1	0.0	5	1014.33	1	40.624723	17.975036
897	2024-02-07 08:00:00	7	brindisi_sisri	6.92	1	99.08	1	0.0	1	2.06	1	149.09	1	29.81	1	1014.38	1	40.624723	17.975036
898	2024-02-07 09:00:00	7	brindisi_sisri	8.86	1	99.12	1	0.0	1	1.92	1	136.84	1	144.94	1	1014.21	1	40.624723	17.975036
899	2024-02-07 10:00:00	7	brindisi_sisri	12.31	1	99.09	1	0.0	1	4.28	1	147.43	1	377.33	1	1013.82	1	40.624723	17.975036
900	2024-02-07 11:00:00	7	brindisi_sisri	14.18	1	94.22	1	0.0	1	5.56	1	149.16	1	536.66	1	1013.36	1	40.624723	17.975036
901	2024-02-07 12:00:00	7	brindisi_sisri	16.63	1	74.29	1	0.0	1	5.45	1	156.73	1	399.34	1	1012.64	1	40.624723	17.975036
902	2024-02-07 13:00:00	7	brindisi_sisri	18.0	1	67.6	1	0.0	1	4.91	1	165.71	1	300.8	1	1011.66	1	40.624723	17.975036
903	2024-02-07 14:00:00	7	brindisi_sisri	17.84	1	57.43	1	0.0	1	6.15	1	153.53	1	208.43	1	1010.84	1	40.624723	17.975036
904	2024-02-07 15:00:00	7	brindisi_sisri	17.2	1	61.26	1	0.0	1	5.76	1	164.26	1	105.13	1	1010.23	1	40.624723	17.975036
905	2024-02-07 16:00:00	7	brindisi_sisri	16.35	1	65.24	1	0.0	1	4.59	1	162.93	1	76.0	1	1009.89	1	40.624723	17.975036
906	2024-02-07 17:00:00	7	brindisi_sisri	14.93	1	67.5	1	0.0	1	2.54	1	193.8	1	34.17	1	1009.57	1	40.624723	17.975036
907	2024-02-07 18:00:00	7	brindisi_sisri	12.86	1	75.05	1	0.0	1	1.5	1	196.04	1	0.0	5	1009.72	1	40.624723	17.975036
908	2024-02-07 19:00:00	7	brindisi_sisri	11.27	1	84.25	1	0.0	1	2.04	1	137.77	1	0.0	5	1009.95	1	40.624723	17.975036
909	2024-02-07 20:00:00	7	brindisi_sisri	10.82	1	89.35	1	0.0	1	1.65	1	134.09	1	0.0	5	1009.8	1	40.624723	17.975036
910	2024-02-07 21:00:00	7	brindisi_sisri	10.11	1	93.08	1	0.0	1	1.42	1	193.71	1	0.0	5	1009.6	1	40.624723	17.975036
911	2024-02-07 22:00:00	7	brindisi_sisri	9.26	1	95.25	1	0.0	1	1.48	1	186.14	1	0.0	5	1009.25	1	40.624723	17.975036
912	2024-02-07 23:00:00	7	brindisi_sisri	8.93	1	97.51	1	0.0	1	1.85	1	157.7	1	0.0	5	1008.9	1	40.624723	17.975036
913	2024-02-08 00:00:00	7	brindisi_sisri	8.61	1	98.95	1	0.0	1	1.53	1	162.97	1	0.0	5	1008.75	1	40.624723	17.975036
914	2024-02-08 01:00:00	7	brindisi_sisri	8.87	1	99.03	1	0.0	1	1.49	1	140.13	1	0.0	5	1008.6	1	40.624723	17.975036
915	2024-02-08 02:00:00	7	brindisi_sisri	9.38	1	99.09	1	0.0	1	1.38	1	295.13	1	0.0	5	1008.62	1	40.624723	17.975036
916	2024-02-08 03:00:00	7	brindisi_sisri	11.0	1	99.13	1	0.0	1	1.14	1	261.98	1	0.0	5	1008.6	1	40.624723	17.975036
917	2024-02-08 04:00:00	7	brindisi_sisri	11.2	1	null	3	0.0	1	1.66	1	200.85	1	0.0	5	1008.06	1	40.624723	17.975036
918	2024-02-08 05:00:00	7	brindisi_sisri	10.49	1	99.13	1	0.0	1	1.38	1	199.54	1	0.0	5	1007.89	1	40.624723	17.975036
919	2024-02-08 06:00:00	7	brindisi_sisri	9.8	1	99.14	1	0.0	1	1.44	1	219.64	1	0.0	5	1008.02	1	40.624723	17.975036
920	2024-02-08 07:00:00	7	brindisi_sisri	8.63	1	99.12	1	0.0	1	1.01	1	154.16	1	0.0	5	1008.0	1	40.624723	17.975036
921	2024-02-08 08:00:00	7	brindisi_sisri	7.43	1	99.11	1	0.0	1	1.67	1	188.5	1	55.24	1	1008.46	1	40.624723	17.975036
922	2024-02-08 09:00:00	7	brindisi_sisri	9.75	1	99.11	1	0.0	1	1.76	1	189.78	1	221.1	1	1008.88	1	40.624723	17.975036
923	2024-02-08 10:00:00	7	brindisi_sisri	14.07	1	98.73	1	0.0	1	1.7	1	188.63	1	429.97	1	1008.94	1	40.624723	17.975036
924	2024-02-08 11:00:00	7	brindisi_sisri	16.17	1	78.59	2	0.2	1	2.26	1	171.33	1	546.01	1	1009.25	1	40.624723	17.975036
925	2024-02-08 12:00:00	7	brindisi_sisri	18.54	1	49.09	1	0.0	1	2.44	1	160.49	1	397.59	1	1009.08	1	40.624723	17.975036
926	2024-02-08 13:00:00	7	brindisi_sisri	19.49	1	43.48	1	0.0	1	2.6	1	185.2	1	299.13	1	1008.38	1	40.624723	17.975036
927	2024-02-08 14:00:00	7	brindisi_sisri	19.72	1	40.35	1	0.0	1	2.89	1	194.05	1	293.26	1	1007.71	1	40.624723	17.975036
928	2024-02-08 15:00:00	7	brindisi_sisri	17.84	1	51.43	2	0.0	1	4.08	1	49.75	1	146.97	1	1007.53	1	40.624723	17.975036
929	2024-02-08 16:00:00	7	brindisi_sisri	15.15	1	66.32	1	0.0	1	3.28	1	70.47	1	81.12	1	1007.76	1	40.624723	17.975036
930	2024-02-08 17:00:00	7	brindisi_sisri	15.21	1	70.68	1	0.0	1	3.02	1	172.25	1	36.14	1	1007.75	1	40.624723	17.975036
931	2024-02-08 18:00:00	7	brindisi_sisri	14.72	1	69.15	1	0.0	1	3.09	1	188.85	1	0.0	5	1007.79	1	40.624723	17.975036
932	2024-02-08 19:00:00	7	brindisi_sisri	12.77	1	78.93	1	0.0	1	2.21	1	184.51	1	0.0	5	1008.3	1	40.624723	17.975036
933	2024-02-08 20:00:00	7	brindisi_sisri	10.74	1	88.38	1	0.0	1	1.22	1	158.46	1	0.0	5	1008.51	1	40.624723	17.975036
934	2024-02-08 21:00:00	7	brindisi_sisri	9.71	1	93.3	1	0.0	1	1.71	1	132.11	1	0.0	5	1008.59	1	40.624723	17.975036
935	2024-02-08 22:00:00	7	brindisi_sisri	9.46	1	96.93	1	0.0	1	1.52	1	131.25	1	0.0	5	1008.59	1	40.624723	17.975036
936	2024-02-08 23:00:00	7	brindisi_sisri	8.15	1	98.71	1	0.0	1	1.47	1	166.56	1	0.0	5	1008.59	1	40.624723	17.975036
937	2024-02-09 00:00:00	7	brindisi_sisri	8.81	1	99.02	1	0.0	1	2.57	1	206.01	1	0.0	5	1008.65	1	40.624723	17.975036
938	2024-02-09 01:00:00	7	brindisi_sisri	8.97	1	99.03	1	0.0	1	2.2	1	214.34	1	0.0	5	1008.56	1	40.624723	17.975036
939	2024-02-09 02:00:00	7	brindisi_sisri	8.23	1	null	3	0.0	1	2.11	1	196.7	1	0.0	5	1008.4	1	40.624723	17.975036
940	2024-02-09 03:00:00	7	brindisi_sisri	6.91	1	null	3	0.0	1	2.35	1	170.16	1	0.0	5	1008.09	1	40.624723	17.975036
941	2024-02-09 04:00:00	7	brindisi_sisri	6.5	1	99.03	1	0.0	1	2.25	1	178.94	1	0.0	5	1007.82	1	40.624723	17.975036
942	2024-02-09 05:00:00	7	brindisi_sisri	6.85	1	99.06	1	0.0	1	2.29	1	183.07	1	0.0	5	1007.76	1	40.624723	17.975036
943	2024-02-09 06:00:00	7	brindisi_sisri	6.81	1	99.06	1	0.0	1	2.21	1	182.39	1	0.0	5	1007.72	1	40.624723	17.975036
944	2024-02-09 07:00:00	7	brindisi_sisri	6.03	1	99.04	1	0.0	1	2.18	1	175.38	1	0.0	5	1007.69	1	40.624723	17.975036
945	2024-02-09 08:00:00	7	brindisi_sisri	8.26	1	99.13	1	0.0	1	2.59	1	202.13	1	79.52	1	1008.08	1	40.624723	17.975036
946	2024-02-09 09:00:00	7	brindisi_sisri	12.33	1	95.77	1	0.0	1	3.51	1	160.98	1	263.71	1	1008.35	1	40.624723	17.975036
947	2024-02-09 10:00:00	7	brindisi_sisri	14.82	1	76.3	1	0.0	1	4.53	1	143.97	1	410.22	1	1008.01	1	40.624723	17.975036
948	2024-02-09 11:00:00	7	brindisi_sisri	16.42	1	66.59	1	0.0	1	5.72	1	146.0	1	512.46	1	1007.77	1	40.624723	17.975036
949	2024-02-09 12:00:00	7	brindisi_sisri	17.37	1	58.54	1	0.0	1	5.7	1	142.45	1	307.27	1	1007.31	1	40.624723	17.975036
950	2024-02-09 13:00:00	7	brindisi_sisri	18.31	1	56.44	1	0.0	1	6.64	1	144.51	1	340.62	1	1006.64	1	40.624723	17.975036
951	2024-02-09 14:00:00	7	brindisi_sisri	17.15	1	59.98	1	0.0	1	7.69	1	155.3	1	241.72	1	1006.28	1	40.624723	17.975036
952	2024-02-09 15:00:00	7	brindisi_sisri	16.09	1	67.41	1	0.0	1	7.67	1	158.77	1	160.93	1	1005.72	1	40.624723	17.975036
953	2024-02-09 16:00:00	7	brindisi_sisri	15.85	1	67.67	1	0.0	1	5.78	1	154.55	1	106.37	1	1005.37	1	40.624723	17.975036
954	2024-02-09 17:00:00	7	brindisi_sisri	15.13	1	68.31	1	0.0	1	4.57	1	135.51	1	37.14	1	1005.14	1	40.624723	17.975036
955	2024-02-09 18:00:00	7	brindisi_sisri	14.12	1	73.97	1	0.0	1	3.96	1	127.14	1	0.0	5	1004.76	1	40.624723	17.975036
956	2024-02-09 19:00:00	7	brindisi_sisri	13.22	1	83.59	1	0.0	1	5.01	1	122.68	1	0.0	5	1004.62	1	40.624723	17.975036
957	2024-02-09 20:00:00	7	brindisi_sisri	12.5	1	89.83	1	0.0	1	3.71	1	129.38	1	0.0	5	1004.72	1	40.624723	17.975036
958	2024-02-09 21:00:00	7	brindisi_sisri	12.54	1	92.15	1	0.0	1	4.42	1	129.26	1	0.0	5	1004.65	1	40.624723	17.975036
959	2024-02-09 22:00:00	7	brindisi_sisri	12.74	1	92.87	1	0.0	1	4.6	1	124.13	1	0.0	5	1004.25	1	40.624723	17.975036
960	2024-02-09 23:00:00	7	brindisi_sisri	12.83	1	93.03	1	0.0	1	5.01	1	130.56	1	0.0	5	1004.08	1	40.624723	17.975036
961	2024-02-10 00:00:00	7	brindisi_sisri	13.3	1	91.81	1	0.0	1	4.96	1	124.13	1	0.0	5	1004.03	1	40.624723	17.975036
962	2024-02-10 01:00:00	7	brindisi_sisri	13.73	1	90.38	1	0.0	1	4.14	1	123.56	1	0.0	5	1003.54	1	40.624723	17.975036
963	2024-02-10 02:00:00	7	brindisi_sisri	13.79	1	90.07	1	0.0	1	3.65	1	109.05	1	0.0	5	1002.96	1	40.624723	17.975036
964	2024-02-10 03:00:00	7	brindisi_sisri	13.89	1	89.77	1	0.0	1	3.54	1	104.24	1	0.0	5	1002.79	1	40.624723	17.975036
965	2024-02-10 04:00:00	7	brindisi_sisri	13.85	1	89.63	1	0.0	1	3.02	1	99.29	1	0.0	5	1002.28	1	40.624723	17.975036
966	2024-02-10 05:00:00	7	brindisi_sisri	14.04	1	88.93	1	0.0	1	3.4	1	108.4	1	0.0	5	1002.11	1	40.624723	17.975036
967	2024-02-10 06:00:00	7	brindisi_sisri	14.27	1	87.63	1	0.0	1	4.16	1	121.57	1	0.0	5	1001.7	1	40.624723	17.975036
968	2024-02-10 07:00:00	7	brindisi_sisri	14.16	1	87.37	1	0.0	1	4.66	1	125.68	1	0.0	5	1001.45	1	40.624723	17.975036
969	2024-02-10 08:00:00	7	brindisi_sisri	14.12	1	87.46	1	0.0	1	4.12	1	113.08	1	15.95	1	1001.68	1	40.624723	17.975036
970	2024-02-10 09:00:00	7	brindisi_sisri	14.53	1	86.02	1	0.0	1	5.25	1	118.33	1	47.15	1	1001.94	1	40.624723	17.975036
971	2024-02-10 10:00:00	7	brindisi_sisri	15.39	1	82.01	1	0.0	1	6.12	1	121.3	1	153.03	1	1001.75	1	40.624723	17.975036
972	2024-02-10 11:00:00	7	brindisi_sisri	16.7	1	73.3	1	0.0	1	8.4	1	138.85	1	218.69	1	1001.83	1	40.624723	17.975036
973	2024-02-10 12:00:00	7	brindisi_sisri	16.85	1	70.78	1	0.0	1	9.6	1	139.25	1	200.97	1	1001.32	1	40.624723	17.975036
974	2024-02-10 13:00:00	7	brindisi_sisri	16.99	1	72.29	1	0.0	1	9.28	1	137.68	1	180.77	1	1000.7	1	40.624723	17.975036
975	2024-02-10 14:00:00	7	brindisi_sisri	16.68	1	74.1	1	0.0	1	8.5	1	134.3	1	75.24	1	1000.06	1	40.624723	17.975036
976	2024-02-10 15:00:00	7	brindisi_sisri	16.38	1	76.8	1	0.0	1	7.15	1	129.9	1	52.49	1	999.12	1	40.624723	17.975036
977	2024-02-10 16:00:00	7	brindisi_sisri	16.22	1	77.99	1	0.0	1	7.78	1	134.05	1	51.77	1	998.72	1	40.624723	17.975036
978	2024-02-10 17:00:00	7	brindisi_sisri	16.07	1	79.05	1	0.0	1	6.84	1	134.08	1	22.99	1	998.23	1	40.624723	17.975036
979	2024-02-10 18:00:00	7	brindisi_sisri	15.83	1	80.67	1	0.0	1	7.37	1	127.49	1	0.0	5	997.46	1	40.624723	17.975036
980	2024-02-10 19:00:00	7	brindisi_sisri	15.68	1	81.36	1	0.0	1	7.32	1	120.74	1	0.0	5	996.66	1	40.624723	17.975036
981	2024-02-10 20:00:00	7	brindisi_sisri	15.91	1	77.35	1	0.0	1	7.96	1	125.85	1	0.0	5	996.35	1	40.624723	17.975036
982	2024-02-10 21:00:00	7	brindisi_sisri	16.52	1	69.53	1	0.0	1	9.73	1	139.08	1	0.0	5	996.74	1	40.624723	17.975036
983	2024-02-10 22:00:00	7	brindisi_sisri	15.71	1	77.83	1	0.6	1	9.53	1	141.12	1	0.0	5	997.47	1	40.624723	17.975036
984	2024-02-10 23:00:00	7	brindisi_sisri	14.96	1	86.63	1	0.0	1	10.12	1	138.29	1	0.0	5	996.9	1	40.624723	17.975036
985	2024-02-11 00:00:00	7	brindisi_sisri	14.89	1	87.17	1	0.4	1	9.41	1	136.96	1	0.0	5	996.26	1	40.624723	17.975036
986	2024-02-11 01:00:00	7	brindisi_sisri	15.12	5	null	6	null	6	null	6	null	6	null	6	996.04	5	40.624723	17.975036
987	2024-02-11 02:00:00	7	brindisi_sisri	15.35	1	84.13	1	0.0	1	10.47	1	142.02	1	0.0	5	995.81	1	40.624723	17.975036
988	2024-02-11 03:00:00	7	brindisi_sisri	15.23	1	83.0	1	0.0	1	9.32	1	146.67	1	0.0	5	995.54	1	40.624723	17.975036
989	2024-02-11 04:00:00	7	brindisi_sisri	14.94	1	85.77	1	0.0	1	9.52	1	139.26	1	0.0	5	994.14	1	40.624723	17.975036
990	2024-02-11 05:00:00	7	brindisi_sisri	14.82	1	87.46	1	0.0	1	8.19	1	142.51	1	0.0	5	994.3	1	40.624723	17.975036
991	2024-02-11 06:00:00	7	brindisi_sisri	15.05	1	85.84	1	0.0	1	7.64	1	142.39	1	0.0	5	993.8	1	40.624723	17.975036
992	2024-02-11 07:00:00	7	brindisi_sisri	14.8	1	87.4	1	0.0	1	6.01	1	149.48	1	0.0	5	993.9	1	40.624723	17.975036
993	2024-02-11 08:00:00	7	brindisi_sisri	14.74	1	89.82	1	0.0	1	5.63	1	146.57	1	57.91	1	994.25	1	40.624723	17.975036
994	2024-02-11 09:00:00	7	brindisi_sisri	15.16	1	88.84	1	0.0	1	5.41	1	145.33	1	158.05	1	994.66	1	40.624723	17.975036
995	2024-02-11 10:00:00	7	brindisi_sisri	15.91	1	84.13	1	0.0	1	6.07	1	151.94	1	344.16	1	995.13	1	40.624723	17.975036
996	2024-02-11 11:00:00	7	brindisi_sisri	17.56	1	67.05	1	0.0	1	6.91	1	168.03	1	510.21	1	995.63	1	40.624723	17.975036
997	2024-02-11 12:00:00	7	brindisi_sisri	18.41	1	60.74	1	0.0	1	6.46	1	164.57	1	405.43	1	995.41	1	40.624723	17.975036
998	2024-02-11 13:00:00	7	brindisi_sisri	18.75	1	57.17	1	0.0	1	6.65	1	156.78	1	339.34	1	994.91	1	40.624723	17.975036
999	2024-02-11 14:00:00	7	brindisi_sisri	18.34	1	56.22	1	0.0	1	6.3	1	163.13	1	217.83	1	994.87	1	40.624723	17.975036
1000	2024-02-11 15:00:00	7	brindisi_sisri	17.45	1	58.95	1	0.0	1	6.62	1	168.91	1	109.41	1	994.93	1	40.624723	17.975036
1001	2024-02-11 16:00:00	7	brindisi_sisri	14.47	1	72.0	1	0.0	1	4.43	1	177.77	1	71.47	1	995.09	1	40.624723	17.975036
1002	2024-02-11 17:00:00	7	brindisi_sisri	13.43	1	72.18	1	0.0	1	3.08	1	171.83	1	39.81	1	994.88	1	40.624723	17.975036
1003	2024-02-11 18:00:00	7	brindisi_sisri	12.4	1	73.58	1	0.0	1	2.71	1	158.11	1	0.0	5	995.17	1	40.624723	17.975036
1004	2024-02-11 19:00:00	7	brindisi_sisri	11.79	1	79.13	1	0.0	1	2.42	1	158.92	1	0.0	5	996.03	1	40.624723	17.975036
1005	2024-02-11 20:00:00	7	brindisi_sisri	12.09	1	82.28	1	0.0	1	3.7	1	162.55	1	0.0	5	996.41	1	40.624723	17.975036
1006	2024-02-11 21:00:00	7	brindisi_sisri	12.19	1	79.98	1	0.0	1	3.61	1	173.02	1	0.0	5	996.73	1	40.624723	17.975036
1007	2024-02-11 22:00:00	7	brindisi_sisri	11.23	1	81.81	1	0.0	1	2.82	1	183.51	1	0.0	5	996.84	1	40.624723	17.975036
1008	2024-02-11 23:00:00	7	brindisi_sisri	10.47	1	86.42	1	0.0	1	2.54	1	192.0	1	0.0	5	997.19	1	40.624723	17.975036
1009	2024-02-12 00:00:00	7	brindisi_sisri	9.1	1	90.24	1	0.0	1	2.11	1	173.81	1	0.0	5	997.26	1	40.624723	17.975036
1010	2024-02-12 01:00:00	7	brindisi_sisri	7.94	1	93.24	1	0.0	1	2.27	1	177.6	1	0.0	5	997.43	1	40.624723	17.975036
1011	2024-02-12 02:00:00	7	brindisi_sisri	7.43	1	95.05	1	0.0	1	2.09	1	187.7	1	0.0	5	997.69	1	40.624723	17.975036
1012	2024-02-12 03:00:00	7	brindisi_sisri	7.13	1	95.45	1	0.0	1	2.16	1	175.37	1	0.0	5	997.78	1	40.624723	17.975036
1013	2024-02-12 04:00:00	7	brindisi_sisri	7.86	1	95.73	1	0.0	1	1.99	1	180.43	1	0.0	5	997.74	1	40.624723	17.975036
1014	2024-02-12 05:00:00	7	brindisi_sisri	7.74	1	94.09	1	0.0	1	1.46	1	143.09	1	0.0	5	998.0	1	40.624723	17.975036
1015	2024-02-12 06:00:00	7	brindisi_sisri	6.99	1	93.57	1	0.0	1	0.93	1	148.77	1	0.0	5	998.09	1	40.624723	17.975036
1016	2024-02-12 07:00:00	7	brindisi_sisri	7.52	1	94.45	1	0.0	1	2.34	1	199.85	1	0.0	5	998.32	1	40.624723	17.975036
1017	2024-02-12 08:00:00	7	brindisi_sisri	9.47	1	91.32	1	0.0	1	3.62	1	193.92	1	50.19	1	998.78	1	40.624723	17.975036
1018	2024-02-12 09:00:00	7	brindisi_sisri	11.9	1	82.21	1	0.0	1	3.84	1	189.19	1	176.28	1	999.26	1	40.624723	17.975036
1019	2024-02-12 10:00:00	7	brindisi_sisri	15.48	1	69.54	1	0.0	1	4.6	1	184.36	1	401.15	1	999.6	1	40.624723	17.975036
1020	2024-02-12 11:00:00	7	brindisi_sisri	15.73	1	63.67	1	0.0	1	5.06	1	192.19	1	459.34	1	999.84	1	40.624723	17.975036
1021	2024-02-12 12:00:00	7	brindisi_sisri	15.9	1	56.4	1	0.0	1	4.4	1	221.1	1	349.05	1	999.87	1	40.624723	17.975036
1022	2024-02-12 13:00:00	7	brindisi_sisri	15.3	1	58.73	1	0.0	1	3.41	1	191.83	1	158.52	1	999.58	1	40.624723	17.975036
1023	2024-02-12 14:00:00	7	brindisi_sisri	15.63	1	55.28	1	0.0	1	1.84	1	189.57	1	149.55	1	999.2	1	40.624723	17.975036
1024	2024-02-12 15:00:00	7	brindisi_sisri	14.85	1	58.37	1	0.0	1	3.03	1	331.52	1	101.38	1	999.33	1	40.624723	17.975036
1025	2024-02-12 16:00:00	7	brindisi_sisri	13.77	1	64.85	1	0.0	1	3.16	1	334.43	1	88.99	1	999.75	1	40.624723	17.975036
1026	2024-02-12 17:00:00	7	brindisi_sisri	13.15	1	66.49	1	0.0	1	2.55	1	322.0	1	41.16	1	1000.33	1	40.624723	17.975036
1027	2024-02-12 18:00:00	7	brindisi_sisri	12.11	1	70.94	1	0.0	1	0.87	1	294.16	1	0.0	5	1001.18	1	40.624723	17.975036
1028	2024-02-12 19:00:00	7	brindisi_sisri	10.68	1	78.0	1	0.0	1	1.24	1	211.36	1	0.0	5	1002.05	1	40.624723	17.975036
1029	2024-02-12 20:00:00	7	brindisi_sisri	8.81	1	86.26	1	0.0	1	1.41	1	221.07	1	0.0	5	1002.44	1	40.624723	17.975036
1030	2024-02-12 21:00:00	7	brindisi_sisri	8.65	1	90.17	1	0.0	1	1.83	1	222.34	1	0.0	5	1002.9	1	40.624723	17.975036
1031	2024-02-12 22:00:00	7	brindisi_sisri	8.59	1	90.79	1	0.0	1	1.51	1	227.05	1	0.0	5	1003.4	1	40.624723	17.975036
1032	2024-02-12 23:00:00	7	brindisi_sisri	7.82	1	92.79	1	0.0	1	1.53	1	221.05	1	0.0	5	1003.63	1	40.624723	17.975036
1033	2024-02-13 00:00:00	7	brindisi_sisri	7.32	1	94.27	1	0.0	1	1.42	1	223.41	1	0.0	5	1004.08	1	40.624723	17.975036
1034	2024-02-13 01:00:00	7	brindisi_sisri	7.01	1	95.27	1	0.0	1	2.01	1	219.66	1	0.0	5	1004.23	1	40.624723	17.975036
1035	2024-02-13 02:00:00	7	brindisi_sisri	7.59	1	95.76	1	0.0	1	2.02	1	235.72	1	0.0	5	1004.26	1	40.624723	17.975036
1036	2024-02-13 03:00:00	7	brindisi_sisri	9.05	1	90.61	1	0.0	1	2.43	1	246.86	1	0.0	1	1004.36	1	40.624723	17.975036
1037	2024-02-13 04:00:00	7	brindisi_sisri	8.93	1	88.53	1	0.0	1	1.92	1	235.01	1	0.0	1	1004.6	1	40.624723	17.975036
1038	2024-02-13 05:00:00	7	brindisi_sisri	8.77	1	89.58	1	0.0	1	2.19	1	255.54	1	0.0	5	1004.79	1	40.624723	17.975036
1039	2024-02-13 06:00:00	7	brindisi_sisri	8.87	1	87.55	1	0.0	1	2.51	1	247.43	1	0.0	5	1005.32	1	40.624723	17.975036
1040	2024-02-13 07:00:00	7	brindisi_sisri	8.33	1	89.45	1	0.0	1	2.19	1	238.0	1	0.0	5	1005.83	1	40.624723	17.975036
1041	2024-02-13 08:00:00	7	brindisi_sisri	8.88	1	91.04	1	0.0	1	2.12	1	243.13	1	50.61	1	1006.49	1	40.624723	17.975036
1042	2024-02-13 09:00:00	7	brindisi_sisri	11.35	1	89.53	1	0.0	1	3.97	1	277.41	1	140.82	1	1007.12	1	40.624723	17.975036
1043	2024-02-13 10:00:00	7	brindisi_sisri	11.68	1	90.19	1	0.6	1	3.44	1	265.68	1	197.52	1	1007.52	1	40.624723	17.975036
1044	2024-02-13 11:00:00	7	brindisi_sisri	13.07	1	87.88	1	0.0	1	5.83	1	275.07	1	482.34	1	1007.81	1	40.624723	17.975036
1045	2024-02-13 12:00:00	7	brindisi_sisri	12.35	1	87.9	1	0.6	1	6.05	1	274.21	1	157.34	1	1007.79	1	40.624723	17.975036
1046	2024-02-13 13:00:00	7	brindisi_sisri	11.4	1	94.54	1	3.0	1	5.75	1	286.01	1	136.06	1	1007.7	1	40.624723	17.975036
1047	2024-02-13 14:00:00	7	brindisi_sisri	11.52	1	94.58	1	0.0	1	5.65	1	295.31	1	153.08	1	1007.49	1	40.624723	17.975036
1048	2024-02-13 15:00:00	7	brindisi_sisri	11.83	1	92.23	1	0.2	1	5.15	1	280.85	1	112.93	1	1007.71	1	40.624723	17.975036
1049	2024-02-13 16:00:00	7	brindisi_sisri	11.42	1	92.06	1	0.0	1	4.87	1	281.68	1	73.84	1	1008.1	1	40.624723	17.975036
1050	2024-02-13 17:00:00	7	brindisi_sisri	11.2	1	93.24	1	0.4	1	4.85	1	280.93	1	24.69	1	1008.42	1	40.624723	17.975036
1051	2024-02-13 18:00:00	7	brindisi_sisri	11.06	1	93.6	1	0.0	1	4.62	1	280.26	1	0.0	5	1009.03	1	40.624723	17.975036
1052	2024-02-13 19:00:00	7	brindisi_sisri	10.97	1	93.78	1	0.0	1	4.63	1	275.94	1	0.0	5	1009.69	1	40.624723	17.975036
1053	2024-02-13 20:00:00	7	brindisi_sisri	10.78	1	93.63	1	0.0	1	4.9	1	277.78	1	0.0	5	1009.98	1	40.624723	17.975036
1054	2024-02-13 21:00:00	7	brindisi_sisri	10.47	1	90.6	1	0.0	1	5.69	1	277.85	1	0.0	5	1010.32	1	40.624723	17.975036
1055	2024-02-13 22:00:00	7	brindisi_sisri	10.4	1	90.82	1	0.0	1	4.68	1	269.48	1	0.0	5	1010.57	1	40.624723	17.975036
1056	2024-02-13 23:00:00	7	brindisi_sisri	11.62	1	80.05	2	0.0	1	6.68	1	311.86	1	0.0	5	1010.5	1	40.624723	17.975036
1057	2024-02-14 00:00:00	7	brindisi_sisri	12.76	1	64.83	1	0.0	1	6.83	1	317.74	1	0.0	5	1010.73	1	40.624723	17.975036
1058	2024-02-14 01:00:00	7	brindisi_sisri	12.84	1	63.97	1	0.0	1	6.84	1	317.52	1	0.0	5	1010.88	1	40.624723	17.975036
1059	2024-02-14 02:00:00	7	brindisi_sisri	12.67	1	59.84	1	0.0	1	7.5	1	319.63	1	0.0	5	1011.12	1	40.624723	17.975036
1060	2024-02-14 03:00:00	7	brindisi_sisri	12.48	1	59.24	1	0.0	1	7.75	1	318.41	1	0.0	5	1011.19	1	40.624723	17.975036
1061	2024-02-14 04:00:00	7	brindisi_sisri	12.29	1	62.13	1	0.0	1	6.83	1	319.01	1	0.0	5	1011.31	1	40.624723	17.975036
1062	2024-02-14 05:00:00	7	brindisi_sisri	12.3	1	61.51	1	0.0	1	6.58	1	323.84	1	0.0	5	1011.82	1	40.624723	17.975036
1063	2024-02-14 06:00:00	7	brindisi_sisri	12.16	1	61.47	1	0.0	1	7.35	1	318.48	1	0.0	5	1012.39	1	40.624723	17.975036
1064	2024-02-14 07:00:00	7	brindisi_sisri	11.92	1	54.22	1	0.0	1	7.85	1	323.65	1	0.0	5	1012.93	1	40.624723	17.975036
1065	2024-02-14 08:00:00	7	brindisi_sisri	12.19	1	53.87	1	0.0	1	8.59	1	319.79	1	108.59	1	1013.54	1	40.624723	17.975036
1066	2024-02-14 09:00:00	7	brindisi_sisri	12.89	1	50.48	1	0.0	1	7.82	1	319.06	1	298.7	1	1014.09	1	40.624723	17.975036
1067	2024-02-14 10:00:00	7	brindisi_sisri	13.4	1	47.96	1	0.0	1	8.17	1	312.95	1	480.95	1	1014.39	1	40.624723	17.975036
1068	2024-02-14 11:00:00	7	brindisi_sisri	13.33	1	48.05	1	0.0	1	8.31	1	316.35	1	605.3	1	1014.53	1	40.624723	17.975036
1069	2024-02-14 12:00:00	7	brindisi_sisri	13.72	1	44.77	1	0.0	1	8.07	1	308.85	1	530.82	1	1014.47	1	40.624723	17.975036
1070	2024-02-14 13:00:00	7	brindisi_sisri	13.92	1	47.84	1	0.0	1	8.24	1	305.6	1	465.48	1	1014.35	1	40.624723	17.975036
1071	2024-02-14 14:00:00	7	brindisi_sisri	13.8	1	50.61	1	0.0	1	8.04	1	307.75	1	204.11	1	1014.17	1	40.624723	17.975036
1072	2024-02-14 15:00:00	7	brindisi_sisri	13.44	1	51.33	1	0.0	1	8.49	1	300.73	1	74.39	1	1014.2	1	40.624723	17.975036
1073	2024-02-14 16:00:00	7	brindisi_sisri	12.88	1	49.36	1	0.0	1	8.5	1	303.17	1	74.0	1	1014.59	1	40.624723	17.975036
1074	2024-02-14 17:00:00	7	brindisi_sisri	12.64	1	48.73	1	0.0	1	8.34	1	307.11	1	71.85	1	1014.91	1	40.624723	17.975036
1075	2024-02-14 18:00:00	7	brindisi_sisri	12.59	1	49.81	1	0.0	1	8.47	1	311.19	1	7.69	1	1015.34	1	40.624723	17.975036
1076	2024-02-14 19:00:00	7	brindisi_sisri	12.72	1	51.12	1	0.0	1	7.69	1	309.24	1	0.0	5	1015.69	1	40.624723	17.975036
1077	2024-02-14 20:00:00	7	brindisi_sisri	12.88	1	53.82	1	0.0	1	7.32	1	309.4	1	0.0	5	1015.92	1	40.624723	17.975036
1078	2024-02-14 21:00:00	7	brindisi_sisri	13.08	1	58.04	1	0.0	1	7.38	1	308.38	1	0.0	5	1016.11	1	40.624723	17.975036
1079	2024-02-14 22:00:00	7	brindisi_sisri	12.98	1	63.29	1	0.0	1	6.4	1	307.91	1	0.0	5	1016.26	1	40.624723	17.975036
1080	2024-02-14 23:00:00	7	brindisi_sisri	13.21	1	62.47	1	0.0	1	7.12	1	310.56	1	0.0	5	1016.12	1	40.624723	17.975036
1081	2024-02-15 00:00:00	7	brindisi_sisri	13.24	1	61.38	1	0.0	1	6.7	1	312.83	1	0.0	5	1016.03	1	40.624723	17.975036
1082	2024-02-15 01:00:00	7	brindisi_sisri	13.05	1	54.71	1	0.0	1	5.02	1	315.4	1	0.0	5	1016.08	1	40.624723	17.975036
1083	2024-02-15 02:00:00	7	brindisi_sisri	12.67	1	51.98	1	0.0	1	4.61	1	327.26	1	0.0	5	1015.97	1	40.624723	17.975036
1084	2024-02-15 03:00:00	7	brindisi_sisri	12.39	1	53.69	1	0.0	1	4.23	1	321.61	1	0.0	5	1015.74	1	40.624723	17.975036
1085	2024-02-15 04:00:00	7	brindisi_sisri	11.85	1	56.75	1	0.0	1	3.81	1	343.0	1	0.0	5	1015.7	1	40.624723	17.975036
1086	2024-02-15 05:00:00	7	brindisi_sisri	11.41	1	58.94	1	0.0	1	3.4	1	348.63	1	0.0	5	1016.01	1	40.624723	17.975036
1087	2024-02-15 06:00:00	7	brindisi_sisri	11.26	1	59.69	1	0.0	1	3.5	1	341.53	1	0.0	5	1016.14	1	40.624723	17.975036
1088	2024-02-15 07:00:00	7	brindisi_sisri	11.21	1	58.19	1	0.0	1	3.9	1	342.7	1	5.79	1	1016.61	1	40.624723	17.975036
1089	2024-02-15 08:00:00	7	brindisi_sisri	11.91	1	55.31	1	0.0	1	4.41	1	346.5	1	112.5	1	1017.14	1	40.624723	17.975036
1090	2024-02-15 09:00:00	7	brindisi_sisri	13.02	1	53.46	1	0.0	1	4.82	1	350.01	1	305.23	1	1017.38	1	40.624723	17.975036
1091	2024-02-15 10:00:00	7	brindisi_sisri	13.78	1	51.18	1	0.0	1	4.41	1	348.9	1	489.3	1	1017.57	1	40.624723	17.975036
1092	2024-02-15 11:00:00	7	brindisi_sisri	13.84	1	50.61	1	0.0	1	4.36	1	348.84	1	612.05	1	1017.64	1	40.624723	17.975036
1093	2024-02-15 12:00:00	7	brindisi_sisri	14.43	1	47.71	1	0.0	1	4.62	1	328.83	1	544.25	1	1017.57	1	40.624723	17.975036
1094	2024-02-15 13:00:00	7	brindisi_sisri	14.45	1	46.27	1	0.0	1	5.3	1	333.85	1	441.61	1	1017.09	1	40.624723	17.975036
1095	2024-02-15 14:00:00	7	brindisi_sisri	14.25	1	47.41	1	0.0	1	4.8	1	320.07	1	205.33	1	1016.72	1	40.624723	17.975036
1096	2024-02-15 15:00:00	7	brindisi_sisri	13.85	1	50.72	1	0.0	1	4.18	1	321.65	1	65.75	1	1016.37	1	40.624723	17.975036
1097	2024-02-15 16:00:00	7	brindisi_sisri	13.44	1	54.3	1	0.0	1	4.41	1	321.19	1	62.18	1	1016.06	1	40.624723	17.975036
1098	2024-02-15 17:00:00	7	brindisi_sisri	13.33	1	55.75	1	0.0	1	4.55	1	312.71	1	72.7	1	1015.95	1	40.624723	17.975036
1099	2024-02-15 18:00:00	7	brindisi_sisri	12.65	1	56.93	1	0.0	1	4.41	1	300.1	1	7.76	1	1016.16	1	40.624723	17.975036
1100	2024-02-15 19:00:00	7	brindisi_sisri	12.27	1	57.09	1	0.0	1	4.11	1	300.92	1	0.0	5	1016.54	1	40.624723	17.975036
1101	2024-02-15 20:00:00	7	brindisi_sisri	12.21	1	61.23	1	0.0	1	3.8	1	304.52	1	0.0	5	1016.65	1	40.624723	17.975036
1102	2024-02-15 21:00:00	7	brindisi_sisri	12.15	1	64.24	1	0.0	1	3.1	1	303.19	1	0.0	5	1016.74	1	40.624723	17.975036
1103	2024-02-15 22:00:00	7	brindisi_sisri	11.66	1	79.15	2	0.0	1	2.99	1	285.67	1	0.0	5	1016.85	1	40.624723	17.975036
1104	2024-02-15 23:00:00	7	brindisi_sisri	11.21	1	90.42	1	0.0	1	2.88	1	290.91	1	0.0	5	1016.68	1	40.624723	17.975036
1105	2024-02-16 00:00:00	7	brindisi_sisri	10.72	1	93.72	1	0.0	1	2.37	1	281.76	1	0.0	5	1016.56	1	40.624723	17.975036
1106	2024-02-16 01:00:00	7	brindisi_sisri	10.33	1	96.7	1	0.0	1	1.83	1	271.92	1	0.0	5	1016.38	1	40.624723	17.975036
1107	2024-02-16 02:00:00	7	brindisi_sisri	10.43	1	97.95	1	0.0	1	2.74	1	277.32	1	0.0	5	1016.24	1	40.624723	17.975036
1108	2024-02-16 03:00:00	7	brindisi_sisri	10.36	1	98.11	1	0.0	1	2.27	1	263.34	1	0.0	5	1016.1	1	40.624723	17.975036
1109	2024-02-16 04:00:00	7	brindisi_sisri	10.0	1	98.34	1	0.0	1	2.34	1	269.04	1	0.0	5	1015.78	1	40.624723	17.975036
1110	2024-02-16 05:00:00	7	brindisi_sisri	9.74	1	97.83	1	0.0	1	2.11	1	266.92	1	0.0	5	1015.86	1	40.624723	17.975036
1111	2024-02-16 06:00:00	7	brindisi_sisri	9.57	1	95.59	1	0.0	1	2.73	1	281.44	1	0.0	5	1015.98	1	40.624723	17.975036
1112	2024-02-16 07:00:00	7	brindisi_sisri	9.21	1	89.85	1	0.0	1	2.1	1	270.86	1	5.43	1	1016.1	1	40.624723	17.975036
1113	2024-02-16 08:00:00	7	brindisi_sisri	10.58	1	85.57	1	0.0	1	2.72	1	284.56	1	113.82	1	1016.41	1	40.624723	17.975036
1114	2024-02-16 09:00:00	7	brindisi_sisri	13.32	1	80.03	1	0.0	1	1.97	1	275.22	1	311.51	1	1016.73	1	40.624723	17.975036
1115	2024-02-16 10:00:00	7	brindisi_sisri	14.24	1	60.82	1	0.0	1	3.42	1	2.78	1	497.0	1	1016.92	1	40.624723	17.975036
1116	2024-02-16 11:00:00	7	brindisi_sisri	14.21	1	53.27	1	0.0	1	3.06	1	353.91	1	626.18	1	1017.22	1	40.624723	17.975036
1117	2024-02-16 12:00:00	7	brindisi_sisri	14.97	1	50.36	1	0.0	1	3.04	1	335.17	1	553.64	1	1017.14	1	40.624723	17.975036
1118	2024-02-16 13:00:00	7	brindisi_sisri	15.42	1	50.93	1	0.0	1	2.85	1	11.0	1	405.2	1	1016.7	1	40.624723	17.975036
1119	2024-02-16 14:00:00	7	brindisi_sisri	14.99	1	51.12	1	0.0	1	2.79	1	4.89	1	212.08	1	1016.31	1	40.624723	17.975036
1120	2024-02-16 15:00:00	7	brindisi_sisri	14.37	1	51.63	1	0.0	1	2.7	1	344.6	1	66.91	1	1016.15	1	40.624723	17.975036
1121	2024-02-16 16:00:00	7	brindisi_sisri	14.05	1	50.7	1	0.0	1	2.23	1	337.57	1	59.12	1	1016.15	1	40.624723	17.975036
1122	2024-02-16 17:00:00	7	brindisi_sisri	13.55	1	54.43	1	0.0	1	2.07	1	342.57	1	69.1	1	1016.28	1	40.624723	17.975036
1123	2024-02-16 18:00:00	7	brindisi_sisri	12.35	1	59.5	1	0.0	1	1.11	1	7.43	1	7.25	1	1016.51	1	40.624723	17.975036
1124	2024-02-16 19:00:00	7	brindisi_sisri	11.48	1	66.41	1	0.0	1	0.87	1	34.05	1	0.0	5	1016.93	1	40.624723	17.975036
1125	2024-02-16 20:00:00	7	brindisi_sisri	9.64	1	74.43	1	0.0	1	0.98	1	62.44	1	0.0	5	1017.37	1	40.624723	17.975036
1126	2024-02-16 21:00:00	7	brindisi_sisri	7.19	1	85.28	1	0.0	1	1.18	1	194.48	1	0.0	5	1017.68	1	40.624723	17.975036
1127	2024-02-16 22:00:00	7	brindisi_sisri	5.61	1	89.28	1	0.0	1	1.22	1	205.81	1	0.0	5	1018.07	1	40.624723	17.975036
1128	2024-02-16 23:00:00	7	brindisi_sisri	4.9	1	91.65	1	0.0	1	0.85	1	239.91	1	0.0	5	1018.25	1	40.624723	17.975036
1129	2024-02-17 00:00:00	7	brindisi_sisri	4.93	1	92.14	1	0.0	1	1.36	1	229.04	1	0.0	5	1018.52	1	40.624723	17.975036
1130	2024-02-17 01:00:00	7	brindisi_sisri	4.23	1	93.46	1	0.0	1	1.72	1	215.85	1	0.0	5	1018.62	1	40.624723	17.975036
1131	2024-02-17 02:00:00	7	brindisi_sisri	4.41	1	95.43	1	0.0	1	1.46	1	220.89	1	0.0	5	1018.71	1	40.624723	17.975036
1132	2024-02-17 03:00:00	7	brindisi_sisri	3.86	1	96.33	1	0.0	1	1.38	1	223.13	1	0.0	5	1018.69	1	40.624723	17.975036
1133	2024-02-17 04:00:00	7	brindisi_sisri	3.42	1	97.32	1	0.0	1	0.97	1	236.05	1	0.0	5	1018.68	1	40.624723	17.975036
1134	2024-02-17 05:00:00	7	brindisi_sisri	2.88	1	97.87	1	0.0	1	1.04	1	227.89	1	0.0	5	1018.83	1	40.624723	17.975036
1135	2024-02-17 06:00:00	7	brindisi_sisri	2.42	1	98.39	1	0.0	1	1.01	1	228.69	1	0.0	5	1019.17	1	40.624723	17.975036
1136	2024-02-17 07:00:00	7	brindisi_sisri	2.33	1	98.96	1	0.0	1	1.12	1	214.79	1	8.34	1	1019.55	1	40.624723	17.975036
1137	2024-02-17 08:00:00	7	brindisi_sisri	4.82	1	98.35	1	0.0	1	1.24	1	214.44	1	129.24	1	1020.15	1	40.624723	17.975036
1138	2024-02-17 09:00:00	7	brindisi_sisri	10.46	1	94.36	1	0.0	1	1.14	1	198.31	1	302.34	1	1020.75	1	40.624723	17.975036
1139	2024-02-17 10:00:00	7	brindisi_sisri	15.2	1	77.05	1	0.0	1	0.91	1	200.92	1	485.0	1	1021.13	1	40.624723	17.975036
1140	2024-02-17 11:00:00	7	brindisi_sisri	14.94	1	67.91	1	0.0	1	1.67	1	77.5	1	620.88	1	1021.48	1	40.624723	17.975036
1141	2024-02-17 12:00:00	7	brindisi_sisri	15.66	1	61.33	1	0.0	1	1.98	1	46.86	1	556.9	1	1021.54	1	40.624723	17.975036
1142	2024-02-17 13:00:00	7	brindisi_sisri	15.56	1	64.37	1	0.0	1	2.93	1	335.56	1	420.48	1	1021.46	1	40.624723	17.975036
1143	2024-02-17 14:00:00	7	brindisi_sisri	15.04	1	64.15	1	0.0	1	3.33	1	327.8	1	223.21	1	1021.34	1	40.624723	17.975036
1144	2024-02-17 15:00:00	7	brindisi_sisri	14.57	1	70.36	1	0.0	1	3.25	1	335.33	1	70.81	1	1021.33	1	40.624723	17.975036
1145	2024-02-17 16:00:00	7	brindisi_sisri	14.56	1	63.55	1	0.0	1	2.78	1	340.05	1	65.7	1	1021.59	1	40.624723	17.975036
1146	2024-02-17 17:00:00	7	brindisi_sisri	13.96	1	64.06	1	0.0	1	2.42	1	333.33	1	62.3	1	1021.77	1	40.624723	17.975036
1147	2024-02-17 18:00:00	7	brindisi_sisri	12.98	1	69.82	1	0.0	1	1.78	1	311.79	1	8.1	1	1022.19	1	40.624723	17.975036
1148	2024-02-17 19:00:00	7	brindisi_sisri	11.87	1	78.46	1	0.0	1	1.28	1	300.33	1	0.0	5	1022.82	1	40.624723	17.975036
1149	2024-02-17 20:00:00	7	brindisi_sisri	10.77	1	85.71	1	0.0	1	1.21	1	289.09	1	0.0	5	1023.3	1	40.624723	17.975036
1150	2024-02-17 21:00:00	7	brindisi_sisri	9.21	1	90.24	1	0.0	1	0.99	1	239.31	1	0.0	5	1023.81	1	40.624723	17.975036
1151	2024-02-17 22:00:00	7	brindisi_sisri	9.62	1	95.23	1	0.0	1	1.3	1	255.39	1	0.0	5	1024.22	1	40.624723	17.975036
1152	2024-02-17 23:00:00	7	brindisi_sisri	9.81	1	97.62	1	0.0	1	1.69	1	264.61	1	0.0	5	1024.36	1	40.624723	17.975036
1153	2024-02-18 00:00:00	7	brindisi_sisri	10.02	1	99.02	1	0.0	1	2.09	1	277.09	1	0.0	5	1024.69	1	40.624723	17.975036
1154	2024-02-18 01:00:00	7	brindisi_sisri	9.67	1	null	3	0.0	1	2.03	1	262.3	1	0.0	5	1024.89	1	40.624723	17.975036
1155	2024-02-18 02:00:00	7	brindisi_sisri	9.05	1	99.02	1	0.0	1	2.16	1	277.14	1	0.0	5	1024.78	1	40.624723	17.975036
1156	2024-02-18 03:00:00	7	brindisi_sisri	9.02	1	98.88	1	0.0	1	1.52	1	262.79	1	0.0	5	1024.69	1	40.624723	17.975036
1157	2024-02-18 04:00:00	7	brindisi_sisri	10.46	1	99.02	1	0.0	1	2.2	1	281.96	1	0.0	5	1024.4	1	40.624723	17.975036
1158	2024-02-18 05:00:00	7	brindisi_sisri	11.96	1	97.56	1	0.0	1	3.97	1	302.47	1	0.0	5	1024.35	1	40.624723	17.975036
1159	2024-02-18 06:00:00	7	brindisi_sisri	12.19	1	93.09	1	0.0	1	3.93	1	301.08	1	0.0	5	1024.65	1	40.624723	17.975036
1160	2024-02-18 07:00:00	7	brindisi_sisri	11.96	1	92.66	1	0.0	1	3.34	1	280.25	1	0.0	5	1024.93	1	40.624723	17.975036
1161	2024-02-18 08:00:00	7	brindisi_sisri	11.94	1	92.26	1	0.0	1	3.33	1	277.85	1	64.25	1	1025.3	1	40.624723	17.975036
1162	2024-02-18 09:00:00	7	brindisi_sisri	12.73	1	88.45	1	0.0	1	3.88	1	279.56	1	281.98	1	1025.62	1	40.624723	17.975036
1163	2024-02-18 10:00:00	7	brindisi_sisri	13.43	1	82.56	1	0.0	1	4.0	1	274.69	1	289.86	1	1025.66	1	40.624723	17.975036
1164	2024-02-18 11:00:00	7	brindisi_sisri	14.48	1	75.48	1	0.0	1	3.87	1	283.17	1	358.65	1	1025.68	1	40.624723	17.975036
1165	2024-02-18 12:00:00	7	brindisi_sisri	14.63	1	74.37	1	0.0	1	4.93	1	284.89	1	401.56	1	1025.48	1	40.624723	17.975036
1166	2024-02-18 13:00:00	7	brindisi_sisri	14.85	1	73.34	1	0.0	1	4.91	1	286.01	1	437.26	1	1024.97	1	40.624723	17.975036
1167	2024-02-18 14:00:00	7	brindisi_sisri	14.77	1	73.05	1	0.0	1	5.06	1	287.82	1	254.86	1	1024.28	1	40.624723	17.975036
1168	2024-02-18 15:00:00	7	brindisi_sisri	14.48	1	75.41	1	0.0	1	4.49	1	291.53	1	102.73	1	1023.8	1	40.624723	17.975036
1169	2024-02-18 16:00:00	7	brindisi_sisri	14.02	1	80.86	1	0.0	1	5.52	1	297.23	1	123.07	1	1023.59	1	40.624723	17.975036
1170	2024-02-18 17:00:00	7	brindisi_sisri	13.42	1	84.14	1	0.0	1	4.28	1	296.15	1	66.32	1	1023.32	1	40.624723	17.975036
1171	2024-02-18 18:00:00	7	brindisi_sisri	12.32	1	89.29	1	0.0	1	3.31	1	281.43	1	8.1	1	1023.06	1	40.624723	17.975036
1172	2024-02-18 19:00:00	7	brindisi_sisri	11.67	1	92.92	1	0.0	1	3.0	1	279.48	1	0.0	5	1022.96	1	40.624723	17.975036
1173	2024-02-18 20:00:00	7	brindisi_sisri	11.73	1	95.57	1	0.0	1	2.7	1	280.03	1	0.0	5	1022.69	1	40.624723	17.975036
1174	2024-02-18 21:00:00	7	brindisi_sisri	11.27	1	97.29	1	0.0	1	2.18	1	270.4	1	0.0	5	1022.46	1	40.624723	17.975036
1175	2024-02-18 22:00:00	7	brindisi_sisri	10.47	1	97.45	1	0.0	1	2.4	1	231.76	1	0.0	5	1022.49	1	40.624723	17.975036
1176	2024-02-18 23:00:00	7	brindisi_sisri	9.44	1	98.0	1	0.0	1	1.68	1	232.25	1	0.0	5	1022.14	1	40.624723	17.975036
1177	2024-02-19 00:00:00	7	brindisi_sisri	9.78	1	98.99	1	0.0	1	1.61	1	258.5	1	0.0	5	1021.69	1	40.624723	17.975036
1178	2024-02-19 01:00:00	7	brindisi_sisri	10.61	1	98.93	1	0.0	1	1.8	1	267.79	1	0.0	5	1021.41	1	40.624723	17.975036
1179	2024-02-19 02:00:00	7	brindisi_sisri	9.67	1	98.85	1	0.0	1	1.18	1	233.47	1	0.0	5	1021.12	1	40.624723	17.975036
1180	2024-02-19 03:00:00	7	brindisi_sisri	9.15	1	99.02	1	0.0	1	1.74	1	231.45	1	0.0	5	1020.53	1	40.624723	17.975036
1181	2024-02-19 04:00:00	7	brindisi_sisri	9.37	1	98.41	1	0.0	1	1.48	1	253.16	1	0.0	5	1019.98	1	40.624723	17.975036
1182	2024-02-19 05:00:00	7	brindisi_sisri	7.93	1	96.36	1	0.0	1	1.37	1	197.19	1	0.0	5	1019.76	1	40.624723	17.975036
1183	2024-02-19 06:00:00	7	brindisi_sisri	9.02	1	97.22	1	0.0	1	1.53	1	282.47	1	0.0	5	1019.64	1	40.624723	17.975036
1184	2024-02-19 07:00:00	7	brindisi_sisri	8.63	1	97.22	1	0.0	1	1.31	1	237.79	1	0.0	5	1019.29	1	40.624723	17.975036
1185	2024-02-19 08:00:00	7	brindisi_sisri	8.28	1	96.85	1	0.0	1	1.23	1	205.81	1	59.4	1	1019.52	1	40.624723	17.975036
1186	2024-02-19 09:00:00	7	brindisi_sisri	10.64	1	93.6	1	0.0	1	1.52	1	203.51	1	216.84	1	1019.72	1	40.624723	17.975036
1187	2024-02-19 10:00:00	7	brindisi_sisri	13.15	1	77.29	1	0.0	1	1.11	1	202.62	1	186.29	1	1019.66	1	40.624723	17.975036
1188	2024-02-19 11:00:00	7	brindisi_sisri	14.68	1	67.54	1	0.0	1	1.34	1	220.87	1	303.4	1	1019.46	1	40.624723	17.975036
1189	2024-02-19 12:00:00	7	brindisi_sisri	16.49	1	63.15	1	0.0	1	1.93	1	320.89	1	519.07	1	1019.08	1	40.624723	17.975036
1190	2024-02-19 13:00:00	7	brindisi_sisri	16.25	1	60.19	1	0.0	1	2.34	1	331.07	1	352.77	1	1018.29	1	40.624723	17.975036
1191	2024-02-19 14:00:00	7	brindisi_sisri	15.94	1	60.89	1	0.0	1	2.2	1	6.51	1	276.59	1	1017.62	1	40.624723	17.975036
1192	2024-02-19 15:00:00	7	brindisi_sisri	15.51	1	64.54	1	0.0	1	2.45	1	31.69	1	129.96	1	1017.2	1	40.624723	17.975036
1193	2024-02-19 16:00:00	7	brindisi_sisri	14.84	1	72.85	1	0.0	1	2.71	1	67.03	1	145.73	1	1016.96	1	40.624723	17.975036
1194	2024-02-19 17:00:00	7	brindisi_sisri	14.25	1	79.28	1	0.0	1	2.4	1	83.09	1	59.42	1	1016.82	1	40.624723	17.975036
1195	2024-02-19 18:00:00	7	brindisi_sisri	13.0	1	87.15	1	0.0	1	1.15	1	84.34	1	5.04	1	1017.04	1	40.624723	17.975036
1196	2024-02-19 19:00:00	7	brindisi_sisri	12.51	1	92.01	1	0.0	1	1.03	1	87.83	1	0.0	5	1017.13	1	40.624723	17.975036
1197	2024-02-19 20:00:00	7	brindisi_sisri	11.96	1	94.19	1	0.0	1	1.31	1	148.68	1	0.0	5	1017.11	1	40.624723	17.975036
1198	2024-02-19 21:00:00	7	brindisi_sisri	11.15	1	95.91	1	0.0	1	0.76	1	184.91	1	0.0	5	1017.4	1	40.624723	17.975036
1199	2024-02-19 22:00:00	7	brindisi_sisri	9.81	1	96.4	1	0.0	1	1.48	1	179.17	1	0.0	5	1017.28	1	40.624723	17.975036
1200	2024-02-19 23:00:00	7	brindisi_sisri	8.91	1	97.78	1	0.0	1	1.41	1	198.74	1	0.0	5	1017.12	1	40.624723	17.975036
1201	2024-02-20 00:00:00	7	brindisi_sisri	9.2	1	98.85	1	0.0	1	1.5	1	232.66	1	0.0	5	1016.92	1	40.624723	17.975036
1202	2024-02-20 01:00:00	7	brindisi_sisri	10.01	1	98.22	1	0.0	1	1.75	1	276.41	1	0.0	5	1016.79	1	40.624723	17.975036
1203	2024-02-20 02:00:00	7	brindisi_sisri	10.41	1	97.98	1	0.0	1	1.84	1	276.18	1	0.0	5	1016.59	1	40.624723	17.975036
1204	2024-02-20 03:00:00	7	brindisi_sisri	10.57	1	98.04	1	0.0	1	1.74	1	281.01	1	0.0	5	1016.11	1	40.624723	17.975036
1205	2024-02-20 04:00:00	7	brindisi_sisri	10.91	1	97.85	1	0.0	1	2.43	1	280.19	1	0.0	5	1015.72	1	40.624723	17.975036
1206	2024-02-20 05:00:00	7	brindisi_sisri	11.1	1	97.8	1	0.0	1	2.53	1	277.54	1	0.0	5	1015.76	1	40.624723	17.975036
1207	2024-02-20 06:00:00	7	brindisi_sisri	11.31	1	97.99	1	0.0	1	2.83	1	284.71	1	0.0	5	1015.78	1	40.624723	17.975036
1208	2024-02-20 07:00:00	7	brindisi_sisri	11.64	1	96.93	1	0.0	1	3.09	1	280.37	1	5.58	1	1015.73	1	40.624723	17.975036
1209	2024-02-20 08:00:00	7	brindisi_sisri	11.56	1	96.13	1	0.0	1	2.44	1	287.48	1	33.33	1	1016.12	1	40.624723	17.975036
1210	2024-02-20 09:00:00	7	brindisi_sisri	11.49	1	95.95	1	0.0	1	2.1	1	283.33	1	63.34	1	1016.7	1	40.624723	17.975036
1211	2024-02-20 10:00:00	7	brindisi_sisri	12.4	1	94.03	1	1.0	1	3.23	1	300.58	1	171.29	1	1016.8	1	40.624723	17.975036
1212	2024-02-20 11:00:00	7	brindisi_sisri	13.31	1	93.94	1	0.0	1	3.96	1	297.67	1	462.88	1	1016.86	1	40.624723	17.975036
1213	2024-02-20 12:00:00	7	brindisi_sisri	14.46	1	87.21	1	0.0	1	2.91	1	315.16	1	337.72	1	1016.71	1	40.624723	17.975036
1214	2024-02-20 13:00:00	7	brindisi_sisri	15.18	1	80.3	1	0.0	1	3.12	1	313.42	1	381.97	1	1016.17	1	40.624723	17.975036
1215	2024-02-20 14:00:00	7	brindisi_sisri	15.24	1	76.71	1	0.0	1	3.23	1	314.03	1	306.1	1	1015.51	1	40.624723	17.975036
1216	2024-02-20 15:00:00	7	brindisi_sisri	15.22	1	74.06	1	0.0	1	3.23	1	324.43	1	200.48	1	1015.39	1	40.624723	17.975036
1217	2024-02-20 16:00:00	7	brindisi_sisri	14.63	1	75.69	1	0.0	1	3.1	1	319.19	1	125.37	1	1015.3	1	40.624723	17.975036
1218	2024-02-20 17:00:00	7	brindisi_sisri	14.2	1	73.76	1	0.0	1	2.9	1	307.04	1	64.46	1	1015.41	1	40.624723	17.975036
1219	2024-02-20 18:00:00	7	brindisi_sisri	13.08	1	80.99	1	0.0	1	2.6	1	337.86	1	7.07	1	1015.84	1	40.624723	17.975036
1220	2024-02-20 19:00:00	7	brindisi_sisri	12.19	1	84.52	1	0.0	1	1.75	1	325.81	1	0.0	5	1016.44	1	40.624723	17.975036
1221	2024-02-20 20:00:00	7	brindisi_sisri	11.85	1	84.75	1	0.0	1	1.9	1	316.29	1	0.0	5	1016.78	1	40.624723	17.975036
1222	2024-02-20 21:00:00	7	brindisi_sisri	11.66	1	87.01	1	0.0	1	2.13	1	313.26	1	0.0	5	1017.01	1	40.624723	17.975036
1223	2024-02-20 22:00:00	7	brindisi_sisri	12.02	1	81.58	1	0.0	1	2.99	1	332.71	1	0.0	5	1017.43	1	40.624723	17.975036
1224	2024-02-20 23:00:00	7	brindisi_sisri	12.71	1	76.69	1	0.0	1	3.91	1	342.19	1	0.0	5	1017.48	1	40.624723	17.975036
1225	2024-02-21 00:00:00	7	brindisi_sisri	12.78	1	78.29	1	0.0	1	4.19	1	336.19	1	0.0	5	1017.61	1	40.624723	17.975036
1226	2024-02-21 01:00:00	7	brindisi_sisri	12.86	1	80.54	1	0.0	1	3.65	1	326.21	1	0.0	5	1017.72	1	40.624723	17.975036
1227	2024-02-21 02:00:00	7	brindisi_sisri	12.95	1	77.44	1	0.0	1	3.66	1	317.65	1	0.0	5	1017.35	1	40.624723	17.975036
1228	2024-02-21 03:00:00	7	brindisi_sisri	13.0	1	69.77	1	0.0	1	4.07	1	333.9	1	0.0	5	1016.84	1	40.624723	17.975036
1229	2024-02-21 04:00:00	7	brindisi_sisri	12.93	1	82.37	1	0.0	1	4.64	1	4.07	1	0.0	5	1016.35	1	40.624723	17.975036
1230	2024-02-21 05:00:00	7	brindisi_sisri	12.31	1	84.81	1	0.0	1	3.27	1	21.04	1	0.0	5	1016.46	1	40.624723	17.975036
1231	2024-02-21 06:00:00	7	brindisi_sisri	11.64	1	88.14	1	0.0	1	2.29	1	18.1	1	0.0	5	1016.58	1	40.624723	17.975036
1232	2024-02-21 07:00:00	7	brindisi_sisri	11.26	1	82.24	1	0.0	1	2.24	1	357.35	1	8.95	1	1017.01	1	40.624723	17.975036
1233	2024-02-21 08:00:00	7	brindisi_sisri	10.9	1	85.87	1	0.0	1	1.95	1	265.3	1	115.87	1	1017.86	1	40.624723	17.975036
1234	2024-02-21 09:00:00	7	brindisi_sisri	13.18	1	82.29	1	0.0	1	2.16	1	278.12	1	303.96	1	1018.46	1	40.624723	17.975036
1235	2024-02-21 10:00:00	7	brindisi_sisri	14.83	1	72.04	1	0.0	1	3.22	1	294.17	1	477.07	1	1018.97	1	40.624723	17.975036
1236	2024-02-21 11:00:00	7	brindisi_sisri	15.12	1	63.9	1	0.0	1	3.09	1	302.36	1	613.06	1	1019.48	1	40.624723	17.975036
1237	2024-02-21 12:00:00	7	brindisi_sisri	15.67	1	57.79	1	0.0	1	3.98	1	339.63	1	600.6	1	1019.34	1	40.624723	17.975036
1238	2024-02-21 13:00:00	7	brindisi_sisri	15.71	1	55.64	1	0.0	1	3.89	1	342.79	1	467.04	1	1018.75	1	40.624723	17.975036
1239	2024-02-21 14:00:00	7	brindisi_sisri	15.28	1	55.05	1	0.0	1	4.06	1	329.79	1	306.26	1	1018.23	1	40.624723	17.975036
1240	2024-02-21 15:00:00	7	brindisi_sisri	14.7	1	56.9	1	0.0	1	4.37	1	323.51	1	82.5	1	1017.82	1	40.624723	17.975036
1241	2024-02-21 16:00:00	7	brindisi_sisri	14.22	1	57.7	1	0.0	1	4.68	1	312.85	1	75.02	1	1017.8	1	40.624723	17.975036
1242	2024-02-21 17:00:00	7	brindisi_sisri	13.86	1	60.63	1	0.0	1	3.96	1	315.18	1	65.31	1	1017.77	1	40.624723	17.975036
1243	2024-02-21 18:00:00	7	brindisi_sisri	12.86	1	63.96	1	0.0	1	2.59	1	312.14	1	13.84	1	1018.01	1	40.624723	17.975036
1244	2024-02-21 19:00:00	7	brindisi_sisri	11.75	1	67.58	1	0.0	1	1.76	1	300.31	1	0.0	5	1018.32	1	40.624723	17.975036
1245	2024-02-21 20:00:00	7	brindisi_sisri	10.99	1	73.45	1	0.0	1	1.01	1	293.22	1	0.0	5	1018.54	1	40.624723	17.975036
1246	2024-02-21 21:00:00	7	brindisi_sisri	8.05	1	81.77	1	0.0	1	1.15	1	224.68	1	0.0	5	1018.56	1	40.624723	17.975036
1247	2024-02-21 22:00:00	7	brindisi_sisri	7.08	1	88.25	1	0.0	1	1.39	1	217.8	1	0.0	5	1018.53	1	40.624723	17.975036
1248	2024-02-21 23:00:00	7	brindisi_sisri	6.7	1	90.14	1	0.0	1	1.22	1	227.53	1	0.0	5	1018.27	1	40.624723	17.975036
1249	2024-02-22 00:00:00	7	brindisi_sisri	5.93	1	91.48	1	0.0	1	1.21	1	224.56	1	0.0	5	1018.32	1	40.624723	17.975036
1250	2024-02-22 01:00:00	7	brindisi_sisri	5.09	1	93.28	1	0.0	1	1.5	1	205.84	1	0.0	5	1018.09	1	40.624723	17.975036
1251	2024-02-22 02:00:00	7	brindisi_sisri	4.77	1	95.36	1	0.0	1	1.41	1	219.7	1	0.0	5	1017.82	1	40.624723	17.975036
1252	2024-02-22 03:00:00	7	brindisi_sisri	4.51	1	96.13	1	0.0	1	1.56	1	213.16	1	0.0	5	1017.3	1	40.624723	17.975036
1253	2024-02-22 04:00:00	7	brindisi_sisri	4.29	1	97.08	1	0.0	1	1.79	1	212.73	1	0.0	5	1016.78	1	40.624723	17.975036
1254	2024-02-22 05:00:00	7	brindisi_sisri	4.07	1	96.68	1	0.0	1	1.91	1	205.93	1	0.0	5	1016.68	1	40.624723	17.975036
1255	2024-02-22 06:00:00	7	brindisi_sisri	3.89	1	96.7	1	0.0	1	2.2	1	208.32	1	0.0	5	1016.65	1	40.624723	17.975036
1256	2024-02-22 07:00:00	7	brindisi_sisri	3.9	1	96.56	1	0.0	1	2.01	1	212.91	1	15.0	1	1016.56	1	40.624723	17.975036
1257	2024-02-22 08:00:00	7	brindisi_sisri	6.85	1	92.81	1	0.0	1	1.7	1	204.32	1	139.47	1	1016.68	1	40.624723	17.975036
1258	2024-02-22 09:00:00	7	brindisi_sisri	11.73	1	78.46	2	0.0	1	1.89	1	190.03	1	344.3	1	1016.77	1	40.624723	17.975036
1259	2024-02-22 10:00:00	7	brindisi_sisri	15.29	1	57.7	1	0.0	1	3.24	1	180.34	1	520.6	1	1016.66	1	40.624723	17.975036
1260	2024-02-22 11:00:00	7	brindisi_sisri	15.84	1	52.32	1	0.0	1	2.93	1	170.77	1	643.97	1	1016.42	1	40.624723	17.975036
1261	2024-02-22 12:00:00	7	brindisi_sisri	17.15	1	48.57	1	0.0	1	4.32	1	170.0	1	599.51	1	1015.87	1	40.624723	17.975036
1262	2024-02-22 13:00:00	7	brindisi_sisri	17.41	1	48.89	1	0.0	1	5.18	1	165.89	1	468.17	1	1015.18	1	40.624723	17.975036
1263	2024-02-22 14:00:00	7	brindisi_sisri	17.44	1	46.69	1	0.0	1	4.62	1	166.03	1	336.73	1	1014.41	1	40.624723	17.975036
1264	2024-02-22 15:00:00	7	brindisi_sisri	16.47	1	49.67	1	0.0	1	4.91	1	168.55	1	150.59	1	1013.65	1	40.624723	17.975036
1265	2024-02-22 16:00:00	7	brindisi_sisri	16.02	1	46.57	1	0.0	1	4.9	1	165.27	1	86.07	1	1013.13	1	40.624723	17.975036
1266	2024-02-22 17:00:00	7	brindisi_sisri	14.93	1	50.72	1	0.0	1	4.62	1	161.7	1	71.99	1	1012.88	1	40.624723	17.975036
1267	2024-02-22 18:00:00	7	brindisi_sisri	12.6	1	61.23	1	0.0	1	3.43	1	163.23	1	13.98	1	1012.82	1	40.624723	17.975036
1268	2024-02-22 19:00:00	7	brindisi_sisri	10.62	1	71.01	1	0.0	1	3.81	1	164.53	1	0.0	5	1012.87	1	40.624723	17.975036
1269	2024-02-22 20:00:00	7	brindisi_sisri	9.38	1	78.2	1	0.0	1	2.91	1	156.09	1	0.0	5	1012.62	1	40.624723	17.975036
1270	2024-02-22 21:00:00	7	brindisi_sisri	8.78	1	83.17	1	0.0	1	2.85	1	153.51	1	0.0	5	1012.2	1	40.624723	17.975036
1271	2024-02-22 22:00:00	7	brindisi_sisri	9.15	1	86.2	1	0.0	1	3.39	1	156.52	1	0.0	5	1012.09	1	40.624723	17.975036
1272	2024-02-22 23:00:00	7	brindisi_sisri	8.84	1	90.88	1	0.0	1	3.25	1	156.05	1	0.0	5	1011.73	1	40.624723	17.975036
1273	2024-02-23 00:00:00	7	brindisi_sisri	8.43	1	94.39	1	0.0	1	2.82	1	158.6	1	0.0	5	1011.2	1	40.624723	17.975036
1274	2024-02-23 01:00:00	7	brindisi_sisri	8.24	1	96.72	1	0.0	1	2.46	1	147.13	1	0.0	5	1010.73	1	40.624723	17.975036
1275	2024-02-23 02:00:00	7	brindisi_sisri	7.68	1	97.82	1	0.0	1	2.1	1	143.13	1	0.0	5	1010.29	1	40.624723	17.975036
1276	2024-02-23 03:00:00	7	brindisi_sisri	8.59	1	99.02	1	0.0	1	3.29	1	143.26	1	0.0	5	1009.65	1	40.624723	17.975036
1277	2024-02-23 04:00:00	7	brindisi_sisri	8.9	1	null	3	0.0	1	3.16	1	131.63	1	0.0	5	1009.15	1	40.624723	17.975036
1278	2024-02-23 05:00:00	7	brindisi_sisri	8.4	1	null	3	0.0	1	2.38	1	125.68	1	0.0	5	1008.9	1	40.624723	17.975036
1279	2024-02-23 06:00:00	7	brindisi_sisri	8.37	1	null	3	0.0	1	2.93	1	137.46	1	0.0	5	1008.62	1	40.624723	17.975036
1280	2024-02-23 07:00:00	7	brindisi_sisri	9.0	1	99.02	1	0.0	1	2.57	1	125.82	1	16.02	1	1008.58	1	40.624723	17.975036
1281	2024-02-23 08:00:00	7	brindisi_sisri	10.37	1	99.03	1	0.0	1	2.67	1	110.31	1	80.93	1	1008.7	1	40.624723	17.975036
1282	2024-02-23 09:00:00	7	brindisi_sisri	12.92	1	96.03	1	0.0	1	5.83	1	152.35	1	180.74	1	1008.81	1	40.624723	17.975036
1283	2024-02-23 10:00:00	7	brindisi_sisri	14.65	1	79.27	1	0.0	1	7.69	1	161.33	1	213.15	1	1008.71	1	40.624723	17.975036
1284	2024-02-23 11:00:00	7	brindisi_sisri	15.59	1	71.6	1	0.0	1	8.57	1	157.93	1	394.09	1	1008.7	1	40.624723	17.975036
1285	2024-02-23 12:00:00	7	brindisi_sisri	16.27	1	65.0	1	0.0	1	9.47	1	158.89	1	386.18	1	1008.42	1	40.624723	17.975036
1286	2024-02-23 13:00:00	7	brindisi_sisri	16.43	1	65.33	1	0.0	1	8.9	1	159.77	1	321.21	1	1007.88	1	40.624723	17.975036
1287	2024-02-23 14:00:00	7	brindisi_sisri	16.37	1	66.25	1	0.0	1	10.27	1	157.02	1	289.05	1	1007.54	1	40.624723	17.975036
1288	2024-02-23 15:00:00	7	brindisi_sisri	16.11	1	66.63	1	0.0	1	9.95	1	153.24	1	192.32	1	1007.18	1	40.624723	17.975036
1289	2024-02-23 16:00:00	7	brindisi_sisri	15.61	1	69.99	1	0.0	1	10.67	1	151.76	1	88.67	1	1006.92	1	40.624723	17.975036
1290	2024-02-23 17:00:00	7	brindisi_sisri	15.21	1	73.72	1	0.0	1	10.28	1	151.57	1	38.64	1	1006.68	1	40.624723	17.975036
1291	2024-02-23 18:00:00	7	brindisi_sisri	14.88	1	76.7	1	0.0	1	9.35	1	152.56	1	5.99	1	1006.7	1	40.624723	17.975036
1292	2024-02-23 19:00:00	7	brindisi_sisri	14.73	1	77.99	1	0.0	1	9.17	1	151.87	1	0.0	5	1006.98	1	40.624723	17.975036
1293	2024-02-23 20:00:00	7	brindisi_sisri	14.71	1	79.01	1	0.0	1	8.87	1	148.06	1	0.0	5	1007.12	1	40.624723	17.975036
1294	2024-02-23 21:00:00	7	brindisi_sisri	14.76	1	78.81	1	0.0	1	8.69	1	152.6	1	0.0	5	1007.38	1	40.624723	17.975036
1295	2024-02-23 22:00:00	7	brindisi_sisri	14.77	1	79.91	1	0.0	1	8.88	1	150.83	1	0.0	5	1007.27	1	40.624723	17.975036
1296	2024-02-23 23:00:00	7	brindisi_sisri	14.7	1	81.01	1	0.0	1	8.7	1	147.7	1	0.0	5	1007.12	1	40.624723	17.975036
1297	2024-02-24 00:00:00	7	brindisi_sisri	14.78	1	80.73	1	0.0	1	9.29	1	149.09	1	0.0	5	1007.24	1	40.624723	17.975036
1298	2024-02-24 01:00:00	7	brindisi_sisri	14.8	1	80.49	1	0.0	1	8.45	1	147.83	1	0.0	5	1007.26	1	40.624723	17.975036
1299	2024-02-24 02:00:00	7	brindisi_sisri	14.82	1	80.25	1	0.0	1	7.92	1	149.82	1	0.0	5	1007.31	1	40.624723	17.975036
1300	2024-02-24 03:00:00	7	brindisi_sisri	14.73	1	81.14	1	0.0	1	9.58	1	151.49	1	0.0	5	1006.62	1	40.624723	17.975036
1301	2024-02-24 04:00:00	7	brindisi_sisri	14.64	1	82.6	1	0.0	1	9.64	1	152.5	1	0.0	5	1006.33	1	40.624723	17.975036
1302	2024-02-24 05:00:00	7	brindisi_sisri	14.61	1	84.03	1	0.0	1	9.01	1	152.78	1	0.0	5	1006.63	1	40.624723	17.975036
1303	2024-02-24 06:00:00	7	brindisi_sisri	14.57	1	85.45	1	0.0	1	8.61	1	154.4	1	0.0	5	1006.7	1	40.624723	17.975036
1304	2024-02-24 07:00:00	7	brindisi_sisri	14.49	1	87.6	1	0.0	1	7.84	1	160.44	1	0.0	5	1007.08	1	40.624723	17.975036
1305	2024-02-24 08:00:00	7	brindisi_sisri	14.28	1	91.54	1	0.0	1	6.13	1	164.62	1	25.05	1	1007.8	1	40.624723	17.975036
1306	2024-02-24 09:00:00	7	brindisi_sisri	14.45	1	92.78	1	0.0	1	6.55	1	157.89	1	61.59	1	1008.17	1	40.624723	17.975036
1307	2024-02-24 10:00:00	7	brindisi_sisri	14.44	1	94.44	1	0.6	1	7.23	1	155.16	1	116.99	1	1008.54	1	40.624723	17.975036
1308	2024-02-24 11:00:00	7	brindisi_sisri	14.64	1	94.3	1	0.2	1	7.47	1	151.6	1	175.66	1	1008.73	1	40.624723	17.975036
1309	2024-02-24 12:00:00	7	brindisi_sisri	14.87	1	92.4	1	0.0	1	9.05	1	144.96	1	233.37	1	1008.8	1	40.624723	17.975036
1310	2024-02-24 13:00:00	7	brindisi_sisri	14.76	1	92.47	1	0.2	1	8.6	1	148.18	1	154.97	1	1008.64	1	40.624723	17.975036
1311	2024-02-24 14:00:00	7	brindisi_sisri	14.9	1	92.89	1	0.0	1	8.19	1	148.36	1	204.37	1	1008.28	1	40.624723	17.975036
1312	2024-02-24 15:00:00	7	brindisi_sisri	15.27	1	89.81	1	0.0	1	8.31	1	145.57	1	133.17	1	1008.11	1	40.624723	17.975036
1313	2024-02-24 16:00:00	7	brindisi_sisri	15.47	1	87.98	1	0.0	1	8.01	1	144.8	1	60.95	1	1008.11	1	40.624723	17.975036
1314	2024-02-24 17:00:00	7	brindisi_sisri	15.28	1	89.09	1	0.0	1	7.46	1	137.6	1	27.84	1	1007.96	1	40.624723	17.975036
1315	2024-02-24 18:00:00	7	brindisi_sisri	15.26	1	88.69	1	0.0	1	7.22	1	137.02	1	8.45	1	1008.16	1	40.624723	17.975036
1316	2024-02-24 19:00:00	7	brindisi_sisri	15.16	1	87.98	1	0.0	1	6.88	1	131.82	1	0.0	5	1008.4	1	40.624723	17.975036
1317	2024-02-24 20:00:00	7	brindisi_sisri	15.15	1	87.96	1	0.0	1	7.89	1	141.09	1	0.0	5	1008.39	1	40.624723	17.975036
1318	2024-02-24 21:00:00	7	brindisi_sisri	15.09	1	88.22	1	0.0	1	7.7	1	143.2	1	0.0	5	1008.81	1	40.624723	17.975036
1319	2024-02-24 22:00:00	7	brindisi_sisri	15.11	1	88.48	1	0.0	1	6.52	1	152.43	1	0.0	5	1009.25	1	40.624723	17.975036
1320	2024-02-24 23:00:00	7	brindisi_sisri	15.17	1	88.46	1	0.0	1	6.16	1	150.81	1	0.0	5	1009.41	1	40.624723	17.975036
1321	2024-02-25 00:00:00	7	brindisi_sisri	14.93	1	89.05	1	0.0	1	4.78	1	132.94	1	0.0	5	1009.25	1	40.624723	17.975036
1322	2024-02-25 01:00:00	7	brindisi_sisri	14.49	1	89.4	1	0.0	1	4.43	1	129.89	1	0.0	5	1008.91	1	40.624723	17.975036
1323	2024-02-25 02:00:00	7	brindisi_sisri	13.81	1	91.43	1	0.0	1	3.93	1	118.11	1	0.0	5	1008.42	1	40.624723	17.975036
1324	2024-02-25 03:00:00	7	brindisi_sisri	13.71	1	93.23	1	0.0	1	4.03	1	124.42	1	0.0	5	1008.01	1	40.624723	17.975036
1325	2024-02-25 04:00:00	7	brindisi_sisri	13.85	1	93.17	1	0.0	1	4.57	1	121.27	1	0.0	5	1007.41	1	40.624723	17.975036
1326	2024-02-25 05:00:00	7	brindisi_sisri	13.86	1	92.52	1	0.0	1	4.9	1	123.02	1	0.0	5	1007.04	1	40.624723	17.975036
1327	2024-02-25 06:00:00	7	brindisi_sisri	13.65	1	92.69	1	0.0	1	4.13	1	120.07	1	0.0	5	1006.79	1	40.624723	17.975036
1328	2024-02-25 07:00:00	7	brindisi_sisri	13.41	1	93.9	1	0.0	1	4.21	1	120.46	1	14.77	1	1006.67	1	40.624723	17.975036
1329	2024-02-25 08:00:00	7	brindisi_sisri	14.43	1	92.04	1	0.0	1	5.2	1	122.64	1	129.37	1	1006.56	1	40.624723	17.975036
1330	2024-02-25 09:00:00	7	brindisi_sisri	15.64	1	86.35	1	0.0	1	5.13	1	120.64	1	186.9	1	1006.36	1	40.624723	17.975036
1331	2024-02-25 10:00:00	7	brindisi_sisri	16.72	1	79.93	1	0.0	1	6.41	1	124.7	1	201.51	1	1005.94	1	40.624723	17.975036
1332	2024-02-25 11:00:00	7	brindisi_sisri	16.76	1	80.0	1	1.2	1	5.55	1	114.1	1	220.87	1	1005.13	1	40.624723	17.975036
1333	2024-02-25 12:00:00	7	brindisi_sisri	14.67	1	89.24	1	1.8	1	6.97	1	117.55	1	28.59	1	1004.65	1	40.624723	17.975036
1334	2024-02-25 13:00:00	7	brindisi_sisri	14.99	1	79.37	1	0.0	1	6.93	1	106.13	1	77.85	1	1004.05	1	40.624723	17.975036
1335	2024-02-25 14:00:00	7	brindisi_sisri	14.84	1	81.68	1	0.0	1	6.7	1	106.36	1	89.81	1	1003.26	1	40.624723	17.975036
1336	2024-02-25 15:00:00	7	brindisi_sisri	14.98	1	82.99	1	0.0	1	6.25	1	101.46	1	132.87	1	1002.54	1	40.624723	17.975036
1337	2024-02-25 16:00:00	7	brindisi_sisri	14.77	1	80.91	1	0.0	1	5.84	1	100.83	1	43.83	1	1002.05	1	40.624723	17.975036
1338	2024-02-25 17:00:00	7	brindisi_sisri	14.77	1	81.11	1	0.0	1	3.58	1	107.78	1	22.35	1	1002.15	1	40.624723	17.975036
1339	2024-02-25 18:00:00	7	brindisi_sisri	13.11	1	89.74	1	3.4	1	3.21	1	267.4	1	0.0	5	1002.99	1	40.624723	17.975036
1340	2024-02-25 19:00:00	7	brindisi_sisri	11.64	1	97.2	1	1.0	1	3.7	1	295.94	1	0.0	5	1003.03	1	40.624723	17.975036
1341	2024-02-25 20:00:00	7	brindisi_sisri	11.65	1	98.98	1	0.4	1	4.31	1	306.73	1	0.0	5	1003.01	1	40.624723	17.975036
1342	2024-02-25 21:00:00	7	brindisi_sisri	12.05	1	98.46	1	0.2	1	4.08	1	318.65	1	0.0	5	1003.15	1	40.624723	17.975036
1343	2024-02-25 22:00:00	7	brindisi_sisri	12.45	1	97.71	1	0.0	1	3.45	1	320.4	1	0.0	5	1003.07	1	40.624723	17.975036
1344	2024-02-25 23:00:00	7	brindisi_sisri	12.52	1	96.76	1	0.0	1	3.36	1	313.87	1	0.0	5	1003.13	1	40.624723	17.975036
1345	2024-02-26 00:00:00	7	brindisi_sisri	12.76	1	95.62	1	0.0	1	3.3	1	308.12	1	0.0	5	1003.02	1	40.624723	17.975036
1346	2024-02-26 01:00:00	7	brindisi_sisri	13.01	1	95.52	1	0.0	1	3.76	1	307.79	1	0.0	5	1002.92	1	40.624723	17.975036
1347	2024-02-26 02:00:00	7	brindisi_sisri	12.77	1	95.64	1	0.0	1	3.96	1	295.23	1	0.0	5	1002.85	1	40.624723	17.975036
1348	2024-02-26 03:00:00	7	brindisi_sisri	12.58	1	94.73	1	0.0	1	4.02	1	298.56	1	0.0	5	1002.42	1	40.624723	17.975036
1349	2024-02-26 04:00:00	7	brindisi_sisri	12.1	1	95.78	1	0.0	1	4.07	1	289.24	1	0.0	5	1002.13	1	40.624723	17.975036
1350	2024-02-26 05:00:00	7	brindisi_sisri	12.22	1	97.74	1	0.0	1	4.4	1	294.15	1	0.0	5	1002.21	1	40.624723	17.975036
1351	2024-02-26 06:00:00	7	brindisi_sisri	12.17	1	98.87	1	0.0	1	4.36	1	288.16	1	0.0	5	1002.36	1	40.624723	17.975036
1352	2024-02-26 07:00:00	7	brindisi_sisri	12.37	1	97.87	1	0.0	1	4.25	1	296.86	1	7.76	1	1002.49	1	40.624723	17.975036
1353	2024-02-26 08:00:00	7	brindisi_sisri	12.87	1	94.54	1	0.0	1	4.18	1	300.02	1	104.21	1	1002.94	1	40.624723	17.975036
1354	2024-02-26 09:00:00	7	brindisi_sisri	13.59	1	90.93	1	0.0	1	4.96	1	296.78	1	244.42	1	1003.38	1	40.624723	17.975036
1355	2024-02-26 10:00:00	7	brindisi_sisri	14.06	1	88.18	1	0.0	1	5.5	1	289.96	1	481.75	1	1003.73	1	40.624723	17.975036
1356	2024-02-26 11:00:00	7	brindisi_sisri	14.5	1	85.38	1	0.0	1	5.49	1	295.62	1	615.91	1	1003.82	1	40.624723	17.975036
1357	2024-02-26 12:00:00	7	brindisi_sisri	14.8	1	83.04	1	0.0	1	5.77	1	296.87	1	537.8	1	1003.73	1	40.624723	17.975036
1358	2024-02-26 13:00:00	7	brindisi_sisri	15.38	1	80.2	1	0.0	1	5.53	1	296.65	1	497.75	1	1003.44	1	40.624723	17.975036
1359	2024-02-26 14:00:00	7	brindisi_sisri	15.22	1	80.37	1	0.0	1	4.93	1	305.2	1	305.68	1	1003.32	1	40.624723	17.975036
1360	2024-02-26 15:00:00	7	brindisi_sisri	14.75	1	82.88	1	0.0	1	4.27	1	317.34	1	112.08	1	1003.24	1	40.624723	17.975036
1361	2024-02-26 16:00:00	7	brindisi_sisri	14.82	1	84.05	1	0.0	1	3.09	1	315.3	1	91.91	1	1003.22	1	40.624723	17.975036
1362	2024-02-26 17:00:00	7	brindisi_sisri	14.49	1	84.61	1	0.0	1	2.83	1	316.1	1	64.65	1	1003.32	1	40.624723	17.975036
1363	2024-02-26 18:00:00	7	brindisi_sisri	13.28	1	89.48	1	0.0	1	1.87	1	304.28	1	7.46	1	1003.43	1	40.624723	17.975036
1364	2024-02-26 19:00:00	7	brindisi_sisri	12.38	1	92.4	1	0.0	1	0.81	1	246.82	1	0.0	5	1004.16	1	40.624723	17.975036
1365	2024-02-26 20:00:00	7	brindisi_sisri	10.77	1	94.57	1	0.0	1	1.07	1	202.64	1	0.0	5	1004.66	1	40.624723	17.975036
1366	2024-02-26 21:00:00	7	brindisi_sisri	9.95	1	96.76	1	0.0	1	0.85	1	193.16	1	0.0	5	1005.06	1	40.624723	17.975036
1367	2024-02-26 22:00:00	7	brindisi_sisri	9.13	1	98.31	1	0.0	1	1.23	1	199.98	1	0.0	5	1005.64	1	40.624723	17.975036
1368	2024-02-26 23:00:00	7	brindisi_sisri	8.84	1	99.01	1	0.0	1	1.32	1	179.6	1	0.0	5	1005.96	1	40.624723	17.975036
1369	2024-02-27 00:00:00	7	brindisi_sisri	8.35	1	99.02	1	0.0	1	1.96	1	162.89	1	0.0	5	1006.0	1	40.624723	17.975036
1370	2024-02-27 01:00:00	7	brindisi_sisri	8.56	1	null	3	0.0	1	1.67	1	161.11	1	0.0	5	1006.17	1	40.624723	17.975036
1371	2024-02-27 02:00:00	7	brindisi_sisri	8.34	1	99.02	1	0.0	1	1.66	1	155.26	1	0.0	5	1006.23	1	40.624723	17.975036
1372	2024-02-27 03:00:00	7	brindisi_sisri	9.16	1	99.03	1	0.0	1	2.28	1	141.94	1	0.0	5	1006.35	1	40.624723	17.975036
1373	2024-02-27 04:00:00	7	brindisi_sisri	10.32	1	99.06	1	0.0	1	3.13	1	139.61	1	0.0	5	1006.46	1	40.624723	17.975036
1374	2024-02-27 05:00:00	7	brindisi_sisri	10.09	1	99.05	1	0.0	1	2.25	1	117.66	1	0.0	5	1006.45	1	40.624723	17.975036
1375	2024-02-27 06:00:00	7	brindisi_sisri	9.77	1	99.03	1	0.0	1	2.7	1	132.57	1	0.0	5	1006.91	1	40.624723	17.975036
1376	2024-02-27 07:00:00	7	brindisi_sisri	9.52	1	99.02	1	0.0	1	2.73	1	117.46	1	12.12	1	1007.0	1	40.624723	17.975036
1377	2024-02-27 08:00:00	7	brindisi_sisri	11.31	1	99.02	1	0.0	1	3.6	1	120.15	1	143.54	1	1007.51	1	40.624723	17.975036
1378	2024-02-27 09:00:00	7	brindisi_sisri	13.65	1	96.57	1	0.0	1	3.62	1	105.85	1	290.61	1	1007.79	1	40.624723	17.975036
1379	2024-02-27 10:00:00	7	brindisi_sisri	15.34	1	85.99	2	0.0	1	4.73	1	116.72	1	463.29	1	1007.95	1	40.624723	17.975036
1380	2024-02-27 11:00:00	7	brindisi_sisri	16.83	1	63.39	2	0.0	1	7.42	1	131.99	1	664.12	1	1008.32	1	40.624723	17.975036
1381	2024-02-27 12:00:00	7	brindisi_sisri	18.07	1	50.27	1	0.0	1	8.88	1	141.88	1	650.89	1	1008.41	1	40.624723	17.975036
1382	2024-02-27 13:00:00	7	brindisi_sisri	18.2	1	50.68	1	0.0	1	9.72	1	145.11	1	505.94	1	1008.26	1	40.624723	17.975036
1383	2024-02-27 14:00:00	7	brindisi_sisri	17.72	1	55.63	1	0.0	1	8.21	1	139.92	1	328.23	1	1007.95	1	40.624723	17.975036
1384	2024-02-27 15:00:00	7	brindisi_sisri	17.4	1	57.43	1	0.0	1	8.08	1	137.15	1	207.43	1	1007.82	1	40.624723	17.975036
1385	2024-02-27 16:00:00	7	brindisi_sisri	16.63	1	63.66	1	0.0	1	7.2	1	131.2	1	146.77	1	1007.64	1	40.624723	17.975036
1386	2024-02-27 17:00:00	7	brindisi_sisri	15.75	1	68.92	1	0.0	1	6.09	1	125.36	1	69.3	1	1007.67	1	40.624723	17.975036
1387	2024-02-27 18:00:00	7	brindisi_sisri	14.85	1	76.91	1	0.0	1	5.44	1	121.43	1	8.36	1	1007.93	1	40.624723	17.975036
1388	2024-02-27 19:00:00	7	brindisi_sisri	14.34	1	81.95	1	0.0	1	5.6	1	122.25	1	0.0	5	1008.38	1	40.624723	17.975036
1389	2024-02-27 20:00:00	7	brindisi_sisri	14.21	1	83.75	1	0.0	1	5.33	1	119.4	1	0.0	5	1008.6	1	40.624723	17.975036
1390	2024-02-27 21:00:00	7	brindisi_sisri	14.1	1	82.98	1	0.0	1	5.63	1	121.97	1	0.0	5	1008.97	1	40.624723	17.975036
1391	2024-02-27 22:00:00	7	brindisi_sisri	14.01	1	81.89	1	0.0	1	5.24	1	121.34	1	0.0	5	1009.64	1	40.624723	17.975036
1392	2024-02-27 23:00:00	7	brindisi_sisri	13.91	1	84.1	1	0.0	1	5.01	1	122.22	1	0.0	5	1009.82	1	40.624723	17.975036
1393	2024-02-28 00:00:00	7	brindisi_sisri	13.76	1	85.96	1	0.0	1	5.17	1	120.28	1	0.0	5	1010.06	1	40.624723	17.975036
1394	2024-02-28 01:00:00	7	brindisi_sisri	13.39	1	89.74	1	0.0	1	4.32	1	116.95	1	0.0	5	1010.22	1	40.624723	17.975036
1395	2024-02-28 02:00:00	7	brindisi_sisri	13.07	1	92.36	1	0.0	1	3.29	1	111.38	1	0.0	5	1010.23	1	40.624723	17.975036
1396	2024-02-28 03:00:00	7	brindisi_sisri	12.46	1	95.01	1	0.0	1	2.95	1	125.7	1	0.0	5	1010.27	1	40.624723	17.975036
1397	2024-02-28 04:00:00	7	brindisi_sisri	12.02	1	97.19	1	0.0	1	2.44	1	117.52	1	0.0	5	1010.24	1	40.624723	17.975036
1398	2024-02-28 05:00:00	7	brindisi_sisri	12.38	1	97.63	1	0.0	1	3.97	1	124.4	1	0.0	5	1010.3	1	40.624723	17.975036
1399	2024-02-28 06:00:00	7	brindisi_sisri	12.04	1	97.97	1	0.0	1	2.59	1	121.62	1	0.0	5	1010.41	1	40.624723	17.975036
1400	2024-02-28 07:00:00	7	brindisi_sisri	11.64	1	98.89	1	0.0	1	1.87	1	87.59	1	10.14	1	1010.15	1	40.624723	17.975036
1401	2024-02-28 08:00:00	7	brindisi_sisri	12.59	1	99.02	1	0.0	1	2.21	1	101.58	1	59.27	1	1010.28	1	40.624723	17.975036
1402	2024-02-28 09:00:00	7	brindisi_sisri	14.49	1	97.89	1	0.0	1	3.51	1	109.12	1	222.5	1	1010.46	1	40.624723	17.975036
1403	2024-02-28 10:00:00	7	brindisi_sisri	16.82	1	84.54	1	0.0	1	4.74	1	108.23	1	346.52	1	1010.56	1	40.624723	17.975036
1404	2024-02-28 11:00:00	7	brindisi_sisri	17.2	1	78.08	1	0.0	1	4.89	1	92.07	1	323.42	1	1010.74	1	40.624723	17.975036
1405	2024-02-28 12:00:00	7	brindisi_sisri	16.98	1	81.74	1	0.0	1	6.08	1	89.22	1	342.09	1	1010.54	1	40.624723	17.975036
1406	2024-02-28 13:00:00	7	brindisi_sisri	17.2	1	78.51	1	0.0	1	6.22	1	86.94	1	376.01	1	1010.04	1	40.624723	17.975036
1407	2024-02-28 14:00:00	7	brindisi_sisri	16.64	1	80.92	1	0.0	1	6.04	1	79.48	1	297.59	1	1009.54	1	40.624723	17.975036
1408	2024-02-28 15:00:00	7	brindisi_sisri	17.47	1	73.73	1	0.0	1	5.55	1	90.77	1	237.38	1	1008.99	1	40.624723	17.975036
1409	2024-02-28 16:00:00	7	brindisi_sisri	18.51	1	57.91	1	0.0	1	8.04	1	120.53	1	140.86	1	1008.78	1	40.624723	17.975036
1410	2024-02-28 17:00:00	7	brindisi_sisri	17.64	1	59.81	1	0.0	1	6.29	1	127.42	1	67.5	1	1008.57	1	40.624723	17.975036
1411	2024-02-28 18:00:00	7	brindisi_sisri	16.72	1	64.9	1	0.0	1	3.98	1	94.29	1	13.27	1	1008.39	1	40.624723	17.975036
1412	2024-02-28 19:00:00	7	brindisi_sisri	15.5	1	79.33	1	0.0	1	3.76	1	65.51	1	0.0	5	1008.5	1	40.624723	17.975036
1413	2024-02-28 20:00:00	7	brindisi_sisri	15.09	1	85.54	1	0.0	1	4.54	1	110.92	1	0.0	5	1009.28	1	40.624723	17.975036
1414	2024-02-28 21:00:00	7	brindisi_sisri	14.8	1	88.89	1	0.0	1	2.83	1	93.91	1	0.0	5	1009.84	1	40.624723	17.975036
1415	2024-02-28 22:00:00	7	brindisi_sisri	14.62	1	89.2	1	0.0	1	1.63	1	78.41	1	0.0	5	1010.14	1	40.624723	17.975036
1416	2024-02-28 23:00:00	7	brindisi_sisri	14.44	1	91.04	1	0.0	1	1.64	1	98.65	1	0.0	5	1009.81	1	40.624723	17.975036
1417	2024-02-29 00:00:00	7	brindisi_sisri	14.32	1	92.87	1	0.0	1	1.76	1	89.54	1	0.0	5	1009.73	1	40.624723	17.975036
1418	2024-02-29 01:00:00	7	brindisi_sisri	13.81	1	93.65	1	0.0	1	2.08	1	81.43	1	0.0	5	1009.47	1	40.624723	17.975036
1419	2024-02-29 02:00:00	7	brindisi_sisri	14.32	1	92.12	1	0.0	1	3.03	1	62.56	1	0.0	5	1009.1	1	40.624723	17.975036
1420	2024-02-29 03:00:00	7	brindisi_sisri	14.75	1	85.39	1	0.0	1	4.3	1	58.05	1	0.0	5	1008.52	1	40.624723	17.975036
1421	2024-02-29 04:00:00	7	brindisi_sisri	14.94	1	83.06	1	0.0	1	3.75	1	57.18	1	0.0	5	1007.88	1	40.624723	17.975036
1422	2024-02-29 05:00:00	7	brindisi_sisri	14.69	1	83.32	1	0.0	1	3.42	1	55.38	1	0.0	5	1007.41	1	40.624723	17.975036
1423	2024-02-29 06:00:00	7	brindisi_sisri	14.49	1	88.25	1	0.0	1	3.58	1	52.95	1	0.0	5	1006.87	1	40.624723	17.975036
1424	2024-02-29 07:00:00	7	brindisi_sisri	14.38	1	89.13	1	0.0	1	3.57	1	55.84	1	10.89	1	1006.34	1	40.624723	17.975036
1425	2024-02-29 08:00:00	7	brindisi_sisri	14.53	1	89.86	1	0.0	1	2.76	1	66.03	1	63.75	1	1006.17	1	40.624723	17.975036
1426	2024-02-29 09:00:00	7	brindisi_sisri	15.46	1	85.09	1	0.0	1	3.48	1	78.4	1	140.02	1	1006.29	1	40.624723	17.975036
1427	2024-02-29 10:00:00	7	brindisi_sisri	16.7	1	78.48	1	0.0	1	4.04	1	87.93	1	258.06	1	1006.66	1	40.624723	17.975036
1428	2024-02-29 11:00:00	7	brindisi_sisri	17.65	1	73.6	1	0.0	1	4.47	1	81.11	1	287.66	1	1006.7	1	40.624723	17.975036
1429	2024-02-29 12:00:00	7	brindisi_sisri	17.98	1	67.15	1	0.0	1	5.07	1	88.76	1	185.2	1	1006.39	1	40.624723	17.975036
1430	2024-02-29 13:00:00	7	brindisi_sisri	18.9	1	53.15	1	0.0	1	8.35	1	117.34	1	110.25	1	1005.81	1	40.624723	17.975036
1431	2024-02-29 14:00:00	7	brindisi_sisri	18.49	1	54.86	1	0.0	1	8.69	1	116.92	1	100.41	1	1005.22	1	40.624723	17.975036
1432	2024-02-29 15:00:00	7	brindisi_sisri	16.23	1	72.72	1	0.4	1	9.03	1	118.03	1	42.18	1	1005.16	1	40.624723	17.975036
1433	2024-02-29 16:00:00	7	brindisi_sisri	15.92	1	77.59	1	0.0	1	7.2	1	117.11	1	51.43	1	1004.64	1	40.624723	17.975036
1434	2024-02-29 17:00:00	7	brindisi_sisri	14.81	1	85.17	1	1.6	1	8.34	1	117.37	1	17.04	1	1003.95	1	40.624723	17.975036
1435	2024-02-29 18:00:00	7	brindisi_sisri	13.0	1	92.41	1	3.2	1	4.96	1	148.96	1	0.0	5	1004.16	1	40.624723	17.975036
1436	2024-02-29 19:00:00	7	brindisi_sisri	11.51	1	98.56	1	5.4	1	2.66	1	143.33	1	0.0	5	1003.87	1	40.624723	17.975036
1437	2024-02-29 20:00:00	7	brindisi_sisri	11.28	1	99.03	1	1.0	1	2.33	1	152.59	1	0.0	5	1003.76	1	40.624723	17.975036
1438	2024-02-29 21:00:00	7	brindisi_sisri	11.22	1	99.06	1	3.2	1	3.48	1	127.89	1	0.0	5	1004.25	1	40.624723	17.975036
1439	2024-02-29 22:00:00	7	brindisi_sisri	11.03	1	99.05	1	0.2	1	3.54	1	62.76	1	0.0	5	1003.21	1	40.624723	17.975036
1440	2024-02-29 23:00:00	7	brindisi_sisri	11.08	1	99.03	1	0.0	1	3.85	1	95.46	1	0.0	5	1003.1	1	40.624723	17.975036
1441	2024-03-01 00:00:00	7	brindisi_sisri	11.05	1	98.6	1	0.0	1	3.57	1	117.55	1	0.0	5	1003.31	1	40.624723	17.975036
1442	2024-03-01 01:00:00	7	brindisi_sisri	11.27	1	97.55	1	0.0	1	4.44	1	117.95	1	0.0	5	1003.06	1	40.624723	17.975036
1443	2024-03-01 02:00:00	7	brindisi_sisri	11.13	1	97.07	1	0.0	1	3.96	1	122.07	1	0.0	5	1002.72	1	40.624723	17.975036
1444	2024-03-01 03:00:00	7	brindisi_sisri	11.08	1	97.43	1	0.0	1	3.68	1	121.97	1	0.0	5	1002.64	1	40.624723	17.975036
1445	2024-03-01 04:00:00	7	brindisi_sisri	11.0	1	97.48	1	0.0	1	3.87	1	117.97	1	0.0	5	1002.63	1	40.624723	17.975036
1446	2024-03-01 05:00:00	7	brindisi_sisri	11.09	1	96.29	1	0.0	1	3.82	1	122.11	1	0.0	5	1003.06	1	40.624723	17.975036
1447	2024-03-01 06:00:00	7	brindisi_sisri	10.48	1	95.78	1	0.0	1	2.94	1	120.96	1	0.0	5	1003.22	1	40.624723	17.975036
1448	2024-03-01 07:00:00	7	brindisi_sisri	9.77	1	96.93	1	0.0	1	2.47	1	108.1	1	11.31	1	1003.58	1	40.624723	17.975036
1449	2024-03-01 08:00:00	7	brindisi_sisri	11.44	1	95.08	1	0.0	1	3.39	1	135.59	1	152.08	1	1003.48	1	40.624723	17.975036
1450	2024-03-01 09:00:00	7	brindisi_sisri	14.02	1	85.98	1	0.0	1	3.61	1	123.53	1	365.04	1	1003.93	1	40.624723	17.975036
1451	2024-03-01 10:00:00	7	brindisi_sisri	15.31	1	74.15	1	0.0	1	4.82	1	134.22	1	444.31	1	1004.12	1	40.624723	17.975036
1452	2024-03-01 11:00:00	7	brindisi_sisri	15.54	1	69.99	1	0.0	1	4.21	1	142.98	1	318.92	1	1004.09	1	40.624723	17.975036
1453	2024-03-01 12:00:00	7	brindisi_sisri	17.33	1	59.84	1	0.0	1	5.09	1	166.66	1	583.33	1	1003.99	1	40.624723	17.975036
1454	2024-03-01 13:00:00	7	brindisi_sisri	17.83	1	57.92	1	0.0	1	5.49	1	163.04	1	561.44	1	1003.63	1	40.624723	17.975036
1455	2024-03-01 14:00:00	7	brindisi_sisri	17.69	1	52.76	1	0.0	1	5.66	1	167.67	1	380.84	1	1003.52	1	40.624723	17.975036
1456	2024-03-01 15:00:00	7	brindisi_sisri	17.57	1	53.25	1	0.0	1	5.15	1	168.52	1	147.41	1	1003.51	1	40.624723	17.975036
1457	2024-03-01 16:00:00	7	brindisi_sisri	16.72	1	57.8	1	0.0	1	4.67	1	155.79	1	120.4	1	1003.66	1	40.624723	17.975036
1458	2024-03-01 17:00:00	7	brindisi_sisri	15.87	1	61.55	1	0.0	1	3.69	1	161.57	1	67.8	1	1003.78	1	40.624723	17.975036
1459	2024-03-01 18:00:00	7	brindisi_sisri	13.88	1	72.09	1	0.0	1	2.25	1	175.27	1	17.2	1	1004.1	1	40.624723	17.975036
1460	2024-03-01 19:00:00	7	brindisi_sisri	12.04	1	85.45	1	0.0	1	1.82	1	162.49	1	0.0	5	1004.37	1	40.624723	17.975036
1461	2024-03-01 20:00:00	7	brindisi_sisri	11.21	1	92.07	1	0.0	1	1.33	1	138.26	1	0.0	5	1004.49	1	40.624723	17.975036
1462	2024-03-01 21:00:00	7	brindisi_sisri	11.08	1	94.07	1	0.0	1	1.53	1	112.11	1	0.0	5	1004.76	1	40.624723	17.975036
1463	2024-03-01 22:00:00	7	brindisi_sisri	10.77	1	95.13	1	0.0	1	1.06	1	110.12	1	0.0	5	1004.81	1	40.624723	17.975036
1464	2024-03-01 23:00:00	7	brindisi_sisri	10.5	1	96.92	1	0.0	1	2.04	1	112.35	1	0.0	5	1004.92	1	40.624723	17.975036
1465	2024-03-02 00:00:00	7	brindisi_sisri	10.96	1	97.26	1	0.0	1	1.98	1	106.14	1	0.0	5	1004.85	1	40.624723	17.975036
1466	2024-03-02 01:00:00	7	brindisi_sisri	11.35	1	97.66	1	0.0	1	1.98	1	112.53	1	0.0	5	1004.74	1	40.624723	17.975036
1467	2024-03-02 02:00:00	7	brindisi_sisri	11.68	1	97.61	1	0.0	1	2.1	1	112.61	1	0.0	5	1004.75	1	40.624723	17.975036
1468	2024-03-02 03:00:00	7	brindisi_sisri	11.3	1	97.74	1	0.0	1	1.88	1	114.94	1	0.0	5	1004.72	1	40.624723	17.975036
1469	2024-03-02 04:00:00	7	brindisi_sisri	10.73	1	97.86	1	0.0	1	2.31	1	130.64	1	0.0	5	1004.47	1	40.624723	17.975036
1470	2024-03-02 05:00:00	7	brindisi_sisri	9.88	1	98.69	1	0.0	1	1.52	1	125.71	1	0.0	5	1004.61	1	40.624723	17.975036
1471	2024-03-02 06:00:00	7	brindisi_sisri	9.39	1	99.02	1	0.0	1	1.52	1	147.44	1	0.0	5	1004.94	1	40.624723	17.975036
1472	2024-03-02 07:00:00	7	brindisi_sisri	8.57	1	99.02	1	0.0	1	1.19	1	193.96	1	24.13	1	1005.44	1	40.624723	17.975036
1473	2024-03-02 08:00:00	7	brindisi_sisri	10.68	1	98.77	1	0.0	1	1.49	1	191.23	1	157.79	1	1006.08	1	40.624723	17.975036
1474	2024-03-02 09:00:00	7	brindisi_sisri	13.76	1	96.18	1	0.0	1	2.87	1	161.44	1	379.93	1	1006.56	1	40.624723	17.975036
1475	2024-03-02 10:00:00	7	brindisi_sisri	16.76	1	78.57	1	0.0	1	4.11	1	181.69	1	545.92	1	1007.22	1	40.624723	17.975036
1476	2024-03-02 11:00:00	7	brindisi_sisri	17.11	1	64.39	1	0.0	1	3.96	1	181.07	1	654.51	1	1007.47	1	40.624723	17.975036
1477	2024-03-02 12:00:00	7	brindisi_sisri	18.38	1	50.89	1	0.0	1	3.97	1	183.74	1	689.49	1	1007.66	1	40.624723	17.975036
1478	2024-03-02 13:00:00	7	brindisi_sisri	19.73	1	43.5	1	0.0	1	3.55	1	191.78	1	608.23	1	1007.3	1	40.624723	17.975036
1479	2024-03-02 14:00:00	7	brindisi_sisri	19.09	1	42.57	1	0.0	1	3.69	1	164.04	1	376.57	1	1007.03	1	40.624723	17.975036
1480	2024-03-02 15:00:00	7	brindisi_sisri	18.37	1	43.47	1	0.0	1	3.82	1	163.16	1	118.22	1	1007.2	1	40.624723	17.975036
1481	2024-03-02 16:00:00	7	brindisi_sisri	17.8	1	49.11	1	0.0	1	3.7	1	166.2	1	102.15	1	1007.3	1	40.624723	17.975036
1482	2024-03-02 17:00:00	7	brindisi_sisri	17.23	1	54.27	1	0.0	1	3.07	1	172.63	1	66.27	1	1007.4	1	40.624723	17.975036
1483	2024-03-02 18:00:00	7	brindisi_sisri	14.86	1	67.07	1	0.0	1	2.26	1	160.17	1	19.25	1	1007.95	1	40.624723	17.975036
1484	2024-03-02 19:00:00	7	brindisi_sisri	12.07	1	81.17	1	0.0	1	1.88	1	162.84	1	0.0	5	1008.35	1	40.624723	17.975036
1485	2024-03-02 20:00:00	7	brindisi_sisri	10.75	1	88.12	1	0.0	1	1.96	1	166.76	1	0.0	5	1008.67	1	40.624723	17.975036
1486	2024-03-02 21:00:00	7	brindisi_sisri	10.1	1	92.34	1	0.0	1	1.77	1	155.8	1	0.0	5	1008.85	1	40.624723	17.975036
1487	2024-03-02 22:00:00	7	brindisi_sisri	9.81	1	96.22	1	0.0	1	1.39	1	120.99	1	0.0	5	1009.14	1	40.624723	17.975036
1488	2024-03-02 23:00:00	7	brindisi_sisri	9.89	1	97.83	1	0.0	1	1.64	1	125.05	1	0.0	5	1009.13	1	40.624723	17.975036
1489	2024-03-03 00:00:00	7	brindisi_sisri	8.92	1	98.7	1	0.0	1	1.21	1	142.95	1	0.0	5	1009.25	1	40.624723	17.975036
1490	2024-03-03 01:00:00	7	brindisi_sisri	8.83	1	99.02	1	0.0	1	1.21	1	146.23	1	0.0	5	1009.33	1	40.624723	17.975036
1491	2024-03-03 02:00:00	7	brindisi_sisri	8.81	1	99.02	1	0.0	1	1.16	1	188.4	1	0.0	5	1009.29	1	40.624723	17.975036
1492	2024-03-03 03:00:00	7	brindisi_sisri	8.21	1	99.02	1	0.0	1	1.11	1	190.7	1	0.0	5	1008.87	1	40.624723	17.975036
1493	2024-03-03 04:00:00	7	brindisi_sisri	7.41	1	99.02	1	0.0	1	1.76	1	168.78	1	0.0	5	1008.72	1	40.624723	17.975036
1494	2024-03-03 05:00:00	7	brindisi_sisri	7.43	1	99.05	1	0.0	1	1.66	1	203.95	1	0.0	5	1008.81	1	40.624723	17.975036
1495	2024-03-03 06:00:00	7	brindisi_sisri	7.41	1	99.06	1	0.0	1	1.66	1	200.47	1	0.0	5	1008.87	1	40.624723	17.975036
1496	2024-03-03 07:00:00	7	brindisi_sisri	7.44	1	99.06	1	0.0	1	1.51	1	204.09	1	24.6	1	1008.81	1	40.624723	17.975036
1497	2024-03-03 08:00:00	7	brindisi_sisri	10.17	1	98.98	1	0.0	1	1.3	1	195.69	1	170.18	1	1008.85	1	40.624723	17.975036
1498	2024-03-03 09:00:00	7	brindisi_sisri	14.07	1	95.11	1	0.0	1	1.28	1	167.99	1	393.0	1	1009.15	1	40.624723	17.975036
1499	2024-03-03 10:00:00	7	brindisi_sisri	16.58	1	60.75	1	0.0	1	2.39	1	132.28	1	570.24	1	1009.29	1	40.624723	17.975036
1500	2024-03-03 11:00:00	7	brindisi_sisri	17.01	1	48.71	1	0.0	1	2.67	1	135.71	1	690.25	1	1009.31	1	40.624723	17.975036
1501	2024-03-03 12:00:00	7	brindisi_sisri	17.97	1	45.34	1	0.0	1	3.27	1	141.43	1	646.02	1	1008.97	1	40.624723	17.975036
1502	2024-03-03 13:00:00	7	brindisi_sisri	18.14	1	47.71	1	0.0	1	4.46	1	146.79	1	514.83	1	1008.37	1	40.624723	17.975036
1503	2024-03-03 14:00:00	7	brindisi_sisri	18.24	1	48.39	1	0.0	1	5.05	1	153.06	1	405.43	1	1007.55	1	40.624723	17.975036
1504	2024-03-03 15:00:00	7	brindisi_sisri	17.81	1	55.45	1	0.0	1	5.22	1	157.25	1	176.69	1	1006.98	1	40.624723	17.975036
1505	2024-03-03 16:00:00	7	brindisi_sisri	17.29	1	56.31	1	0.0	1	6.06	1	155.53	1	109.04	1	1006.69	1	40.624723	17.975036
1506	2024-03-03 17:00:00	7	brindisi_sisri	16.01	1	58.94	1	0.0	1	5.18	1	152.65	1	62.77	1	1006.44	1	40.624723	17.975036
1507	2024-03-03 18:00:00	7	brindisi_sisri	14.33	1	65.35	1	0.0	1	4.0	1	151.88	1	22.2	1	1006.44	1	40.624723	17.975036
1508	2024-03-03 19:00:00	7	brindisi_sisri	12.86	1	74.29	1	0.0	1	3.87	1	134.21	1	0.0	5	1006.61	1	40.624723	17.975036
1509	2024-03-03 20:00:00	7	brindisi_sisri	11.86	1	84.82	1	0.0	1	3.15	1	126.11	1	0.0	5	1006.7	1	40.624723	17.975036
1510	2024-03-03 21:00:00	7	brindisi_sisri	11.51	1	88.82	1	0.0	1	4.19	1	129.19	1	0.0	5	1006.59	1	40.624723	17.975036
1511	2024-03-03 22:00:00	7	brindisi_sisri	11.19	1	89.74	1	0.0	1	3.93	1	116.7	1	0.0	5	1006.47	1	40.624723	17.975036
1512	2024-03-03 23:00:00	7	brindisi_sisri	11.33	1	89.16	1	0.0	1	4.5	1	116.63	1	0.0	5	1006.06	1	40.624723	17.975036
1513	2024-03-04 00:00:00	7	brindisi_sisri	11.89	1	88.11	1	0.0	1	5.07	1	117.79	1	0.0	5	1005.72	1	40.624723	17.975036
1514	2024-03-04 01:00:00	7	brindisi_sisri	12.33	1	87.73	1	0.0	1	5.56	1	118.81	1	0.0	5	1005.29	1	40.624723	17.975036
1515	2024-03-04 02:00:00	7	brindisi_sisri	12.96	1	87.06	1	0.0	1	5.45	1	120.95	1	0.0	5	1004.94	1	40.624723	17.975036
1516	2024-03-04 03:00:00	7	brindisi_sisri	13.38	1	85.45	1	0.0	1	6.03	1	122.1	1	0.0	5	1004.39	1	40.624723	17.975036
1517	2024-03-04 04:00:00	7	brindisi_sisri	13.65	1	82.44	1	0.0	1	5.86	1	121.95	1	0.0	5	1004.13	1	40.624723	17.975036
1518	2024-03-04 05:00:00	7	brindisi_sisri	13.71	1	82.06	1	0.0	1	6.41	1	114.59	1	0.0	5	1003.66	1	40.624723	17.975036
1519	2024-03-04 06:00:00	7	brindisi_sisri	13.69	1	83.54	1	0.0	1	7.17	1	118.7	1	0.0	5	1003.45	1	40.624723	17.975036
1520	2024-03-04 07:00:00	7	brindisi_sisri	13.71	1	83.83	1	0.0	1	6.53	1	119.12	1	11.02	1	1003.43	1	40.624723	17.975036
1521	2024-03-04 08:00:00	7	brindisi_sisri	13.93	1	83.43	1	0.0	1	6.0	1	111.79	1	68.61	1	1002.87	1	40.624723	17.975036
1522	2024-03-04 09:00:00	7	brindisi_sisri	14.61	1	80.55	1	0.0	1	7.78	1	115.3	1	178.43	1	1002.04	1	40.624723	17.975036
1523	2024-03-04 10:00:00	7	brindisi_sisri	14.96	1	75.9	1	0.0	1	9.0	1	121.22	1	133.33	1	1001.64	1	40.624723	17.975036
1524	2024-03-04 11:00:00	7	brindisi_sisri	14.2	1	78.59	1	1.4	1	8.31	1	121.42	1	58.03	1	1001.91	1	40.624723	17.975036
1525	2024-03-04 12:00:00	7	brindisi_sisri	8.88	1	94.04	1	8.4	1	4.66	1	219.47	1	12.83	1	1002.42	1	40.624723	17.975036
1526	2024-03-04 13:00:00	7	brindisi_sisri	9.06	1	98.45	1	1.4	1	3.73	1	238.57	1	24.92	1	1001.23	1	40.624723	17.975036
1527	2024-03-04 14:00:00	7	brindisi_sisri	9.02	1	98.87	1	0.2	1	2.49	1	245.94	1	107.84	1	1001.49	1	40.624723	17.975036
1528	2024-03-04 15:00:00	7	brindisi_sisri	9.27	1	98.03	1	0.0	1	2.13	1	248.93	1	100.07	1	1001.62	1	40.624723	17.975036
1529	2024-03-04 16:00:00	7	brindisi_sisri	9.43	1	96.29	1	0.0	1	1.07	1	238.19	1	119.14	1	1001.27	1	40.624723	17.975036
1530	2024-03-04 17:00:00	7	brindisi_sisri	9.93	1	93.3	1	0.2	1	1.34	1	156.73	1	105.02	1	1000.98	1	40.624723	17.975036
1531	2024-03-04 18:00:00	7	brindisi_sisri	10.52	1	85.91	1	0.0	1	1.12	1	157.46	1	40.78	1	1001.42	1	40.624723	17.975036
1532	2024-03-04 19:00:00	7	brindisi_sisri	8.64	1	90.37	1	0.0	1	1.18	1	135.02	1	0.0	5	1001.82	1	40.624723	17.975036
1533	2024-03-04 20:00:00	7	brindisi_sisri	7.31	1	95.04	1	0.0	1	1.95	1	156.09	1	0.0	5	1002.17	1	40.624723	17.975036
1534	2024-03-04 21:00:00	7	brindisi_sisri	6.42	1	97.56	1	0.0	1	2.18	1	164.42	1	0.0	5	1001.91	1	40.624723	17.975036
1535	2024-03-04 22:00:00	7	brindisi_sisri	5.84	1	98.73	1	0.0	1	1.95	1	160.95	1	0.0	5	1001.77	1	40.624723	17.975036
1536	2024-03-04 23:00:00	7	brindisi_sisri	5.51	1	99.02	1	0.0	1	1.66	1	146.04	1	0.0	5	1002.08	1	40.624723	17.975036
1537	2024-03-05 00:00:00	7	brindisi_sisri	5.63	1	99.02	1	0.0	1	1.89	1	107.54	1	0.0	5	1002.38	1	40.624723	17.975036
1538	2024-03-05 01:00:00	7	brindisi_sisri	5.37	1	99.02	1	0.0	1	1.54	1	153.95	1	0.0	5	1002.52	1	40.624723	17.975036
1539	2024-03-05 02:00:00	7	brindisi_sisri	4.55	1	99.02	1	0.0	1	1.54	1	162.08	1	0.0	5	1002.83	1	40.624723	17.975036
1540	2024-03-05 03:00:00	7	brindisi_sisri	4.83	1	99.02	1	0.0	1	1.39	1	234.93	1	0.0	5	1002.73	1	40.624723	17.975036
1541	2024-03-05 04:00:00	7	brindisi_sisri	4.24	1	99.02	1	0.0	1	1.7	1	223.62	1	0.0	5	1002.78	1	40.624723	17.975036
1542	2024-03-05 05:00:00	7	brindisi_sisri	4.29	1	99.03	1	0.0	1	1.14	1	234.25	1	0.0	5	1003.1	1	40.624723	17.975036
1543	2024-03-05 06:00:00	7	brindisi_sisri	5.43	1	99.07	1	0.0	1	1.96	1	252.96	1	0.0	5	1003.42	1	40.624723	17.975036
1544	2024-03-05 07:00:00	7	brindisi_sisri	7.28	1	98.99	1	0.0	1	1.9	1	251.12	1	26.09	1	1003.54	1	40.624723	17.975036
1545	2024-03-05 08:00:00	7	brindisi_sisri	9.06	1	96.86	1	0.0	1	2.2	1	258.0	1	109.67	1	1004.11	1	40.624723	17.975036
1546	2024-03-05 09:00:00	7	brindisi_sisri	10.5	1	95.51	1	0.0	1	2.54	1	256.06	1	167.27	1	1004.75	1	40.624723	17.975036
1547	2024-03-05 10:00:00	7	brindisi_sisri	12.53	1	89.48	1	0.0	1	4.0	1	274.87	1	449.38	1	1005.16	1	40.624723	17.975036
1548	2024-03-05 11:00:00	7	brindisi_sisri	13.53	1	76.6	1	0.0	1	5.19	1	280.44	1	604.42	1	1005.66	1	40.624723	17.975036
1549	2024-03-05 12:00:00	7	brindisi_sisri	13.66	1	72.07	1	0.0	1	4.96	1	274.59	1	334.67	1	1006.06	1	40.624723	17.975036
1550	2024-03-05 13:00:00	7	brindisi_sisri	12.79	1	77.01	1	0.2	1	5.47	1	277.41	1	228.41	1	1006.33	1	40.624723	17.975036
1551	2024-03-05 14:00:00	7	brindisi_sisri	11.59	1	90.6	1	0.0	1	3.84	1	264.75	1	176.84	1	1006.49	1	40.624723	17.975036
1552	2024-03-05 15:00:00	7	brindisi_sisri	13.24	1	78.02	1	0.0	1	4.85	1	276.2	1	180.04	1	1006.44	1	40.624723	17.975036
1553	2024-03-05 16:00:00	7	brindisi_sisri	14.03	1	70.24	1	0.0	1	5.04	1	282.02	1	129.64	1	1006.66	1	40.624723	17.975036
1554	2024-03-05 17:00:00	7	brindisi_sisri	13.94	1	73.01	1	0.0	1	4.83	1	295.7	1	89.23	1	1007.03	1	40.624723	17.975036
1555	2024-03-05 18:00:00	7	brindisi_sisri	13.3	1	79.79	1	0.0	1	3.63	1	300.08	1	19.58	1	1007.82	1	40.624723	17.975036
1556	2024-03-05 19:00:00	7	brindisi_sisri	12.6	1	82.58	1	0.0	1	3.03	1	296.13	1	0.0	5	1008.38	1	40.624723	17.975036
1557	2024-03-05 20:00:00	7	brindisi_sisri	12.21	1	86.02	1	0.0	1	2.55	1	296.33	1	0.0	5	1008.59	1	40.624723	17.975036
1558	2024-03-05 21:00:00	7	brindisi_sisri	11.85	1	89.68	1	0.0	1	1.95	1	300.21	1	0.0	5	1009.07	1	40.624723	17.975036
1559	2024-03-05 22:00:00	7	brindisi_sisri	10.9	1	91.11	1	0.0	1	1.86	1	233.9	1	0.0	5	1009.24	1	40.624723	17.975036
1560	2024-03-05 23:00:00	7	brindisi_sisri	8.92	1	93.71	1	0.0	1	1.42	1	200.4	1	0.0	5	1009.65	1	40.624723	17.975036
1561	2024-03-06 00:00:00	7	brindisi_sisri	7.96	1	96.52	1	0.0	1	1.98	1	205.96	1	0.0	5	1009.95	1	40.624723	17.975036
1562	2024-03-06 01:00:00	7	brindisi_sisri	8.01	1	98.08	1	0.0	1	1.94	1	209.6	1	0.0	5	1010.14	1	40.624723	17.975036
1563	2024-03-06 02:00:00	7	brindisi_sisri	8.0	1	98.99	1	0.0	1	2.07	1	215.19	1	0.0	5	1010.23	1	40.624723	17.975036
1564	2024-03-06 03:00:00	7	brindisi_sisri	7.43	1	99.02	1	0.0	1	1.68	1	218.75	1	0.0	5	1010.29	1	40.624723	17.975036
1565	2024-03-06 04:00:00	7	brindisi_sisri	6.98	1	99.02	1	0.0	1	1.46	1	218.09	1	0.0	5	1010.41	1	40.624723	17.975036
1566	2024-03-06 05:00:00	7	brindisi_sisri	6.13	1	99.02	1	0.0	1	1.23	1	208.62	1	0.0	5	1010.59	1	40.624723	17.975036
1567	2024-03-06 06:00:00	7	brindisi_sisri	5.82	1	99.02	1	0.0	1	1.51	1	208.47	1	0.0	5	1010.72	1	40.624723	17.975036
1568	2024-03-06 07:00:00	7	brindisi_sisri	5.58	1	99.02	1	0.0	1	1.4	1	206.75	1	26.81	1	1010.85	1	40.624723	17.975036
1569	2024-03-06 08:00:00	7	brindisi_sisri	8.64	1	98.33	1	0.0	1	1.82	1	202.9	1	160.55	1	1011.17	1	40.624723	17.975036
1570	2024-03-06 09:00:00	7	brindisi_sisri	12.07	1	90.08	1	0.0	1	2.04	1	211.31	1	377.82	1	1011.61	1	40.624723	17.975036
1571	2024-03-06 10:00:00	7	brindisi_sisri	15.81	1	64.58	1	0.0	1	2.01	1	236.08	1	552.41	1	1012.02	1	40.624723	17.975036
1572	2024-03-06 11:00:00	7	brindisi_sisri	16.46	1	58.9	1	0.0	1	1.63	1	254.34	1	693.21	1	1012.07	1	40.624723	17.975036
1573	2024-03-06 12:00:00	7	brindisi_sisri	16.54	1	60.9	1	0.0	1	2.7	1	333.95	1	711.06	1	1012.12	1	40.624723	17.975036
1574	2024-03-06 13:00:00	7	brindisi_sisri	17.2	1	57.29	1	0.0	1	2.32	1	322.12	1	539.52	1	1011.63	1	40.624723	17.975036
1575	2024-03-06 14:00:00	7	brindisi_sisri	16.61	1	60.17	1	0.0	1	2.5	1	45.14	1	358.17	1	1010.99	1	40.624723	17.975036
1576	2024-03-06 15:00:00	7	brindisi_sisri	16.57	1	61.7	1	0.0	1	3.18	1	80.0	1	181.36	1	1010.66	1	40.624723	17.975036
1577	2024-03-06 16:00:00	7	brindisi_sisri	15.0	1	73.74	1	0.0	1	3.8	1	122.18	1	69.28	1	1010.51	1	40.624723	17.975036
1578	2024-03-06 17:00:00	7	brindisi_sisri	16.01	1	68.29	1	0.0	1	1.06	1	302.67	1	76.82	1	1010.19	1	40.624723	17.975036
1579	2024-03-06 18:00:00	7	brindisi_sisri	15.11	1	67.24	1	0.0	1	1.6	1	130.75	1	28.94	1	1010.42	1	40.624723	17.975036
1580	2024-03-06 19:00:00	7	brindisi_sisri	12.44	1	76.9	1	0.0	1	1.79	1	131.56	1	0.0	5	1010.4	1	40.624723	17.975036
1581	2024-03-06 20:00:00	7	brindisi_sisri	12.08	1	83.8	1	0.0	1	2.73	1	206.56	1	0.0	5	1010.78	1	40.624723	17.975036
1582	2024-03-06 21:00:00	7	brindisi_sisri	13.1	1	70.65	1	0.0	1	3.4	1	263.3	1	0.0	5	1011.34	1	40.624723	17.975036
1583	2024-03-06 22:00:00	7	brindisi_sisri	12.15	1	70.65	1	0.0	1	2.43	1	254.25	1	0.0	5	1011.88	1	40.624723	17.975036
1584	2024-03-06 23:00:00	7	brindisi_sisri	11.38	1	58.6	1	0.0	1	3.74	1	228.41	1	0.0	5	1012.05	1	40.624723	17.975036
1585	2024-03-07 00:00:00	7	brindisi_sisri	11.57	1	51.18	1	0.0	1	3.84	1	242.75	1	0.0	5	1012.13	1	40.624723	17.975036
1586	2024-03-07 01:00:00	7	brindisi_sisri	11.83	1	50.28	1	0.0	1	3.7	1	235.85	1	0.0	5	1012.17	1	40.624723	17.975036
1587	2024-03-07 02:00:00	7	brindisi_sisri	11.16	1	54.42	1	0.0	1	3.28	1	221.37	1	0.0	5	1011.98	1	40.624723	17.975036
1588	2024-03-07 03:00:00	7	brindisi_sisri	9.62	1	63.9	1	0.0	1	2.62	1	221.06	1	0.0	5	1011.71	1	40.624723	17.975036
1589	2024-03-07 04:00:00	7	brindisi_sisri	9.06	1	69.88	1	0.0	1	3.19	1	208.1	1	0.0	5	1011.26	1	40.624723	17.975036
1590	2024-03-07 05:00:00	7	brindisi_sisri	8.57	1	75.33	1	0.0	1	2.87	1	205.67	1	0.0	5	1011.05	1	40.624723	17.975036
1591	2024-03-07 06:00:00	7	brindisi_sisri	7.91	1	81.57	1	0.0	1	2.71	1	206.03	1	0.0	5	1010.93	1	40.624723	17.975036
1592	2024-03-07 07:00:00	7	brindisi_sisri	7.77	1	84.89	1	0.0	1	2.85	1	206.54	1	17.9	1	1011.1	1	40.624723	17.975036
1593	2024-03-07 08:00:00	7	brindisi_sisri	9.9	1	79.82	1	0.0	1	2.98	1	206.59	1	197.77	1	1011.36	1	40.624723	17.975036
1594	2024-03-07 09:00:00	7	brindisi_sisri	12.48	1	65.01	1	0.0	1	3.68	1	220.32	1	436.63	1	1011.55	1	40.624723	17.975036
1595	2024-03-07 10:00:00	7	brindisi_sisri	14.91	1	54.07	1	0.0	1	3.88	1	221.65	1	614.15	1	1011.64	1	40.624723	17.975036
1596	2024-03-07 11:00:00	7	brindisi_sisri	15.26	1	42.25	1	0.0	1	4.72	1	225.79	1	719.83	1	1011.63	1	40.624723	17.975036
1597	2024-03-07 12:00:00	7	brindisi_sisri	16.16	1	35.66	1	0.0	1	4.77	1	220.22	1	793.23	1	1011.43	1	40.624723	17.975036
1598	2024-03-07 13:00:00	7	brindisi_sisri	17.15	1	38.02	1	0.0	1	3.46	1	232.86	1	674.3	1	1010.91	1	40.624723	17.975036
1599	2024-03-07 14:00:00	7	brindisi_sisri	14.89	1	50.27	1	0.0	1	4.59	1	326.52	1	405.82	1	1010.57	1	40.624723	17.975036
1600	2024-03-07 15:00:00	7	brindisi_sisri	13.82	1	52.95	1	0.0	1	4.36	1	324.36	1	144.97	1	1010.52	1	40.624723	17.975036
1601	2024-03-07 16:00:00	7	brindisi_sisri	13.55	1	53.95	1	0.0	1	4.14	1	318.29	1	103.16	1	1010.6	1	40.624723	17.975036
1602	2024-03-07 17:00:00	7	brindisi_sisri	12.84	1	58.28	1	0.0	1	3.53	1	320.02	1	58.43	1	1010.91	1	40.624723	17.975036
1603	2024-03-07 18:00:00	7	brindisi_sisri	12.3	1	61.59	1	0.0	1	1.49	1	341.26	1	13.38	1	1011.32	1	40.624723	17.975036
1604	2024-03-07 19:00:00	7	brindisi_sisri	11.95	1	63.51	1	0.0	1	1.23	1	331.55	1	0.0	5	1011.67	1	40.624723	17.975036
1605	2024-03-07 20:00:00	7	brindisi_sisri	10.72	1	68.67	1	0.0	1	1.8	1	202.72	1	0.0	5	1011.87	1	40.624723	17.975036
1606	2024-03-07 21:00:00	7	brindisi_sisri	9.06	1	84.09	1	0.0	1	1.37	1	198.08	1	0.0	5	1012.09	1	40.624723	17.975036
1607	2024-03-07 22:00:00	7	brindisi_sisri	9.16	1	85.64	1	0.0	1	1.39	1	233.5	1	0.0	5	1012.34	1	40.624723	17.975036
1608	2024-03-07 23:00:00	7	brindisi_sisri	9.34	1	81.48	1	0.0	1	1.8	1	205.1	1	0.0	5	1012.39	1	40.624723	17.975036
1609	2024-03-08 00:00:00	7	brindisi_sisri	8.6	1	87.04	1	0.0	1	2.01	1	216.25	1	0.0	5	1012.38	1	40.624723	17.975036
1610	2024-03-08 01:00:00	7	brindisi_sisri	9.37	1	85.07	1	0.0	1	2.15	1	224.96	1	0.0	5	1012.46	1	40.624723	17.975036
1611	2024-03-08 02:00:00	7	brindisi_sisri	8.58	1	88.18	1	0.0	1	2.02	1	209.46	1	0.0	5	1012.39	1	40.624723	17.975036
1612	2024-03-08 03:00:00	7	brindisi_sisri	7.57	1	92.07	1	0.0	1	2.64	1	215.7	1	0.0	5	1012.05	1	40.624723	17.975036
1613	2024-03-08 04:00:00	7	brindisi_sisri	7.38	1	92.78	1	0.0	1	2.77	1	220.22	1	0.0	5	1012.03	1	40.624723	17.975036
1614	2024-03-08 05:00:00	7	brindisi_sisri	7.44	1	91.0	1	0.0	1	2.19	1	232.05	1	0.0	5	1012.06	1	40.624723	17.975036
1615	2024-03-08 06:00:00	7	brindisi_sisri	7.14	1	90.62	1	0.0	1	2.25	1	231.76	1	0.0	5	1012.08	1	40.624723	17.975036
1616	2024-03-08 07:00:00	7	brindisi_sisri	7.87	1	87.67	1	0.0	1	2.3	1	234.89	1	42.99	1	1012.25	1	40.624723	17.975036
1617	2024-03-08 08:00:00	7	brindisi_sisri	10.43	1	79.69	1	0.0	1	2.06	1	209.48	1	182.22	1	1012.68	1	40.624723	17.975036
1618	2024-03-08 09:00:00	7	brindisi_sisri	11.92	1	73.08	1	0.0	1	2.54	1	265.49	1	246.08	1	1012.89	1	40.624723	17.975036
1619	2024-03-08 10:00:00	7	brindisi_sisri	13.67	1	71.89	1	0.0	1	2.9	1	279.32	1	503.25	1	1013.04	1	40.624723	17.975036
1620	2024-03-08 11:00:00	7	brindisi_sisri	14.31	1	66.86	1	0.0	1	2.81	1	299.27	1	555.99	1	1013.15	1	40.624723	17.975036
1621	2024-03-08 12:00:00	7	brindisi_sisri	13.85	1	67.79	1	0.0	1	2.81	1	312.95	1	351.49	1	1013.13	1	40.624723	17.975036
1622	2024-03-08 13:00:00	7	brindisi_sisri	14.63	1	67.46	1	0.0	1	2.95	1	338.29	1	584.81	1	1012.8	1	40.624723	17.975036
1623	2024-03-08 14:00:00	7	brindisi_sisri	14.52	1	66.98	1	0.0	1	2.78	1	22.57	1	414.52	1	1012.28	1	40.624723	17.975036
1624	2024-03-08 15:00:00	7	brindisi_sisri	13.53	1	68.87	1	0.0	1	2.7	1	60.12	1	147.77	1	1012.17	1	40.624723	17.975036
1625	2024-03-08 16:00:00	7	brindisi_sisri	13.61	1	69.46	1	0.0	1	3.63	1	88.5	1	97.0	1	1011.98	1	40.624723	17.975036
1626	2024-03-08 17:00:00	7	brindisi_sisri	13.89	1	69.11	1	0.0	1	3.31	1	97.75	1	89.88	1	1011.92	1	40.624723	17.975036
1627	2024-03-08 18:00:00	7	brindisi_sisri	12.83	1	64.65	1	0.0	1	2.3	1	163.25	1	30.56	1	1012.07	1	40.624723	17.975036
1628	2024-03-08 19:00:00	7	brindisi_sisri	9.59	1	79.77	1	0.0	1	1.84	1	173.03	1	0.0	5	1012.41	1	40.624723	17.975036
1629	2024-03-08 20:00:00	7	brindisi_sisri	8.35	1	87.74	1	0.0	1	1.87	1	156.37	1	0.0	5	1012.66	1	40.624723	17.975036
1630	2024-03-08 21:00:00	7	brindisi_sisri	8.25	1	89.65	1	0.0	1	1.74	1	132.84	1	0.0	5	1012.79	1	40.624723	17.975036
1631	2024-03-08 22:00:00	7	brindisi_sisri	9.14	1	85.46	1	0.0	1	2.68	1	129.05	1	0.0	5	1012.86	1	40.624723	17.975036
1632	2024-03-08 23:00:00	7	brindisi_sisri	9.79	1	82.54	1	0.0	1	3.06	1	130.94	1	0.0	5	1012.81	1	40.624723	17.975036
1633	2024-03-09 00:00:00	7	brindisi_sisri	10.34	1	80.7	1	0.0	1	3.33	1	115.03	1	0.0	5	1012.42	1	40.624723	17.975036
1634	2024-03-09 01:00:00	7	brindisi_sisri	10.73	1	81.12	1	0.0	1	3.2	1	118.74	1	0.0	5	1012.18	1	40.624723	17.975036
1635	2024-03-09 02:00:00	7	brindisi_sisri	11.33	1	78.03	1	0.0	1	3.82	1	121.83	1	0.0	5	1011.78	1	40.624723	17.975036
1636	2024-03-09 03:00:00	7	brindisi_sisri	10.79	1	81.67	1	0.0	1	4.18	1	121.21	1	0.0	5	1011.31	1	40.624723	17.975036
1637	2024-03-09 04:00:00	7	brindisi_sisri	11.23	1	83.09	1	0.0	1	3.02	1	114.84	1	0.0	5	1011.2	1	40.624723	17.975036
1638	2024-03-09 05:00:00	7	brindisi_sisri	11.24	1	87.39	1	0.2	1	3.2	1	112.97	1	0.0	5	1010.99	1	40.624723	17.975036
1639	2024-03-09 06:00:00	7	brindisi_sisri	11.32	1	88.96	1	0.0	1	2.97	1	111.88	1	0.0	5	1010.92	1	40.624723	17.975036
1640	2024-03-09 07:00:00	7	brindisi_sisri	11.5	1	89.01	1	1.2	1	3.59	1	117.72	1	0.0	5	1010.87	1	40.624723	17.975036
1641	2024-03-09 08:00:00	7	brindisi_sisri	11.33	1	94.02	1	2.0	1	3.0	1	114.08	1	24.31	1	1011.18	1	40.624723	17.975036
1642	2024-03-09 09:00:00	7	brindisi_sisri	11.5	1	97.86	1	9.8	1	4.04	1	113.36	1	17.12	1	1011.66	1	40.624723	17.975036
1643	2024-03-09 10:00:00	7	brindisi_sisri	11.97	1	99.03	1	0.2	1	6.34	1	107.71	1	139.13	1	1011.49	1	40.624723	17.975036
1644	2024-03-09 11:00:00	7	brindisi_sisri	12.99	1	99.02	1	0.0	1	6.82	1	96.41	1	249.15	1	1011.23	1	40.624723	17.975036
1645	2024-03-09 12:00:00	7	brindisi_sisri	14.08	1	96.89	1	0.0	1	5.18	1	103.16	1	267.38	1	1010.94	1	40.624723	17.975036
1646	2024-03-09 13:00:00	7	brindisi_sisri	15.58	1	92.61	1	0.0	1	4.4	1	129.56	1	215.1	1	1010.51	1	40.624723	17.975036
1647	2024-03-09 14:00:00	7	brindisi_sisri	16.49	1	79.82	1	0.0	1	5.89	1	150.34	1	236.71	1	1010.31	1	40.624723	17.975036
1648	2024-03-09 15:00:00	7	brindisi_sisri	16.89	1	76.7	1	0.0	1	6.29	1	154.13	1	265.8	1	1010.13	1	40.624723	17.975036
1649	2024-03-09 16:00:00	7	brindisi_sisri	16.38	1	77.25	1	0.0	1	5.72	1	153.73	1	105.25	1	1009.79	1	40.624723	17.975036
1650	2024-03-09 17:00:00	7	brindisi_sisri	15.66	1	81.83	1	0.0	1	3.6	1	133.17	1	50.36	1	1009.48	1	40.624723	17.975036
1651	2024-03-09 18:00:00	7	brindisi_sisri	15.28	1	81.9	1	0.0	1	4.9	1	134.93	1	15.64	1	1009.59	1	40.624723	17.975036
1652	2024-03-09 19:00:00	7	brindisi_sisri	14.59	1	85.13	1	0.0	1	4.45	1	135.23	1	0.0	5	1010.07	1	40.624723	17.975036
1653	2024-03-09 20:00:00	7	brindisi_sisri	13.96	1	88.18	1	0.0	1	4.61	1	133.32	1	0.0	5	1010.28	1	40.624723	17.975036
1654	2024-03-09 21:00:00	7	brindisi_sisri	13.34	1	91.99	1	0.0	1	4.38	1	130.84	1	0.0	5	1010.4	1	40.624723	17.975036
1655	2024-03-09 22:00:00	7	brindisi_sisri	13.54	1	93.38	1	0.0	1	5.01	1	126.84	1	0.0	5	1010.29	1	40.624723	17.975036
1656	2024-03-09 23:00:00	7	brindisi_sisri	13.88	1	90.63	1	0.0	1	6.21	1	141.18	1	0.0	5	1010.03	1	40.624723	17.975036
1657	2024-03-10 00:00:00	7	brindisi_sisri	13.95	1	88.7	1	0.0	1	6.97	1	141.56	1	0.0	5	1010.13	1	40.624723	17.975036
1658	2024-03-10 01:00:00	7	brindisi_sisri	13.58	1	89.32	1	0.0	1	7.48	1	141.74	1	0.0	5	1009.83	1	40.624723	17.975036
1659	2024-03-10 02:00:00	7	brindisi_sisri	13.63	1	88.7	1	0.0	1	6.26	1	133.41	1	0.0	5	1009.88	1	40.624723	17.975036
1660	2024-03-10 03:00:00	7	brindisi_sisri	13.77	1	87.71	1	0.0	1	6.45	1	134.41	1	0.0	5	1009.66	1	40.624723	17.975036
1661	2024-03-10 04:00:00	7	brindisi_sisri	13.67	1	87.04	1	0.0	1	7.07	1	137.9	1	0.0	5	1009.38	1	40.624723	17.975036
1662	2024-03-10 05:00:00	7	brindisi_sisri	13.59	1	86.59	1	0.0	1	6.35	1	134.91	1	0.0	5	1009.3	1	40.624723	17.975036
1663	2024-03-10 06:00:00	7	brindisi_sisri	13.59	1	85.79	1	0.0	1	4.99	1	133.27	1	0.0	5	1009.57	1	40.624723	17.975036
1664	2024-03-10 07:00:00	7	brindisi_sisri	13.59	1	86.08	1	0.0	1	4.96	1	131.08	1	39.26	1	1009.57	1	40.624723	17.975036
1665	2024-03-10 08:00:00	7	brindisi_sisri	14.22	1	83.96	1	0.0	1	7.34	1	139.22	1	110.63	1	1009.61	1	40.624723	17.975036
1666	2024-03-10 09:00:00	7	brindisi_sisri	15.53	1	77.68	1	0.0	1	9.34	1	144.99	1	354.46	1	1009.84	1	40.624723	17.975036
1667	2024-03-10 10:00:00	7	brindisi_sisri	16.55	1	69.33	1	0.0	1	10.44	1	144.06	1	425.1	1	1010.15	1	40.624723	17.975036
1668	2024-03-10 11:00:00	7	brindisi_sisri	16.77	1	63.05	1	0.0	1	10.78	1	141.61	1	386.93	1	1009.52	1	40.624723	17.975036
1669	2024-03-10 12:00:00	7	brindisi_sisri	16.83	1	59.37	1	0.0	1	10.11	1	142.84	1	266.97	1	1009.69	1	40.624723	17.975036
1670	2024-03-10 13:00:00	7	brindisi_sisri	16.63	1	57.45	1	0.0	1	10.75	1	137.72	1	148.48	1	1009.1	1	40.624723	17.975036
1671	2024-03-10 14:00:00	7	brindisi_sisri	16.46	1	59.87	1	0.0	1	9.87	1	138.18	1	130.62	1	1008.73	1	40.624723	17.975036
1672	2024-03-10 15:00:00	7	brindisi_sisri	16.6	1	61.4	1	0.0	1	9.66	1	130.58	1	186.08	1	1008.28	1	40.624723	17.975036
1673	2024-03-10 16:00:00	7	brindisi_sisri	16.64	1	62.36	1	0.0	1	7.62	1	125.42	1	163.07	1	1008.03	1	40.624723	17.975036
1674	2024-03-10 17:00:00	7	brindisi_sisri	15.93	1	69.09	1	0.0	1	7.11	1	122.43	1	72.91	1	1007.57	1	40.624723	17.975036
1675	2024-03-10 18:00:00	7	brindisi_sisri	15.12	1	75.9	1	0.0	1	8.29	1	123.45	1	18.35	1	1007.52	1	40.624723	17.975036
1676	2024-03-10 19:00:00	7	brindisi_sisri	14.68	1	78.06	1	0.0	1	8.29	1	122.83	1	0.0	5	1007.37	1	40.624723	17.975036
1677	2024-03-10 20:00:00	7	brindisi_sisri	14.57	1	78.68	1	0.0	1	8.83	1	127.52	1	0.0	5	1007.02	1	40.624723	17.975036
1678	2024-03-10 21:00:00	7	brindisi_sisri	14.48	1	79.96	1	0.0	1	7.92	1	132.89	1	0.0	5	1007.19	1	40.624723	17.975036
1679	2024-03-10 22:00:00	7	brindisi_sisri	14.42	1	80.9	1	0.0	1	7.34	1	129.05	1	0.0	5	1007.29	1	40.624723	17.975036
1680	2024-03-10 23:00:00	7	brindisi_sisri	14.35	1	80.29	1	0.0	1	7.06	1	131.07	1	0.0	5	1007.13	1	40.624723	17.975036
1681	2024-03-11 00:00:00	7	brindisi_sisri	14.3	1	79.09	1	0.0	1	7.98	1	130.71	1	0.0	5	1006.16	1	40.624723	17.975036
1682	2024-03-11 01:00:00	7	brindisi_sisri	14.22	1	78.98	1	0.0	1	7.84	1	133.78	1	0.0	5	1005.86	1	40.624723	17.975036
1683	2024-03-11 02:00:00	7	brindisi_sisri	14.12	1	81.38	1	0.0	1	8.01	1	123.87	1	0.0	5	1005.02	1	40.624723	17.975036
1684	2024-03-11 03:00:00	7	brindisi_sisri	14.09	1	81.84	1	0.0	1	8.71	1	133.25	1	0.0	5	1004.39	1	40.624723	17.975036
1685	2024-03-11 04:00:00	7	brindisi_sisri	14.17	1	81.67	1	0.0	1	7.47	1	133.2	1	0.0	5	1004.6	1	40.624723	17.975036
1686	2024-03-11 05:00:00	7	brindisi_sisri	14.51	1	79.55	1	0.0	1	8.47	1	126.72	1	0.0	5	1003.65	1	40.624723	17.975036
1687	2024-03-11 06:00:00	7	brindisi_sisri	14.79	1	78.18	1	0.0	1	11.68	1	123.33	1	0.0	5	1002.04	1	40.624723	17.975036
1688	2024-03-11 07:00:00	7	brindisi_sisri	15.09	1	77.17	1	0.0	1	12.75	1	123.84	1	10.4	1	1001.51	1	40.624723	17.975036
1689	2024-03-11 08:00:00	7	brindisi_sisri	15.22	1	79.13	1	0.0	1	12.51	1	128.05	1	41.36	1	1001.63	1	40.624723	17.975036
1690	2024-03-11 09:00:00	7	brindisi_sisri	15.24	1	83.31	1	0.0	1	11.95	1	127.5	1	108.03	1	1001.45	1	40.624723	17.975036
1691	2024-03-11 10:00:00	7	brindisi_sisri	14.06	1	83.13	1	16.8	1	7.49	1	187.12	1	24.69	1	1002.41	1	40.624723	17.975036
1692	2024-03-11 11:00:00	7	brindisi_sisri	11.42	1	97.81	1	11.0	1	4.79	1	166.36	1	24.64	1	1003.35	1	40.624723	17.975036
1693	2024-03-11 12:00:00	7	brindisi_sisri	11.75	1	99.05	1	0.8	1	3.73	1	136.23	1	119.39	1	1003.36	1	40.624723	17.975036
1694	2024-03-11 13:00:00	7	brindisi_sisri	14.27	1	99.09	1	0.0	1	3.97	1	171.71	1	598.74	1	1002.44	1	40.624723	17.975036
1695	2024-03-11 14:00:00	7	brindisi_sisri	17.74	1	83.11	1	0.0	1	3.68	1	176.95	1	497.52	1	1001.73	1	40.624723	17.975036
1696	2024-03-11 15:00:00	7	brindisi_sisri	18.24	1	66.5	1	0.0	1	5.23	1	305.57	1	189.65	1	1002.02	1	40.624723	17.975036
1697	2024-03-11 16:00:00	7	brindisi_sisri	15.57	1	83.31	1	0.0	1	3.78	1	16.54	1	134.3	1	1002.99	1	40.624723	17.975036
1698	2024-03-11 17:00:00	7	brindisi_sisri	14.25	1	87.99	1	0.0	1	4.02	1	41.36	1	52.52	1	1003.52	1	40.624723	17.975036
1699	2024-03-11 18:00:00	7	brindisi_sisri	13.31	1	92.22	1	0.0	1	2.59	1	47.61	1	11.97	1	1003.88	1	40.624723	17.975036
1700	2024-03-11 19:00:00	7	brindisi_sisri	12.79	1	94.06	1	0.0	1	1.2	1	278.31	1	0.0	5	1004.53	1	40.624723	17.975036
1701	2024-03-11 20:00:00	7	brindisi_sisri	12.37	1	95.17	1	0.0	1	0.6	1	40.58	1	0.0	5	1005.01	1	40.624723	17.975036
1702	2024-03-11 21:00:00	7	brindisi_sisri	11.41	1	96.56	1	0.0	1	1.19	1	187.89	1	0.0	5	1005.39	1	40.624723	17.975036
1703	2024-03-11 22:00:00	7	brindisi_sisri	11.03	1	98.32	1	0.0	1	1.96	1	161.79	1	0.0	5	1005.47	1	40.624723	17.975036
1704	2024-03-11 23:00:00	7	brindisi_sisri	10.39	1	98.4	1	0.0	1	2.6	1	167.68	1	0.0	5	1005.63	1	40.624723	17.975036
1705	2024-03-12 00:00:00	7	brindisi_sisri	10.8	1	92.71	1	0.0	1	3.55	1	191.24	1	0.0	1	1005.6	1	40.624723	17.975036
1706	2024-03-12 01:00:00	7	brindisi_sisri	10.85	1	86.09	1	0.0	1	2.37	1	199.42	1	0.0	5	1005.56	1	40.624723	17.975036
1707	2024-03-12 02:00:00	7	brindisi_sisri	10.87	1	87.11	1	0.0	1	2.1	1	202.68	1	0.0	5	1005.46	1	40.624723	17.975036
1708	2024-03-12 03:00:00	7	brindisi_sisri	11.31	1	84.24	1	0.0	1	2.67	1	210.18	1	0.0	5	1005.16	1	40.624723	17.975036
1709	2024-03-12 04:00:00	7	brindisi_sisri	10.42	1	84.47	1	0.0	1	2.39	1	198.47	1	0.0	5	1004.86	1	40.624723	17.975036
1710	2024-03-12 05:00:00	7	brindisi_sisri	9.83	1	89.07	1	0.0	1	1.87	1	198.63	1	0.0	5	1004.75	1	40.624723	17.975036
1711	2024-03-12 06:00:00	7	brindisi_sisri	9.61	1	86.83	1	0.0	1	2.79	1	209.48	1	0.0	5	1004.82	1	40.624723	17.975036
1712	2024-03-12 07:00:00	7	brindisi_sisri	9.84	1	80.28	1	0.0	1	2.91	1	213.29	1	31.56	1	1005.35	1	40.624723	17.975036
1713	2024-03-12 08:00:00	7	brindisi_sisri	12.07	1	73.34	1	0.0	1	3.23	1	208.96	1	224.73	1	1006.12	1	40.624723	17.975036
1714	2024-03-12 09:00:00	7	brindisi_sisri	14.34	1	62.95	1	0.0	1	3.08	1	213.59	1	431.91	1	1006.51	1	40.624723	17.975036
1715	2024-03-12 10:00:00	7	brindisi_sisri	16.45	1	53.09	1	0.0	1	3.79	1	196.63	1	503.33	1	1006.62	1	40.624723	17.975036
1716	2024-03-12 11:00:00	7	brindisi_sisri	17.2	1	45.09	1	0.0	1	4.11	1	201.85	1	785.72	1	1006.66	1	40.624723	17.975036
1717	2024-03-12 12:00:00	7	brindisi_sisri	18.06	1	42.13	1	0.0	1	3.68	1	224.08	1	833.86	1	1006.83	1	40.624723	17.975036
1718	2024-03-12 13:00:00	7	brindisi_sisri	15.66	1	56.32	1	0.0	1	4.22	1	316.9	1	416.9	1	1006.95	1	40.624723	17.975036
1719	2024-03-12 14:00:00	7	brindisi_sisri	15.35	1	59.91	1	0.0	1	4.06	1	342.6	1	419.0	1	1006.6	1	40.624723	17.975036
1720	2024-03-12 15:00:00	7	brindisi_sisri	13.18	1	65.05	1	0.0	1	5.28	1	234.81	1	34.81	1	1007.2	1	40.624723	17.975036
1721	2024-03-12 16:00:00	7	brindisi_sisri	10.4	1	86.82	1	2.4	1	2.97	1	325.03	1	18.5	1	1007.62	1	40.624723	17.975036
1722	2024-03-12 17:00:00	7	brindisi_sisri	10.51	1	91.35	1	0.8	1	2.79	1	323.67	1	40.11	1	1007.26	1	40.624723	17.975036
1723	2024-03-12 18:00:00	7	brindisi_sisri	10.67	1	91.66	1	0.2	1	1.86	1	240.4	1	11.3	1	1007.41	1	40.624723	17.975036
1724	2024-03-12 19:00:00	7	brindisi_sisri	10.11	1	92.1	1	0.0	1	2.0	1	235.26	1	0.0	5	1007.56	1	40.624723	17.975036
1725	2024-03-12 20:00:00	7	brindisi_sisri	10.06	1	92.35	1	0.0	1	2.08	1	246.59	1	0.0	5	1008.27	1	40.624723	17.975036
1726	2024-03-12 21:00:00	7	brindisi_sisri	10.29	1	91.92	1	0.2	1	2.11	1	237.01	1	0.0	5	1008.66	1	40.624723	17.975036
1727	2024-03-12 22:00:00	7	brindisi_sisri	9.72	1	92.81	1	0.0	1	1.49	1	219.54	1	0.0	5	1008.86	1	40.624723	17.975036
1728	2024-03-12 23:00:00	7	brindisi_sisri	9.05	1	94.36	1	0.0	1	2.09	1	223.72	1	0.0	5	1009.11	1	40.624723	17.975036
1729	2024-03-13 00:00:00	7	brindisi_sisri	8.74	1	94.41	1	0.0	1	2.36	1	234.06	1	0.0	5	1009.11	1	40.624723	17.975036
1730	2024-03-13 01:00:00	7	brindisi_sisri	8.81	1	93.05	1	0.0	1	2.56	1	237.08	1	0.0	5	1009.17	1	40.624723	17.975036
1731	2024-03-13 02:00:00	7	brindisi_sisri	8.38	1	91.09	1	0.0	1	2.57	1	223.05	1	0.0	5	1009.1	1	40.624723	17.975036
1732	2024-03-13 03:00:00	7	brindisi_sisri	8.52	1	91.58	1	0.0	1	2.26	1	238.27	1	0.0	5	1008.86	1	40.624723	17.975036
1733	2024-03-13 04:00:00	7	brindisi_sisri	10.2	1	89.23	1	0.2	1	2.71	1	269.66	1	0.0	5	1008.7	1	40.624723	17.975036
1734	2024-03-13 05:00:00	7	brindisi_sisri	10.08	1	90.67	1	1.2	1	3.52	1	285.4	1	0.0	5	1008.76	1	40.624723	17.975036
1735	2024-03-13 06:00:00	7	brindisi_sisri	9.46	1	94.92	1	2.4	1	3.07	1	252.56	1	0.0	5	1008.94	1	40.624723	17.975036
1736	2024-03-13 07:00:00	7	brindisi_sisri	9.71	1	97.12	1	0.2	1	2.2	1	230.55	1	50.54	1	1008.93	1	40.624723	17.975036
1737	2024-03-13 08:00:00	7	brindisi_sisri	11.5	1	94.94	1	0.0	1	2.31	1	227.0	1	193.96	1	1009.06	1	40.624723	17.975036
1738	2024-03-13 09:00:00	7	brindisi_sisri	13.57	1	81.45	1	0.2	1	5.22	1	315.89	1	436.32	1	1009.72	1	40.624723	17.975036
1739	2024-03-13 10:00:00	7	brindisi_sisri	13.76	1	74.16	1	0.0	1	5.36	1	312.21	1	325.47	1	1010.44	1	40.624723	17.975036
1740	2024-03-13 11:00:00	7	brindisi_sisri	12.53	1	83.55	1	2.0	1	3.93	1	329.81	1	231.36	1	1010.89	1	40.624723	17.975036
1741	2024-03-13 12:00:00	7	brindisi_sisri	13.49	1	85.04	1	0.6	1	4.78	1	288.86	1	513.26	1	1010.95	1	40.624723	17.975036
1742	2024-03-13 13:00:00	7	brindisi_sisri	15.45	1	70.0	1	0.0	1	5.77	1	310.82	1	694.96	1	1010.59	1	40.624723	17.975036
1743	2024-03-13 14:00:00	7	brindisi_sisri	15.58	1	62.92	1	0.0	1	5.31	1	311.14	1	407.87	1	1010.39	1	40.624723	17.975036
1744	2024-03-13 15:00:00	7	brindisi_sisri	15.39	1	64.21	1	0.0	1	5.78	1	286.58	1	184.04	1	1010.31	1	40.624723	17.975036
1745	2024-03-13 16:00:00	7	brindisi_sisri	15.14	1	59.63	1	0.0	1	5.89	1	302.63	1	108.91	1	1010.35	1	40.624723	17.975036
1746	2024-03-13 17:00:00	7	brindisi_sisri	14.92	1	59.43	1	0.0	1	5.53	1	297.89	1	114.63	1	1010.47	1	40.624723	17.975036
1747	2024-03-13 18:00:00	7	brindisi_sisri	13.89	1	64.2	1	0.0	1	4.23	1	298.61	1	38.94	1	1010.64	1	40.624723	17.975036
1748	2024-03-13 19:00:00	7	brindisi_sisri	12.96	1	69.12	1	0.0	1	3.71	1	302.86	1	0.0	5	1010.9	1	40.624723	17.975036
1749	2024-03-13 20:00:00	7	brindisi_sisri	12.57	1	72.17	1	0.0	1	3.07	1	298.59	1	0.0	5	1011.18	1	40.624723	17.975036
1750	2024-03-13 21:00:00	7	brindisi_sisri	11.42	1	78.09	1	0.0	1	1.55	1	242.23	1	0.0	5	1011.5	1	40.624723	17.975036
1751	2024-03-13 22:00:00	7	brindisi_sisri	10.03	1	85.19	1	0.0	1	2.09	1	222.99	1	0.0	5	1011.77	1	40.624723	17.975036
1752	2024-03-13 23:00:00	7	brindisi_sisri	9.65	1	88.46	1	0.0	1	2.21	1	230.08	1	0.0	5	1011.65	1	40.624723	17.975036
1753	2024-03-14 00:00:00	7	brindisi_sisri	8.8	1	89.89	1	0.0	1	2.26	1	215.96	1	0.0	5	1011.65	1	40.624723	17.975036
1754	2024-03-14 01:00:00	7	brindisi_sisri	8.98	1	93.71	1	0.0	1	2.3	1	233.89	1	0.0	5	1011.75	1	40.624723	17.975036
1755	2024-03-14 02:00:00	7	brindisi_sisri	10.52	1	96.08	1	0.0	1	3.08	1	261.74	1	0.0	5	1011.66	1	40.624723	17.975036
1756	2024-03-14 03:00:00	7	brindisi_sisri	10.71	1	96.1	1	0.0	1	3.42	1	265.6	1	0.0	5	1011.44	1	40.624723	17.975036
1757	2024-03-14 04:00:00	7	brindisi_sisri	10.46	1	89.56	1	0.0	1	3.28	1	258.98	1	0.0	5	1011.48	1	40.624723	17.975036
1758	2024-03-14 05:00:00	7	brindisi_sisri	9.87	1	85.06	1	0.0	1	3.06	1	258.23	1	0.0	5	1011.49	1	40.624723	17.975036
1759	2024-03-14 06:00:00	7	brindisi_sisri	9.63	1	84.86	1	0.0	1	2.97	1	254.83	1	0.0	5	1012.11	1	40.624723	17.975036
1760	2024-03-14 07:00:00	7	brindisi_sisri	9.82	1	82.12	1	0.0	1	3.33	1	254.08	1	24.27	1	1012.5	1	40.624723	17.975036
1761	2024-03-14 08:00:00	7	brindisi_sisri	11.46	1	75.67	1	0.0	1	3.11	1	256.6	1	176.72	1	1012.88	1	40.624723	17.975036
1762	2024-03-14 09:00:00	7	brindisi_sisri	14.37	1	69.25	1	0.0	1	3.85	1	273.7	1	469.62	1	1013.16	1	40.624723	17.975036
1763	2024-03-14 10:00:00	7	brindisi_sisri	15.45	1	65.24	1	0.0	1	5.05	1	279.29	1	647.06	1	1013.44	1	40.624723	17.975036
1764	2024-03-14 11:00:00	7	brindisi_sisri	15.71	1	67.02	1	0.0	1	5.21	1	286.88	1	765.01	1	1013.56	1	40.624723	17.975036
1765	2024-03-14 12:00:00	7	brindisi_sisri	16.08	1	65.67	1	0.0	1	5.24	1	286.66	1	830.74	1	1013.57	1	40.624723	17.975036
1766	2024-03-14 13:00:00	7	brindisi_sisri	16.32	1	66.55	1	0.0	1	5.55	1	291.84	1	777.73	1	1013.34	1	40.624723	17.975036
1767	2024-03-14 14:00:00	7	brindisi_sisri	15.87	1	69.64	1	0.0	1	6.39	1	297.67	1	403.92	1	1012.89	1	40.624723	17.975036
1768	2024-03-14 15:00:00	7	brindisi_sisri	15.49	1	71.65	1	0.0	1	6.46	1	302.95	1	121.15	1	1012.84	1	40.624723	17.975036
1769	2024-03-14 16:00:00	7	brindisi_sisri	15.25	1	73.57	1	0.0	1	5.97	1	295.46	1	116.91	1	1012.91	1	40.624723	17.975036
1770	2024-03-14 17:00:00	7	brindisi_sisri	15.16	1	72.89	1	0.0	1	4.8	1	297.04	1	116.68	1	1012.86	1	40.624723	17.975036
1771	2024-03-14 18:00:00	7	brindisi_sisri	14.41	1	76.8	1	0.0	1	2.99	1	280.03	1	48.29	1	1012.96	1	40.624723	17.975036
1772	2024-03-14 19:00:00	7	brindisi_sisri	12.78	1	85.03	1	0.0	1	1.73	1	280.39	1	0.0	5	1013.12	1	40.624723	17.975036
1773	2024-03-14 20:00:00	7	brindisi_sisri	12.05	1	89.01	1	0.0	1	1.37	1	282.17	1	0.0	5	1013.4	1	40.624723	17.975036
1774	2024-03-14 21:00:00	7	brindisi_sisri	11.52	1	90.92	1	0.0	1	1.2	1	256.38	1	0.0	5	1013.71	1	40.624723	17.975036
1775	2024-03-14 22:00:00	7	brindisi_sisri	9.62	1	92.65	1	0.0	1	1.06	1	222.42	1	0.0	5	1013.92	1	40.624723	17.975036
1776	2024-03-14 23:00:00	7	brindisi_sisri	8.24	1	95.5	1	0.0	1	1.4	1	215.82	1	0.0	5	1013.94	1	40.624723	17.975036
1777	2024-03-15 00:00:00	7	brindisi_sisri	7.3	1	96.1	1	0.0	1	1.77	1	217.68	1	0.0	5	1013.91	1	40.624723	17.975036
1778	2024-03-15 01:00:00	7	brindisi_sisri	6.79	1	93.69	1	0.0	1	1.4	1	222.44	1	0.0	5	1013.83	1	40.624723	17.975036
1779	2024-03-15 02:00:00	7	brindisi_sisri	6.35	1	91.52	1	0.0	1	1.07	1	232.64	1	0.0	5	1013.74	1	40.624723	17.975036
1780	2024-03-15 03:00:00	7	brindisi_sisri	5.5	1	90.83	1	0.0	1	1.23	1	219.46	1	0.0	5	1013.41	1	40.624723	17.975036
1781	2024-03-15 04:00:00	7	brindisi_sisri	4.84	1	92.19	1	0.0	1	1.24	1	219.7	1	0.0	5	1013.26	1	40.624723	17.975036
1782	2024-03-15 05:00:00	7	brindisi_sisri	4.87	1	92.01	1	0.0	1	1.31	1	219.82	1	0.0	5	1013.22	1	40.624723	17.975036
1783	2024-03-15 06:00:00	7	brindisi_sisri	4.58	1	90.68	1	0.0	1	1.28	1	225.05	1	0.0	5	1013.27	1	40.624723	17.975036
1784	2024-03-15 07:00:00	7	brindisi_sisri	6.14	1	86.68	1	0.0	1	1.11	1	214.72	1	71.43	1	1013.62	1	40.624723	17.975036
1785	2024-03-15 08:00:00	7	brindisi_sisri	11.32	1	68.16	1	0.0	1	1.12	1	208.46	1	227.31	1	1013.82	1	40.624723	17.975036
1786	2024-03-15 09:00:00	7	brindisi_sisri	15.03	1	55.15	1	0.0	1	1.55	1	209.39	1	474.66	1	1014.23	1	40.624723	17.975036
1787	2024-03-15 10:00:00	7	brindisi_sisri	17.49	1	41.3	1	0.0	1	1.72	1	282.02	1	658.93	1	1014.61	1	40.624723	17.975036
1788	2024-03-15 11:00:00	7	brindisi_sisri	16.63	1	44.21	1	0.0	1	2.46	1	335.56	1	779.61	1	1014.54	1	40.624723	17.975036
1789	2024-03-15 12:00:00	7	brindisi_sisri	17.01	1	51.4	1	0.0	1	2.42	1	356.08	1	839.19	1	1014.28	1	40.624723	17.975036
1790	2024-03-15 13:00:00	7	brindisi_sisri	17.52	1	54.14	1	0.0	1	2.68	1	342.4	1	748.77	1	1013.95	1	40.624723	17.975036
1791	2024-03-15 14:00:00	7	brindisi_sisri	16.99	1	58.46	1	0.0	1	2.82	1	0.92	1	477.59	1	1013.55	1	40.624723	17.975036
1792	2024-03-15 15:00:00	7	brindisi_sisri	17.12	1	56.43	1	0.0	1	2.43	1	24.01	1	125.42	1	1013.24	1	40.624723	17.975036
1793	2024-03-15 16:00:00	7	brindisi_sisri	16.75	1	57.09	1	0.0	1	2.52	1	77.0	1	140.11	1	1013.1	1	40.624723	17.975036
1794	2024-03-15 17:00:00	7	brindisi_sisri	16.99	1	57.56	1	0.0	1	2.71	1	84.66	1	136.28	1	1013.01	1	40.624723	17.975036
1795	2024-03-15 18:00:00	7	brindisi_sisri	16.08	1	65.39	1	0.0	1	1.87	1	97.35	1	47.03	1	1013.1	1	40.624723	17.975036
1796	2024-03-15 19:00:00	7	brindisi_sisri	13.76	1	80.9	1	0.0	1	1.05	1	142.68	1	0.0	5	1013.35	1	40.624723	17.975036
1797	2024-03-15 20:00:00	7	brindisi_sisri	12.21	1	86.38	1	0.0	1	1.73	1	192.64	1	0.0	5	1013.82	1	40.624723	17.975036
1798	2024-03-15 21:00:00	7	brindisi_sisri	11.37	1	84.81	1	0.0	1	2.01	1	203.37	1	0.0	5	1014.07	1	40.624723	17.975036
1799	2024-03-15 22:00:00	7	brindisi_sisri	10.07	1	89.38	1	0.0	1	1.19	1	183.05	1	0.0	5	1014.11	1	40.624723	17.975036
1800	2024-03-15 23:00:00	7	brindisi_sisri	9.36	1	93.65	1	0.0	1	0.8	1	84.86	1	0.0	5	1014.15	1	40.624723	17.975036
1801	2024-03-16 00:00:00	7	brindisi_sisri	8.72	1	96.41	1	0.0	1	1.55	1	137.29	1	0.0	5	1014.21	1	40.624723	17.975036
1802	2024-03-16 01:00:00	7	brindisi_sisri	8.5	1	98.24	1	0.0	1	1.45	1	164.57	1	0.0	5	1014.43	1	40.624723	17.975036
1803	2024-03-16 02:00:00	7	brindisi_sisri	8.56	1	98.96	1	0.0	1	1.52	1	165.39	1	0.0	5	1014.46	1	40.624723	17.975036
1804	2024-03-16 03:00:00	7	brindisi_sisri	8.18	1	99.02	1	0.0	1	1.38	1	191.85	1	0.0	5	1014.13	1	40.624723	17.975036
1805	2024-03-16 04:00:00	7	brindisi_sisri	7.97	1	99.02	1	0.0	1	1.44	1	209.38	1	0.0	5	1014.1	1	40.624723	17.975036
1806	2024-03-16 05:00:00	7	brindisi_sisri	7.71	1	99.02	1	0.0	1	0.95	1	226.53	1	0.0	5	1014.14	1	40.624723	17.975036
1807	2024-03-16 06:00:00	7	brindisi_sisri	7.61	1	99.04	1	0.0	1	1.43	1	277.32	1	0.0	5	1014.22	1	40.624723	17.975036
1808	2024-03-16 07:00:00	7	brindisi_sisri	8.71	1	98.82	1	0.0	1	1.49	1	201.34	1	62.33	1	1014.37	1	40.624723	17.975036
1809	2024-03-16 08:00:00	7	brindisi_sisri	11.52	1	93.31	1	0.0	1	1.25	1	193.38	1	192.85	1	1014.73	1	40.624723	17.975036
1810	2024-03-16 09:00:00	7	brindisi_sisri	14.65	1	78.79	1	0.0	1	2.44	1	262.72	1	366.1	1	1014.96	1	40.624723	17.975036
1811	2024-03-16 10:00:00	7	brindisi_sisri	16.57	1	71.66	1	0.0	1	3.49	1	273.34	1	570.83	1	1014.99	1	40.624723	17.975036
1812	2024-03-16 11:00:00	7	brindisi_sisri	16.44	1	72.08	1	0.0	1	3.77	1	288.48	1	573.1	1	1015.14	1	40.624723	17.975036
1813	2024-03-16 12:00:00	7	brindisi_sisri	16.57	1	70.02	1	0.0	1	4.22	1	307.69	1	626.98	1	1015.15	1	40.624723	17.975036
1814	2024-03-16 13:00:00	7	brindisi_sisri	16.09	1	72.66	1	0.0	1	4.45	1	316.19	1	443.62	1	1014.83	1	40.624723	17.975036
1815	2024-03-16 14:00:00	7	brindisi_sisri	16.03	1	74.82	1	0.0	1	4.24	1	315.74	1	415.13	1	1014.22	1	40.624723	17.975036
1816	2024-03-16 15:00:00	7	brindisi_sisri	15.43	1	79.85	1	0.0	1	3.77	1	334.21	1	250.83	1	1013.96	1	40.624723	17.975036
1817	2024-03-16 16:00:00	7	brindisi_sisri	15.1	1	82.79	1	0.0	1	3.51	1	333.6	1	175.49	1	1013.67	1	40.624723	17.975036
1818	2024-03-16 17:00:00	7	brindisi_sisri	14.6	1	86.09	1	0.0	1	2.74	1	333.81	1	84.98	1	1013.51	1	40.624723	17.975036
1819	2024-03-16 18:00:00	7	brindisi_sisri	14.25	1	88.1	1	0.0	1	1.83	1	319.91	1	17.12	1	1013.85	1	40.624723	17.975036
1820	2024-03-16 19:00:00	7	brindisi_sisri	13.92	1	88.92	1	0.0	1	1.58	1	302.4	1	0.0	5	1014.07	1	40.624723	17.975036
1821	2024-03-16 20:00:00	7	brindisi_sisri	13.81	1	90.2	1	0.0	1	1.41	1	293.73	1	0.0	5	1014.42	1	40.624723	17.975036
1822	2024-03-16 21:00:00	7	brindisi_sisri	13.72	1	90.79	1	0.0	1	2.05	1	271.74	1	0.0	5	1014.81	1	40.624723	17.975036
1823	2024-03-16 22:00:00	7	brindisi_sisri	13.5	1	91.38	1	0.0	1	2.16	1	248.04	1	0.0	5	1015.17	1	40.624723	17.975036
1824	2024-03-16 23:00:00	7	brindisi_sisri	13.0	1	91.2	1	0.0	1	1.63	1	238.1	1	0.0	5	1015.33	1	40.624723	17.975036
1825	2024-03-17 00:00:00	7	brindisi_sisri	12.82	1	89.99	1	0.0	1	2.2	1	266.43	1	0.0	5	1015.14	1	40.624723	17.975036
1826	2024-03-17 01:00:00	7	brindisi_sisri	12.92	1	87.45	1	0.0	1	2.58	1	272.04	1	0.0	5	1015.06	1	40.624723	17.975036
1827	2024-03-17 02:00:00	7	brindisi_sisri	12.76	1	84.09	1	0.0	1	2.05	1	270.86	1	0.0	5	1015.12	1	40.624723	17.975036
1828	2024-03-17 03:00:00	7	brindisi_sisri	12.86	1	88.15	1	0.0	1	2.56	1	285.09	1	0.0	5	1014.84	1	40.624723	17.975036
1829	2024-03-17 04:00:00	7	brindisi_sisri	13.36	1	91.85	1	0.0	1	3.5	1	291.63	1	0.0	5	1014.57	1	40.624723	17.975036
1830	2024-03-17 05:00:00	7	brindisi_sisri	13.48	1	92.1	1	0.0	1	4.19	1	311.24	1	0.0	5	1014.56	1	40.624723	17.975036
1831	2024-03-17 06:00:00	7	brindisi_sisri	13.89	1	89.14	1	0.0	1	4.37	1	312.96	1	0.0	5	1015.0	1	40.624723	17.975036
1832	2024-03-17 07:00:00	7	brindisi_sisri	14.13	1	87.51	1	0.0	1	4.58	1	316.79	1	16.77	1	1015.47	1	40.624723	17.975036
1833	2024-03-17 08:00:00	7	brindisi_sisri	14.19	1	87.22	1	0.0	1	4.56	1	313.41	1	65.03	1	1015.76	1	40.624723	17.975036
1834	2024-03-17 09:00:00	7	brindisi_sisri	14.83	1	83.35	1	0.0	1	4.85	1	317.78	1	228.32	1	1016.34	1	40.624723	17.975036
1835	2024-03-17 10:00:00	7	brindisi_sisri	15.77	1	78.83	1	0.0	1	5.58	1	308.81	1	478.78	1	1016.46	1	40.624723	17.975036
1836	2024-03-17 11:00:00	7	brindisi_sisri	15.86	1	80.64	1	0.0	1	5.99	1	295.05	1	525.06	1	1016.63	1	40.624723	17.975036
1837	2024-03-17 12:00:00	7	brindisi_sisri	16.22	1	78.42	1	0.0	1	6.11	1	293.39	1	623.05	1	1016.76	1	40.624723	17.975036
1838	2024-03-17 13:00:00	7	brindisi_sisri	16.5	1	76.99	1	0.0	1	5.97	1	295.7	1	542.71	1	1016.65	1	40.624723	17.975036
1839	2024-03-17 14:00:00	7	brindisi_sisri	16.18	1	78.2	1	0.0	1	6.47	1	295.16	1	382.02	1	1016.21	1	40.624723	17.975036
1840	2024-03-17 15:00:00	7	brindisi_sisri	15.92	1	77.81	1	0.0	1	6.53	1	298.25	1	186.75	1	1015.64	1	40.624723	17.975036
1841	2024-03-17 16:00:00	7	brindisi_sisri	15.73	1	78.45	1	0.0	1	5.82	1	292.77	1	149.77	1	1015.27	1	40.624723	17.975036
1842	2024-03-17 17:00:00	7	brindisi_sisri	15.48	1	79.99	1	0.0	1	5.77	1	297.05	1	121.81	1	1015.01	1	40.624723	17.975036
1843	2024-03-17 18:00:00	7	brindisi_sisri	14.61	1	83.42	1	0.0	1	5.24	1	296.83	1	54.14	1	1015.28	1	40.624723	17.975036
1844	2024-03-17 19:00:00	7	brindisi_sisri	13.71	1	88.67	1	0.0	1	4.3	1	297.45	1	0.0	5	1015.41	1	40.624723	17.975036
1845	2024-03-17 20:00:00	7	brindisi_sisri	13.42	1	90.85	1	0.0	1	3.78	1	302.1	1	0.0	5	1015.77	1	40.624723	17.975036
1846	2024-03-17 21:00:00	7	brindisi_sisri	13.19	1	93.08	1	0.0	1	3.02	1	302.23	1	0.0	5	1015.89	1	40.624723	17.975036
1847	2024-03-17 22:00:00	7	brindisi_sisri	13.22	1	94.53	1	0.0	1	3.0	1	303.88	1	0.0	5	1015.87	1	40.624723	17.975036
1848	2024-03-17 23:00:00	7	brindisi_sisri	12.57	1	95.87	1	0.0	1	1.54	1	283.28	1	0.0	5	1015.67	1	40.624723	17.975036
1849	2024-03-18 00:00:00	7	brindisi_sisri	12.07	1	97.9	1	0.0	1	1.65	1	264.32	1	0.0	5	1015.57	1	40.624723	17.975036
1850	2024-03-18 01:00:00	7	brindisi_sisri	11.74	1	98.84	1	0.0	1	1.59	1	272.55	1	0.0	5	1015.41	1	40.624723	17.975036
1851	2024-03-18 02:00:00	7	brindisi_sisri	9.45	1	98.26	1	0.0	1	1.09	1	205.54	1	0.0	5	1014.84	1	40.624723	17.975036
1852	2024-03-18 03:00:00	7	brindisi_sisri	8.49	1	99.02	1	0.0	1	1.95	1	211.51	1	0.0	5	1014.49	1	40.624723	17.975036
1853	2024-03-18 04:00:00	7	brindisi_sisri	8.06	1	99.02	1	0.0	1	1.75	1	204.79	1	0.0	5	1013.88	1	40.624723	17.975036
1854	2024-03-18 05:00:00	7	brindisi_sisri	8.54	1	99.02	1	0.0	1	1.89	1	221.66	1	0.0	5	1013.68	1	40.624723	17.975036
1855	2024-03-18 06:00:00	7	brindisi_sisri	7.75	1	99.02	1	0.0	1	1.84	1	217.53	1	0.0	5	1013.5	1	40.624723	17.975036
1856	2024-03-18 07:00:00	7	brindisi_sisri	8.47	1	98.92	1	0.0	1	1.63	1	221.66	1	54.2	1	1013.69	1	40.624723	17.975036
1857	2024-03-18 08:00:00	7	brindisi_sisri	11.91	1	93.35	1	0.0	1	1.38	1	206.65	1	232.49	1	1013.7	1	40.624723	17.975036
1858	2024-03-18 09:00:00	7	brindisi_sisri	16.77	1	69.28	1	0.0	1	0.76	1	183.81	1	465.82	1	1013.52	1	40.624723	17.975036
1859	2024-03-18 10:00:00	7	brindisi_sisri	19.85	1	50.45	1	0.0	1	1.42	1	164.45	1	662.69	1	1013.17	1	40.624723	17.975036
1860	2024-03-18 11:00:00	7	brindisi_sisri	19.45	1	50.05	1	0.0	1	2.49	1	155.92	1	787.89	1	1012.6	1	40.624723	17.975036
1861	2024-03-18 12:00:00	7	brindisi_sisri	19.82	1	50.71	1	0.0	1	3.08	1	80.94	1	852.38	1	1012.03	1	40.624723	17.975036
1862	2024-03-18 13:00:00	7	brindisi_sisri	18.43	1	61.73	1	0.0	1	3.59	1	63.47	1	800.68	1	1011.22	1	40.624723	17.975036
1863	2024-03-18 14:00:00	7	brindisi_sisri	18.89	1	61.51	1	0.0	1	4.08	1	79.07	1	535.16	1	1010.21	1	40.624723	17.975036
1864	2024-03-18 15:00:00	7	brindisi_sisri	18.83	1	61.71	1	0.0	1	3.92	1	83.01	1	229.62	1	1009.69	1	40.624723	17.975036
1865	2024-03-18 16:00:00	7	brindisi_sisri	19.19	1	56.86	1	0.0	1	4.91	1	161.78	1	187.32	1	1009.42	1	40.624723	17.975036
1866	2024-03-18 17:00:00	7	brindisi_sisri	17.45	1	66.59	1	0.0	1	4.51	1	169.65	1	100.28	1	1009.16	1	40.624723	17.975036
1867	2024-03-18 18:00:00	7	brindisi_sisri	16.15	1	71.14	1	0.0	1	2.89	1	184.52	1	17.78	1	1009.22	1	40.624723	17.975036
1868	2024-03-18 19:00:00	7	brindisi_sisri	15.26	1	75.01	1	0.0	1	2.64	1	173.71	1	0.0	5	1008.82	1	40.624723	17.975036
1869	2024-03-18 20:00:00	7	brindisi_sisri	14.8	1	77.55	1	0.0	1	2.38	1	181.79	1	0.0	5	1008.79	1	40.624723	17.975036
1870	2024-03-18 21:00:00	7	brindisi_sisri	14.84	1	76.07	1	0.0	1	2.68	1	202.58	1	0.0	5	1008.86	1	40.624723	17.975036
1871	2024-03-18 22:00:00	7	brindisi_sisri	14.51	1	77.4	1	0.2	1	3.01	1	212.92	1	0.0	5	1009.18	1	40.624723	17.975036
1872	2024-03-18 23:00:00	7	brindisi_sisri	13.76	1	84.24	1	0.4	1	1.81	1	232.02	1	0.0	5	1008.9	1	40.624723	17.975036
1873	2024-03-19 00:00:00	7	brindisi_sisri	13.0	1	89.97	1	1.4	1	1.01	1	260.86	1	0.0	5	1008.5	1	40.624723	17.975036
1874	2024-03-19 01:00:00	7	brindisi_sisri	12.74	1	93.72	1	2.2	1	1.2	1	259.53	1	0.0	5	1008.38	1	40.624723	17.975036
1875	2024-03-19 02:00:00	7	brindisi_sisri	12.71	1	96.79	1	1.6	1	1.17	1	287.25	1	0.0	5	1007.86	1	40.624723	17.975036
1876	2024-03-19 03:00:00	7	brindisi_sisri	12.61	1	98.7	1	0.8	1	0.59	1	262.03	1	0.0	5	1007.28	1	40.624723	17.975036
1877	2024-03-19 04:00:00	7	brindisi_sisri	12.51	1	99.02	1	0.6	1	1.18	1	196.08	1	0.0	5	1006.83	1	40.624723	17.975036
1878	2024-03-19 05:00:00	7	brindisi_sisri	12.24	1	99.03	1	0.2	1	1.03	1	169.6	1	0.0	5	1006.55	1	40.624723	17.975036
1879	2024-03-19 06:00:00	7	brindisi_sisri	12.08	1	99.05	1	0.0	1	0.6	1	192.89	1	0.0	5	1006.56	1	40.624723	17.975036
1880	2024-03-19 07:00:00	7	brindisi_sisri	12.14	1	99.07	1	1.0	1	0.99	1	206.08	1	6.21	1	1006.81	1	40.624723	17.975036
1881	2024-03-19 08:00:00	7	brindisi_sisri	12.5	1	99.09	1	0.4	1	1.83	1	293.32	1	73.23	1	1007.17	1	40.624723	17.975036
1882	2024-03-19 09:00:00	7	brindisi_sisri	13.53	1	98.9	1	0.0	1	3.57	1	283.26	1	241.02	1	1007.48	1	40.624723	17.975036
1883	2024-03-19 10:00:00	7	brindisi_sisri	14.63	1	93.1	1	0.0	1	5.51	1	304.38	1	442.96	1	1007.79	1	40.624723	17.975036
1884	2024-03-19 11:00:00	7	brindisi_sisri	15.53	1	82.09	1	0.0	1	6.88	1	312.89	1	715.46	1	1008.13	1	40.624723	17.975036
1885	2024-03-19 12:00:00	7	brindisi_sisri	15.46	1	78.49	1	0.0	1	6.48	1	320.55	1	661.89	1	1008.46	1	40.624723	17.975036
1886	2024-03-19 13:00:00	7	brindisi_sisri	15.43	1	77.87	1	0.0	1	7.12	1	317.98	1	612.66	1	1008.73	1	40.624723	17.975036
1887	2024-03-19 14:00:00	7	brindisi_sisri	15.3	1	77.16	1	0.0	1	6.67	1	320.16	1	405.74	1	1008.73	1	40.624723	17.975036
1888	2024-03-19 15:00:00	7	brindisi_sisri	15.25	1	74.94	1	0.0	1	6.71	1	319.55	1	193.13	1	1008.96	1	40.624723	17.975036
1889	2024-03-19 16:00:00	7	brindisi_sisri	15.12	1	74.14	1	0.0	1	6.14	1	313.19	1	156.14	1	1009.09	1	40.624723	17.975036
1890	2024-03-19 17:00:00	7	brindisi_sisri	15.11	1	72.84	1	0.0	1	5.74	1	310.85	1	126.71	1	1009.25	1	40.624723	17.975036
1891	2024-03-19 18:00:00	7	brindisi_sisri	14.33	1	77.16	1	0.0	1	4.98	1	299.77	1	49.07	1	1009.63	1	40.624723	17.975036
1892	2024-03-19 19:00:00	7	brindisi_sisri	13.68	1	80.55	1	0.0	1	4.96	1	296.42	1	0.0	5	1010.07	1	40.624723	17.975036
1893	2024-03-19 20:00:00	7	brindisi_sisri	13.78	1	80.64	1	0.0	1	5.31	1	292.13	1	0.0	5	1010.74	1	40.624723	17.975036
1894	2024-03-19 21:00:00	7	brindisi_sisri	13.72	1	81.56	1	0.0	1	5.61	1	292.03	1	0.0	5	1011.06	1	40.624723	17.975036
1895	2024-03-19 22:00:00	7	brindisi_sisri	13.9	1	79.24	1	0.0	1	6.17	1	295.75	1	0.0	5	1011.22	1	40.624723	17.975036
1896	2024-03-19 23:00:00	7	brindisi_sisri	14.0	1	80.07	1	0.0	1	7.03	1	298.42	1	0.0	5	1011.21	1	40.624723	17.975036
1897	2024-03-20 00:00:00	7	brindisi_sisri	14.03	1	80.53	1	0.0	1	6.75	1	308.88	1	0.0	5	1011.36	1	40.624723	17.975036
1898	2024-03-20 01:00:00	7	brindisi_sisri	13.99	1	67.14	1	0.0	1	5.15	1	333.89	1	0.0	5	1011.69	1	40.624723	17.975036
1899	2024-03-20 02:00:00	7	brindisi_sisri	13.36	1	63.32	1	0.0	1	6.19	1	355.42	1	0.0	5	1011.85	1	40.624723	17.975036
1900	2024-03-20 03:00:00	7	brindisi_sisri	12.46	1	57.58	1	0.0	1	6.12	1	359.04	1	0.0	5	1011.97	1	40.624723	17.975036
1901	2024-03-20 04:00:00	7	brindisi_sisri	11.77	1	54.19	1	0.0	1	6.25	1	358.09	1	0.0	5	1012.26	1	40.624723	17.975036
1902	2024-03-20 05:00:00	7	brindisi_sisri	11.33	1	55.53	1	0.0	1	6.4	1	357.87	1	0.0	5	1012.71	1	40.624723	17.975036
1903	2024-03-20 06:00:00	7	brindisi_sisri	10.88	1	53.09	1	0.0	1	5.3	1	355.37	1	0.0	5	1013.49	1	40.624723	17.975036
1904	2024-03-20 07:00:00	7	brindisi_sisri	11.28	1	53.23	1	0.0	1	4.92	1	352.55	1	90.86	1	1014.25	1	40.624723	17.975036
1905	2024-03-20 08:00:00	7	brindisi_sisri	12.47	1	51.65	1	0.0	1	5.23	1	353.09	1	256.57	1	1014.9	1	40.624723	17.975036
1906	2024-03-20 09:00:00	7	brindisi_sisri	13.21	1	51.29	1	0.0	1	5.93	1	350.72	1	516.1	1	1015.56	1	40.624723	17.975036
1907	2024-03-20 10:00:00	7	brindisi_sisri	13.9	1	49.02	1	0.0	1	5.94	1	350.9	1	697.07	1	1016.12	1	40.624723	17.975036
1908	2024-03-20 11:00:00	7	brindisi_sisri	13.99	1	48.53	1	0.0	1	5.65	1	335.66	1	817.37	1	1016.45	1	40.624723	17.975036
1909	2024-03-20 12:00:00	7	brindisi_sisri	14.19	1	47.04	1	0.0	1	6.25	1	324.97	1	886.27	1	1016.7	1	40.624723	17.975036
1910	2024-03-20 13:00:00	7	brindisi_sisri	14.6	1	44.47	1	0.0	1	6.33	1	318.22	1	799.44	1	1016.55	1	40.624723	17.975036
1911	2024-03-20 14:00:00	7	brindisi_sisri	14.27	1	46.97	1	0.0	1	6.14	1	316.6	1	439.0	1	1016.38	1	40.624723	17.975036
1912	2024-03-20 15:00:00	7	brindisi_sisri	14.15	1	50.41	1	0.0	1	5.88	1	314.19	1	148.93	1	1016.48	1	40.624723	17.975036
1913	2024-03-20 16:00:00	7	brindisi_sisri	13.99	1	52.0	1	0.0	1	6.08	1	314.77	1	147.29	1	1016.46	1	40.624723	17.975036
1914	2024-03-20 17:00:00	7	brindisi_sisri	14.28	1	49.41	1	0.0	1	5.79	1	297.88	1	134.77	1	1016.45	1	40.624723	17.975036
1915	2024-03-20 18:00:00	7	brindisi_sisri	13.48	1	52.75	1	0.0	1	5.53	1	300.79	1	69.35	1	1016.58	1	40.624723	17.975036
1916	2024-03-20 19:00:00	7	brindisi_sisri	12.42	1	56.41	1	0.0	1	4.33	1	302.91	1	0.0	5	1016.92	1	40.624723	17.975036
1917	2024-03-20 20:00:00	7	brindisi_sisri	12.34	1	60.89	1	0.0	1	4.23	1	311.7	1	0.0	5	1017.42	1	40.624723	17.975036
1918	2024-03-20 21:00:00	7	brindisi_sisri	12.42	1	62.73	1	0.0	1	4.54	1	312.85	1	0.0	5	1017.87	1	40.624723	17.975036
1919	2024-03-20 22:00:00	7	brindisi_sisri	12.36	1	63.15	1	0.0	1	4.1	1	313.76	1	0.0	5	1018.09	1	40.624723	17.975036
1920	2024-03-20 23:00:00	7	brindisi_sisri	12.22	1	64.75	1	0.0	1	3.51	1	313.6	1	0.0	5	1018.19	1	40.624723	17.975036
1921	2024-03-21 00:00:00	7	brindisi_sisri	11.78	1	67.67	1	0.0	1	2.46	1	307.16	1	0.0	5	1018.32	1	40.624723	17.975036
1922	2024-03-21 01:00:00	7	brindisi_sisri	9.14	1	77.04	1	0.0	1	1.51	1	247.63	1	0.0	5	1018.52	1	40.624723	17.975036
1923	2024-03-21 02:00:00	7	brindisi_sisri	8.94	1	81.48	1	0.0	1	1.79	1	271.8	1	0.0	5	1018.41	1	40.624723	17.975036
1924	2024-03-21 03:00:00	7	brindisi_sisri	8.81	1	82.68	1	0.0	1	1.52	1	265.64	1	0.0	5	1018.07	1	40.624723	17.975036
1925	2024-03-21 04:00:00	7	brindisi_sisri	8.8	1	84.39	1	0.0	1	1.69	1	255.1	1	0.0	5	1018.13	1	40.624723	17.975036
1926	2024-03-21 05:00:00	7	brindisi_sisri	7.53	1	87.25	1	0.0	1	2.32	1	221.65	1	0.0	5	1018.41	1	40.624723	17.975036
1927	2024-03-21 06:00:00	7	brindisi_sisri	6.33	1	89.03	1	0.0	1	1.49	1	231.03	1	0.0	5	1018.63	1	40.624723	17.975036
1928	2024-03-21 07:00:00	7	brindisi_sisri	7.14	1	88.73	1	0.0	1	1.33	1	221.95	1	101.18	1	1018.65	1	40.624723	17.975036
1929	2024-03-21 08:00:00	7	brindisi_sisri	11.9	1	72.56	1	0.0	1	1.52	1	255.78	1	257.64	1	1018.81	1	40.624723	17.975036
1930	2024-03-21 09:00:00	7	brindisi_sisri	14.3	1	60.82	1	0.0	1	1.98	1	253.27	1	508.06	1	1019.08	1	40.624723	17.975036
1931	2024-03-21 10:00:00	7	brindisi_sisri	16.16	1	56.65	1	0.0	1	1.86	1	281.36	1	694.47	1	1019.3	1	40.624723	17.975036
1932	2024-03-21 11:00:00	7	brindisi_sisri	16.31	1	52.64	1	0.0	1	2.82	1	335.75	1	816.79	1	1019.1	1	40.624723	17.975036
1933	2024-03-21 12:00:00	7	brindisi_sisri	15.66	1	57.92	1	0.0	1	3.87	1	340.18	1	884.4	1	1018.9	1	40.624723	17.975036
1934	2024-03-21 13:00:00	7	brindisi_sisri	16.11	1	45.26	1	0.0	1	4.11	1	338.38	1	829.27	1	1018.44	1	40.624723	17.975036
1935	2024-03-21 14:00:00	7	brindisi_sisri	16.12	1	41.19	1	0.0	1	2.7	1	348.17	1	512.54	1	1017.75	1	40.624723	17.975036
1936	2024-03-21 15:00:00	7	brindisi_sisri	15.93	1	41.61	1	0.0	1	2.38	1	322.87	1	169.68	1	1017.02	1	40.624723	17.975036
1937	2024-03-21 16:00:00	7	brindisi_sisri	15.79	1	43.71	1	0.0	1	1.58	1	3.32	1	126.47	1	1016.24	1	40.624723	17.975036
1938	2024-03-21 17:00:00	7	brindisi_sisri	16.13	1	47.85	1	0.0	1	1.65	1	16.23	1	120.54	1	1015.77	1	40.624723	17.975036
1939	2024-03-21 18:00:00	7	brindisi_sisri	15.06	1	56.45	1	0.0	1	1.22	1	87.56	1	65.25	1	1015.38	1	40.624723	17.975036
1940	2024-03-21 19:00:00	7	brindisi_sisri	12.22	1	67.28	1	0.0	1	1.51	1	137.24	1	0.0	5	1015.31	1	40.624723	17.975036
1941	2024-03-21 20:00:00	7	brindisi_sisri	10.4	1	77.72	1	0.0	1	1.76	1	147.81	1	0.0	5	1015.34	1	40.624723	17.975036
1942	2024-03-21 21:00:00	7	brindisi_sisri	9.06	1	84.5	1	0.0	1	1.32	1	167.25	1	0.0	5	1015.32	1	40.624723	17.975036
1943	2024-03-21 22:00:00	7	brindisi_sisri	8.29	1	88.8	1	0.0	1	1.68	1	174.92	1	0.0	5	1015.19	1	40.624723	17.975036
1944	2024-03-21 23:00:00	7	brindisi_sisri	7.89	1	91.75	1	0.0	1	1.7	1	177.32	1	0.0	5	1014.81	1	40.624723	17.975036
1945	2024-03-22 00:00:00	7	brindisi_sisri	7.34	1	93.96	1	0.0	1	1.67	1	183.81	1	0.0	5	1014.35	1	40.624723	17.975036
1946	2024-03-22 01:00:00	7	brindisi_sisri	7.02	1	96.16	1	0.0	1	1.21	1	169.5	1	0.0	5	1013.91	1	40.624723	17.975036
1947	2024-03-22 02:00:00	7	brindisi_sisri	7.22	1	96.94	1	0.0	1	2.19	1	206.54	1	0.0	5	1013.4	1	40.624723	17.975036
1948	2024-03-22 03:00:00	7	brindisi_sisri	7.49	1	94.52	1	0.0	1	1.31	1	220.07	1	0.0	5	1012.93	1	40.624723	17.975036
1949	2024-03-22 04:00:00	7	brindisi_sisri	8.53	1	90.44	1	0.0	1	1.41	1	236.72	1	0.0	5	1012.62	1	40.624723	17.975036
1950	2024-03-22 05:00:00	7	brindisi_sisri	8.63	1	84.81	1	0.0	1	1.21	1	251.1	1	0.0	5	1012.55	1	40.624723	17.975036
1951	2024-03-22 06:00:00	7	brindisi_sisri	8.92	1	87.98	1	0.0	1	1.1	1	275.22	1	0.0	5	1012.74	1	40.624723	17.975036
1952	2024-03-22 07:00:00	7	brindisi_sisri	9.59	1	91.46	1	0.0	1	0.67	1	315.64	1	43.76	1	1013.02	1	40.624723	17.975036
1953	2024-03-22 08:00:00	7	brindisi_sisri	12.79	1	88.11	1	0.0	1	1.32	1	333.42	1	117.45	1	1013.03	1	40.624723	17.975036
1954	2024-03-22 09:00:00	7	brindisi_sisri	14.7	1	74.61	1	0.0	1	3.45	1	358.07	1	396.91	1	1013.38	1	40.624723	17.975036
1955	2024-03-22 10:00:00	7	brindisi_sisri	14.61	1	75.74	1	0.0	1	3.33	1	354.63	1	273.54	1	1013.79	1	40.624723	17.975036
1956	2024-03-22 11:00:00	7	brindisi_sisri	14.82	1	76.21	1	0.0	1	3.71	1	330.63	1	386.61	1	1013.74	1	40.624723	17.975036
1957	2024-03-22 12:00:00	7	brindisi_sisri	15.91	1	70.68	1	0.0	1	5.1	1	333.43	1	624.09	1	1013.43	1	40.624723	17.975036
1958	2024-03-22 13:00:00	7	brindisi_sisri	16.26	1	69.2	1	0.0	1	5.75	1	315.97	1	734.26	1	1013.11	1	40.624723	17.975036
1959	2024-03-22 14:00:00	7	brindisi_sisri	16.11	1	70.88	1	0.0	1	6.09	1	315.46	1	488.54	1	1012.61	1	40.624723	17.975036
1960	2024-03-22 15:00:00	7	brindisi_sisri	15.92	1	73.22	1	0.0	1	5.99	1	313.14	1	182.62	1	1012.24	1	40.624723	17.975036
1961	2024-03-22 16:00:00	7	brindisi_sisri	15.65	1	74.23	1	0.0	1	6.11	1	311.64	1	160.91	1	1011.92	1	40.624723	17.975036
1962	2024-03-22 17:00:00	7	brindisi_sisri	15.78	1	72.17	1	0.0	1	6.03	1	301.61	1	160.76	1	1011.65	1	40.624723	17.975036
1963	2024-03-22 18:00:00	7	brindisi_sisri	14.98	1	80.03	1	0.0	1	4.92	1	295.47	1	62.06	1	1011.63	1	40.624723	17.975036
1964	2024-03-22 19:00:00	7	brindisi_sisri	14.17	1	87.87	1	0.0	1	4.06	1	293.04	1	0.0	5	1011.75	1	40.624723	17.975036
1965	2024-03-22 20:00:00	7	brindisi_sisri	13.83	1	89.84	1	0.0	1	3.77	1	295.74	1	0.0	5	1011.99	1	40.624723	17.975036
1966	2024-03-22 21:00:00	7	brindisi_sisri	13.8	1	91.84	1	0.0	1	3.86	1	298.72	1	0.0	5	1012.25	1	40.624723	17.975036
1967	2024-03-22 22:00:00	7	brindisi_sisri	13.7	1	92.56	1	0.0	1	3.73	1	303.9	1	0.0	5	1012.28	1	40.624723	17.975036
1968	2024-03-22 23:00:00	7	brindisi_sisri	13.47	1	94.38	1	0.0	1	3.26	1	299.68	1	0.0	5	1012.38	1	40.624723	17.975036
1969	2024-03-23 00:00:00	7	brindisi_sisri	13.13	1	96.72	1	0.0	1	2.89	1	295.69	1	0.0	5	1012.29	1	40.624723	17.975036
1970	2024-03-23 01:00:00	7	brindisi_sisri	12.53	1	98.67	1	0.0	1	2.4	1	281.09	1	0.0	5	1012.25	1	40.624723	17.975036
1971	2024-03-23 02:00:00	7	brindisi_sisri	12.5	1	99.02	1	0.0	1	2.68	1	279.94	1	0.0	5	1012.09	1	40.624723	17.975036
1972	2024-03-23 03:00:00	7	brindisi_sisri	12.17	1	99.03	1	0.0	1	2.72	1	284.23	1	0.0	5	1011.92	1	40.624723	17.975036
1973	2024-03-23 04:00:00	7	brindisi_sisri	12.13	1	99.02	1	0.0	1	2.66	1	293.54	1	0.0	5	1011.9	1	40.624723	17.975036
1974	2024-03-23 05:00:00	7	brindisi_sisri	11.48	1	98.53	1	0.0	1	1.96	1	287.78	1	0.0	5	1011.89	1	40.624723	17.975036
1975	2024-03-23 06:00:00	7	brindisi_sisri	10.85	1	97.48	1	0.0	1	1.59	1	274.65	1	0.0	5	1011.91	1	40.624723	17.975036
1976	2024-03-23 07:00:00	7	brindisi_sisri	11.45	1	93.1	1	0.0	1	1.04	1	197.71	1	89.25	1	1012.15	1	40.624723	17.975036
1977	2024-03-23 08:00:00	7	brindisi_sisri	14.43	1	84.26	1	0.0	1	0.59	1	215.98	1	245.29	1	1012.32	1	40.624723	17.975036
1978	2024-03-23 09:00:00	7	brindisi_sisri	16.37	1	73.49	1	0.0	1	1.55	1	304.45	1	495.91	1	1012.47	1	40.624723	17.975036
1979	2024-03-23 10:00:00	7	brindisi_sisri	18.53	1	63.17	1	0.0	1	2.14	1	152.32	1	669.61	1	1012.62	1	40.624723	17.975036
1980	2024-03-23 11:00:00	7	brindisi_sisri	18.91	1	58.98	1	0.0	1	2.76	1	171.64	1	764.26	1	1012.42	1	40.624723	17.975036
1981	2024-03-23 12:00:00	7	brindisi_sisri	20.07	1	52.18	1	0.0	1	2.97	1	165.54	1	848.66	1	1012.05	1	40.624723	17.975036
1982	2024-03-23 13:00:00	7	brindisi_sisri	20.43	1	48.99	1	0.0	1	3.69	1	168.72	1	670.62	1	1011.44	1	40.624723	17.975036
1983	2024-03-23 14:00:00	7	brindisi_sisri	20.32	1	47.28	1	0.0	1	3.98	1	158.1	1	484.95	1	1010.71	1	40.624723	17.975036
1984	2024-03-23 15:00:00	7	brindisi_sisri	20.27	1	44.26	1	0.0	1	3.76	1	169.23	1	196.96	1	1010.01	1	40.624723	17.975036
1985	2024-03-23 16:00:00	7	brindisi_sisri	19.27	1	47.43	1	0.0	1	4.86	1	160.55	1	146.1	1	1009.73	1	40.624723	17.975036
1986	2024-03-23 17:00:00	7	brindisi_sisri	18.06	1	50.95	1	0.0	1	5.13	1	161.79	1	136.12	1	1009.52	1	40.624723	17.975036
1987	2024-03-23 18:00:00	7	brindisi_sisri	16.39	1	60.78	1	0.0	1	3.3	1	165.16	1	69.62	1	1009.57	1	40.624723	17.975036
1988	2024-03-23 19:00:00	7	brindisi_sisri	13.64	1	77.27	1	0.0	1	3.71	1	164.41	1	0.0	5	1009.53	1	40.624723	17.975036
1989	2024-03-23 20:00:00	7	brindisi_sisri	12.37	1	89.62	1	0.0	1	3.21	1	162.26	1	0.0	5	1009.49	1	40.624723	17.975036
1990	2024-03-23 21:00:00	7	brindisi_sisri	12.09	1	94.89	1	0.0	1	3.5	1	165.9	1	0.0	5	1009.35	1	40.624723	17.975036
1991	2024-03-23 22:00:00	7	brindisi_sisri	12.35	1	95.43	1	0.0	1	3.68	1	165.73	1	0.0	5	1008.87	1	40.624723	17.975036
1992	2024-03-23 23:00:00	7	brindisi_sisri	12.39	1	96.79	1	0.0	1	3.57	1	166.73	1	0.0	5	1008.58	1	40.624723	17.975036
1993	2024-03-24 00:00:00	7	brindisi_sisri	12.43	1	98.16	1	0.0	1	3.6	1	162.53	1	0.0	5	1008.05	1	40.624723	17.975036
1994	2024-03-24 01:00:00	7	brindisi_sisri	12.25	1	98.99	1	0.0	1	3.5	1	170.36	1	0.0	5	1007.73	1	40.624723	17.975036
1995	2024-03-24 02:00:00	7	brindisi_sisri	11.74	1	99.02	1	0.0	1	3.2	1	170.85	1	0.0	5	1007.18	1	40.624723	17.975036
1996	2024-03-24 03:00:00	7	brindisi_sisri	11.15	1	99.02	1	0.0	1	2.83	1	160.69	1	0.0	5	1006.93	1	40.624723	17.975036
1997	2024-03-24 04:00:00	7	brindisi_sisri	10.67	1	99.02	1	0.0	1	2.78	1	146.23	1	0.0	5	1006.53	1	40.624723	17.975036
1998	2024-03-24 05:00:00	7	brindisi_sisri	10.58	1	99.03	1	0.0	1	2.84	1	148.48	1	0.0	5	1006.16	1	40.624723	17.975036
1999	2024-03-24 06:00:00	7	brindisi_sisri	10.19	1	99.03	1	0.0	1	2.38	1	149.45	1	5.34	1	1005.89	1	40.624723	17.975036
2000	2024-03-24 07:00:00	7	brindisi_sisri	10.78	1	99.03	1	0.0	1	1.63	1	160.29	1	98.61	1	1005.87	1	40.624723	17.975036
2001	2024-03-24 08:00:00	7	brindisi_sisri	14.54	1	92.72	1	0.0	1	3.74	1	187.04	1	268.43	1	1005.82	1	40.624723	17.975036
2002	2024-03-24 09:00:00	7	brindisi_sisri	17.52	1	64.43	1	0.0	1	5.07	1	187.96	1	480.23	1	1005.9	1	40.624723	17.975036
2003	2024-03-24 10:00:00	7	brindisi_sisri	19.25	1	58.56	1	0.0	1	6.73	1	178.98	1	687.59	1	1005.57	1	40.624723	17.975036
2004	2024-03-24 11:00:00	7	brindisi_sisri	18.94	1	57.57	1	0.0	1	8.87	1	179.08	1	802.0	1	1005.76	1	40.624723	17.975036
2005	2024-03-24 12:00:00	7	brindisi_sisri	19.41	1	54.91	1	0.0	1	7.38	1	175.97	1	629.0	1	1005.41	1	40.624723	17.975036
2006	2024-03-24 13:00:00	7	brindisi_sisri	19.97	1	55.59	1	0.0	1	6.29	1	167.8	1	599.21	1	1004.65	1	40.624723	17.975036
2007	2024-03-24 14:00:00	7	brindisi_sisri	20.13	1	54.57	1	0.0	1	7.71	1	166.97	1	421.2	1	1003.27	1	40.624723	17.975036
2008	2024-03-24 15:00:00	7	brindisi_sisri	19.1	1	54.12	1	0.0	1	8.05	1	168.17	1	208.67	1	1002.52	1	40.624723	17.975036
2009	2024-03-24 16:00:00	7	brindisi_sisri	19.28	1	51.61	1	0.0	1	7.57	1	168.17	1	159.24	1	1001.91	1	40.624723	17.975036
2010	2024-03-24 17:00:00	7	brindisi_sisri	18.95	1	55.14	1	0.0	1	7.17	1	166.9	1	129.45	1	1001.23	1	40.624723	17.975036
2011	2024-03-24 18:00:00	7	brindisi_sisri	17.66	1	61.46	1	0.0	1	6.82	1	176.04	1	57.85	1	1000.68	1	40.624723	17.975036
2012	2024-03-24 19:00:00	7	brindisi_sisri	15.35	1	71.9	1	0.0	1	4.63	1	169.47	1	0.0	5	1000.61	1	40.624723	17.975036
2013	2024-03-24 20:00:00	7	brindisi_sisri	13.83	1	77.91	1	0.0	1	2.64	1	192.27	1	0.0	5	1000.98	1	40.624723	17.975036
2014	2024-03-24 21:00:00	7	brindisi_sisri	12.99	1	79.25	1	0.0	1	2.52	1	194.21	1	0.0	5	1001.39	1	40.624723	17.975036
2015	2024-03-24 22:00:00	7	brindisi_sisri	12.85	1	81.3	1	0.0	1	2.82	1	203.97	1	0.0	5	1001.74	1	40.624723	17.975036
2016	2024-03-24 23:00:00	7	brindisi_sisri	14.07	1	77.4	1	0.0	1	2.85	1	301.11	1	0.0	5	1001.94	1	40.624723	17.975036
2017	2024-03-25 00:00:00	7	brindisi_sisri	13.61	1	83.57	1	0.0	1	2.04	1	326.86	1	0.0	5	1002.0	1	40.624723	17.975036
2018	2024-03-25 01:00:00	7	brindisi_sisri	13.34	1	84.6	1	0.0	1	1.69	1	332.91	1	0.0	5	1001.92	1	40.624723	17.975036
2019	2024-03-25 02:00:00	7	brindisi_sisri	12.8	1	86.82	1	0.0	1	0.98	1	203.73	1	0.0	5	1001.71	1	40.624723	17.975036
2020	2024-03-25 03:00:00	7	brindisi_sisri	12.43	1	84.41	1	0.0	1	2.05	1	300.2	1	0.0	5	1001.46	1	40.624723	17.975036
2021	2024-03-25 04:00:00	7	brindisi_sisri	12.16	1	83.67	1	0.0	1	2.19	1	284.68	1	0.0	5	1001.39	1	40.624723	17.975036
2022	2024-03-25 05:00:00	7	brindisi_sisri	11.13	1	85.29	1	0.0	1	1.2	1	270.46	1	0.0	5	1001.49	1	40.624723	17.975036
2023	2024-03-25 06:00:00	7	brindisi_sisri	10.65	1	84.96	1	0.0	1	1.88	1	270.02	1	5.39	1	1001.78	1	40.624723	17.975036
2024	2024-03-25 07:00:00	7	brindisi_sisri	11.69	1	80.84	1	0.0	1	2.39	1	253.74	1	99.87	1	1002.5	1	40.624723	17.975036
2025	2024-03-25 08:00:00	7	brindisi_sisri	13.38	1	72.59	1	0.0	1	3.59	1	270.46	1	283.4	1	1003.31	1	40.624723	17.975036
2026	2024-03-25 09:00:00	7	brindisi_sisri	14.53	1	65.41	1	0.0	1	4.84	1	277.49	1	521.71	1	1004.16	1	40.624723	17.975036
2027	2024-03-25 10:00:00	7	brindisi_sisri	15.68	1	61.65	1	0.0	1	5.65	1	271.93	1	710.48	1	1004.87	1	40.624723	17.975036
2028	2024-03-25 11:00:00	7	brindisi_sisri	15.83	1	63.18	1	0.0	1	6.02	1	282.26	1	775.57	1	1005.25	1	40.624723	17.975036
2029	2024-03-25 12:00:00	7	brindisi_sisri	16.32	1	59.45	1	0.0	1	6.53	1	286.73	1	902.9	1	1005.47	1	40.624723	17.975036
2030	2024-03-25 13:00:00	7	brindisi_sisri	16.36	1	56.9	1	0.0	1	7.42	1	293.78	1	770.03	1	1005.48	1	40.624723	17.975036
2031	2024-03-25 14:00:00	7	brindisi_sisri	16.11	1	53.99	1	0.0	1	5.91	1	314.21	1	438.05	1	1005.44	1	40.624723	17.975036
2032	2024-03-25 15:00:00	7	brindisi_sisri	15.49	1	53.84	1	0.0	1	4.51	1	316.45	1	261.2	1	1005.46	1	40.624723	17.975036
2033	2024-03-25 16:00:00	7	brindisi_sisri	15.23	1	51.41	1	0.0	1	4.13	1	318.53	1	169.86	1	1005.4	1	40.624723	17.975036
2034	2024-03-25 17:00:00	7	brindisi_sisri	13.99	1	51.33	1	0.0	1	3.29	1	344.37	1	99.62	1	1005.01	1	40.624723	17.975036
2035	2024-03-25 18:00:00	7	brindisi_sisri	13.26	1	49.56	1	0.0	1	1.42	1	337.73	1	28.17	1	1005.61	1	40.624723	17.975036
2036	2024-03-25 19:00:00	7	brindisi_sisri	12.52	1	54.97	1	0.0	1	1.51	1	12.97	1	0.0	5	1005.18	1	40.624723	17.975036
2037	2024-03-25 20:00:00	7	brindisi_sisri	12.65	1	55.26	1	0.0	1	1.58	1	6.15	1	0.0	5	1005.61	1	40.624723	17.975036
2038	2024-03-25 21:00:00	7	brindisi_sisri	12.77	1	57.85	1	0.0	1	1.54	1	40.17	1	0.0	5	1005.71	1	40.624723	17.975036
2039	2024-03-25 22:00:00	7	brindisi_sisri	11.8	1	67.25	1	0.0	1	0.6	1	154.15	1	0.0	5	1005.75	1	40.624723	17.975036
2040	2024-03-25 23:00:00	7	brindisi_sisri	11.49	1	72.46	1	0.0	1	1.44	1	168.79	1	0.0	5	1006.12	1	40.624723	17.975036
2041	2024-03-26 00:00:00	7	brindisi_sisri	10.55	1	81.06	1	0.0	1	1.9	1	168.92	1	0.0	5	1006.07	1	40.624723	17.975036
2042	2024-03-26 01:00:00	7	brindisi_sisri	10.33	1	83.76	1	0.0	1	1.35	1	161.79	1	0.0	5	1005.51	1	40.624723	17.975036
2043	2024-03-26 02:00:00	7	brindisi_sisri	10.64	1	83.15	1	0.0	1	1.85	1	152.03	1	0.0	5	1005.54	1	40.624723	17.975036
2044	2024-03-26 03:00:00	7	brindisi_sisri	10.81	1	82.75	1	0.0	1	1.43	1	106.82	1	0.0	5	1004.74	1	40.624723	17.975036
2045	2024-03-26 04:00:00	7	brindisi_sisri	11.54	1	82.02	1	0.0	1	3.25	1	112.33	1	0.0	5	1003.75	1	40.624723	17.975036
2046	2024-03-26 05:00:00	7	brindisi_sisri	12.05	1	77.2	1	0.0	1	3.18	1	126.87	1	0.0	5	1003.67	1	40.624723	17.975036
2047	2024-03-26 06:00:00	7	brindisi_sisri	11.85	1	78.42	1	0.0	1	3.22	1	117.96	1	0.0	5	1003.48	1	40.624723	17.975036
2048	2024-03-26 07:00:00	7	brindisi_sisri	12.15	1	78.54	1	0.0	1	3.34	1	107.07	1	23.91	1	1002.57	1	40.624723	17.975036
2049	2024-03-26 08:00:00	7	brindisi_sisri	13.02	1	76.6	1	0.0	1	3.55	1	110.84	1	59.49	1	1002.26	1	40.624723	17.975036
2050	2024-03-26 09:00:00	7	brindisi_sisri	13.36	1	74.82	1	0.0	1	3.13	1	120.64	1	49.1	1	1002.8	1	40.624723	17.975036
2051	2024-03-26 10:00:00	7	brindisi_sisri	13.04	1	82.64	1	0.2	1	2.33	1	96.19	1	55.95	1	1002.28	1	40.624723	17.975036
2052	2024-03-26 11:00:00	7	brindisi_sisri	13.81	1	86.52	1	0.2	1	3.2	1	97.86	1	78.53	1	1001.51	1	40.624723	17.975036
2053	2024-03-26 12:00:00	7	brindisi_sisri	15.08	1	82.54	1	0.0	1	5.82	1	105.04	1	110.68	1	1000.06	1	40.624723	17.975036
2054	2024-03-26 13:00:00	7	brindisi_sisri	15.86	1	77.1	1	0.0	1	6.61	1	104.18	1	132.64	1	998.85	1	40.624723	17.975036
2055	2024-03-26 14:00:00	7	brindisi_sisri	16.5	1	74.62	1	0.0	1	6.97	1	111.26	1	147.3	1	997.47	1	40.624723	17.975036
2056	2024-03-26 15:00:00	7	brindisi_sisri	16.73	1	76.09	1	0.0	1	6.6	1	117.48	1	96.48	1	996.14	1	40.624723	17.975036
2057	2024-03-26 16:00:00	7	brindisi_sisri	16.79	1	81.2	1	0.0	1	6.72	1	128.63	1	71.79	1	995.26	1	40.624723	17.975036
2058	2024-03-26 17:00:00	7	brindisi_sisri	16.78	1	83.89	1	0.0	1	6.21	1	134.01	1	42.44	1	995.08	1	40.624723	17.975036
2059	2024-03-26 18:00:00	7	brindisi_sisri	16.1	1	88.88	1	0.2	1	5.35	1	133.21	1	27.47	1	994.95	1	40.624723	17.975036
2060	2024-03-26 19:00:00	7	brindisi_sisri	15.97	1	87.29	1	0.0	1	5.35	2	128.83	1	0.0	5	995.0	1	40.624723	17.975036
2061	2024-03-26 20:00:00	7	brindisi_sisri	15.86	1	85.55	1	0.0	1	5.34	1	147.38	1	0.0	5	995.76	1	40.624723	17.975036
2062	2024-03-26 21:00:00	7	brindisi_sisri	16.37	1	83.59	1	0.0	1	7.53	1	156.19	1	0.0	5	996.5	1	40.624723	17.975036
2063	2024-03-26 22:00:00	7	brindisi_sisri	16.28	1	84.2	1	0.0	1	6.21	1	149.06	1	0.0	5	996.84	1	40.624723	17.975036
2064	2024-03-26 23:00:00	7	brindisi_sisri	16.06	1	86.88	1	0.0	1	6.78	1	148.53	1	0.0	5	996.74	1	40.624723	17.975036
2065	2024-03-27 00:00:00	7	brindisi_sisri	15.68	1	89.08	1	0.0	1	5.31	1	149.99	1	0.0	5	996.63	1	40.624723	17.975036
2066	2024-03-27 01:00:00	7	brindisi_sisri	15.68	1	90.88	1	0.0	1	3.7	1	125.06	1	0.0	5	996.84	1	40.624723	17.975036
2067	2024-03-27 02:00:00	7	brindisi_sisri	15.71	1	91.82	1	0.0	1	2.52	1	115.5	1	0.0	5	996.96	1	40.624723	17.975036
2068	2024-03-27 03:00:00	7	brindisi_sisri	15.63	1	94.21	1	0.0	1	2.74	1	119.07	1	0.0	5	996.88	1	40.624723	17.975036
2069	2024-03-27 04:00:00	7	brindisi_sisri	15.65	1	95.6	1	0.0	1	4.45	1	143.28	1	0.0	5	996.84	1	40.624723	17.975036
2070	2024-03-27 05:00:00	7	brindisi_sisri	15.58	1	96.12	1	0.0	1	3.81	1	141.64	1	0.0	5	996.95	1	40.624723	17.975036
2071	2024-03-27 06:00:00	7	brindisi_sisri	15.68	1	96.44	1	0.0	1	3.37	1	126.36	1	5.37	1	996.96	1	40.624723	17.975036
2072	2024-03-27 07:00:00	7	brindisi_sisri	15.93	1	96.09	1	0.0	1	3.98	1	135.98	1	35.09	1	996.75	1	40.624723	17.975036
2073	2024-03-27 08:00:00	7	brindisi_sisri	16.54	1	92.74	1	0.0	1	4.86	1	136.68	1	119.33	1	996.7	1	40.624723	17.975036
2074	2024-03-27 09:00:00	7	brindisi_sisri	17.53	1	87.32	1	0.0	1	5.27	1	127.84	1	211.07	1	996.59	1	40.624723	17.975036
2075	2024-03-27 10:00:00	7	brindisi_sisri	19.41	1	76.71	1	0.0	1	6.14	1	126.6	1	511.97	1	996.43	1	40.624723	17.975036
2076	2024-03-27 11:00:00	7	brindisi_sisri	20.98	1	69.69	1	0.0	1	6.45	1	121.4	1	637.07	1	996.41	1	40.624723	17.975036
2077	2024-03-27 12:00:00	7	brindisi_sisri	21.53	1	67.35	1	0.0	1	8.15	1	125.27	1	682.7	1	996.06	1	40.624723	17.975036
2078	2024-03-27 13:00:00	7	brindisi_sisri	22.21	1	63.39	1	0.0	1	9.34	1	126.06	1	665.71	1	995.61	1	40.624723	17.975036
2079	2024-03-27 14:00:00	7	brindisi_sisri	21.94	1	60.39	1	0.0	1	10.74	1	130.01	1	505.45	1	994.87	1	40.624723	17.975036
2080	2024-03-27 15:00:00	7	brindisi_sisri	21.8	1	58.67	1	0.0	1	10.35	1	128.89	1	302.35	1	994.29	1	40.624723	17.975036
2081	2024-03-27 16:00:00	7	brindisi_sisri	21.16	1	58.05	1	0.0	1	9.13	1	126.1	1	198.38	1	993.58	1	40.624723	17.975036
2082	2024-03-27 17:00:00	7	brindisi_sisri	19.73	1	64.41	1	0.0	1	8.06	1	118.15	1	99.27	1	992.66	1	40.624723	17.975036
2083	2024-03-27 18:00:00	7	brindisi_sisri	18.32	1	72.67	1	0.0	1	8.01	1	121.35	1	31.16	1	991.77	1	40.624723	17.975036
2084	2024-03-27 19:00:00	7	brindisi_sisri	17.54	1	78.65	1	0.0	1	6.26	1	141.82	1	0.0	5	992.51	1	40.624723	17.975036
2085	2024-03-27 20:00:00	7	brindisi_sisri	17.34	1	82.9	1	0.0	1	6.22	1	164.6	1	0.0	5	994.59	1	40.624723	17.975036
2086	2024-03-27 21:00:00	7	brindisi_sisri	16.56	1	84.16	1	0.0	1	4.37	1	181.88	1	0.0	5	996.09	1	40.624723	17.975036
2087	2024-03-27 22:00:00	7	brindisi_sisri	14.63	1	73.98	1	0.0	1	3.56	1	301.05	1	0.0	5	997.32	1	40.624723	17.975036
2088	2024-03-27 23:00:00	7	brindisi_sisri	14.12	1	77.17	1	0.0	1	2.11	1	180.86	1	0.0	5	998.06	1	40.624723	17.975036
2089	2024-03-28 00:00:00	7	brindisi_sisri	14.2	1	63.46	1	0.0	1	2.73	1	206.33	1	0.0	5	999.55	1	40.624723	17.975036
2090	2024-03-28 01:00:00	7	brindisi_sisri	12.51	1	72.31	1	0.0	1	1.79	1	218.32	1	0.0	5	1000.58	1	40.624723	17.975036
2091	2024-03-28 02:00:00	7	brindisi_sisri	11.1	1	75.11	1	0.0	1	2.05	1	219.35	1	0.0	5	1001.56	1	40.624723	17.975036
2092	2024-03-28 03:00:00	7	brindisi_sisri	9.79	1	77.63	1	0.0	1	2.23	1	192.02	1	0.0	5	1002.14	1	40.624723	17.975036
2093	2024-03-28 04:00:00	7	brindisi_sisri	8.9	1	79.71	1	0.0	1	1.84	1	191.99	1	0.0	5	1002.91	1	40.624723	17.975036
2094	2024-03-28 05:00:00	7	brindisi_sisri	8.94	1	80.72	1	0.0	1	2.84	1	203.13	1	0.0	5	1003.87	1	40.624723	17.975036
2095	2024-03-28 06:00:00	7	brindisi_sisri	9.0	1	77.65	1	0.0	1	1.61	1	162.29	1	10.07	1	1005.0	1	40.624723	17.975036
2096	2024-03-28 07:00:00	7	brindisi_sisri	10.41	1	80.86	1	0.0	1	2.14	1	155.18	1	116.38	1	1006.0	1	40.624723	17.975036
2097	2024-03-28 08:00:00	7	brindisi_sisri	14.52	1	71.14	1	0.0	1	2.68	1	150.58	1	315.06	1	1006.95	1	40.624723	17.975036
2098	2024-03-28 09:00:00	7	brindisi_sisri	17.31	1	60.3	1	0.0	1	4.76	1	167.88	1	527.02	1	1007.16	1	40.624723	17.975036
2099	2024-03-28 10:00:00	7	brindisi_sisri	19.14	1	51.09	1	0.0	1	5.54	1	165.33	1	696.13	1	1007.55	1	40.624723	17.975036
2100	2024-03-28 11:00:00	7	brindisi_sisri	19.65	1	44.79	1	0.0	1	6.72	1	195.26	1	805.57	1	1008.26	1	40.624723	17.975036
2101	2024-03-28 12:00:00	7	brindisi_sisri	20.57	1	41.93	1	0.0	1	6.07	1	194.49	1	855.33	1	1008.74	1	40.624723	17.975036
2102	2024-03-28 13:00:00	7	brindisi_sisri	21.83	1	38.61	1	0.0	1	4.76	1	184.41	1	766.38	1	1008.8	1	40.624723	17.975036
2103	2024-03-28 14:00:00	7	brindisi_sisri	21.89	1	39.65	1	0.0	1	6.28	1	177.93	1	566.75	1	1008.72	1	40.624723	17.975036
2104	2024-03-28 15:00:00	7	brindisi_sisri	21.01	1	42.88	1	0.0	1	6.87	1	178.34	1	189.42	1	1008.84	1	40.624723	17.975036
2105	2024-03-28 16:00:00	7	brindisi_sisri	20.35	1	46.97	1	0.0	1	6.7	1	172.91	1	151.15	1	1008.97	1	40.624723	17.975036
2106	2024-03-28 17:00:00	7	brindisi_sisri	19.82	1	48.27	1	0.0	1	7.42	1	185.96	1	141.07	1	1009.33	1	40.624723	17.975036
2107	2024-03-28 18:00:00	7	brindisi_sisri	17.11	1	53.15	1	0.0	1	4.95	1	173.64	1	29.0	1	1009.94	1	40.624723	17.975036
2108	2024-03-28 19:00:00	7	brindisi_sisri	15.26	1	62.71	1	0.0	1	3.93	1	165.92	1	0.0	5	1010.41	1	40.624723	17.975036
2109	2024-03-28 20:00:00	7	brindisi_sisri	13.99	1	73.09	1	0.0	1	4.0	1	155.49	1	0.0	5	1010.81	1	40.624723	17.975036
2110	2024-03-28 21:00:00	7	brindisi_sisri	13.54	1	72.18	1	0.0	1	2.54	1	124.2	1	0.0	5	1011.06	1	40.624723	17.975036
2111	2024-03-28 22:00:00	7	brindisi_sisri	12.76	1	73.67	1	0.0	1	2.88	1	123.69	1	0.0	5	1011.47	1	40.624723	17.975036
2112	2024-03-28 23:00:00	7	brindisi_sisri	11.82	1	82.76	1	0.0	1	2.83	1	154.52	1	0.0	5	1011.58	1	40.624723	17.975036
2113	2024-03-29 00:00:00	7	brindisi_sisri	12.04	1	88.57	1	0.0	1	3.91	1	157.0	1	0.0	5	1011.76	1	40.624723	17.975036
2114	2024-03-29 01:00:00	7	brindisi_sisri	11.87	1	90.05	1	0.0	1	3.27	1	154.51	1	0.0	5	1011.9	1	40.624723	17.975036
2115	2024-03-29 02:00:00	7	brindisi_sisri	11.29	1	90.97	1	0.0	1	2.16	1	155.03	1	0.0	5	1012.41	1	40.624723	17.975036
2116	2024-03-29 03:00:00	7	brindisi_sisri	10.61	1	93.51	1	0.0	1	2.04	1	159.03	1	0.0	5	1012.6	1	40.624723	17.975036
2117	2024-03-29 04:00:00	7	brindisi_sisri	10.14	1	96.15	1	0.0	1	1.93	1	145.38	1	0.0	5	1012.53	1	40.624723	17.975036
2118	2024-03-29 05:00:00	7	brindisi_sisri	10.22	1	97.82	1	0.0	1	1.9	1	151.86	1	0.0	5	1012.66	1	40.624723	17.975036
2119	2024-03-29 06:00:00	7	brindisi_sisri	9.76	1	98.79	1	0.0	1	1.19	1	118.48	1	11.05	1	1012.99	1	40.624723	17.975036
2120	2024-03-29 07:00:00	7	brindisi_sisri	11.08	1	98.55	1	0.0	1	1.52	1	161.18	1	93.31	1	1013.53	1	40.624723	17.975036
2121	2024-03-29 08:00:00	7	brindisi_sisri	15.44	1	90.96	1	0.0	1	2.15	1	162.3	1	284.92	1	1013.54	1	40.624723	17.975036
2122	2024-03-29 09:00:00	7	brindisi_sisri	18.85	1	64.06	1	0.0	1	2.77	1	146.94	1	441.22	1	1013.97	1	40.624723	17.975036
2123	2024-03-29 10:00:00	7	brindisi_sisri	20.89	1	52.48	1	0.0	1	3.15	1	151.2	1	619.06	1	1014.19	1	40.624723	17.975036
2124	2024-03-29 11:00:00	7	brindisi_sisri	20.68	1	58.69	1	0.0	1	4.1	1	117.46	1	592.43	1	1014.14	1	40.624723	17.975036
2125	2024-03-29 12:00:00	7	brindisi_sisri	19.17	1	73.04	1	0.0	1	5.41	1	89.97	1	624.19	1	1013.68	1	40.624723	17.975036
2126	2024-03-29 13:00:00	7	brindisi_sisri	19.48	1	72.62	1	0.0	1	6.28	1	88.3	1	624.4	1	1013.23	1	40.624723	17.975036
2127	2024-03-29 14:00:00	7	brindisi_sisri	20.54	1	61.84	1	0.0	1	6.45	1	89.6	1	587.79	1	1012.53	1	40.624723	17.975036
2128	2024-03-29 15:00:00	7	brindisi_sisri	20.49	1	54.12	1	0.0	1	6.29	1	91.48	1	197.97	1	1012.09	1	40.624723	17.975036
2129	2024-03-29 16:00:00	7	brindisi_sisri	20.56	1	54.92	1	0.0	1	5.32	1	93.46	1	129.15	1	1011.65	1	40.624723	17.975036
2130	2024-03-29 17:00:00	7	brindisi_sisri	20.38	1	63.02	1	0.0	1	2.91	1	100.55	1	159.34	1	1011.47	1	40.624723	17.975036
2131	2024-03-29 18:00:00	7	brindisi_sisri	19.3	1	68.68	1	0.0	1	1.81	1	94.4	1	72.81	1	1011.41	1	40.624723	17.975036
2132	2024-03-29 19:00:00	7	brindisi_sisri	16.31	1	73.1	1	0.0	1	2.7	1	179.57	1	0.0	5	1011.45	1	40.624723	17.975036
2133	2024-03-29 20:00:00	7	brindisi_sisri	14.6	1	82.96	1	0.0	1	3.15	1	195.93	1	0.0	5	1011.73	1	40.624723	17.975036
2134	2024-03-29 21:00:00	7	brindisi_sisri	13.94	1	91.36	1	0.0	1	1.96	1	127.69	1	0.0	5	1011.85	1	40.624723	17.975036
2135	2024-03-29 22:00:00	7	brindisi_sisri	13.17	1	96.61	1	0.0	1	2.52	1	120.16	1	0.0	5	1011.5	1	40.624723	17.975036
2136	2024-03-29 23:00:00	7	brindisi_sisri	12.35	1	98.06	1	0.0	1	2.4	1	128.08	1	0.0	5	1011.78	1	40.624723	17.975036
2137	2024-03-30 00:00:00	7	brindisi_sisri	12.17	1	97.52	1	0.0	1	2.58	1	113.67	1	0.0	5	1011.67	1	40.624723	17.975036
2138	2024-03-30 01:00:00	7	brindisi_sisri	11.96	1	98.32	1	0.0	1	2.84	1	117.27	1	0.0	5	1011.34	1	40.624723	17.975036
2139	2024-03-30 02:00:00	7	brindisi_sisri	11.56	1	98.85	1	0.0	1	2.41	1	130.05	1	0.0	5	1011.06	1	40.624723	17.975036
2140	2024-03-30 03:00:00	7	brindisi_sisri	11.47	1	99.02	1	0.0	1	1.37	1	102.2	1	0.0	5	1010.72	1	40.624723	17.975036
2141	2024-03-30 04:00:00	7	brindisi_sisri	11.93	1	99.05	1	0.0	1	3.08	1	121.55	1	0.0	5	1010.26	1	40.624723	17.975036
2142	2024-03-30 05:00:00	7	brindisi_sisri	12.19	1	99.03	1	0.0	1	3.47	1	133.46	1	0.0	5	1010.17	1	40.624723	17.975036
2143	2024-03-30 06:00:00	7	brindisi_sisri	12.04	1	98.89	1	0.0	1	3.58	1	123.56	1	7.55	1	1010.24	1	40.624723	17.975036
2144	2024-03-30 07:00:00	7	brindisi_sisri	13.06	1	94.36	1	0.0	1	4.04	1	137.22	1	107.31	1	1010.43	1	40.624723	17.975036
2145	2024-03-30 08:00:00	7	brindisi_sisri	15.72	1	77.62	1	0.0	1	6.06	1	138.81	1	308.39	1	1010.44	1	40.624723	17.975036
2146	2024-03-30 09:00:00	7	brindisi_sisri	17.83	1	61.27	1	0.0	1	7.43	1	143.16	1	508.14	1	1010.69	1	40.624723	17.975036
2147	2024-03-30 10:00:00	7	brindisi_sisri	19.93	1	43.07	1	0.0	1	8.46	1	149.01	1	710.19	1	1010.85	1	40.624723	17.975036
2148	2024-03-30 11:00:00	7	brindisi_sisri	21.11	1	33.01	1	0.0	1	9.99	1	149.74	1	839.27	1	1010.61	1	40.624723	17.975036
2149	2024-03-30 12:00:00	7	brindisi_sisri	22.5	1	30.07	1	0.0	1	9.38	1	145.98	1	891.5	1	1010.23	1	40.624723	17.975036
2150	2024-03-30 13:00:00	7	brindisi_sisri	22.98	1	26.95	1	0.0	1	9.75	1	141.57	1	835.28	1	1010.15	1	40.624723	17.975036
2151	2024-03-30 14:00:00	7	brindisi_sisri	22.7	1	25.76	1	0.0	1	10.21	1	139.72	1	562.05	1	1009.72	1	40.624723	17.975036
2152	2024-03-30 15:00:00	7	brindisi_sisri	22.47	1	25.01	1	0.0	1	9.36	1	142.3	1	241.91	1	1009.34	1	40.624723	17.975036
2153	2024-03-30 16:00:00	7	brindisi_sisri	21.55	1	26.12	1	0.0	1	9.73	1	145.82	1	194.47	1	1008.96	1	40.624723	17.975036
2154	2024-03-30 17:00:00	7	brindisi_sisri	20.45	1	28.88	1	0.0	1	9.75	1	146.78	1	134.47	1	1008.69	1	40.624723	17.975036
2155	2024-03-30 18:00:00	7	brindisi_sisri	19.15	1	32.96	1	0.0	1	7.18	1	140.71	1	53.63	1	1008.52	1	40.624723	17.975036
2156	2024-03-30 19:00:00	7	brindisi_sisri	17.81	1	36.14	1	0.0	1	6.57	1	140.2	1	0.0	5	1008.48	1	40.624723	17.975036
2157	2024-03-30 20:00:00	7	brindisi_sisri	16.92	1	40.33	1	0.0	1	5.17	1	148.82	1	0.0	5	1009.22	1	40.624723	17.975036
2158	2024-03-30 21:00:00	7	brindisi_sisri	15.38	1	50.7	1	0.0	1	3.31	1	148.46	1	0.0	5	1010.02	1	40.624723	17.975036
2159	2024-03-30 22:00:00	7	brindisi_sisri	14.6	1	60.1	1	0.0	1	2.99	1	151.9	1	0.0	5	1010.24	1	40.624723	17.975036
2160	2024-03-30 23:00:00	7	brindisi_sisri	14.28	1	65.31	1	0.0	1	1.83	1	105.29	1	0.0	5	1010.48	1	40.624723	17.975036
2161	2024-03-31 00:00:00	7	brindisi_sisri	13.72	1	75.37	1	0.0	1	2.94	1	118.36	1	0.0	5	1010.64	1	40.624723	17.975036
2162	2024-03-31 01:00:00	7	brindisi_sisri	13.63	1	82.88	1	0.0	1	2.27	1	108.08	1	0.0	5	1010.66	1	40.624723	17.975036
2163	2024-03-31 03:00:00	7	brindisi_sisri	13.39	1	85.47	1	0.0	1	2.46	1	92.65	1	0.0	5	1010.01	1	40.624723	17.975036
2164	2024-03-31 03:00:00	7	brindisi_sisri	14.28	1	90.4	1	0.0	1	4.3	1	113.38	1	0.0	5	1009.51	1	40.624723	17.975036
2165	2024-03-31 04:00:00	7	brindisi_sisri	14.34	1	91.14	1	0.0	1	3.27	1	116.13	1	0.0	5	1009.64	1	40.624723	17.975036
2166	2024-03-31 05:00:00	7	brindisi_sisri	15.03	1	84.95	1	0.0	1	4.96	1	116.01	1	0.0	5	1009.49	1	40.624723	17.975036
2167	2024-03-31 06:00:00	7	brindisi_sisri	15.15	1	86.12	1	0.0	1	4.73	1	114.76	1	0.0	5	1009.59	1	40.624723	17.975036
2168	2024-03-31 07:00:00	7	brindisi_sisri	15.54	1	84.57	1	0.0	1	5.83	1	125.61	1	36.75	1	1009.58	1	40.624723	17.975036
2169	2024-03-31 08:00:00	7	brindisi_sisri	16.64	1	79.26	1	0.0	1	7.73	1	127.95	1	215.93	1	1009.86	1	40.624723	17.975036
2170	2024-03-31 09:00:00	7	brindisi_sisri	18.71	1	67.11	1	0.0	1	7.97	1	126.17	1	411.83	1	1010.35	1	40.624723	17.975036
2171	2024-03-31 10:00:00	7	brindisi_sisri	20.23	1	58.4	1	0.0	1	8.29	1	122.46	1	562.42	1	1010.88	1	40.624723	17.975036
2172	2024-03-31 11:00:00	7	brindisi_sisri	21.06	1	52.64	1	0.0	1	9.09	1	128.73	1	596.03	1	1010.7	1	40.624723	17.975036
2173	2024-03-31 12:00:00	7	brindisi_sisri	21.78	1	47.37	1	0.0	1	9.7	1	130.31	1	530.44	1	1010.14	1	40.624723	17.975036
2174	2024-03-31 13:00:00	7	brindisi_sisri	21.94	1	49.89	1	0.0	1	9.38	1	137.99	1	449.44	1	1009.95	1	40.624723	17.975036
2175	2024-03-31 14:00:00	7	brindisi_sisri	21.52	1	50.2	1	0.0	1	9.67	1	145.04	1	350.57	1	1009.73	1	40.624723	17.975036
2176	2024-03-31 15:00:00	7	brindisi_sisri	21.29	1	51.83	1	0.0	1	10.51	1	151.31	1	255.14	1	1009.68	1	40.624723	17.975036
2177	2024-03-31 16:00:00	7	brindisi_sisri	21.04	1	55.41	1	0.0	1	9.77	1	148.64	1	185.72	1	1009.89	1	40.624723	17.975036
2178	2024-03-31 17:00:00	7	brindisi_sisri	20.09	1	60.01	1	0.0	1	9.06	1	142.73	1	104.79	1	1009.54	1	40.624723	17.975036
2179	2024-03-31 18:00:00	7	brindisi_sisri	18.89	1	66.07	1	0.0	1	7.21	1	143.21	1	40.5	1	1009.8	1	40.624723	17.975036
2180	2024-03-31 19:00:00	7	brindisi_sisri	17.76	1	72.42	1	0.0	1	6.25	1	143.11	1	0.0	5	1010.34	1	40.624723	17.975036
2181	2024-03-31 20:00:00	7	brindisi_sisri	16.92	1	77.26	1	0.0	1	5.94	1	140.2	1	0.0	5	1010.86	1	40.624723	17.975036
2182	2024-03-31 21:00:00	7	brindisi_sisri	16.4	1	83.12	1	0.0	1	6.5	1	152.23	1	0.0	5	1011.04	1	40.624723	17.975036
2183	2024-03-31 22:00:00	7	brindisi_sisri	16.14	1	85.68	1	0.0	1	5.89	1	151.84	1	0.0	5	1011.1	1	40.624723	17.975036
2184	2024-03-31 23:00:00	7	brindisi_sisri	15.94	1	86.91	1	0.0	1	5.29	1	150.51	1	0.0	5	1011.11	1	40.624723	17.975036
2185	2024-04-01 00:00:00	7	brindisi_sisri	15.58	1	89.09	1	0.0	1	4.67	1	145.13	1	0.0	5	1010.89	1	40.624723	17.975036
2186	2024-04-01 01:00:00	7	brindisi_sisri	15.31	1	89.8	1	0.0	1	4.71	1	136.84	1	0.0	5	1010.91	1	40.624723	17.975036
2187	2024-04-01 02:00:00	7	brindisi_sisri	15.09	1	89.81	1	0.0	1	4.3	1	133.3	1	0.0	5	1010.61	1	40.624723	17.975036
2188	2024-04-01 03:00:00	7	brindisi_sisri	14.86	1	89.5	1	0.0	1	4.9	1	133.88	1	0.0	5	1010.04	1	40.624723	17.975036
2189	2024-04-01 04:00:00	7	brindisi_sisri	15.04	1	88.97	1	0.0	1	5.68	1	134.8	1	0.0	5	1009.69	1	40.624723	17.975036
2190	2024-04-01 05:00:00	7	brindisi_sisri	15.02	1	91.99	1	0.0	1	6.46	1	132.54	1	0.0	5	1009.46	1	40.624723	17.975036
2191	2024-04-01 06:00:00	7	brindisi_sisri	15.11	1	91.96	1	0.0	1	6.03	1	132.31	1	7.75	1	1009.62	1	40.624723	17.975036
2192	2024-04-01 07:00:00	7	brindisi_sisri	15.94	1	88.23	1	0.0	1	7.12	1	136.13	1	100.57	1	1009.85	1	40.624723	17.975036
2193	2024-04-01 08:00:00	7	brindisi_sisri	18.09	1	74.19	1	0.0	1	8.37	1	135.21	1	299.44	1	1009.82	1	40.624723	17.975036
2194	2024-04-01 09:00:00	7	brindisi_sisri	19.71	1	64.65	1	0.0	1	8.05	1	145.28	1	464.5	1	1009.9	1	40.624723	17.975036
2195	2024-04-01 10:00:00	7	brindisi_sisri	21.08	1	56.27	1	0.0	1	8.67	1	150.54	1	554.06	1	1009.96	1	40.624723	17.975036
2196	2024-04-01 11:00:00	7	brindisi_sisri	22.09	1	49.14	1	0.0	1	9.5	1	144.1	1	667.72	1	1009.72	1	40.624723	17.975036
2197	2024-04-01 12:00:00	7	brindisi_sisri	23.04	1	44.93	1	0.0	1	9.37	1	146.64	1	688.94	1	1009.06	1	40.624723	17.975036
2198	2024-04-01 13:00:00	7	brindisi_sisri	23.68	1	42.31	1	0.0	1	9.64	1	146.88	1	674.66	1	1008.19	1	40.624723	17.975036
2199	2024-04-01 14:00:00	7	brindisi_sisri	23.97	1	44.08	1	0.0	1	10.83	1	152.38	1	553.5	1	1007.45	1	40.624723	17.975036
2200	2024-04-01 15:00:00	7	brindisi_sisri	23.44	1	49.2	1	0.0	1	10.58	1	152.57	1	236.66	1	1006.42	1	40.624723	17.975036
2201	2024-04-01 16:00:00	7	brindisi_sisri	22.7	1	51.9	1	0.0	1	10.25	1	155.56	1	172.76	1	1005.97	1	40.624723	17.975036
2202	2024-04-01 17:00:00	7	brindisi_sisri	21.55	1	57.36	1	0.0	1	9.61	1	152.29	1	142.88	1	1005.58	1	40.624723	17.975036
2203	2024-04-01 18:00:00	7	brindisi_sisri	19.8	1	64.97	1	0.0	1	7.26	1	146.6	1	60.61	1	1005.39	1	40.624723	17.975036
2204	2024-04-01 19:00:00	7	brindisi_sisri	18.19	1	73.26	1	0.0	1	5.63	1	133.12	1	0.0	5	1005.13	1	40.624723	17.975036
2205	2024-04-01 20:00:00	7	brindisi_sisri	17.11	1	80.13	1	0.0	1	5.26	1	120.13	1	0.0	5	1004.74	1	40.624723	17.975036
2206	2024-04-01 21:00:00	7	brindisi_sisri	15.99	1	87.24	1	0.0	1	3.42	1	119.31	1	0.0	5	1005.47	1	40.624723	17.975036
2207	2024-04-01 22:00:00	7	brindisi_sisri	15.08	1	91.67	1	0.0	1	3.57	1	170.87	1	0.0	5	1006.93	1	40.624723	17.975036
2208	2024-04-01 23:00:00	7	brindisi_sisri	15.75	1	93.7	1	0.0	1	5.09	1	173.01	1	0.0	5	1007.42	1	40.624723	17.975036
2209	2024-04-02 00:00:00	7	brindisi_sisri	16.03	1	86.8	1	0.0	1	3.88	1	289.55	1	0.0	5	1009.29	1	40.624723	17.975036
2210	2024-04-02 01:00:00	7	brindisi_sisri	15.54	1	71.32	1	0.0	1	1.88	1	266.18	1	0.0	5	1009.62	1	40.624723	17.975036
2211	2024-04-02 02:00:00	7	brindisi_sisri	14.37	1	77.39	1	0.0	1	2.96	1	138.67	1	0.0	5	1009.05	1	40.624723	17.975036
2212	2024-04-02 03:00:00	7	brindisi_sisri	14.26	1	80.74	1	0.0	1	2.52	1	155.63	1	0.0	5	1009.57	1	40.624723	17.975036
2213	2024-04-02 04:00:00	7	brindisi_sisri	14.36	1	81.07	1	0.0	1	1.08	1	203.8	1	0.0	5	1010.84	1	40.624723	17.975036
2214	2024-04-02 05:00:00	7	brindisi_sisri	13.65	1	82.6	1	0.0	1	0.9	1	154.04	1	0.0	5	1011.58	1	40.624723	17.975036
2215	2024-04-02 06:00:00	7	brindisi_sisri	12.76	1	83.58	1	0.0	1	1.38	1	34.98	1	7.05	1	1011.88	1	40.624723	17.975036
2216	2024-04-02 07:00:00	7	brindisi_sisri	14.08	1	78.65	1	0.0	1	2.03	1	315.26	1	48.7	1	1012.33	1	40.624723	17.975036
2217	2024-04-02 08:00:00	7	brindisi_sisri	15.01	1	66.7	1	0.0	1	1.48	1	261.46	1	120.27	1	1012.3	1	40.624723	17.975036
2218	2024-04-02 09:00:00	7	brindisi_sisri	16.93	1	56.62	1	0.0	1	1.29	1	239.55	1	314.47	1	1012.8	1	40.624723	17.975036
2219	2024-04-02 10:00:00	7	brindisi_sisri	20.64	1	43.44	1	0.0	1	2.24	1	185.91	1	666.69	1	1012.93	1	40.624723	17.975036
2220	2024-04-02 11:00:00	7	brindisi_sisri	20.29	1	42.74	1	0.0	1	2.34	1	342.88	1	761.4	1	1012.89	1	40.624723	17.975036
2221	2024-04-02 12:00:00	7	brindisi_sisri	18.77	1	47.29	1	0.0	1	4.08	1	352.78	1	740.45	1	1012.61	1	40.624723	17.975036
2222	2024-04-02 13:00:00	7	brindisi_sisri	18.82	1	46.43	1	0.0	1	4.89	1	353.47	1	809.7	1	1012.32	1	40.624723	17.975036
2223	2024-04-02 14:00:00	7	brindisi_sisri	18.62	1	48.63	1	0.0	1	5.0	1	343.51	1	481.99	1	1012.07	1	40.624723	17.975036
2224	2024-04-02 15:00:00	7	brindisi_sisri	17.87	1	52.2	1	0.0	1	4.02	1	16.83	1	252.4	1	1012.23	1	40.624723	17.975036
2225	2024-04-02 16:00:00	7	brindisi_sisri	17.27	1	52.82	1	0.0	1	3.43	1	18.3	1	172.14	1	1012.33	1	40.624723	17.975036
2226	2024-04-02 17:00:00	7	brindisi_sisri	16.53	1	58.01	1	0.0	1	3.0	1	38.37	1	118.04	1	1012.45	1	40.624723	17.975036
2227	2024-04-02 18:00:00	7	brindisi_sisri	15.96	1	64.64	1	0.0	1	2.29	1	107.38	1	38.12	1	1012.48	1	40.624723	17.975036
2228	2024-04-02 19:00:00	7	brindisi_sisri	14.93	1	69.39	1	0.0	1	2.36	1	139.91	1	0.0	5	1012.55	1	40.624723	17.975036
2229	2024-04-02 20:00:00	7	brindisi_sisri	13.69	1	72.72	1	0.0	1	1.33	1	156.95	1	0.0	5	1013.24	1	40.624723	17.975036
2230	2024-04-02 21:00:00	7	brindisi_sisri	12.22	1	78.75	1	0.0	1	1.55	1	204.79	1	0.0	5	1013.6	1	40.624723	17.975036
2231	2024-04-02 22:00:00	7	brindisi_sisri	11.62	1	78.44	1	0.0	1	1.82	1	211.05	1	0.0	5	1013.87	1	40.624723	17.975036
2232	2024-04-02 23:00:00	7	brindisi_sisri	11.34	1	78.84	1	0.0	1	2.29	1	218.09	1	0.0	5	1014.19	1	40.624723	17.975036
2233	2024-04-03 00:00:00	7	brindisi_sisri	11.79	1	73.63	1	0.0	1	2.36	1	220.57	1	0.0	5	1014.38	1	40.624723	17.975036
2234	2024-04-03 01:00:00	7	brindisi_sisri	11.93	1	70.3	1	0.0	1	2.14	1	233.48	1	0.0	5	1014.2	1	40.624723	17.975036
2235	2024-04-03 02:00:00	7	brindisi_sisri	12.08	1	65.93	1	0.0	1	1.48	1	281.78	1	0.0	5	1013.87	1	40.624723	17.975036
2236	2024-04-03 03:00:00	7	brindisi_sisri	10.43	1	73.31	1	0.0	1	1.18	1	227.99	1	0.0	5	1013.77	1	40.624723	17.975036
2237	2024-04-03 04:00:00	7	brindisi_sisri	8.29	1	82.57	1	0.0	1	1.09	1	234.94	1	0.0	5	1013.67	1	40.624723	17.975036
2238	2024-04-03 05:00:00	7	brindisi_sisri	7.14	1	87.45	1	0.0	1	0.73	1	232.3	1	0.0	5	1013.64	1	40.624723	17.975036
2239	2024-04-03 06:00:00	7	brindisi_sisri	7.04	1	89.67	1	0.0	1	0.92	1	299.67	1	23.41	1	1013.51	1	40.624723	17.975036
2240	2024-04-03 07:00:00	7	brindisi_sisri	10.61	1	85.48	1	0.0	1	1.05	1	217.28	1	114.5	1	1013.69	1	40.624723	17.975036
2241	2024-04-03 08:00:00	7	brindisi_sisri	16.23	1	70.61	1	0.0	1	0.87	1	207.49	1	348.44	1	1014.05	1	40.624723	17.975036
2242	2024-04-03 09:00:00	7	brindisi_sisri	17.09	1	69.96	1	0.0	1	2.54	1	340.18	1	520.19	1	1014.24	1	40.624723	17.975036
2243	2024-04-03 10:00:00	7	brindisi_sisri	17.82	1	61.3	1	0.0	1	2.39	1	328.82	1	716.75	1	1014.5	1	40.624723	17.975036
2244	2024-04-03 11:00:00	7	brindisi_sisri	17.72	1	61.5	1	0.0	1	2.35	1	2.03	1	689.75	1	1014.42	1	40.624723	17.975036
2245	2024-04-03 12:00:00	7	brindisi_sisri	18.61	1	57.23	1	0.0	1	2.5	1	23.68	1	895.95	1	1014.12	1	40.624723	17.975036
2246	2024-04-03 13:00:00	7	brindisi_sisri	19.58	1	55.19	1	0.0	1	2.72	1	15.55	1	823.75	1	1013.79	1	40.624723	17.975036
2247	2024-04-03 14:00:00	7	brindisi_sisri	18.33	1	54.85	1	0.0	1	3.83	1	29.86	1	380.83	1	1013.29	1	40.624723	17.975036
2248	2024-04-03 15:00:00	7	brindisi_sisri	18.74	1	51.41	1	0.0	1	2.89	1	19.2	1	310.8	1	1013.08	1	40.624723	17.975036
2249	2024-04-03 16:00:00	7	brindisi_sisri	18.61	1	47.85	1	0.0	1	2.65	1	76.18	1	205.19	1	1012.77	1	40.624723	17.975036
2250	2024-04-03 17:00:00	7	brindisi_sisri	17.4	1	65.91	1	0.0	1	3.87	1	78.02	1	157.29	1	1012.77	1	40.624723	17.975036
2251	2024-04-03 18:00:00	7	brindisi_sisri	15.72	1	75.81	1	0.0	1	2.68	1	91.51	1	40.77	1	1012.5	1	40.624723	17.975036
2252	2024-04-03 19:00:00	7	brindisi_sisri	14.83	1	80.43	1	0.0	1	1.56	1	112.71	1	7.46	1	1012.78	1	40.624723	17.975036
2253	2024-04-03 20:00:00	7	brindisi_sisri	13.4	1	81.86	1	0.0	1	1.47	1	128.49	1	0.0	5	1013.27	1	40.624723	17.975036
2254	2024-04-03 21:00:00	7	brindisi_sisri	12.08	1	78.55	1	0.0	1	1.35	1	132.66	1	0.0	5	1013.46	1	40.624723	17.975036
2255	2024-04-03 22:00:00	7	brindisi_sisri	10.63	1	81.13	1	0.0	1	1.82	1	203.84	1	0.0	5	1013.57	1	40.624723	17.975036
2256	2024-04-03 23:00:00	7	brindisi_sisri	11.56	1	72.44	1	0.0	1	2.27	1	207.97	1	0.0	5	1013.89	1	40.624723	17.975036
2257	2024-04-04 00:00:00	7	brindisi_sisri	10.84	1	76.16	1	0.0	1	1.58	1	203.82	1	0.0	5	1013.9	1	40.624723	17.975036
2258	2024-04-04 01:00:00	7	brindisi_sisri	10.1	1	80.23	1	0.0	1	1.93	1	212.86	1	0.0	5	1013.86	1	40.624723	17.975036
2259	2024-04-04 02:00:00	7	brindisi_sisri	9.88	1	80.98	1	0.0	1	2.46	1	212.19	1	0.0	5	1013.71	1	40.624723	17.975036
2260	2024-04-04 03:00:00	7	brindisi_sisri	9.19	1	81.11	1	0.0	1	1.9	1	201.99	1	0.0	5	1013.7	1	40.624723	17.975036
2261	2024-04-04 04:00:00	7	brindisi_sisri	8.93	1	82.89	1	0.0	1	2.21	1	214.78	1	0.0	5	1013.75	1	40.624723	17.975036
2262	2024-04-04 05:00:00	7	brindisi_sisri	8.3	1	82.3	1	0.0	1	1.48	1	227.86	1	0.0	5	1013.76	1	40.624723	17.975036
2263	2024-04-04 06:00:00	7	brindisi_sisri	8.13	1	82.63	1	0.0	1	1.21	1	254.45	1	22.77	1	1013.86	1	40.624723	17.975036
2264	2024-04-04 07:00:00	7	brindisi_sisri	13.41	1	65.94	1	0.0	1	1.26	1	216.4	1	125.73	1	1014.52	1	40.624723	17.975036
2265	2024-04-04 08:00:00	7	brindisi_sisri	16.1	1	59.65	1	0.0	1	3.63	1	279.91	1	369.94	1	1014.96	1	40.624723	17.975036
2266	2024-04-04 09:00:00	7	brindisi_sisri	17.27	1	61.0	1	0.0	1	5.12	1	290.36	1	535.14	1	1015.59	1	40.624723	17.975036
2267	2024-04-04 10:00:00	7	brindisi_sisri	17.77	1	62.76	1	0.0	1	5.86	1	297.06	1	723.6	1	1015.84	1	40.624723	17.975036
2268	2024-04-04 11:00:00	7	brindisi_sisri	17.73	1	65.7	1	0.0	1	6.03	1	290.69	1	830.9	1	1015.99	1	40.624723	17.975036
2269	2024-04-04 12:00:00	7	brindisi_sisri	18.06	1	67.66	1	0.0	1	5.99	1	299.16	1	880.24	1	1016.16	1	40.624723	17.975036
2270	2024-04-04 13:00:00	7	brindisi_sisri	18.49	1	67.86	1	0.0	1	6.28	1	300.26	1	724.92	1	1016.22	1	40.624723	17.975036
2271	2024-04-04 14:00:00	7	brindisi_sisri	18.39	1	69.72	1	0.0	1	5.7	1	307.66	1	411.94	1	1015.93	1	40.624723	17.975036
2272	2024-04-04 15:00:00	7	brindisi_sisri	18.23	1	71.59	1	0.0	1	4.95	1	298.33	1	197.5	1	1015.82	1	40.624723	17.975036
2273	2024-04-04 16:00:00	7	brindisi_sisri	17.52	1	75.3	1	0.0	1	5.0	1	315.74	1	153.12	1	1015.73	1	40.624723	17.975036
2274	2024-04-04 17:00:00	7	brindisi_sisri	17.08	1	78.56	1	0.0	1	4.17	1	320.68	1	202.77	1	1015.92	1	40.624723	17.975036
2275	2024-04-04 18:00:00	7	brindisi_sisri	16.41	1	78.44	1	0.0	1	3.23	1	322.79	1	119.53	1	1015.99	1	40.624723	17.975036
2276	2024-04-04 19:00:00	7	brindisi_sisri	14.9	1	88.03	1	0.0	1	1.44	1	293.08	1	0.0	5	1016.1	1	40.624723	17.975036
2277	2024-04-04 20:00:00	7	brindisi_sisri	14.24	1	90.9	1	0.0	1	1.14	1	249.02	1	0.0	5	1016.56	1	40.624723	17.975036
2278	2024-04-04 21:00:00	7	brindisi_sisri	12.5	1	93.11	1	0.0	1	0.82	1	225.59	1	0.0	5	1016.92	1	40.624723	17.975036
2279	2024-04-04 22:00:00	7	brindisi_sisri	11.68	1	94.1	1	0.0	1	1.17	1	227.38	1	0.0	5	1017.21	1	40.624723	17.975036
2280	2024-04-04 23:00:00	7	brindisi_sisri	10.92	1	93.68	1	0.0	1	1.13	1	229.95	1	0.0	5	1017.41	1	40.624723	17.975036
2281	2024-04-05 00:00:00	7	brindisi_sisri	9.64	1	92.48	1	0.0	1	1.11	1	188.8	1	0.0	5	1017.58	1	40.624723	17.975036
2282	2024-04-05 01:00:00	7	brindisi_sisri	8.24	1	92.35	1	0.0	1	1.36	1	195.62	1	0.0	5	1017.47	1	40.624723	17.975036
2283	2024-04-05 02:00:00	7	brindisi_sisri	8.04	1	93.37	1	0.0	1	1.24	1	225.21	1	0.0	5	1017.25	1	40.624723	17.975036
2284	2024-04-05 03:00:00	7	brindisi_sisri	8.01	1	92.57	1	0.0	1	1.13	1	224.76	1	0.0	5	1017.45	1	40.624723	17.975036
2285	2024-04-05 04:00:00	7	brindisi_sisri	7.79	1	91.51	1	0.0	1	1.41	1	223.14	1	0.0	5	1017.58	1	40.624723	17.975036
2286	2024-04-05 05:00:00	7	brindisi_sisri	7.35	1	91.72	1	0.0	1	1.35	1	218.12	1	0.0	5	1017.64	1	40.624723	17.975036
2287	2024-04-05 06:00:00	7	brindisi_sisri	7.11	1	92.23	1	0.0	1	1.31	1	217.59	1	22.24	1	1017.91	1	40.624723	17.975036
2288	2024-04-05 07:00:00	7	brindisi_sisri	11.73	1	84.35	1	0.0	1	0.8	1	217.32	1	118.71	1	1018.53	1	40.624723	17.975036
2289	2024-04-05 08:00:00	7	brindisi_sisri	16.81	1	61.43	1	0.0	1	0.91	1	303.06	1	368.18	1	1018.85	1	40.624723	17.975036
2290	2024-04-05 09:00:00	7	brindisi_sisri	18.47	1	51.94	1	0.0	1	2.61	1	314.53	1	562.64	1	1019.43	1	40.624723	17.975036
2291	2024-04-05 10:00:00	7	brindisi_sisri	18.75	1	55.41	1	0.0	1	3.7	1	333.12	1	724.57	1	1019.72	1	40.624723	17.975036
2292	2024-04-05 11:00:00	7	brindisi_sisri	18.27	1	61.05	1	0.0	1	4.03	1	325.7	1	813.93	1	1019.87	1	40.624723	17.975036
2293	2024-04-05 12:00:00	7	brindisi_sisri	18.22	1	69.45	1	0.0	1	3.91	1	316.51	1	852.59	1	1019.9	1	40.624723	17.975036
2294	2024-04-05 13:00:00	7	brindisi_sisri	18.93	1	62.5	1	0.0	1	3.12	1	332.29	1	747.62	1	1019.58	1	40.624723	17.975036
2295	2024-04-05 14:00:00	7	brindisi_sisri	19.38	1	62.04	1	0.0	1	3.45	1	315.08	1	463.35	1	1019.26	1	40.624723	17.975036
2296	2024-04-05 15:00:00	7	brindisi_sisri	19.26	1	62.61	1	0.0	1	3.47	1	316.25	1	295.48	1	1018.92	1	40.624723	17.975036
2297	2024-04-05 16:00:00	7	brindisi_sisri	18.36	1	58.5	1	0.0	1	4.46	1	318.84	1	153.08	1	1018.67	1	40.624723	17.975036
2298	2024-04-05 17:00:00	7	brindisi_sisri	17.98	1	65.6	1	0.0	1	3.9	1	316.07	1	187.37	1	1018.61	1	40.624723	17.975036
2299	2024-04-05 18:00:00	7	brindisi_sisri	17.32	1	64.2	1	0.0	1	2.95	1	318.93	1	112.74	1	1018.68	1	40.624723	17.975036
2300	2024-04-05 19:00:00	7	brindisi_sisri	15.88	1	72.4	1	0.0	1	2.29	1	299.67	1	0.0	5	1018.66	1	40.624723	17.975036
2301	2024-04-05 20:00:00	7	brindisi_sisri	14.86	1	81.53	1	0.0	1	1.7	1	286.14	1	0.0	5	1018.89	1	40.624723	17.975036
2302	2024-04-05 21:00:00	7	brindisi_sisri	14.8	1	68.46	1	0.0	1	1.76	1	268.91	1	0.0	5	1019.02	1	40.624723	17.975036
2303	2024-04-05 22:00:00	7	brindisi_sisri	14.51	1	66.91	1	0.0	1	1.5	1	265.9	1	0.0	5	1019.17	1	40.624723	17.975036
2304	2024-04-05 23:00:00	7	brindisi_sisri	13.1	1	68.66	1	0.0	1	1.33	1	218.16	1	0.0	5	1019.08	1	40.624723	17.975036
2305	2024-04-06 00:00:00	7	brindisi_sisri	11.95	1	72.28	1	0.0	1	1.35	1	235.86	1	0.0	5	1018.96	1	40.624723	17.975036
2306	2024-04-06 01:00:00	7	brindisi_sisri	11.17	1	71.97	1	0.0	1	0.94	1	246.36	1	0.0	5	1018.9	1	40.624723	17.975036
2307	2024-04-06 02:00:00	7	brindisi_sisri	9.79	1	79.52	1	0.0	1	1.05	1	165.23	1	0.0	5	1019.0	1	40.624723	17.975036
2308	2024-04-06 03:00:00	7	brindisi_sisri	9.15	1	83.37	1	0.0	1	1.21	1	194.0	1	0.0	5	1018.83	1	40.624723	17.975036
2309	2024-04-06 04:00:00	7	brindisi_sisri	8.53	1	86.88	1	0.0	1	1.14	1	221.08	1	0.0	5	1018.65	1	40.624723	17.975036
2310	2024-04-06 05:00:00	7	brindisi_sisri	8.57	1	88.46	1	0.0	1	1.38	1	222.33	1	0.0	5	1018.6	1	40.624723	17.975036
2311	2024-04-06 06:00:00	7	brindisi_sisri	8.84	1	88.3	1	0.0	1	1.47	1	228.2	1	25.08	1	1018.92	1	40.624723	17.975036
2312	2024-04-06 07:00:00	7	brindisi_sisri	12.78	1	79.32	1	0.0	1	1.23	1	235.39	1	126.2	1	1019.07	1	40.624723	17.975036
2313	2024-04-06 08:00:00	7	brindisi_sisri	17.31	1	67.04	1	0.0	1	2.08	1	259.47	1	384.39	1	1019.47	1	40.624723	17.975036
2314	2024-04-06 09:00:00	7	brindisi_sisri	18.86	1	58.71	1	0.0	1	2.94	1	300.47	1	571.04	1	1019.83	1	40.624723	17.975036
2315	2024-04-06 10:00:00	7	brindisi_sisri	19.58	1	50.11	1	0.0	1	4.04	1	306.61	1	733.64	1	1019.82	1	40.624723	17.975036
2316	2024-04-06 11:00:00	7	brindisi_sisri	19.57	1	50.89	1	0.0	1	4.11	1	312.83	1	808.76	1	1019.78	1	40.624723	17.975036
2317	2024-04-06 12:00:00	7	brindisi_sisri	20.05	1	52.2	1	0.0	1	4.07	1	299.07	1	886.29	1	1019.66	1	40.624723	17.975036
2318	2024-04-06 13:00:00	7	brindisi_sisri	20.58	1	49.54	1	0.0	1	4.37	1	297.02	1	712.22	1	1019.08	1	40.624723	17.975036
2319	2024-04-06 14:00:00	7	brindisi_sisri	20.66	1	47.03	1	0.0	1	4.6	1	296.99	1	414.59	1	1018.38	1	40.624723	17.975036
2320	2024-04-06 15:00:00	7	brindisi_sisri	20.39	1	46.03	1	0.0	1	4.67	1	300.76	1	237.36	1	1017.84	1	40.624723	17.975036
2321	2024-04-06 16:00:00	7	brindisi_sisri	20.29	1	45.1	1	0.0	1	4.68	1	300.08	1	152.09	1	1017.52	1	40.624723	17.975036
2322	2024-04-06 17:00:00	7	brindisi_sisri	20.18	1	45.56	1	0.0	1	4.32	1	298.83	1	204.69	1	1017.33	1	40.624723	17.975036
2323	2024-04-06 18:00:00	7	brindisi_sisri	18.98	1	51.64	1	0.0	1	2.93	1	298.49	1	104.96	1	1017.25	1	40.624723	17.975036
2324	2024-04-06 19:00:00	7	brindisi_sisri	16.73	1	63.16	1	0.0	1	2.09	1	277.63	1	0.0	5	1017.18	1	40.624723	17.975036
2325	2024-04-06 20:00:00	7	brindisi_sisri	15.86	1	62.0	1	0.0	1	1.76	1	275.55	1	0.0	5	1017.42	1	40.624723	17.975036
2326	2024-04-06 21:00:00	7	brindisi_sisri	15.38	1	59.79	1	0.0	1	1.73	1	282.13	1	0.0	5	1017.71	1	40.624723	17.975036
2327	2024-04-06 22:00:00	7	brindisi_sisri	14.76	1	64.24	1	0.0	1	1.48	1	260.31	1	0.0	5	1017.6	1	40.624723	17.975036
2328	2024-04-06 23:00:00	7	brindisi_sisri	12.11	1	68.71	1	0.0	1	1.3	1	214.29	1	0.0	5	1017.5	1	40.624723	17.975036
2329	2024-04-07 00:00:00	7	brindisi_sisri	11.18	1	73.05	1	0.0	1	0.97	1	240.88	1	0.0	5	1017.22	1	40.624723	17.975036
2330	2024-04-07 01:00:00	7	brindisi_sisri	10.97	1	72.48	1	0.0	1	1.33	1	230.36	1	0.0	5	1017.02	1	40.624723	17.975036
2331	2024-04-07 02:00:00	7	brindisi_sisri	10.34	1	75.63	1	0.0	1	1.41	1	229.33	1	0.0	5	1016.55	1	40.624723	17.975036
2332	2024-04-07 03:00:00	7	brindisi_sisri	10.12	1	77.11	1	0.0	1	1.06	1	246.73	1	0.0	5	1016.21	1	40.624723	17.975036
2333	2024-04-07 04:00:00	7	brindisi_sisri	11.17	1	73.0	1	0.0	1	1.4	1	259.94	1	0.0	5	1015.81	1	40.624723	17.975036
2334	2024-04-07 05:00:00	7	brindisi_sisri	12.33	1	67.97	1	0.0	1	1.43	1	248.14	1	0.0	5	1015.68	1	40.624723	17.975036
2335	2024-04-07 06:00:00	7	brindisi_sisri	12.88	1	70.94	1	0.0	1	2.04	1	276.37	1	25.71	1	1015.73	1	40.624723	17.975036
2336	2024-04-07 07:00:00	7	brindisi_sisri	15.86	1	70.49	1	0.0	1	2.74	1	281.05	1	121.57	1	1015.8	1	40.624723	17.975036
2337	2024-04-07 08:00:00	7	brindisi_sisri	17.72	1	67.2	1	0.0	1	5.28	1	297.37	1	376.98	1	1015.9	1	40.624723	17.975036
2338	2024-04-07 09:00:00	7	brindisi_sisri	18.62	1	64.85	1	0.0	1	6.27	1	296.29	1	570.9	1	1015.91	1	40.624723	17.975036
2339	2024-04-07 10:00:00	7	brindisi_sisri	19.15	1	63.7	1	0.0	1	7.13	1	296.86	1	726.03	1	1015.83	1	40.624723	17.975036
2340	2024-04-07 11:00:00	7	brindisi_sisri	19.26	1	61.65	1	0.0	1	7.19	1	291.63	1	829.59	1	1015.89	1	40.624723	17.975036
2341	2024-04-07 12:00:00	7	brindisi_sisri	19.45	1	62.8	1	0.0	1	7.32	1	291.7	1	883.97	1	1015.42	1	40.624723	17.975036
2342	2024-04-07 13:00:00	7	brindisi_sisri	19.81	1	61.23	1	0.0	1	6.77	1	295.01	1	698.39	1	1014.95	1	40.624723	17.975036
2343	2024-04-07 14:00:00	7	brindisi_sisri	19.77	1	59.6	1	0.0	1	7.26	1	297.17	1	329.16	1	1014.34	1	40.624723	17.975036
2344	2024-04-07 15:00:00	7	brindisi_sisri	19.61	1	61.56	1	0.0	1	7.13	1	300.38	1	286.95	1	1013.83	1	40.624723	17.975036
2345	2024-04-07 16:00:00	7	brindisi_sisri	19.35	1	60.74	1	0.0	1	6.82	1	295.75	1	166.66	1	1013.37	1	40.624723	17.975036
2346	2024-04-07 17:00:00	7	brindisi_sisri	19.04	1	61.98	1	0.0	1	6.72	1	301.25	1	220.0	1	1013.2	1	40.624723	17.975036
2347	2024-04-07 18:00:00	7	brindisi_sisri	18.04	1	68.75	1	0.0	1	5.56	1	297.47	1	134.69	1	1012.98	1	40.624723	17.975036
2348	2024-04-07 19:00:00	7	brindisi_sisri	16.59	1	74.99	1	0.0	1	4.93	1	298.11	1	8.68	1	1012.96	1	40.624723	17.975036
2349	2024-04-07 20:00:00	7	brindisi_sisri	16.32	1	75.47	1	0.0	1	5.45	1	303.0	1	0.0	5	1013.34	1	40.624723	17.975036
2350	2024-04-07 21:00:00	7	brindisi_sisri	16.37	1	74.13	1	0.0	1	6.15	1	298.54	1	0.0	5	1013.48	1	40.624723	17.975036
2351	2024-04-07 22:00:00	7	brindisi_sisri	16.96	1	65.35	1	0.0	1	5.54	1	294.31	1	0.0	5	1013.5	1	40.624723	17.975036
2352	2024-04-07 23:00:00	7	brindisi_sisri	17.19	1	64.36	1	0.0	1	6.15	1	289.85	1	0.0	5	1013.38	1	40.624723	17.975036
2353	2024-04-08 00:00:00	7	brindisi_sisri	16.96	1	67.31	1	0.0	1	4.9	1	311.64	1	0.0	5	1013.67	1	40.624723	17.975036
2354	2024-04-08 01:00:00	7	brindisi_sisri	16.19	1	79.12	1	0.0	1	3.36	1	320.72	1	0.0	5	1013.94	1	40.624723	17.975036
2355	2024-04-08 02:00:00	7	brindisi_sisri	15.64	1	85.91	1	0.0	1	3.1	1	309.81	1	0.0	5	1013.67	1	40.624723	17.975036
2356	2024-04-08 03:00:00	7	brindisi_sisri	15.46	1	84.77	1	0.0	1	3.04	1	313.31	1	0.0	5	1013.4	1	40.624723	17.975036
2357	2024-04-08 04:00:00	7	brindisi_sisri	15.1	1	86.06	1	0.0	1	2.6	1	305.35	1	0.0	5	1013.64	1	40.624723	17.975036
2358	2024-04-08 05:00:00	7	brindisi_sisri	14.59	1	86.26	1	0.0	1	1.61	1	302.02	1	0.0	5	1014.19	1	40.624723	17.975036
2359	2024-04-08 06:00:00	7	brindisi_sisri	12.96	1	87.37	1	0.0	1	1.13	1	226.87	1	27.2	1	1014.33	1	40.624723	17.975036
2360	2024-04-08 07:00:00	7	brindisi_sisri	15.91	1	82.65	1	0.0	1	0.61	1	199.38	1	120.74	1	1014.54	1	40.624723	17.975036
2361	2024-04-08 08:00:00	7	brindisi_sisri	19.89	1	66.39	1	0.0	1	0.94	1	295.14	1	382.14	1	1014.84	1	40.624723	17.975036
2362	2024-04-08 09:00:00	7	brindisi_sisri	22.39	1	57.81	1	0.0	1	0.91	1	125.53	1	564.3	1	1015.17	1	40.624723	17.975036
2363	2024-04-08 10:00:00	7	brindisi_sisri	21.79	1	61.6	1	0.0	1	2.59	1	61.61	1	720.96	1	1015.41	1	40.624723	17.975036
2364	2024-04-08 11:00:00	7	brindisi_sisri	20.47	1	69.6	1	0.0	1	3.27	1	73.38	1	830.3	1	1015.18	1	40.624723	17.975036
2365	2024-04-08 12:00:00	7	brindisi_sisri	21.63	1	69.02	1	0.0	1	3.67	1	65.7	1	888.37	1	1014.66	1	40.624723	17.975036
2366	2024-04-08 13:00:00	7	brindisi_sisri	23.16	1	61.14	1	0.0	1	4.21	1	86.64	1	840.58	1	1014.23	1	40.624723	17.975036
2367	2024-04-08 14:00:00	7	brindisi_sisri	25.54	1	40.23	1	0.0	1	4.54	1	161.69	1	475.19	1	1013.75	1	40.624723	17.975036
2368	2024-04-08 15:00:00	7	brindisi_sisri	25.21	1	38.78	1	0.0	1	4.72	1	163.81	1	237.65	1	1013.42	1	40.624723	17.975036
2369	2024-04-08 16:00:00	7	brindisi_sisri	25.13	1	37.52	1	0.0	1	4.84	1	178.69	1	200.53	1	1013.16	1	40.624723	17.975036
2370	2024-04-08 17:00:00	7	brindisi_sisri	24.89	1	37.24	1	0.0	1	4.64	1	181.08	1	202.0	1	1013.1	1	40.624723	17.975036
2371	2024-04-08 18:00:00	7	brindisi_sisri	22.38	1	44.03	1	0.0	1	2.96	1	172.93	1	93.6	1	1013.15	1	40.624723	17.975036
2372	2024-04-08 19:00:00	7	brindisi_sisri	17.89	1	59.31	1	0.0	1	2.18	1	179.3	1	0.0	5	1013.16	1	40.624723	17.975036
2373	2024-04-08 20:00:00	7	brindisi_sisri	15.92	1	67.5	1	0.0	1	2.42	1	189.68	1	0.0	5	1013.4	1	40.624723	17.975036
2374	2024-04-08 21:00:00	7	brindisi_sisri	15.25	1	74.78	1	0.0	1	2.69	1	190.35	1	0.0	5	1013.66	1	40.624723	17.975036
2375	2024-04-08 22:00:00	7	brindisi_sisri	14.18	1	84.5	1	0.0	1	2.35	1	175.88	1	0.0	5	1013.87	1	40.624723	17.975036
2376	2024-04-08 23:00:00	7	brindisi_sisri	13.44	1	89.86	1	0.0	1	2.61	1	168.18	1	0.0	5	1013.91	1	40.624723	17.975036
2377	2024-04-09 00:00:00	7	brindisi_sisri	13.33	1	93.08	1	0.0	1	3.11	1	160.65	1	0.0	5	1013.8	1	40.624723	17.975036
2378	2024-04-09 01:00:00	7	brindisi_sisri	12.74	1	92.27	1	0.0	1	2.64	1	172.1	1	0.0	5	1013.58	1	40.624723	17.975036
2379	2024-04-09 02:00:00	7	brindisi_sisri	12.14	1	92.46	1	0.0	1	2.42	1	173.31	1	0.0	5	1013.38	1	40.624723	17.975036
2380	2024-04-09 03:00:00	7	brindisi_sisri	11.45	1	93.34	1	0.0	1	2.36	1	164.33	1	0.0	5	1013.05	1	40.624723	17.975036
2381	2024-04-09 04:00:00	7	brindisi_sisri	10.74	1	94.75	1	0.0	1	1.75	1	165.03	1	0.0	5	1013.02	1	40.624723	17.975036
2382	2024-04-09 05:00:00	7	brindisi_sisri	10.19	1	95.69	1	0.0	1	1.73	1	163.84	1	0.0	5	1012.96	1	40.624723	17.975036
2383	2024-04-09 06:00:00	7	brindisi_sisri	10.07	1	95.73	1	0.0	1	1.74	1	177.53	1	27.77	1	1013.28	1	40.624723	17.975036
2384	2024-04-09 07:00:00	7	brindisi_sisri	13.32	1	89.39	1	0.0	1	1.68	1	128.57	1	128.6	1	1013.43	1	40.624723	17.975036
2385	2024-04-09 08:00:00	7	brindisi_sisri	18.01	1	69.28	1	0.0	1	2.35	1	125.89	1	410.77	1	1013.44	1	40.624723	17.975036
2386	2024-04-09 09:00:00	7	brindisi_sisri	21.18	1	49.55	1	0.0	1	4.23	1	148.98	1	614.7	1	1013.44	1	40.624723	17.975036
2387	2024-04-09 10:00:00	7	brindisi_sisri	23.23	1	35.8	1	0.0	1	5.12	1	146.72	1	736.77	1	1013.39	1	40.624723	17.975036
2388	2024-04-09 11:00:00	7	brindisi_sisri	24.35	1	29.54	1	0.0	1	5.51	1	152.32	1	791.65	1	1013.19	1	40.624723	17.975036
2389	2024-04-09 12:00:00	7	brindisi_sisri	25.27	1	27.04	1	0.0	1	6.1	1	159.64	1	903.92	1	1013.02	1	40.624723	17.975036
2390	2024-04-09 13:00:00	7	brindisi_sisri	26.25	1	24.73	1	0.0	1	6.15	1	175.63	1	775.67	1	1012.64	1	40.624723	17.975036
2391	2024-04-09 14:00:00	7	brindisi_sisri	25.84	1	25.49	1	0.0	1	6.39	1	167.28	1	501.63	1	1012.1	1	40.624723	17.975036
2392	2024-04-09 15:00:00	7	brindisi_sisri	25.47	1	25.35	1	0.0	1	6.67	1	170.16	1	272.21	1	1011.65	1	40.624723	17.975036
2393	2024-04-09 16:00:00	7	brindisi_sisri	25.0	1	28.31	1	0.0	1	5.95	1	169.46	1	221.87	1	1011.31	1	40.624723	17.975036
2394	2024-04-09 17:00:00	7	brindisi_sisri	23.78	1	32.16	1	0.0	1	6.32	1	168.27	1	229.82	1	1011.19	1	40.624723	17.975036
2395	2024-04-09 18:00:00	7	brindisi_sisri	22.1	1	35.99	1	0.0	1	4.58	1	174.39	1	130.3	1	1011.22	1	40.624723	17.975036
2396	2024-04-09 19:00:00	7	brindisi_sisri	18.05	1	51.22	1	0.0	1	3.22	1	172.02	1	5.41	1	1011.41	1	40.624723	17.975036
2397	2024-04-09 20:00:00	7	brindisi_sisri	15.28	1	66.21	1	0.0	1	2.68	1	173.43	1	0.0	5	1011.61	1	40.624723	17.975036
2398	2024-04-09 21:00:00	7	brindisi_sisri	14.06	1	76.38	1	0.0	1	3.43	1	165.97	1	0.0	5	1011.71	1	40.624723	17.975036
2399	2024-04-09 22:00:00	7	brindisi_sisri	14.06	1	76.55	1	0.0	1	3.4	1	169.51	1	0.0	5	1011.59	1	40.624723	17.975036
2400	2024-04-09 23:00:00	7	brindisi_sisri	13.51	1	78.08	1	0.0	1	1.94	1	115.25	1	0.0	5	1011.77	1	40.624723	17.975036
2401	2024-04-10 00:00:00	7	brindisi_sisri	13.34	1	78.25	1	0.0	1	2.43	1	117.45	1	0.0	5	1011.55	1	40.624723	17.975036
2402	2024-04-10 01:00:00	7	brindisi_sisri	12.26	1	81.25	1	0.0	1	2.51	1	111.34	1	0.0	5	1011.07	1	40.624723	17.975036
2403	2024-04-10 02:00:00	7	brindisi_sisri	11.2	1	82.3	1	0.0	1	2.05	1	135.22	1	0.0	5	1010.76	1	40.624723	17.975036
2404	2024-04-10 03:00:00	7	brindisi_sisri	11.28	1	85.15	1	0.0	1	1.9	1	105.73	1	0.0	5	1010.68	1	40.624723	17.975036
2405	2024-04-10 04:00:00	7	brindisi_sisri	11.86	1	91.07	1	0.0	1	1.64	1	108.71	1	0.0	5	1010.39	1	40.624723	17.975036
2406	2024-04-10 05:00:00	7	brindisi_sisri	12.08	1	95.13	1	0.0	1	1.84	1	103.69	1	0.0	5	1010.37	1	40.624723	17.975036
2407	2024-04-10 06:00:00	7	brindisi_sisri	13.4	1	97.33	1	0.0	1	1.83	1	126.26	1	26.33	1	1010.5	1	40.624723	17.975036
2408	2024-04-10 07:00:00	7	brindisi_sisri	14.79	1	96.73	1	0.0	1	2.4	1	126.75	1	120.02	1	1010.8	1	40.624723	17.975036
2409	2024-04-10 08:00:00	7	brindisi_sisri	16.51	1	90.98	1	0.0	1	3.06	1	133.53	1	209.55	1	1010.83	1	40.624723	17.975036
2410	2024-04-10 09:00:00	7	brindisi_sisri	17.64	1	84.7	1	0.0	1	4.41	1	147.16	1	350.21	1	1011.03	1	40.624723	17.975036
2411	2024-04-10 10:00:00	7	brindisi_sisri	20.0	1	74.81	1	0.0	1	4.68	1	145.37	1	562.12	1	1011.29	1	40.624723	17.975036
2412	2024-04-10 11:00:00	7	brindisi_sisri	22.27	1	60.65	1	0.0	1	4.62	1	151.52	1	736.82	1	1011.26	1	40.624723	17.975036
2413	2024-04-10 12:00:00	7	brindisi_sisri	23.95	1	50.87	1	0.0	1	3.72	1	157.54	1	722.58	1	1010.99	1	40.624723	17.975036
2414	2024-04-10 13:00:00	7	brindisi_sisri	25.97	1	42.55	1	0.0	1	2.6	1	181.64	1	602.39	1	1011.02	1	40.624723	17.975036
2415	2024-04-10 14:00:00	7	brindisi_sisri	24.17	1	57.52	1	0.0	1	3.61	1	71.13	1	469.85	1	1010.9	1	40.624723	17.975036
2416	2024-04-10 15:00:00	7	brindisi_sisri	23.15	1	59.51	1	0.0	1	3.65	1	295.52	1	306.3	1	1010.97	1	40.624723	17.975036
2417	2024-04-10 16:00:00	7	brindisi_sisri	22.0	1	62.48	1	0.0	1	3.72	1	305.79	1	217.13	1	1011.37	1	40.624723	17.975036
2418	2024-04-10 17:00:00	7	brindisi_sisri	20.78	1	65.74	1	0.0	1	2.96	1	311.74	1	192.7	1	1011.74	1	40.624723	17.975036
2419	2024-04-10 18:00:00	7	brindisi_sisri	20.88	1	51.1	1	0.0	1	2.96	1	296.73	1	137.93	1	1012.13	1	40.624723	17.975036
2420	2024-04-10 19:00:00	7	brindisi_sisri	18.89	1	58.89	1	0.0	1	2.41	1	298.34	1	7.62	1	1012.84	1	40.624723	17.975036
2421	2024-04-10 20:00:00	7	brindisi_sisri	17.81	1	65.74	1	0.0	1	2.46	1	296.98	1	0.0	5	1013.81	1	40.624723	17.975036
2422	2024-04-10 21:00:00	7	brindisi_sisri	17.44	1	70.27	1	0.0	1	2.99	1	308.11	1	0.0	5	1014.42	1	40.624723	17.975036
2423	2024-04-10 22:00:00	7	brindisi_sisri	17.44	1	69.22	1	0.0	1	3.91	1	313.95	1	0.0	5	1014.68	1	40.624723	17.975036
2424	2024-04-10 23:00:00	7	brindisi_sisri	16.96	1	72.34	1	0.0	1	3.55	1	307.01	1	0.0	5	1014.92	1	40.624723	17.975036
2425	2024-04-11 00:00:00	7	brindisi_sisri	16.33	1	75.1	1	0.0	1	3.84	1	297.34	1	0.0	5	1015.15	1	40.624723	17.975036
2426	2024-04-11 01:00:00	7	brindisi_sisri	16.15	1	69.53	1	0.0	1	4.1	1	288.36	1	0.0	5	1015.18	1	40.624723	17.975036
2427	2024-04-11 02:00:00	7	brindisi_sisri	15.81	1	69.74	1	0.0	1	4.7	1	299.4	1	0.0	5	1015.04	1	40.624723	17.975036
2428	2024-04-11 03:00:00	7	brindisi_sisri	15.69	1	76.07	1	0.0	1	5.14	1	306.36	1	0.0	5	1015.09	1	40.624723	17.975036
2429	2024-04-11 04:00:00	7	brindisi_sisri	15.55	1	74.21	1	0.0	1	5.66	1	297.37	1	0.0	5	1014.88	1	40.624723	17.975036
2430	2024-04-11 05:00:00	7	brindisi_sisri	15.52	1	70.71	1	0.0	1	5.75	1	296.86	1	0.0	5	1015.15	1	40.624723	17.975036
2431	2024-04-11 06:00:00	7	brindisi_sisri	15.6	1	77.96	1	0.0	1	5.49	1	300.39	1	17.14	1	1015.74	1	40.624723	17.975036
2432	2024-04-11 07:00:00	7	brindisi_sisri	16.47	1	86.35	1	0.0	1	5.21	1	306.74	1	114.51	1	1016.35	1	40.624723	17.975036
2433	2024-04-11 08:00:00	7	brindisi_sisri	17.57	1	76.0	1	0.0	1	6.78	1	302.47	1	390.12	1	1016.54	1	40.624723	17.975036
2434	2024-04-11 09:00:00	7	brindisi_sisri	18.36	1	72.12	1	0.0	1	6.78	1	302.51	1	551.26	1	1017.07	1	40.624723	17.975036
2435	2024-04-11 10:00:00	7	brindisi_sisri	18.68	1	74.63	1	0.0	1	7.03	1	298.35	1	614.92	1	1017.66	1	40.624723	17.975036
2436	2024-04-11 11:00:00	7	brindisi_sisri	18.66	1	76.02	1	0.0	1	7.06	1	297.81	1	605.09	1	1017.97	1	40.624723	17.975036
2437	2024-04-11 12:00:00	7	brindisi_sisri	18.45	1	78.54	1	0.0	1	6.71	1	300.21	1	496.09	1	1018.01	1	40.624723	17.975036
2438	2024-04-11 13:00:00	7	brindisi_sisri	17.87	1	76.48	1	0.0	1	7.01	1	297.64	1	367.58	1	1018.0	1	40.624723	17.975036
2439	2024-04-11 14:00:00	7	brindisi_sisri	17.83	1	81.51	1	0.0	1	6.94	1	295.4	1	320.96	1	1017.76	1	40.624723	17.975036
2440	2024-04-11 15:00:00	7	brindisi_sisri	18.31	1	76.99	1	0.0	1	6.07	1	288.49	1	332.18	1	1017.58	1	40.624723	17.975036
2441	2024-04-11 16:00:00	7	brindisi_sisri	18.48	1	75.3	1	0.0	1	6.42	1	285.62	1	255.18	1	1017.54	1	40.624723	17.975036
2442	2024-04-11 17:00:00	7	brindisi_sisri	18.41	1	75.5	1	0.0	1	6.46	1	296.5	1	240.67	1	1017.54	1	40.624723	17.975036
2443	2024-04-11 18:00:00	7	brindisi_sisri	17.41	1	80.04	1	0.0	1	5.26	1	287.07	1	54.49	1	1017.64	1	40.624723	17.975036
2444	2024-04-11 19:00:00	7	brindisi_sisri	16.54	1	86.86	1	0.0	1	5.23	1	290.15	1	5.46	1	1017.88	1	40.624723	17.975036
2445	2024-04-11 20:00:00	7	brindisi_sisri	16.28	1	87.37	1	0.0	1	6.1	1	295.98	1	0.0	5	1018.38	1	40.624723	17.975036
2446	2024-04-11 21:00:00	7	brindisi_sisri	16.17	1	87.35	1	0.0	1	5.25	1	292.99	1	0.0	5	1018.89	1	40.624723	17.975036
2447	2024-04-11 22:00:00	7	brindisi_sisri	16.17	1	86.22	1	0.0	1	5.21	1	291.69	1	0.0	5	1019.17	1	40.624723	17.975036
2448	2024-04-11 23:00:00	7	brindisi_sisri	16.29	1	84.71	1	0.0	1	5.75	1	292.94	1	0.0	5	1019.63	1	40.624723	17.975036
2449	2024-04-12 00:00:00	7	brindisi_sisri	16.32	1	83.49	1	0.0	1	5.65	1	290.15	1	0.0	5	1019.71	1	40.624723	17.975036
2450	2024-04-12 01:00:00	7	brindisi_sisri	16.18	1	83.4	1	0.0	1	5.12	1	292.6	1	0.0	5	1019.5	1	40.624723	17.975036
2451	2024-04-12 02:00:00	7	brindisi_sisri	16.14	1	74.37	1	0.0	1	5.54	1	293.01	1	0.0	5	1019.23	1	40.624723	17.975036
2452	2024-04-12 03:00:00	7	brindisi_sisri	15.92	1	75.85	1	0.0	1	5.79	1	288.01	1	0.0	5	1019.17	1	40.624723	17.975036
2453	2024-04-12 04:00:00	7	brindisi_sisri	15.57	1	78.44	1	0.0	1	6.18	1	296.89	1	0.0	5	1019.27	1	40.624723	17.975036
2454	2024-04-12 05:00:00	7	brindisi_sisri	15.36	1	80.38	1	0.0	1	6.95	1	297.58	1	0.0	5	1019.38	1	40.624723	17.975036
2455	2024-04-12 06:00:00	7	brindisi_sisri	15.48	1	80.7	1	0.0	1	6.56	1	297.34	1	35.09	1	1019.6	1	40.624723	17.975036
2456	2024-04-12 07:00:00	7	brindisi_sisri	16.47	1	78.95	1	0.0	1	6.65	1	298.44	1	133.38	1	1019.96	1	40.624723	17.975036
2457	2024-04-12 08:00:00	7	brindisi_sisri	17.51	1	76.24	1	0.0	1	7.01	1	301.45	1	389.95	1	1020.3	1	40.624723	17.975036
2458	2024-04-12 09:00:00	7	brindisi_sisri	18.36	1	74.29	1	0.0	1	7.51	1	298.47	1	583.52	1	1020.57	1	40.624723	17.975036
2459	2024-04-12 10:00:00	7	brindisi_sisri	19.06	1	72.97	1	0.0	1	7.52	1	297.54	1	727.12	1	1020.75	1	40.624723	17.975036
2460	2024-04-12 11:00:00	7	brindisi_sisri	19.52	1	70.91	1	0.0	1	7.22	1	296.91	1	830.68	1	1020.78	1	40.624723	17.975036
2461	2024-04-12 12:00:00	7	brindisi_sisri	19.81	1	69.22	1	0.0	1	7.82	1	299.33	1	879.71	1	1020.61	1	40.624723	17.975036
2462	2024-04-12 13:00:00	7	brindisi_sisri	20.32	1	69.18	1	0.0	1	7.74	1	296.16	1	741.46	1	1020.52	1	40.624723	17.975036
2463	2024-04-12 14:00:00	7	brindisi_sisri	20.35	1	69.05	1	0.0	1	8.21	1	300.26	1	445.66	1	1020.06	1	40.624723	17.975036
2464	2024-04-12 15:00:00	7	brindisi_sisri	19.87	1	71.47	1	0.0	1	7.85	1	299.07	1	365.25	1	1019.54	1	40.624723	17.975036
2465	2024-04-12 16:00:00	7	brindisi_sisri	19.55	1	72.5	1	0.0	1	7.27	1	298.58	1	193.02	1	1019.27	1	40.624723	17.975036
2466	2024-04-12 17:00:00	7	brindisi_sisri	19.23	1	72.4	1	0.0	1	6.96	1	299.02	1	239.68	1	1019.03	1	40.624723	17.975036
2467	2024-04-12 18:00:00	7	brindisi_sisri	18.31	1	75.61	1	0.0	1	6.1	1	299.0	1	134.48	1	1018.87	1	40.624723	17.975036
2468	2024-04-12 19:00:00	7	brindisi_sisri	17.02	1	83.01	1	0.0	1	4.33	1	287.78	1	9.72	1	1018.92	1	40.624723	17.975036
2469	2024-04-12 20:00:00	7	brindisi_sisri	16.64	1	84.61	1	0.0	1	4.71	1	290.7	1	0.0	5	1019.18	1	40.624723	17.975036
2470	2024-04-12 21:00:00	7	brindisi_sisri	16.47	1	86.08	1	0.0	1	4.96	1	289.81	1	0.0	5	1019.45	1	40.624723	17.975036
2471	2024-04-12 22:00:00	7	brindisi_sisri	16.6	1	80.84	1	0.0	1	5.07	1	286.59	1	0.0	5	1019.69	1	40.624723	17.975036
2472	2024-04-12 23:00:00	7	brindisi_sisri	16.76	1	76.12	1	0.0	1	5.37	1	286.44	1	0.0	5	1019.87	1	40.624723	17.975036
2473	2024-04-13 00:00:00	7	brindisi_sisri	16.93	1	73.47	1	0.0	1	5.9	1	283.57	1	0.0	5	1019.92	1	40.624723	17.975036
2474	2024-04-13 01:00:00	7	brindisi_sisri	17.21	1	69.03	1	0.0	1	5.86	1	284.68	1	0.0	5	1019.79	1	40.624723	17.975036
2475	2024-04-13 02:00:00	7	brindisi_sisri	17.45	1	65.43	1	0.0	1	5.39	1	285.1	1	0.0	5	1019.48	1	40.624723	17.975036
2476	2024-04-13 03:00:00	7	brindisi_sisri	17.75	1	62.22	1	0.0	1	4.85	1	287.07	1	0.0	5	1019.42	1	40.624723	17.975036
2477	2024-04-13 04:00:00	7	brindisi_sisri	17.81	1	61.48	1	0.0	1	4.82	1	287.6	1	0.0	5	1019.34	1	40.624723	17.975036
2478	2024-04-13 05:00:00	7	brindisi_sisri	17.9	1	59.38	1	0.0	1	5.42	1	288.7	1	0.0	5	1019.22	1	40.624723	17.975036
2479	2024-04-13 06:00:00	7	brindisi_sisri	17.43	1	64.26	1	0.0	1	5.08	1	298.73	1	35.9	1	1019.55	1	40.624723	17.975036
2480	2024-04-13 07:00:00	7	brindisi_sisri	17.95	1	63.72	1	0.0	1	6.59	1	298.96	1	133.33	1	1019.93	1	40.624723	17.975036
2481	2024-04-13 08:00:00	7	brindisi_sisri	19.11	1	59.23	1	0.0	1	6.31	1	296.5	1	388.73	1	1020.4	1	40.624723	17.975036
2482	2024-04-13 09:00:00	7	brindisi_sisri	19.89	1	56.95	1	0.0	1	6.98	1	295.7	1	577.98	1	1020.78	1	40.624723	17.975036
2483	2024-04-13 10:00:00	7	brindisi_sisri	20.38	1	56.58	1	0.0	1	7.5	1	295.47	1	720.46	1	1020.82	1	40.624723	17.975036
2484	2024-04-13 11:00:00	7	brindisi_sisri	20.27	1	58.41	1	0.0	1	8.48	1	296.63	1	821.53	1	1020.91	1	40.624723	17.975036
2485	2024-04-13 12:00:00	7	brindisi_sisri	20.51	1	59.51	1	0.0	1	7.7	1	295.73	1	872.15	1	1020.77	1	40.624723	17.975036
2486	2024-04-13 13:00:00	7	brindisi_sisri	21.04	1	60.99	1	0.0	1	6.93	1	296.66	1	739.54	1	1020.43	1	40.624723	17.975036
2487	2024-04-13 14:00:00	7	brindisi_sisri	null	6	null	6	null	6	null	6	null	6	null	6	null	6	40.624723	17.975036
2488	2024-04-13 15:00:00	7	brindisi_sisri	null	6	null	6	null	6	null	6	null	6	null	6	null	6	40.624723	17.975036
2489	2024-04-13 16:00:00	7	brindisi_sisri	null	6	null	6	null	6	null	6	null	6	null	6	null	6	40.624723	17.975036
2490	2024-04-13 17:00:00	7	brindisi_sisri	null	6	null	6	null	6	null	6	null	6	null	6	null	6	40.624723	17.975036
2491	2024-04-13 18:00:00	7	brindisi_sisri	null	6	null	6	null	6	null	6	null	6	null	6	null	6	40.624723	17.975036
2492	2024-04-13 19:00:00	7	brindisi_sisri	null	6	null	6	null	6	null	6	null	6	null	6	null	6	40.624723	17.975036
2493	2024-04-13 20:00:00	7	brindisi_sisri	null	6	null	6	null	6	null	6	null	6	null	6	null	6	40.624723	17.975036
2494	2024-04-13 21:00:00	7	brindisi_sisri	null	6	null	6	null	6	null	6	null	6	null	6	null	6	40.624723	17.975036
2495	2024-04-13 22:00:00	7	brindisi_sisri	null	6	null	6	null	6	null	6	null	6	null	6	null	6	40.624723	17.975036
2496	2024-04-13 23:00:00	7	brindisi_sisri	null	6	null	6	null	6	null	6	null	6	null	6	null	6	40.624723	17.975036
2497	2024-04-14 00:00:00	7	brindisi_sisri	null	6	null	6	null	6	null	6	null	6	null	6	null	6	40.624723	17.975036
2498	2024-04-14 01:00:00	7	brindisi_sisri	null	6	null	6	null	6	null	6	null	6	null	6	null	6	40.624723	17.975036
2499	2024-04-14 02:00:00	7	brindisi_sisri	null	6	null	6	null	6	null	6	null	6	null	6	null	6	40.624723	17.975036
2500	2024-04-14 03:00:00	7	brindisi_sisri	null	6	null	6	null	6	null	6	null	6	null	6	null	6	40.624723	17.975036
2501	2024-04-14 04:00:00	7	brindisi_sisri	null	6	null	6	null	6	null	6	null	6	null	6	null	6	40.624723	17.975036
2502	2024-04-14 05:00:00	7	brindisi_sisri	null	6	null	6	null	6	null	6	null	6	null	6	null	6	40.624723	17.975036
2503	2024-04-14 06:00:00	7	brindisi_sisri	null	6	null	6	null	6	null	6	null	6	null	6	null	6	40.624723	17.975036
2504	2024-04-14 07:00:00	7	brindisi_sisri	null	6	null	6	null	6	null	6	null	6	null	6	null	6	40.624723	17.975036
2505	2024-04-14 08:00:00	7	brindisi_sisri	null	6	null	6	null	6	null	6	null	6	null	6	null	6	40.624723	17.975036
2506	2024-04-14 09:00:00	7	brindisi_sisri	null	6	null	6	null	6	null	6	null	6	null	6	null	6	40.624723	17.975036
2507	2024-04-14 10:00:00	7	brindisi_sisri	null	6	null	6	null	6	null	6	null	6	null	6	null	6	40.624723	17.975036
2508	2024-04-14 11:00:00	7	brindisi_sisri	null	6	null	6	null	6	null	6	null	6	null	6	null	6	40.624723	17.975036
2509	2024-04-14 12:00:00	7	brindisi_sisri	null	6	null	6	null	6	null	6	null	6	null	6	null	6	40.624723	17.975036
2510	2024-04-14 13:00:00	7	brindisi_sisri	null	6	null	6	null	6	null	6	null	6	null	6	null	6	40.624723	17.975036
2511	2024-04-14 14:00:00	7	brindisi_sisri	null	6	null	6	null	6	null	6	null	6	null	6	null	6	40.624723	17.975036
2512	2024-04-14 15:00:00	7	brindisi_sisri	null	6	null	6	null	6	null	6	null	6	null	6	null	6	40.624723	17.975036
2513	2024-04-14 16:00:00	7	brindisi_sisri	null	6	null	6	null	6	null	6	null	6	null	6	null	6	40.624723	17.975036
2514	2024-04-14 17:00:00	7	brindisi_sisri	null	6	null	6	null	6	null	6	null	6	null	6	null	6	40.624723	17.975036
2515	2024-04-14 18:00:00	7	brindisi_sisri	null	6	null	6	null	6	null	6	null	6	null	6	null	6	40.624723	17.975036
2516	2024-04-14 19:00:00	7	brindisi_sisri	null	6	null	6	null	6	null	6	null	6	null	6	null	6	40.624723	17.975036
2517	2024-04-14 20:00:00	7	brindisi_sisri	null	6	null	6	null	6	null	6	null	6	null	6	null	6	40.624723	17.975036
2518	2024-04-14 21:00:00	7	brindisi_sisri	null	6	null	6	null	6	null	6	null	6	null	6	null	6	40.624723	17.975036
2519	2024-04-14 22:00:00	7	brindisi_sisri	null	6	null	6	null	6	null	6	null	6	null	6	null	6	40.624723	17.975036
2520	2024-04-14 23:00:00	7	brindisi_sisri	null	6	null	6	null	6	null	6	null	6	null	6	null	6	40.624723	17.975036
2521	2024-04-15 00:00:00	7	brindisi_sisri	null	6	null	6	null	6	null	6	null	6	null	6	null	6	40.624723	17.975036
2522	2024-04-15 01:00:00	7	brindisi_sisri	null	6	null	6	null	6	null	6	null	6	null	6	null	6	40.624723	17.975036
2523	2024-04-15 02:00:00	7	brindisi_sisri	null	6	null	6	null	6	null	6	null	6	null	6	null	6	40.624723	17.975036
2524	2024-04-15 03:00:00	7	brindisi_sisri	null	6	null	6	null	6	null	6	null	6	null	6	null	6	40.624723	17.975036
2525	2024-04-15 04:00:00	7	brindisi_sisri	null	6	null	6	null	6	null	6	null	6	null	6	null	6	40.624723	17.975036
2526	2024-04-15 05:00:00	7	brindisi_sisri	null	6	null	6	null	6	null	6	null	6	null	6	null	6	40.624723	17.975036
2527	2024-04-15 06:00:00	7	brindisi_sisri	null	6	null	6	null	6	null	6	null	6	null	6	null	6	40.624723	17.975036
2528	2024-04-15 07:00:00	7	brindisi_sisri	null	6	null	6	null	6	null	6	null	6	null	6	null	6	40.624723	17.975036
2529	2024-04-15 08:00:00	7	brindisi_sisri	null	6	null	6	null	6	null	6	null	6	null	6	null	6	40.624723	17.975036
2530	2024-04-15 09:00:00	7	brindisi_sisri	null	6	null	6	null	6	null	6	null	6	null	6	null	6	40.624723	17.975036
2531	2024-04-15 10:00:00	7	brindisi_sisri	null	6	null	6	null	6	null	6	null	6	null	6	null	6	40.624723	17.975036
2532	2024-04-15 11:00:00	7	brindisi_sisri	null	6	null	6	null	6	null	6	null	6	null	6	null	6	40.624723	17.975036
2533	2024-04-15 12:00:00	7	brindisi_sisri	null	6	null	6	null	6	null	6	null	6	null	6	null	6	40.624723	17.975036
2534	2024-04-15 13:00:00	7	brindisi_sisri	null	6	null	6	null	6	null	6	null	6	null	6	null	6	40.624723	17.975036
2535	2024-04-15 14:00:00	7	brindisi_sisri	null	6	null	6	null	6	null	6	null	6	null	6	null	6	40.624723	17.975036
2536	2024-04-15 15:00:00	7	brindisi_sisri	null	6	null	6	null	6	null	6	null	6	null	6	null	6	40.624723	17.975036
2537	2024-04-15 16:00:00	7	brindisi_sisri	null	6	null	6	null	6	null	6	null	6	null	6	null	6	40.624723	17.975036
2538	2024-04-15 17:00:00	7	brindisi_sisri	null	6	null	6	null	6	null	6	null	6	null	6	null	6	40.624723	17.975036
2539	2024-04-15 18:00:00	7	brindisi_sisri	null	6	null	6	null	6	null	6	null	6	null	6	null	6	40.624723	17.975036
2540	2024-04-15 19:00:00	7	brindisi_sisri	null	6	null	6	null	6	null	6	null	6	null	6	null	6	40.624723	17.975036
2541	2024-04-15 20:00:00	7	brindisi_sisri	null	6	null	6	null	6	null	6	null	6	null	6	null	6	40.624723	17.975036
2542	2024-04-15 21:00:00	7	brindisi_sisri	null	6	null	6	null	6	null	6	null	6	null	6	null	6	40.624723	17.975036
2543	2024-04-15 22:00:00	7	brindisi_sisri	null	6	null	6	null	6	null	6	null	6	null	6	null	6	40.624723	17.975036
2544	2024-04-15 23:00:00	7	brindisi_sisri	null	6	null	6	null	6	null	6	null	6	null	6	null	6	40.624723	17.975036
2545	2024-04-16 00:00:00	7	brindisi_sisri	null	6	null	6	null	6	null	6	null	6	null	6	null	6	40.624723	17.975036
2546	2024-04-16 01:00:00	7	brindisi_sisri	null	6	null	6	null	6	null	6	null	6	null	6	null	6	40.624723	17.975036
2547	2024-04-16 02:00:00	7	brindisi_sisri	null	6	null	6	null	6	null	6	null	6	null	6	null	6	40.624723	17.975036
2548	2024-04-16 03:00:00	7	brindisi_sisri	null	6	null	6	null	6	null	6	null	6	null	6	null	6	40.624723	17.975036
2549	2024-04-16 04:00:00	7	brindisi_sisri	null	6	null	6	null	6	null	6	null	6	null	6	null	6	40.624723	17.975036
2550	2024-04-16 05:00:00	7	brindisi_sisri	null	6	null	6	null	6	null	6	null	6	null	6	null	6	40.624723	17.975036
2551	2024-04-16 06:00:00	7	brindisi_sisri	null	6	null	6	null	6	null	6	null	6	null	6	null	6	40.624723	17.975036
2552	2024-04-16 07:00:00	7	brindisi_sisri	null	6	null	6	null	6	null	6	null	6	null	6	null	6	40.624723	17.975036
2553	2024-04-16 08:00:00	7	brindisi_sisri	null	6	null	6	null	6	null	6	null	6	null	6	null	6	40.624723	17.975036
2554	2024-04-16 09:00:00	7	brindisi_sisri	null	6	null	6	null	6	null	6	null	6	null	6	null	6	40.624723	17.975036
2555	2024-04-16 10:00:00	7	brindisi_sisri	null	6	null	6	null	6	null	6	null	6	null	6	null	6	40.624723	17.975036
2556	2024-04-16 11:00:00	7	brindisi_sisri	null	6	null	6	null	6	null	6	null	6	null	6	null	6	40.624723	17.975036
2557	2024-04-16 12:00:00	7	brindisi_sisri	null	6	null	6	null	6	null	6	null	6	null	6	null	6	40.624723	17.975036
2558	2024-04-16 13:00:00	7	brindisi_sisri	null	6	null	6	null	6	null	6	null	6	null	6	null	6	40.624723	17.975036
2559	2024-04-16 14:00:00	7	brindisi_sisri	21.29	1	58.33	1	0.0	1	8.3	1	171.21	1	106.93	1	1002.57	1	40.624723	17.975036
2560	2024-04-16 15:00:00	7	brindisi_sisri	19.98	1	64.69	1	0.0	1	6.29	1	179.35	1	67.99	1	1002.21	1	40.624723	17.975036
2561	2024-04-16 16:00:00	7	brindisi_sisri	19.39	1	71.68	1	0.0	1	2.67	1	180.72	1	78.99	1	1001.11	1	40.624723	17.975036
2562	2024-04-16 17:00:00	7	brindisi_sisri	18.73	1	78.46	1	0.0	1	2.78	1	131.64	1	52.29	1	1001.0	1	40.624723	17.975036
2563	2024-04-16 18:00:00	7	brindisi_sisri	18.71	1	73.0	1	0.0	1	4.07	1	158.92	1	37.78	1	1000.94	1	40.624723	17.975036
2564	2024-04-16 19:00:00	7	brindisi_sisri	17.6	1	78.11	1	0.0	1	3.38	1	154.49	1	0.0	5	1000.34	1	40.624723	17.975036
2565	2024-04-16 20:00:00	7	brindisi_sisri	16.68	1	86.43	1	0.0	1	3.58	1	158.57	1	0.0	5	1000.08	1	40.624723	17.975036
2566	2024-04-16 21:00:00	7	brindisi_sisri	16.36	1	89.99	1	0.0	1	3.37	1	161.91	1	0.0	5	1000.18	1	40.624723	17.975036
2567	2024-04-16 22:00:00	7	brindisi_sisri	15.91	1	92.8	1	1.0	1	3.75	1	171.29	1	0.0	5	999.93	1	40.624723	17.975036
2568	2024-04-16 23:00:00	7	brindisi_sisri	15.54	1	96.97	1	0.8	1	2.32	1	170.9	1	0.0	5	999.46	1	40.624723	17.975036
2569	2024-04-17 00:00:00	7	brindisi_sisri	15.4	1	99.01	1	0.2	1	1.63	1	157.31	1	0.0	5	998.62	1	40.624723	17.975036
2570	2024-04-17 01:00:00	7	brindisi_sisri	15.5	1	99.1	1	0.0	1	2.8	1	158.79	1	0.0	5	997.74	1	40.624723	17.975036
2571	2024-04-17 02:00:00	7	brindisi_sisri	15.78	1	99.12	1	0.0	1	3.17	1	168.39	1	0.0	5	996.71	1	40.624723	17.975036
2572	2024-04-17 03:00:00	7	brindisi_sisri	15.63	1	99.11	1	0.0	1	2.52	1	154.42	1	0.0	5	996.09	1	40.624723	17.975036
2573	2024-04-17 04:00:00	7	brindisi_sisri	15.45	1	99.11	1	0.0	1	2.25	1	146.89	1	0.0	5	995.67	1	40.624723	17.975036
2574	2024-04-17 05:00:00	7	brindisi_sisri	15.43	1	99.11	1	0.0	1	2.08	1	128.54	1	0.0	5	995.6	1	40.624723	17.975036
2575	2024-04-17 06:00:00	7	brindisi_sisri	15.42	1	99.09	1	0.0	1	2.52	1	166.44	1	7.78	1	995.34	1	40.624723	17.975036
2576	2024-04-17 07:00:00	7	brindisi_sisri	15.99	1	97.82	1	0.2	1	4.3	1	190.22	1	62.09	1	995.39	1	40.624723	17.975036
2577	2024-04-17 08:00:00	7	brindisi_sisri	16.13	1	92.82	1	0.2	1	3.64	1	270.89	1	62.56	1	995.95	1	40.624723	17.975036
2578	2024-04-17 09:00:00	7	brindisi_sisri	14.64	1	90.87	1	2.8	1	3.89	1	281.4	1	69.21	1	996.18	1	40.624723	17.975036
2579	2024-04-17 10:00:00	7	brindisi_sisri	14.16	1	92.96	1	0.0	1	4.13	1	302.75	1	237.66	1	996.65	1	40.624723	17.975036
2580	2024-04-17 11:00:00	7	brindisi_sisri	16.94	1	75.8	1	0.0	1	4.22	1	314.36	1	753.74	1	996.75	1	40.624723	17.975036
2581	2024-04-17 12:00:00	7	brindisi_sisri	17.5	1	72.08	1	0.0	1	4.27	1	328.92	1	593.64	1	996.75	1	40.624723	17.975036
2582	2024-04-17 13:00:00	7	brindisi_sisri	16.71	1	71.17	1	0.0	1	5.41	1	308.83	1	338.92	1	996.93	1	40.624723	17.975036
2583	2024-04-17 14:00:00	7	brindisi_sisri	17.22	1	67.87	1	0.0	1	6.8	1	314.37	1	455.54	1	997.06	1	40.624723	17.975036
2584	2024-04-17 15:00:00	7	brindisi_sisri	15.86	1	67.61	1	0.0	1	5.82	1	318.3	1	105.69	1	997.14	1	40.624723	17.975036
2585	2024-04-17 16:00:00	7	brindisi_sisri	15.38	1	71.17	1	1.0	1	4.99	1	322.38	1	94.53	1	997.34	1	40.624723	17.975036
2586	2024-04-17 17:00:00	7	brindisi_sisri	13.33	1	85.99	1	1.2	1	4.14	1	305.41	1	46.37	1	997.68	1	40.624723	17.975036
2587	2024-04-17 18:00:00	7	brindisi_sisri	13.25	1	80.74	1	0.0	1	4.2	1	299.28	1	17.34	1	998.18	1	40.624723	17.975036
2588	2024-04-17 19:00:00	7	brindisi_sisri	12.64	1	82.78	1	2.4	1	3.78	1	297.1	1	0.0	5	999.1	1	40.624723	17.975036
2589	2024-04-17 20:00:00	7	brindisi_sisri	11.58	1	90.21	1	1.4	1	2.38	1	296.47	1	0.0	5	999.77	1	40.624723	17.975036
2590	2024-04-17 21:00:00	7	brindisi_sisri	11.31	1	90.99	1	0.0	1	3.21	1	251.45	1	0.0	5	1000.23	1	40.624723	17.975036
2591	2024-04-17 22:00:00	7	brindisi_sisri	11.1	1	78.46	1	0.0	1	3.46	1	255.4	1	0.0	5	1000.32	1	40.624723	17.975036
2592	2024-04-17 23:00:00	7	brindisi_sisri	11.01	1	80.14	1	0.0	1	1.44	1	221.08	1	0.0	5	1000.23	1	40.624723	17.975036
2593	2024-04-18 00:00:00	7	brindisi_sisri	9.98	1	85.85	1	0.0	1	1.8	1	211.64	1	0.0	5	1000.54	1	40.624723	17.975036
2594	2024-04-18 01:00:00	7	brindisi_sisri	9.18	1	85.89	1	0.0	1	2.6	1	214.19	1	0.0	5	1000.67	1	40.624723	17.975036
2595	2024-04-18 02:00:00	7	brindisi_sisri	8.74	1	87.71	1	0.0	1	2.76	1	219.61	1	0.0	5	1000.57	1	40.624723	17.975036
2596	2024-04-18 03:00:00	7	brindisi_sisri	8.45	1	87.64	1	0.0	1	2.77	1	211.81	1	0.0	5	1000.76	1	40.624723	17.975036
2597	2024-04-18 04:00:00	7	brindisi_sisri	7.67	1	91.79	1	0.0	1	2.51	1	211.8	1	0.0	5	1000.76	1	40.624723	17.975036
2598	2024-04-18 05:00:00	7	brindisi_sisri	7.36	1	92.84	1	0.0	1	2.28	1	199.87	1	0.0	5	1000.76	1	40.624723	17.975036
2599	2024-04-18 06:00:00	7	brindisi_sisri	7.7	1	93.27	1	0.0	1	1.92	1	203.69	1	59.7	1	1001.2	1	40.624723	17.975036
2600	2024-04-18 07:00:00	7	brindisi_sisri	11.56	1	85.1	1	0.0	1	1.89	1	206.54	1	176.59	1	1001.85	1	40.624723	17.975036
2601	2024-04-18 08:00:00	7	brindisi_sisri	14.83	1	66.74	1	0.0	1	2.5	1	233.97	1	414.85	1	1002.17	1	40.624723	17.975036
2602	2024-04-18 09:00:00	7	brindisi_sisri	16.8	1	56.48	1	0.0	1	2.6	1	253.8	1	616.6	1	1002.47	1	40.624723	17.975036
2603	2024-04-18 10:00:00	7	brindisi_sisri	16.26	1	52.62	1	0.0	1	3.88	1	315.76	1	366.36	1	1002.92	1	40.624723	17.975036
2604	2024-04-18 11:00:00	7	brindisi_sisri	15.16	1	58.32	1	0.0	1	4.18	1	315.98	1	224.94	1	1003.35	1	40.624723	17.975036
2605	2024-04-18 12:00:00	7	brindisi_sisri	15.27	1	62.69	1	0.0	1	2.79	1	337.57	1	312.57	1	1003.47	1	40.624723	17.975036
2606	2024-04-18 13:00:00	7	brindisi_sisri	15.34	1	54.54	1	0.0	1	2.87	1	322.58	1	176.89	1	1003.39	1	40.624723	17.975036
2607	2024-04-18 14:00:00	7	brindisi_sisri	13.49	1	67.5	1	3.4	1	2.36	1	209.91	1	34.68	1	1003.95	1	40.624723	17.975036
2608	2024-04-18 15:00:00	7	brindisi_sisri	10.76	1	91.55	1	1.4	1	2.54	1	154.54	1	58.83	1	1004.19	1	40.624723	17.975036
2609	2024-04-18 16:00:00	7	brindisi_sisri	10.89	1	89.38	1	0.2	1	2.84	1	333.27	1	63.81	1	1004.58	1	40.624723	17.975036
2610	2024-04-18 17:00:00	7	brindisi_sisri	10.53	1	88.23	1	0.2	1	2.16	1	316.25	1	52.86	1	1004.79	1	40.624723	17.975036
2611	2024-04-18 18:00:00	7	brindisi_sisri	10.74	1	86.95	1	0.0	1	1.34	1	78.14	1	35.48	1	1004.77	1	40.624723	17.975036
2612	2024-04-18 19:00:00	7	brindisi_sisri	10.79	1	90.61	1	0.0	1	1.72	1	153.07	1	5.32	1	1004.83	1	40.624723	17.975036
2613	2024-04-18 20:00:00	7	brindisi_sisri	10.34	1	94.01	1	0.2	1	2.06	1	154.02	1	0.0	5	1005.18	1	40.624723	17.975036
2614	2024-04-18 21:00:00	7	brindisi_sisri	9.44	1	95.14	1	0.0	1	1.26	1	207.3	1	0.0	5	1005.64	1	40.624723	17.975036
2615	2024-04-18 22:00:00	7	brindisi_sisri	9.08	1	95.47	1	0.0	1	1.73	1	222.16	1	0.0	5	1005.92	1	40.624723	17.975036
2616	2024-04-18 23:00:00	7	brindisi_sisri	8.24	1	95.78	1	0.0	1	1.47	1	223.88	1	0.0	5	1005.87	1	40.624723	17.975036
2617	2024-04-19 00:00:00	7	brindisi_sisri	7.58	1	96.6	1	0.0	1	1.69	1	210.14	1	0.0	5	1006.06	1	40.624723	17.975036
2618	2024-04-19 01:00:00	7	brindisi_sisri	7.09	1	97.81	1	0.0	1	1.81	1	217.4	1	0.0	5	1005.65	1	40.624723	17.975036
2619	2024-04-19 02:00:00	7	brindisi_sisri	6.97	1	98.23	1	0.0	1	1.27	1	233.85	1	0.0	5	1005.22	1	40.624723	17.975036
2620	2024-04-19 03:00:00	7	brindisi_sisri	6.72	1	98.6	1	0.0	1	1.84	1	220.21	1	0.0	5	1005.14	1	40.624723	17.975036
2621	2024-04-19 04:00:00	7	brindisi_sisri	6.61	1	98.41	1	0.0	1	0.85	1	200.75	1	0.0	5	1004.75	1	40.624723	17.975036
2622	2024-04-19 05:00:00	7	brindisi_sisri	6.79	1	98.96	1	0.0	1	0.71	1	233.06	1	0.0	5	1004.49	1	40.624723	17.975036
2623	2024-04-19 06:00:00	7	brindisi_sisri	7.55	1	99.02	1	0.0	1	0.77	1	219.08	1	28.61	1	1004.35	1	40.624723	17.975036
2624	2024-04-19 07:00:00	7	brindisi_sisri	9.81	1	99.02	1	0.0	1	0.58	1	181.65	1	91.62	1	1004.2	1	40.624723	17.975036
2625	2024-04-19 08:00:00	7	brindisi_sisri	10.93	1	98.66	1	0.2	1	1.6	1	174.3	1	32.21	1	1004.28	1	40.624723	17.975036
2626	2024-04-19 09:00:00	7	brindisi_sisri	9.57	1	98.4	1	5.4	1	3.45	1	169.44	1	35.53	1	1004.47	1	40.624723	17.975036
2627	2024-04-19 10:00:00	7	brindisi_sisri	9.68	1	98.85	1	0.8	1	2.14	1	169.41	1	107.4	1	1004.57	1	40.624723	17.975036
2628	2024-04-19 11:00:00	7	brindisi_sisri	10.57	1	97.92	1	0.4	1	3.03	1	309.76	1	217.19	1	1004.61	1	40.624723	17.975036
2629	2024-04-19 12:00:00	7	brindisi_sisri	11.21	1	95.89	1	0.2	1	3.72	1	302.48	1	210.21	1	1004.18	1	40.624723	17.975036
2630	2024-04-19 13:00:00	7	brindisi_sisri	10.67	1	92.91	1	0.8	1	3.12	1	355.11	1	122.55	1	1003.75	1	40.624723	17.975036
2631	2024-04-19 14:00:00	7	brindisi_sisri	11.38	1	85.94	1	0.0	1	4.14	1	356.13	1	165.46	1	1003.38	1	40.624723	17.975036
2632	2024-04-19 15:00:00	7	brindisi_sisri	11.96	1	81.64	1	0.0	1	5.07	1	357.54	1	164.96	1	1002.87	1	40.624723	17.975036
2633	2024-04-19 16:00:00	7	brindisi_sisri	12.22	1	78.74	1	0.0	1	4.55	1	344.36	1	109.57	1	1002.92	1	40.624723	17.975036
2634	2024-04-19 17:00:00	7	brindisi_sisri	12.43	1	75.88	1	0.0	1	4.6	1	316.22	1	75.4	1	1003.19	1	40.624723	17.975036
2635	2024-04-19 18:00:00	7	brindisi_sisri	13.07	1	73.31	1	0.0	1	5.65	1	307.06	1	61.81	1	1003.42	1	40.624723	17.975036
2636	2024-04-19 19:00:00	7	brindisi_sisri	14.06	1	61.44	1	0.0	1	8.01	1	315.15	1	16.68	1	1003.59	1	40.624723	17.975036
2637	2024-04-19 20:00:00	7	brindisi_sisri	14.19	1	53.88	1	0.0	1	9.01	1	316.27	1	0.0	5	1004.19	1	40.624723	17.975036
2638	2024-04-19 21:00:00	7	brindisi_sisri	13.88	1	53.97	1	0.0	1	8.54	1	304.2	1	0.0	5	1004.68	1	40.624723	17.975036
2639	2024-04-19 22:00:00	7	brindisi_sisri	13.78	1	55.32	1	0.0	1	8.16	1	302.82	1	0.0	5	1004.88	1	40.624723	17.975036
2640	2024-04-19 23:00:00	7	brindisi_sisri	13.51	1	60.02	1	0.0	1	8.02	1	297.93	1	0.0	5	1005.04	1	40.624723	17.975036
2641	2024-04-20 00:00:00	7	brindisi_sisri	13.36	1	59.73	1	0.0	1	7.28	1	297.14	1	0.0	5	1005.33	1	40.624723	17.975036
2642	2024-04-20 01:00:00	7	brindisi_sisri	12.13	1	63.51	1	0.0	1	4.61	1	261.22	1	0.0	5	1005.35	1	40.624723	17.975036
2643	2024-04-20 02:00:00	7	brindisi_sisri	10.61	1	66.62	1	0.0	1	4.46	1	265.21	1	0.0	5	1005.08	1	40.624723	17.975036
2644	2024-04-20 03:00:00	7	brindisi_sisri	10.24	1	65.03	1	0.0	1	4.65	1	268.85	1	0.0	5	1005.05	1	40.624723	17.975036
2645	2024-04-20 04:00:00	7	brindisi_sisri	10.05	1	65.07	1	0.0	1	4.17	1	273.44	1	0.0	5	1004.83	1	40.624723	17.975036
2646	2024-04-20 05:00:00	7	brindisi_sisri	9.26	1	66.38	1	0.0	1	3.09	1	259.61	1	0.0	5	1004.77	1	40.624723	17.975036
2647	2024-04-20 06:00:00	7	brindisi_sisri	8.68	1	66.91	1	0.0	1	2.67	1	222.45	1	64.83	1	1004.96	1	40.624723	17.975036
2648	2024-04-20 07:00:00	7	brindisi_sisri	10.97	1	61.41	1	0.0	1	2.64	1	231.17	1	204.6	1	1005.21	1	40.624723	17.975036
2649	2024-04-20 08:00:00	7	brindisi_sisri	14.49	1	53.3	1	0.0	1	2.2	1	250.32	1	417.65	1	1005.3	1	40.624723	17.975036
2650	2024-04-20 09:00:00	7	brindisi_sisri	16.74	1	43.08	1	0.0	1	1.9	1	260.0	1	678.79	1	1005.22	1	40.624723	17.975036
2651	2024-04-20 10:00:00	7	brindisi_sisri	17.52	1	37.71	1	0.0	1	2.81	1	334.65	1	820.61	1	1005.42	1	40.624723	17.975036
2652	2024-04-20 11:00:00	7	brindisi_sisri	16.73	1	37.64	1	0.0	1	3.4	1	343.31	1	820.22	1	1005.57	1	40.624723	17.975036
2653	2024-04-20 12:00:00	7	brindisi_sisri	17.13	1	37.18	1	0.0	1	3.5	1	1.49	1	924.58	1	1005.45	1	40.624723	17.975036
2654	2024-04-20 13:00:00	7	brindisi_sisri	17.37	1	36.73	1	0.0	1	3.96	1	358.08	1	907.68	1	1005.16	1	40.624723	17.975036
2655	2024-04-20 14:00:00	7	brindisi_sisri	17.12	1	40.13	1	0.0	1	4.23	1	2.05	1	547.48	1	1005.2	1	40.624723	17.975036
2656	2024-04-20 15:00:00	7	brindisi_sisri	16.98	1	38.16	1	0.0	1	3.77	1	45.77	1	462.05	1	1004.84	1	40.624723	17.975036
2657	2024-04-20 16:00:00	7	brindisi_sisri	15.93	1	46.89	1	0.0	1	4.27	1	77.94	1	153.48	1	1004.73	1	40.624723	17.975036
2658	2024-04-20 17:00:00	7	brindisi_sisri	14.79	1	57.63	1	0.2	1	3.97	1	87.44	1	60.08	1	1004.56	1	40.624723	17.975036
2659	2024-04-20 18:00:00	7	brindisi_sisri	12.2	1	80.89	1	1.6	1	1.96	1	21.87	1	18.17	1	1004.61	1	40.624723	17.975036
2660	2024-04-20 19:00:00	7	brindisi_sisri	12.02	1	88.4	1	0.0	1	2.12	1	100.35	1	8.81	1	1004.56	1	40.624723	17.975036
2661	2024-04-20 20:00:00	7	brindisi_sisri	11.68	1	89.27	1	0.0	1	1.95	1	100.72	1	0.0	5	1004.62	1	40.624723	17.975036
2662	2024-04-20 21:00:00	7	brindisi_sisri	11.79	1	90.23	1	0.0	1	1.89	1	124.98	1	0.0	5	1004.63	1	40.624723	17.975036
2663	2024-04-20 22:00:00	7	brindisi_sisri	11.45	1	91.28	1	0.0	1	1.94	1	143.66	1	0.0	5	1004.43	1	40.624723	17.975036
2664	2024-04-20 23:00:00	7	brindisi_sisri	10.33	1	94.37	1	0.0	1	2.03	1	163.11	1	0.0	5	1004.12	1	40.624723	17.975036
2665	2024-04-21 00:00:00	7	brindisi_sisri	9.52	1	96.13	1	0.0	1	2.21	1	195.75	1	0.0	5	1003.84	1	40.624723	17.975036
2666	2024-04-21 01:00:00	7	brindisi_sisri	9.77	1	94.49	1	0.0	1	1.94	1	204.83	1	0.0	5	1003.35	1	40.624723	17.975036
2667	2024-04-21 02:00:00	7	brindisi_sisri	10.51	1	91.23	1	0.0	1	1.78	1	214.78	1	0.0	5	1002.74	1	40.624723	17.975036
2668	2024-04-21 03:00:00	7	brindisi_sisri	10.77	1	91.29	1	0.0	1	1.68	1	192.5	1	0.0	5	1002.41	1	40.624723	17.975036
2669	2024-04-21 04:00:00	7	brindisi_sisri	10.9	1	91.54	1	0.0	1	2.41	1	229.81	1	0.0	5	1002.22	1	40.624723	17.975036
2670	2024-04-21 05:00:00	7	brindisi_sisri	11.25	1	90.41	1	1.0	1	3.14	1	215.15	1	0.0	5	1002.48	1	40.624723	17.975036
2671	2024-04-21 06:00:00	7	brindisi_sisri	10.57	1	93.72	1	0.8	1	1.64	1	202.73	1	10.9	1	1002.42	1	40.624723	17.975036
2672	2024-04-21 07:00:00	7	brindisi_sisri	10.47	1	95.48	1	0.0	1	1.56	1	228.31	1	38.5	1	1002.83	1	40.624723	17.975036
2673	2024-04-21 08:00:00	7	brindisi_sisri	11.08	1	94.76	1	0.0	1	1.63	1	234.67	1	136.58	1	1003.12	1	40.624723	17.975036
2674	2024-04-21 09:00:00	7	brindisi_sisri	13.5	1	85.74	1	0.0	1	2.75	1	280.09	1	583.74	1	1003.22	1	40.624723	17.975036
2675	2024-04-21 10:00:00	7	brindisi_sisri	15.32	1	70.02	1	0.0	1	4.43	1	304.45	1	758.8	1	1003.35	1	40.624723	17.975036
2676	2024-04-21 11:00:00	7	brindisi_sisri	14.2	1	69.54	1	0.0	1	4.42	1	299.83	1	424.6	1	1003.71	1	40.624723	17.975036
2677	2024-04-21 12:00:00	7	brindisi_sisri	15.12	1	61.28	1	0.0	1	4.86	1	301.7	1	430.31	1	1003.97	1	40.624723	17.975036
2678	2024-04-21 13:00:00	7	brindisi_sisri	14.52	1	62.52	1	0.0	1	7.31	1	274.63	1	377.41	1	1004.65	1	40.624723	17.975036
2679	2024-04-21 14:00:00	7	brindisi_sisri	15.2	1	58.33	1	0.0	1	6.88	1	277.79	1	509.64	1	1005.43	1	40.624723	17.975036
2680	2024-04-21 15:00:00	7	brindisi_sisri	15.32	1	60.27	1	0.0	1	7.98	1	279.07	1	399.35	1	1005.77	1	40.624723	17.975036
2681	2024-04-21 16:00:00	7	brindisi_sisri	15.02	1	58.04	1	0.0	1	7.47	1	290.41	1	259.02	1	1006.43	1	40.624723	17.975036
2682	2024-04-21 17:00:00	7	brindisi_sisri	14.68	1	56.56	1	0.0	1	7.63	1	295.22	1	282.09	1	1006.81	1	40.624723	17.975036
2683	2024-04-21 18:00:00	7	brindisi_sisri	13.9	1	56.72	1	0.0	1	7.32	1	307.23	1	142.31	1	1007.29	1	40.624723	17.975036
2684	2024-04-21 19:00:00	7	brindisi_sisri	12.92	1	61.57	1	0.0	1	5.33	1	303.12	1	11.81	1	1008.25	1	40.624723	17.975036
2685	2024-04-21 20:00:00	7	brindisi_sisri	12.56	1	62.95	1	0.0	1	4.33	1	302.24	1	0.0	5	1008.99	1	40.624723	17.975036
2686	2024-04-21 21:00:00	7	brindisi_sisri	12.31	1	64.61	1	0.0	1	3.04	1	304.34	1	0.0	5	1009.7	1	40.624723	17.975036
2687	2024-04-21 22:00:00	7	brindisi_sisri	12.13	1	64.42	1	0.0	1	2.32	1	308.77	1	0.0	5	1010.34	1	40.624723	17.975036
2688	2024-04-21 23:00:00	7	brindisi_sisri	11.14	1	67.62	1	0.0	1	1.99	1	312.02	1	0.0	5	1010.41	1	40.624723	17.975036
2689	2024-04-22 00:00:00	7	brindisi_sisri	8.26	1	82.53	1	0.0	1	1.85	1	208.8	1	0.0	5	1010.67	1	40.624723	17.975036
2690	2024-04-22 01:00:00	7	brindisi_sisri	7.41	1	90.88	1	0.0	1	1.78	1	213.41	1	0.0	5	1010.73	1	40.624723	17.975036
2691	2024-04-22 02:00:00	7	brindisi_sisri	6.66	1	92.84	1	0.0	1	1.32	1	203.74	1	0.0	5	1010.41	1	40.624723	17.975036
2692	2024-04-22 03:00:00	7	brindisi_sisri	5.9	1	94.82	1	0.0	1	1.13	1	210.85	1	0.0	5	1010.14	1	40.624723	17.975036
2693	2024-04-22 04:00:00	7	brindisi_sisri	5.75	1	96.27	1	0.0	1	1.24	1	217.97	1	0.0	5	1009.78	1	40.624723	17.975036
2694	2024-04-22 05:00:00	7	brindisi_sisri	5.58	1	97.12	1	0.0	1	1.12	1	217.22	1	0.0	5	1009.53	1	40.624723	17.975036
2695	2024-04-22 06:00:00	7	brindisi_sisri	6.21	1	98.16	1	0.0	1	0.8	1	243.15	1	38.36	1	1009.43	1	40.624723	17.975036
2696	2024-04-22 07:00:00	7	brindisi_sisri	9.91	1	96.94	1	0.0	1	0.6	1	73.49	1	172.53	1	1009.37	1	40.624723	17.975036
2697	2024-04-22 08:00:00	7	brindisi_sisri	14.28	1	74.15	1	0.0	1	2.37	1	64.41	1	283.39	1	1009.28	1	40.624723	17.975036
2698	2024-04-22 09:00:00	7	brindisi_sisri	15.72	1	61.96	1	0.0	1	2.7	1	63.1	1	578.46	1	1009.29	1	40.624723	17.975036
2699	2024-04-22 10:00:00	7	brindisi_sisri	16.49	1	61.17	1	0.0	1	2.91	1	50.84	1	826.44	1	1009.38	1	40.624723	17.975036
2700	2024-04-22 11:00:00	7	brindisi_sisri	16.89	1	58.27	1	0.0	1	2.77	1	72.18	1	937.28	1	1009.41	1	40.624723	17.975036
2701	2024-04-22 12:00:00	7	brindisi_sisri	16.9	1	56.58	1	0.0	1	2.72	1	35.88	1	801.45	1	1009.19	1	40.624723	17.975036
2702	2024-04-22 13:00:00	7	brindisi_sisri	17.14	1	57.76	1	0.0	1	2.88	1	63.46	1	828.62	1	1009.04	1	40.624723	17.975036
2703	2024-04-22 14:00:00	7	brindisi_sisri	16.69	1	61.46	1	0.0	1	3.52	1	58.2	1	459.41	1	1008.58	1	40.624723	17.975036
2704	2024-04-22 15:00:00	7	brindisi_sisri	15.93	1	65.45	1	0.0	1	4.02	1	54.52	1	327.6	1	1008.03	1	40.624723	17.975036
2705	2024-04-22 16:00:00	7	brindisi_sisri	16.29	1	63.14	1	0.0	1	4.12	1	63.8	1	270.56	1	1007.76	1	40.624723	17.975036
2706	2024-04-22 17:00:00	7	brindisi_sisri	15.8	1	63.97	1	0.0	1	3.85	1	53.12	1	175.59	1	1007.27	1	40.624723	17.975036
2707	2024-04-22 18:00:00	7	brindisi_sisri	15.06	1	65.66	1	0.0	1	3.02	1	60.67	1	81.03	1	1006.79	1	40.624723	17.975036
2708	2024-04-22 19:00:00	7	brindisi_sisri	14.54	1	66.21	1	0.0	1	3.03	1	73.9	1	12.87	1	1006.68	1	40.624723	17.975036
2709	2024-04-22 20:00:00	7	brindisi_sisri	14.14	1	67.08	1	0.0	1	1.93	1	83.51	1	0.0	5	1006.69	1	40.624723	17.975036
2710	2024-04-22 21:00:00	7	brindisi_sisri	13.83	1	73.14	1	0.0	1	1.65	1	83.43	1	0.0	5	1006.49	1	40.624723	17.975036
2711	2024-04-22 22:00:00	7	brindisi_sisri	14.31	1	75.3	1	0.0	1	1.44	1	62.9	1	0.0	5	1005.91	1	40.624723	17.975036
2712	2024-04-22 23:00:00	7	brindisi_sisri	14.17	1	79.31	1	0.0	1	0.7	1	63.93	1	0.0	5	1005.5	1	40.624723	17.975036
2713	2024-04-23 00:00:00	7	brindisi_sisri	14.68	1	79.88	1	0.0	1	1.31	1	35.37	1	0.0	5	1005.28	1	40.624723	17.975036
2714	2024-04-23 01:00:00	7	brindisi_sisri	14.91	1	75.68	1	0.0	1	1.65	1	22.11	1	0.0	5	1004.79	1	40.624723	17.975036
2715	2024-04-23 02:00:00	7	brindisi_sisri	14.94	1	75.97	1	0.0	1	0.94	1	38.02	1	0.0	5	1004.36	1	40.624723	17.975036
2716	2024-04-23 03:00:00	7	brindisi_sisri	14.84	1	77.13	1	0.0	1	1.06	1	278.58	1	0.0	5	1003.72	1	40.624723	17.975036
2717	2024-04-23 04:00:00	7	brindisi_sisri	14.7	1	78.5	1	0.0	1	1.28	1	289.02	1	0.0	5	1002.98	1	40.624723	17.975036
2718	2024-04-23 05:00:00	7	brindisi_sisri	14.52	1	82.51	1	0.0	1	1.38	1	308.87	1	0.0	5	1002.38	1	40.624723	17.975036
2719	2024-04-23 06:00:00	7	brindisi_sisri	14.7	1	90.5	1	0.4	1	2.51	1	338.18	1	5.11	1	1002.28	1	40.624723	17.975036
2720	2024-04-23 07:00:00	7	brindisi_sisri	14.86	1	93.89	1	0.4	1	3.58	1	331.25	1	28.51	1	1001.42	1	40.624723	17.975036
2721	2024-04-23 08:00:00	7	brindisi_sisri	13.96	1	92.63	1	1.2	1	3.23	1	342.92	1	35.14	1	1001.29	1	40.624723	17.975036
2722	2024-04-23 09:00:00	7	brindisi_sisri	13.62	1	91.84	1	0.0	1	3.23	1	316.95	1	37.1	1	1000.98	1	40.624723	17.975036
2723	2024-04-23 10:00:00	7	brindisi_sisri	13.87	1	93.37	1	0.0	1	3.63	1	329.73	1	72.22	1	1001.13	1	40.624723	17.975036
2724	2024-04-23 11:00:00	7	brindisi_sisri	13.84	1	93.04	1	0.0	1	4.67	1	311.96	1	75.22	1	1000.79	1	40.624723	17.975036
2725	2024-04-23 12:00:00	7	brindisi_sisri	13.81	1	92.41	1	0.0	1	4.56	1	291.76	1	72.66	1	1000.49	1	40.624723	17.975036
2726	2024-04-23 13:00:00	7	brindisi_sisri	13.19	1	97.0	1	1.4	1	3.96	1	280.76	1	84.07	1	1000.37	1	40.624723	17.975036
2727	2024-04-23 14:00:00	7	brindisi_sisri	13.4	1	98.99	1	0.2	1	3.44	1	296.95	1	82.96	1	1000.25	1	40.624723	17.975036
2728	2024-04-23 15:00:00	7	brindisi_sisri	13.46	1	99.03	1	0.4	1	3.18	1	302.39	1	110.07	1	999.87	1	40.624723	17.975036
2729	2024-04-23 16:00:00	7	brindisi_sisri	14.3	1	98.09	1	0.0	1	2.39	1	303.57	1	219.9	1	999.77	1	40.624723	17.975036
2730	2024-04-23 17:00:00	7	brindisi_sisri	15.8	1	85.45	1	0.0	1	2.45	1	325.45	1	254.88	1	999.98	1	40.624723	17.975036
2731	2024-04-23 18:00:00	7	brindisi_sisri	15.83	1	79.18	1	0.0	1	1.37	1	284.24	1	106.25	1	1000.5	1	40.624723	17.975036
2732	2024-04-23 19:00:00	7	brindisi_sisri	14.14	1	84.97	1	0.0	1	0.95	1	314.69	1	9.8	1	1001.21	1	40.624723	17.975036
2733	2024-04-23 20:00:00	7	brindisi_sisri	12.88	1	90.82	1	0.0	1	1.59	1	168.12	1	0.0	5	1002.08	1	40.624723	17.975036
2734	2024-04-23 21:00:00	7	brindisi_sisri	11.87	1	95.41	1	0.0	1	1.56	1	164.92	1	0.0	5	1002.58	1	40.624723	17.975036
2735	2024-04-23 22:00:00	7	brindisi_sisri	11.47	1	97.06	1	0.0	1	0.76	1	177.82	1	0.0	5	1003.12	1	40.624723	17.975036
2736	2024-04-23 23:00:00	7	brindisi_sisri	11.5	1	98.3	1	0.0	1	1.01	1	233.93	1	0.0	5	1003.59	1	40.624723	17.975036
2737	2024-04-24 00:00:00	7	brindisi_sisri	11.0	1	83.63	1	0.0	1	2.28	1	258.07	1	0.0	5	1004.16	1	40.624723	17.975036
2738	2024-04-24 01:00:00	7	brindisi_sisri	10.87	1	62.67	1	0.0	1	2.77	1	239.34	1	0.0	5	1004.39	1	40.624723	17.975036
2739	2024-04-24 02:00:00	7	brindisi_sisri	10.24	1	61.44	1	0.0	1	1.94	1	243.97	1	0.0	5	1004.5	1	40.624723	17.975036
2740	2024-04-24 03:00:00	7	brindisi_sisri	8.51	1	70.14	1	0.0	1	2.02	1	165.87	1	0.0	5	1004.54	1	40.624723	17.975036
2741	2024-04-24 04:00:00	7	brindisi_sisri	6.69	1	87.21	1	0.0	1	1.77	1	204.92	1	0.0	5	1004.53	1	40.624723	17.975036
2742	2024-04-24 05:00:00	7	brindisi_sisri	6.3	1	89.39	1	0.0	1	1.88	1	197.1	1	0.0	5	1004.65	1	40.624723	17.975036
2743	2024-04-24 06:00:00	7	brindisi_sisri	6.53	1	90.93	1	0.0	1	2.18	1	176.34	1	76.17	1	1004.7	1	40.624723	17.975036
2744	2024-04-24 07:00:00	7	brindisi_sisri	11.04	1	78.99	1	0.0	1	1.95	1	155.51	1	246.6	1	1004.57	1	40.624723	17.975036
2745	2024-04-24 08:00:00	7	brindisi_sisri	14.73	1	59.5	1	0.0	1	2.22	1	146.33	1	372.34	1	1004.78	1	40.624723	17.975036
2746	2024-04-24 09:00:00	7	brindisi_sisri	16.63	1	50.98	1	0.0	1	3.35	1	169.15	1	631.06	1	1004.94	1	40.624723	17.975036
2747	2024-04-24 10:00:00	7	brindisi_sisri	17.67	1	50.28	1	0.0	1	3.41	1	177.7	1	685.09	1	1004.76	1	40.624723	17.975036
2748	2024-04-24 11:00:00	7	brindisi_sisri	18.58	1	40.85	1	0.0	1	4.68	1	202.79	1	598.38	1	1004.32	1	40.624723	17.975036
2749	2024-04-24 12:00:00	7	brindisi_sisri	18.66	1	39.51	1	0.0	1	5.94	1	190.13	1	545.77	1	1004.03	1	40.624723	17.975036
2750	2024-04-24 13:00:00	7	brindisi_sisri	18.56	1	43.25	1	0.0	1	5.62	1	162.93	1	568.18	1	1003.87	1	40.624723	17.975036
2751	2024-04-24 14:00:00	7	brindisi_sisri	17.86	1	46.92	1	0.0	1	4.53	1	181.89	1	222.31	1	1003.76	1	40.624723	17.975036
2752	2024-04-24 15:00:00	7	brindisi_sisri	17.23	1	47.96	1	0.0	1	3.44	1	172.77	1	168.89	1	1003.25	1	40.624723	17.975036
2753	2024-04-24 16:00:00	7	brindisi_sisri	16.95	1	48.83	1	0.0	1	3.52	1	179.7	1	149.02	1	1002.88	1	40.624723	17.975036
2754	2024-04-24 17:00:00	7	brindisi_sisri	16.4	1	48.89	1	0.0	1	4.21	1	179.5	1	124.08	1	1002.35	1	40.624723	17.975036
2755	2024-04-24 18:00:00	7	brindisi_sisri	15.28	1	55.84	1	0.0	1	3.77	1	158.96	1	28.34	1	1002.23	1	40.624723	17.975036
2756	2024-04-24 19:00:00	7	brindisi_sisri	14.26	1	63.48	1	0.0	1	3.42	1	154.61	1	5.49	1	1002.31	1	40.624723	17.975036
2757	2024-04-24 20:00:00	7	brindisi_sisri	13.69	1	67.13	1	0.0	1	2.82	1	146.18	1	0.0	5	1002.51	1	40.624723	17.975036
2758	2024-04-24 21:00:00	7	brindisi_sisri	12.86	1	72.53	1	0.0	1	1.46	1	159.8	1	0.0	5	1002.69	1	40.624723	17.975036
2759	2024-04-24 22:00:00	7	brindisi_sisri	12.0	1	80.47	1	0.0	1	1.39	1	160.36	1	0.0	5	1002.53	1	40.624723	17.975036
2760	2024-04-24 23:00:00	7	brindisi_sisri	11.61	1	83.9	1	0.0	1	1.59	1	176.78	1	0.0	5	1002.43	1	40.624723	17.975036
2761	2024-04-25 00:00:00	7	brindisi_sisri	12.32	1	77.59	1	0.0	1	1.35	1	242.17	1	0.0	5	1002.35	1	40.624723	17.975036
2762	2024-04-25 01:00:00	7	brindisi_sisri	13.31	1	71.77	1	0.0	1	4.04	1	304.15	1	0.0	5	1002.09	1	40.624723	17.975036
2763	2024-04-25 02:00:00	7	brindisi_sisri	13.54	1	65.25	1	0.0	1	4.27	1	308.04	1	0.0	5	1001.84	1	40.624723	17.975036
2764	2024-04-25 03:00:00	7	brindisi_sisri	13.25	1	59.52	1	0.0	1	4.62	1	292.24	1	0.0	5	1001.62	1	40.624723	17.975036
2765	2024-04-25 04:00:00	7	brindisi_sisri	12.24	1	61.23	1	0.0	1	2.9	1	268.25	1	0.0	5	1001.9	1	40.624723	17.975036
2766	2024-04-25 05:00:00	7	brindisi_sisri	11.26	1	60.15	1	0.0	1	3.2	1	272.66	1	0.0	5	1001.98	1	40.624723	17.975036
2767	2024-04-25 06:00:00	7	brindisi_sisri	10.65	1	61.78	1	0.0	1	2.56	1	269.08	1	25.15	1	1002.34	1	40.624723	17.975036
2768	2024-04-25 07:00:00	7	brindisi_sisri	12.8	1	57.36	1	0.0	1	2.98	1	268.44	1	249.46	1	1002.74	1	40.624723	17.975036
2769	2024-04-25 08:00:00	7	brindisi_sisri	14.98	1	54.88	1	0.0	1	4.17	1	276.34	1	374.28	1	1003.17	1	40.624723	17.975036
2770	2024-04-25 09:00:00	7	brindisi_sisri	16.04	1	50.04	1	0.0	1	4.0	1	276.43	1	676.2	1	1003.46	1	40.624723	17.975036
2771	2024-04-25 10:00:00	7	brindisi_sisri	16.47	1	46.75	1	0.0	1	4.34	1	295.93	1	816.65	1	1003.59	1	40.624723	17.975036
2772	2024-04-25 11:00:00	7	brindisi_sisri	16.5	1	48.11	1	0.0	1	4.1	1	323.53	1	924.66	1	1003.65	1	40.624723	17.975036
2773	2024-04-25 12:00:00	7	brindisi_sisri	16.58	1	48.77	1	0.0	1	4.58	1	340.57	1	984.57	1	1003.64	1	40.624723	17.975036
2774	2024-04-25 13:00:00	7	brindisi_sisri	16.67	1	48.34	1	0.0	1	4.5	1	343.8	1	834.1	1	1003.76	1	40.624723	17.975036
2775	2024-04-25 14:00:00	7	brindisi_sisri	17.09	1	48.78	1	0.0	1	3.52	1	24.2	1	520.43	1	1003.85	1	40.624723	17.975036
2776	2024-04-25 15:00:00	7	brindisi_sisri	17.25	1	49.5	1	0.0	1	3.12	1	57.05	1	406.96	1	1003.69	1	40.624723	17.975036
2777	2024-04-25 16:00:00	7	brindisi_sisri	16.98	1	51.66	1	0.0	1	3.3	1	52.81	1	219.56	1	1003.82	1	40.624723	17.975036
2778	2024-04-25 17:00:00	7	brindisi_sisri	15.94	1	57.76	1	0.0	1	4.03	1	77.01	1	118.91	1	1004.23	1	40.624723	17.975036
2779	2024-04-25 18:00:00	7	brindisi_sisri	14.9	1	67.21	1	0.0	1	2.81	1	164.85	1	54.42	1	1004.68	1	40.624723	17.975036
2780	2024-04-25 19:00:00	7	brindisi_sisri	13.07	1	82.17	1	0.4	1	0.97	1	141.46	1	17.43	1	1004.97	1	40.624723	17.975036
2781	2024-04-25 20:00:00	7	brindisi_sisri	12.51	1	87.0	1	0.0	1	1.48	1	115.32	1	0.0	5	1005.55	1	40.624723	17.975036
2782	2024-04-25 21:00:00	7	brindisi_sisri	12.29	1	84.24	1	0.0	1	1.91	1	134.26	1	0.0	5	1006.16	1	40.624723	17.975036
2783	2024-04-25 22:00:00	7	brindisi_sisri	11.96	1	84.98	1	0.0	1	1.35	1	133.65	1	0.0	5	1006.38	1	40.624723	17.975036
2784	2024-04-25 23:00:00	7	brindisi_sisri	12.03	1	84.32	1	0.0	1	1.05	1	331.03	1	0.0	5	1006.6	1	40.624723	17.975036
2785	2024-04-26 00:00:00	7	brindisi_sisri	12.3	1	82.64	1	0.0	1	1.55	1	43.39	1	0.0	5	1006.72	1	40.624723	17.975036
2786	2024-04-26 01:00:00	7	brindisi_sisri	11.72	1	83.48	1	0.0	1	1.04	1	175.18	1	0.0	5	1006.74	1	40.624723	17.975036
2787	2024-04-26 02:00:00	7	brindisi_sisri	10.1	1	90.19	1	0.0	1	1.02	1	201.58	1	0.0	5	1006.81	1	40.624723	17.975036
2788	2024-04-26 03:00:00	7	brindisi_sisri	9.0	1	93.56	1	0.0	1	0.9	1	243.22	1	0.0	5	1006.97	1	40.624723	17.975036
2789	2024-04-26 04:00:00	7	brindisi_sisri	9.68	1	96.16	1	0.0	1	1.29	1	248.48	1	0.0	5	1007.21	1	40.624723	17.975036
2790	2024-04-26 05:00:00	7	brindisi_sisri	10.79	1	91.53	1	0.0	1	1.82	1	275.5	1	0.0	5	1007.35	1	40.624723	17.975036
2791	2024-04-26 06:00:00	7	brindisi_sisri	11.57	1	75.47	1	0.0	1	1.12	1	257.83	1	67.7	1	1007.85	1	40.624723	17.975036
2792	2024-04-26 07:00:00	7	brindisi_sisri	15.22	1	66.27	1	0.0	1	1.2	1	249.32	1	256.98	1	1008.16	1	40.624723	17.975036
2793	2024-04-26 08:00:00	7	brindisi_sisri	16.72	1	62.04	1	0.0	1	2.14	1	292.5	1	270.93	1	1008.58	1	40.624723	17.975036
2794	2024-04-26 09:00:00	7	brindisi_sisri	16.97	1	59.92	1	0.0	1	2.51	1	318.81	1	608.73	1	1008.93	1	40.624723	17.975036
2795	2024-04-26 10:00:00	7	brindisi_sisri	17.65	1	57.66	1	0.0	1	2.91	1	302.28	1	796.12	1	1009.33	1	40.624723	17.975036
2796	2024-04-26 11:00:00	7	brindisi_sisri	17.81	1	58.21	1	0.0	1	3.37	1	358.62	1	908.45	1	1009.54	1	40.624723	17.975036
2797	2024-04-26 12:00:00	7	brindisi_sisri	18.18	1	58.73	1	0.0	1	4.02	1	27.8	1	866.29	1	1009.43	1	40.624723	17.975036
2798	2024-04-26 13:00:00	7	brindisi_sisri	17.47	1	63.31	1	0.0	1	4.16	1	52.81	1	481.93	1	1009.47	1	40.624723	17.975036
2799	2024-04-26 14:00:00	7	brindisi_sisri	18.61	1	59.92	1	0.0	1	5.08	1	84.46	1	501.83	1	1009.36	1	40.624723	17.975036
2800	2024-04-26 15:00:00	7	brindisi_sisri	19.17	1	56.73	1	0.0	1	5.39	1	82.92	1	408.02	1	1009.12	1	40.624723	17.975036
2801	2024-04-26 16:00:00	7	brindisi_sisri	18.95	1	52.67	1	0.0	1	4.61	1	72.83	1	207.87	1	1009.07	1	40.624723	17.975036
2802	2024-04-26 17:00:00	7	brindisi_sisri	18.33	1	64.63	1	0.0	1	4.62	1	77.22	1	173.01	1	1009.13	1	40.624723	17.975036
2803	2024-04-26 18:00:00	7	brindisi_sisri	17.0	1	67.01	1	0.0	1	2.61	1	106.92	1	77.19	1	1009.2	1	40.624723	17.975036
2804	2024-04-26 19:00:00	7	brindisi_sisri	15.46	1	59.68	1	0.0	1	2.21	1	174.21	1	8.28	1	1009.49	1	40.624723	17.975036
2805	2024-04-26 20:00:00	7	brindisi_sisri	14.13	1	69.33	1	0.0	1	2.0	1	174.41	1	0.0	5	1010.06	1	40.624723	17.975036
2806	2024-04-26 21:00:00	7	brindisi_sisri	13.76	1	75.8	1	0.0	1	1.7	1	179.36	1	0.0	5	1010.54	1	40.624723	17.975036
2807	2024-04-26 22:00:00	7	brindisi_sisri	13.28	1	79.53	1	0.0	1	1.44	1	177.26	1	0.0	5	1010.74	1	40.624723	17.975036
2808	2024-04-26 23:00:00	7	brindisi_sisri	12.78	1	84.75	1	0.0	1	1.06	1	179.56	1	0.0	5	1010.77	1	40.624723	17.975036
2809	2024-04-27 00:00:00	7	brindisi_sisri	12.3	1	87.68	1	0.0	1	1.06	1	144.36	1	0.0	5	1010.87	1	40.624723	17.975036
2810	2024-04-27 01:00:00	7	brindisi_sisri	11.97	1	89.98	1	0.0	1	1.02	1	113.92	1	0.0	5	1010.67	1	40.624723	17.975036
2811	2024-04-27 02:00:00	7	brindisi_sisri	11.79	1	90.53	1	0.0	1	0.82	1	114.61	1	0.0	5	1010.28	1	40.624723	17.975036
2812	2024-04-27 03:00:00	7	brindisi_sisri	11.17	1	90.91	1	0.0	1	1.42	1	145.55	1	0.0	5	1010.35	1	40.624723	17.975036
2813	2024-04-27 04:00:00	7	brindisi_sisri	10.16	1	92.79	1	0.0	1	1.07	1	114.81	1	0.0	5	1010.17	1	40.624723	17.975036
2814	2024-04-27 05:00:00	7	brindisi_sisri	9.63	1	94.06	1	0.0	1	1.37	1	192.36	1	0.0	5	1010.66	1	40.624723	17.975036
2815	2024-04-27 06:00:00	7	brindisi_sisri	10.66	1	93.98	1	0.0	1	1.85	1	210.93	1	76.89	1	1011.46	1	40.624723	17.975036
2816	2024-04-27 07:00:00	7	brindisi_sisri	15.24	1	82.88	1	0.0	1	1.36	1	201.49	1	252.77	1	1012.12	1	40.624723	17.975036
2817	2024-04-27 08:00:00	7	brindisi_sisri	19.53	1	57.91	1	0.0	1	1.59	1	174.0	1	364.69	1	1012.48	1	40.624723	17.975036
2818	2024-04-27 09:00:00	7	brindisi_sisri	20.53	1	49.87	1	0.0	1	1.25	1	89.62	1	653.29	1	1012.59	1	40.624723	17.975036
2819	2024-04-27 10:00:00	7	brindisi_sisri	20.64	1	50.85	1	0.0	1	2.0	1	66.12	1	793.43	1	1012.68	1	40.624723	17.975036
2820	2024-04-27 11:00:00	7	brindisi_sisri	19.69	1	53.84	1	0.0	1	3.62	1	16.79	1	903.38	1	1012.88	1	40.624723	17.975036
2821	2024-04-27 12:00:00	7	brindisi_sisri	19.64	1	52.56	1	0.0	1	4.51	1	20.59	1	971.74	1	1012.89	1	40.624723	17.975036
2822	2024-04-27 13:00:00	7	brindisi_sisri	19.48	1	55.32	1	0.0	1	4.73	1	17.47	1	833.76	1	1012.83	1	40.624723	17.975036
2823	2024-04-27 14:00:00	7	brindisi_sisri	19.65	1	55.47	1	0.0	1	4.7	1	15.29	1	587.19	1	1012.69	1	40.624723	17.975036
2824	2024-04-27 15:00:00	7	brindisi_sisri	19.82	1	55.23	1	0.0	1	4.38	1	27.25	1	449.77	1	1012.43	1	40.624723	17.975036
2825	2024-04-27 16:00:00	7	brindisi_sisri	19.64	1	52.26	1	0.0	1	3.97	1	33.07	1	204.31	1	1012.38	1	40.624723	17.975036
2826	2024-04-27 17:00:00	7	brindisi_sisri	19.66	1	52.06	1	0.0	1	3.24	1	27.6	1	255.52	1	1012.48	1	40.624723	17.975036
2827	2024-04-27 18:00:00	7	brindisi_sisri	18.81	1	55.43	1	0.0	1	2.08	1	33.01	1	176.76	1	1012.54	1	40.624723	17.975036
2828	2024-04-27 19:00:00	7	brindisi_sisri	16.78	1	63.74	1	0.0	1	1.41	1	34.54	1	13.94	1	1012.72	1	40.624723	17.975036
2829	2024-04-27 20:00:00	7	brindisi_sisri	15.75	1	71.22	1	0.0	1	1.27	1	32.35	1	0.0	5	1013.05	1	40.624723	17.975036
2830	2024-04-27 21:00:00	7	brindisi_sisri	15.04	1	76.44	1	0.0	1	0.49	1	19.71	1	0.0	5	1013.72	1	40.624723	17.975036
2831	2024-04-27 22:00:00	7	brindisi_sisri	12.96	1	83.67	1	0.0	1	1.29	1	206.87	1	0.0	5	1013.98	1	40.624723	17.975036
2832	2024-04-27 23:00:00	7	brindisi_sisri	11.43	1	88.75	1	0.0	1	1.12	1	221.47	1	0.0	5	1014.09	1	40.624723	17.975036
2833	2024-04-28 00:00:00	7	brindisi_sisri	11.06	1	91.77	1	0.0	1	1.16	1	236.15	1	0.0	5	1014.19	1	40.624723	17.975036
2834	2024-04-28 01:00:00	7	brindisi_sisri	10.99	1	91.55	1	0.0	1	1.19	1	236.79	1	0.0	5	1014.03	1	40.624723	17.975036
2835	2024-04-28 02:00:00	7	brindisi_sisri	10.21	1	92.14	1	0.0	1	0.76	1	281.01	1	0.0	5	1013.8	1	40.624723	17.975036
2836	2024-04-28 03:00:00	7	brindisi_sisri	9.22	1	92.92	1	0.0	1	0.64	1	262.37	1	0.0	5	1013.85	1	40.624723	17.975036
2837	2024-04-28 04:00:00	7	brindisi_sisri	8.46	1	94.45	1	0.0	1	1.09	1	227.47	1	0.0	5	1013.96	1	40.624723	17.975036
2838	2024-04-28 05:00:00	7	brindisi_sisri	8.94	1	95.66	1	0.0	1	1.09	1	247.59	1	0.0	5	1014.08	1	40.624723	17.975036
2839	2024-04-28 06:00:00	7	brindisi_sisri	11.73	1	94.25	1	0.0	1	1.13	1	283.76	1	90.58	1	1014.29	1	40.624723	17.975036
2840	2024-04-28 07:00:00	7	brindisi_sisri	16.52	1	87.29	1	0.0	1	1.88	1	291.52	1	279.46	1	1014.75	1	40.624723	17.975036
2841	2024-04-28 08:00:00	7	brindisi_sisri	18.02	1	83.23	1	0.0	1	3.26	1	320.7	1	348.31	1	1014.99	1	40.624723	17.975036
2842	2024-04-28 09:00:00	7	brindisi_sisri	18.99	1	67.94	1	0.0	1	3.68	1	322.07	1	681.69	1	1015.22	1	40.624723	17.975036
2843	2024-04-28 10:00:00	7	brindisi_sisri	19.95	1	51.76	1	0.0	1	3.69	1	353.31	1	819.34	1	1015.43	1	40.624723	17.975036
2844	2024-04-28 11:00:00	7	brindisi_sisri	20.12	1	57.42	1	0.0	1	3.73	1	348.25	1	925.3	1	1015.51	1	40.624723	17.975036
2845	2024-04-28 12:00:00	7	brindisi_sisri	20.03	1	59.9	1	0.0	1	4.05	1	352.93	1	991.26	1	1015.32	1	40.624723	17.975036
2846	2024-04-28 13:00:00	7	brindisi_sisri	20.35	1	59.22	1	0.0	1	3.38	1	346.51	1	800.05	1	1014.94	1	40.624723	17.975036
2847	2024-04-28 14:00:00	7	brindisi_sisri	20.9	1	58.05	1	0.0	1	3.06	1	349.32	1	579.77	1	1014.54	1	40.624723	17.975036
2848	2024-04-28 15:00:00	7	brindisi_sisri	20.8	1	59.3	1	0.0	1	3.0	1	318.95	1	428.44	1	1014.12	1	40.624723	17.975036
2849	2024-04-28 16:00:00	7	brindisi_sisri	21.1	1	56.66	1	0.0	1	2.98	1	336.21	1	216.31	1	1013.78	1	40.624723	17.975036
2850	2024-04-28 17:00:00	7	brindisi_sisri	20.82	1	58.17	1	0.0	1	2.59	1	332.77	1	277.35	1	1013.57	1	40.624723	17.975036
2851	2024-04-28 18:00:00	7	brindisi_sisri	20.04	1	60.79	1	0.0	1	2.08	1	330.26	1	189.92	1	1013.4	1	40.624723	17.975036
2852	2024-04-28 19:00:00	7	brindisi_sisri	17.43	1	71.56	1	0.0	1	1.81	1	338.74	1	13.46	1	1013.35	1	40.624723	17.975036
2853	2024-04-28 20:00:00	7	brindisi_sisri	16.44	1	79.38	1	0.0	1	1.96	1	353.97	1	0.0	5	1013.56	1	40.624723	17.975036
2854	2024-04-28 21:00:00	7	brindisi_sisri	15.53	1	85.22	1	0.0	1	1.01	1	11.61	1	0.0	5	1014.25	1	40.624723	17.975036
2855	2024-04-28 22:00:00	7	brindisi_sisri	13.48	1	88.95	1	0.0	1	1.25	1	205.44	1	0.0	5	1014.54	1	40.624723	17.975036
2856	2024-04-28 23:00:00	7	brindisi_sisri	12.8	1	91.74	1	0.0	1	0.5	1	254.28	1	0.0	5	1014.46	1	40.624723	17.975036
2857	2024-04-29 00:00:00	7	brindisi_sisri	12.48	1	93.98	1	0.0	1	1.05	1	232.58	1	0.0	5	1014.55	1	40.624723	17.975036
2858	2024-04-29 01:00:00	7	brindisi_sisri	12.47	1	95.44	1	0.0	1	1.17	1	243.82	1	0.0	5	1014.48	1	40.624723	17.975036
2859	2024-04-29 02:00:00	7	brindisi_sisri	12.56	1	95.34	1	0.0	1	0.81	1	271.69	1	0.0	5	1014.15	1	40.624723	17.975036
2860	2024-04-29 03:00:00	7	brindisi_sisri	13.18	1	94.75	1	0.0	1	1.65	1	295.13	1	0.0	5	1013.95	1	40.624723	17.975036
2861	2024-04-29 04:00:00	7	brindisi_sisri	13.84	1	92.87	1	0.0	1	1.41	1	273.59	1	0.0	5	1013.91	1	40.624723	17.975036
2862	2024-04-29 05:00:00	7	brindisi_sisri	11.53	1	91.99	1	0.0	1	0.95	1	209.1	1	0.0	5	1014.08	1	40.624723	17.975036
2863	2024-04-29 06:00:00	7	brindisi_sisri	11.92	1	93.16	1	0.0	1	0.52	1	234.46	1	85.49	1	1014.42	1	40.624723	17.975036
2864	2024-04-29 07:00:00	7	brindisi_sisri	17.15	1	85.59	1	0.0	1	2.69	1	299.85	1	275.07	1	1014.72	1	40.624723	17.975036
2865	2024-04-29 08:00:00	7	brindisi_sisri	19.35	1	75.56	1	0.0	1	3.72	1	301.55	1	344.67	1	1014.91	1	40.624723	17.975036
2866	2024-04-29 09:00:00	7	brindisi_sisri	20.41	1	66.34	1	0.0	1	4.14	1	306.6	1	667.05	1	1015.2	1	40.624723	17.975036
2867	2024-04-29 10:00:00	7	brindisi_sisri	20.89	1	64.86	1	0.0	1	5.02	1	303.93	1	803.27	1	1015.47	1	40.624723	17.975036
2868	2024-04-29 11:00:00	7	brindisi_sisri	21.13	1	57.51	1	0.0	1	5.29	1	308.87	1	917.57	1	1015.52	1	40.624723	17.975036
2869	2024-04-29 12:00:00	7	brindisi_sisri	21.75	1	52.52	1	0.0	1	4.59	1	307.91	1	982.85	1	1015.38	1	40.624723	17.975036
2870	2024-04-29 13:00:00	7	brindisi_sisri	21.58	1	58.46	1	0.0	1	4.84	1	316.9	1	817.11	1	1015.18	1	40.624723	17.975036
2871	2024-04-29 14:00:00	7	brindisi_sisri	21.04	1	64.77	1	0.0	1	5.28	1	316.08	1	642.73	1	1014.72	1	40.624723	17.975036
2872	2024-04-29 15:00:00	7	brindisi_sisri	21.32	1	67.05	1	0.0	1	4.72	1	316.62	1	503.15	1	1014.32	1	40.624723	17.975036
2873	2024-04-29 16:00:00	7	brindisi_sisri	21.18	1	67.79	1	0.0	1	4.66	1	306.92	1	235.5	1	1014.07	1	40.624723	17.975036
2874	2024-04-29 17:00:00	7	brindisi_sisri	20.77	1	68.29	1	0.0	1	4.48	1	302.05	1	324.38	1	1014.03	1	40.624723	17.975036
2875	2024-04-29 18:00:00	7	brindisi_sisri	19.83	1	75.15	1	0.0	1	3.42	1	300.64	1	188.31	1	1014.09	1	40.624723	17.975036
2876	2024-04-29 19:00:00	7	brindisi_sisri	17.68	1	87.16	1	0.0	1	3.16	1	296.96	1	14.97	1	1014.14	1	40.624723	17.975036
2877	2024-04-29 20:00:00	7	brindisi_sisri	16.75	1	93.29	1	0.0	1	3.24	1	295.43	1	0.0	5	1014.31	1	40.624723	17.975036
2878	2024-04-29 21:00:00	7	brindisi_sisri	16.43	1	95.72	1	0.0	1	2.4	1	296.79	1	0.0	5	1014.92	1	40.624723	17.975036
2879	2024-04-29 22:00:00	7	brindisi_sisri	16.2	1	97.46	1	0.0	1	1.98	1	300.82	1	0.0	5	1015.17	1	40.624723	17.975036
2880	2024-04-29 23:00:00	7	brindisi_sisri	15.87	1	98.78	1	0.0	1	1.28	1	287.85	1	0.0	5	1015.3	1	40.624723	17.975036
2881	2024-04-30 00:00:00	7	brindisi_sisri	15.57	1	99.03	1	0.0	1	1.14	1	269.77	1	0.0	5	1015.41	1	40.624723	17.975036
2882	2024-04-30 01:00:00	7	brindisi_sisri	14.88	1	99.03	1	0.0	1	1.2	1	258.54	1	0.0	5	1014.73	1	40.624723	17.975036
2883	2024-04-30 02:00:00	7	brindisi_sisri	14.42	1	98.59	1	0.0	1	1.51	1	263.21	1	0.0	5	1014.47	1	40.624723	17.975036
2884	2024-04-30 03:00:00	7	brindisi_sisri	14.61	1	95.47	1	0.0	1	2.48	1	285.74	1	0.0	1	1014.22	1	40.624723	17.975036
2885	2024-04-30 04:00:00	7	brindisi_sisri	14.48	1	90.38	1	0.0	1	2.41	1	273.59	1	0.0	1	1013.85	1	40.624723	17.975036
2886	2024-04-30 05:00:00	7	brindisi_sisri	14.68	1	88.6	1	0.0	1	2.68	1	290.36	1	0.0	5	1013.73	1	40.624723	17.975036
2887	2024-04-30 06:00:00	7	brindisi_sisri	15.81	1	91.59	1	0.0	1	2.8	1	293.73	1	89.99	1	1013.97	1	40.624723	17.975036
2888	2024-04-30 07:00:00	7	brindisi_sisri	17.8	1	81.73	1	0.0	1	3.4	1	287.39	1	279.49	1	1013.95	1	40.624723	17.975036
2889	2024-04-30 08:00:00	7	brindisi_sisri	19.05	1	77.36	1	0.0	1	4.76	1	301.78	1	346.47	1	1014.07	1	40.624723	17.975036
2890	2024-04-30 09:00:00	7	brindisi_sisri	20.42	1	73.12	1	0.0	1	3.87	1	296.91	1	665.11	1	1014.27	1	40.624723	17.975036
2891	2024-04-30 10:00:00	7	brindisi_sisri	21.13	1	68.61	1	0.0	1	3.94	1	307.33	1	804.77	1	1014.18	1	40.624723	17.975036
2892	2024-04-30 11:00:00	7	brindisi_sisri	21.78	1	65.84	1	0.0	1	3.97	1	301.64	1	905.27	1	1013.97	1	40.624723	17.975036
2893	2024-04-30 12:00:00	7	brindisi_sisri	21.75	1	67.37	1	0.0	1	4.28	1	320.42	1	920.14	1	1013.63	1	40.624723	17.975036
2894	2024-04-30 13:00:00	7	brindisi_sisri	21.79	1	67.54	1	0.0	1	3.95	1	315.69	1	780.66	1	1012.98	1	40.624723	17.975036
2895	2024-04-30 14:00:00	7	brindisi_sisri	22.05	1	66.19	1	0.0	1	3.35	1	347.79	1	560.57	1	1012.43	1	40.624723	17.975036
2896	2024-04-30 15:00:00	7	brindisi_sisri	22.89	1	56.59	1	0.0	1	2.35	1	10.05	1	482.77	1	1011.82	1	40.624723	17.975036
2897	2024-04-30 16:00:00	7	brindisi_sisri	23.48	1	50.14	1	0.0	1	2.54	1	22.37	1	262.46	1	1011.21	1	40.624723	17.975036
2898	2024-04-30 17:00:00	7	brindisi_sisri	21.89	1	59.62	1	0.0	1	2.67	1	76.29	1	184.44	1	1011.08	1	40.624723	17.975036
2899	2024-04-30 18:00:00	7	brindisi_sisri	20.28	1	72.16	1	0.0	1	1.97	1	79.21	1	86.98	1	1010.57	1	40.624723	17.975036
2900	2024-04-30 19:00:00	7	brindisi_sisri	18.58	1	84.75	1	0.0	1	1.29	1	141.14	1	13.31	1	1010.42	1	40.624723	17.975036
2901	2024-04-30 20:00:00	7	brindisi_sisri	17.49	1	88.86	1	0.0	1	1.6	1	144.47	1	0.0	5	1010.65	1	40.624723	17.975036
2902	2024-04-30 21:00:00	7	brindisi_sisri	16.28	1	87.66	1	0.0	1	0.86	1	151.19	1	0.0	5	1010.84	1	40.624723	17.975036
2903	2024-04-30 22:00:00	7	brindisi_sisri	16.09	1	84.24	1	0.0	1	0.76	1	165.09	1	0.0	5	1010.64	1	40.624723	17.975036
2904	2024-04-30 23:00:00	7	brindisi_sisri	15.59	1	88.14	1	0.0	1	1.07	1	132.63	1	0.0	5	1010.75	1	40.624723	17.975036
2905	2024-05-01 00:00:00	7	brindisi_sisri	15.02	1	91.46	1	0.0	1	0.53	1	87.7	1	0.0	5	1010.37	1	40.624723	17.975036
2906	2024-05-01 01:00:00	7	brindisi_sisri	14.41	1	93.08	1	0.0	1	1.29	1	107.4	1	0.0	5	1009.65	1	40.624723	17.975036
2907	2024-05-01 02:00:00	7	brindisi_sisri	14.51	1	94.02	1	0.0	1	1.26	1	116.53	1	0.0	5	1009.22	1	40.624723	17.975036
2908	2024-05-01 03:00:00	7	brindisi_sisri	14.79	1	93.83	1	0.0	1	2.02	1	136.09	1	0.0	5	1009.14	1	40.624723	17.975036
2909	2024-05-01 04:00:00	7	brindisi_sisri	14.82	1	90.39	1	0.0	1	1.16	1	88.17	1	0.0	5	1008.91	1	40.624723	17.975036
2910	2024-05-01 05:00:00	7	brindisi_sisri	15.11	1	86.59	1	0.0	1	1.32	1	136.28	1	0.0	5	1008.57	1	40.624723	17.975036
2911	2024-05-01 06:00:00	7	brindisi_sisri	15.38	1	86.93	1	0.0	1	2.37	1	142.84	1	83.26	1	1008.63	1	40.624723	17.975036
2912	2024-05-01 07:00:00	7	brindisi_sisri	18.68	1	77.06	1	0.0	1	2.65	1	106.42	1	164.52	1	1008.8	1	40.624723	17.975036
2913	2024-05-01 08:00:00	7	brindisi_sisri	19.95	1	62.71	1	0.0	1	4.32	1	122.72	1	287.22	1	1008.76	1	40.624723	17.975036
2914	2024-05-01 09:00:00	7	brindisi_sisri	22.19	1	48.2	1	0.0	1	6.61	1	134.63	1	643.57	1	1008.26	1	40.624723	17.975036
2915	2024-05-01 10:00:00	7	brindisi_sisri	23.63	1	41.53	1	0.0	1	6.81	1	133.53	1	767.12	1	1007.98	1	40.624723	17.975036
2916	2024-05-01 11:00:00	7	brindisi_sisri	25.34	1	33.37	1	0.0	1	7.69	1	143.29	1	886.97	1	1007.77	1	40.624723	17.975036
2917	2024-05-01 12:00:00	7	brindisi_sisri	25.09	1	34.71	1	0.0	1	8.61	1	164.96	1	716.25	1	1007.82	1	40.624723	17.975036
2918	2024-05-01 13:00:00	7	brindisi_sisri	24.91	1	40.66	1	0.0	1	8.77	1	157.45	1	785.87	1	1007.52	1	40.624723	17.975036
2919	2024-05-01 14:00:00	7	brindisi_sisri	24.53	1	42.82	1	0.0	1	8.31	1	156.25	1	427.38	1	1007.42	1	40.624723	17.975036
2920	2024-05-01 15:00:00	7	brindisi_sisri	22.1	1	59.06	1	0.0	1	6.71	1	157.88	1	289.08	1	1007.03	1	40.624723	17.975036
2921	2024-05-01 16:00:00	7	brindisi_sisri	23.82	1	53.08	1	0.0	1	7.8	1	150.2	1	258.69	1	1006.52	1	40.624723	17.975036
2922	2024-05-01 17:00:00	7	brindisi_sisri	23.25	1	53.72	1	0.0	1	7.32	1	150.2	1	134.01	1	1006.35	1	40.624723	17.975036
2923	2024-05-01 18:00:00	7	brindisi_sisri	20.22	1	74.1	1	1.6	1	5.34	1	167.68	1	10.73	1	1006.9	1	40.624723	17.975036
2924	2024-05-01 19:00:00	7	brindisi_sisri	18.11	1	91.89	1	0.2	1	4.0	1	137.94	1	0.0	5	1006.88	1	40.624723	17.975036
2925	2024-05-01 20:00:00	7	brindisi_sisri	17.86	1	91.96	1	0.0	1	3.36	1	166.85	1	0.0	5	1007.6	1	40.624723	17.975036
2926	2024-05-01 21:00:00	7	brindisi_sisri	17.67	1	94.9	1	0.2	1	3.87	1	165.26	1	0.0	5	1008.05	1	40.624723	17.975036
2927	2024-05-01 22:00:00	7	brindisi_sisri	17.57	1	96.7	1	0.0	1	5.19	1	161.41	1	0.0	5	1007.92	1	40.624723	17.975036
2928	2024-05-01 23:00:00	7	brindisi_sisri	17.51	1	97.66	1	0.2	1	6.3	1	160.09	1	0.0	5	1007.63	1	40.624723	17.975036
2929	2024-05-02 00:00:00	7	brindisi_sisri	17.3	1	99.0	1	0.0	1	4.75	1	166.71	1	0.0	5	1007.73	1	40.624723	17.975036
2930	2024-05-02 01:00:00	7	brindisi_sisri	17.2	1	99.06	1	0.2	1	4.42	1	161.37	1	0.0	5	1007.72	1	40.624723	17.975036
2931	2024-05-02 02:00:00	7	brindisi_sisri	17.17	1	99.07	1	0.0	1	3.25	1	169.29	1	0.0	5	1007.53	1	40.624723	17.975036
2932	2024-05-02 03:00:00	7	brindisi_sisri	16.95	1	99.08	1	0.0	1	2.47	1	155.37	1	0.0	5	1007.05	1	40.624723	17.975036
2933	2024-05-02 04:00:00	7	brindisi_sisri	16.61	1	99.09	1	0.0	1	3.01	1	157.82	1	0.0	5	1007.3	1	40.624723	17.975036
2934	2024-05-02 05:00:00	7	brindisi_sisri	16.37	1	99.1	1	0.0	1	1.53	1	178.04	1	0.0	5	1007.52	1	40.624723	17.975036
2935	2024-05-02 06:00:00	7	brindisi_sisri	16.0	1	99.1	1	0.0	1	1.28	1	172.26	1	19.49	1	1007.82	1	40.624723	17.975036
2936	2024-05-02 07:00:00	7	brindisi_sisri	16.74	1	99.1	1	0.0	1	1.62	1	150.9	1	121.19	1	1007.95	1	40.624723	17.975036
2937	2024-05-02 08:00:00	7	brindisi_sisri	19.18	1	93.26	1	0.0	1	1.71	1	205.31	1	325.07	1	1007.76	1	40.624723	17.975036
2938	2024-05-02 09:00:00	7	brindisi_sisri	22.32	1	63.52	1	0.0	1	0.83	1	27.06	1	625.23	1	1007.58	1	40.624723	17.975036
2939	2024-05-02 10:00:00	7	brindisi_sisri	21.4	1	65.32	1	0.0	1	3.02	1	46.38	1	544.56	1	1007.75	1	40.624723	17.975036
2940	2024-05-02 11:00:00	7	brindisi_sisri	21.82	1	58.15	1	0.0	1	2.39	1	45.65	1	475.71	1	1007.97	1	40.624723	17.975036
2941	2024-05-02 12:00:00	7	brindisi_sisri	22.42	1	50.09	1	0.0	1	3.31	1	36.04	1	938.06	1	1007.48	1	40.624723	17.975036
2942	2024-05-02 13:00:00	7	brindisi_sisri	22.32	1	44.7	1	0.0	1	3.63	1	40.99	1	649.17	1	1007.33	1	40.624723	17.975036
2943	2024-05-02 14:00:00	7	brindisi_sisri	22.7	1	45.08	1	0.0	1	4.54	1	71.24	1	489.8	1	1007.05	1	40.624723	17.975036
2944	2024-05-02 15:00:00	7	brindisi_sisri	21.15	1	52.76	1	0.0	1	4.5	1	76.23	1	239.6	1	1006.92	1	40.624723	17.975036
2945	2024-05-02 16:00:00	7	brindisi_sisri	23.24	1	47.91	1	0.0	1	5.04	1	179.72	1	233.72	1	1006.32	1	40.624723	17.975036
2946	2024-05-02 17:00:00	7	brindisi_sisri	24.04	1	45.39	1	0.0	1	6.1	1	180.45	1	233.3	1	1006.0	1	40.624723	17.975036
2947	2024-05-02 18:00:00	7	brindisi_sisri	21.63	1	52.49	1	0.0	1	6.2	1	194.91	1	55.14	1	1005.99	1	40.624723	17.975036
2948	2024-05-02 19:00:00	7	brindisi_sisri	18.63	1	66.89	1	0.0	1	6.47	1	279.31	1	7.41	1	1007.19	1	40.624723	17.975036
2949	2024-05-02 20:00:00	7	brindisi_sisri	15.71	1	87.29	1	1.0	1	5.14	1	285.24	1	0.0	5	1008.28	1	40.624723	17.975036
2950	2024-05-02 21:00:00	7	brindisi_sisri	15.32	1	90.16	1	0.0	1	2.26	1	293.72	1	0.0	5	1008.23	1	40.624723	17.975036
2951	2024-05-02 22:00:00	7	brindisi_sisri	14.81	1	93.19	1	0.0	1	1.97	1	164.46	1	0.0	5	1008.31	1	40.624723	17.975036
2952	2024-05-02 23:00:00	7	brindisi_sisri	13.97	1	97.2	1	0.0	1	1.91	1	172.81	1	0.0	5	1008.76	1	40.624723	17.975036
2953	2024-05-03 00:00:00	7	brindisi_sisri	13.06	1	98.57	1	0.0	1	1.99	1	195.87	1	0.0	5	1008.39	1	40.624723	17.975036
2954	2024-05-03 01:00:00	7	brindisi_sisri	12.7	1	99.0	1	0.0	1	1.62	1	217.19	1	0.0	5	1008.02	1	40.624723	17.975036
2955	2024-05-03 02:00:00	7	brindisi_sisri	11.9	1	95.44	1	0.0	1	2.43	1	229.7	1	0.0	5	1007.7	1	40.624723	17.975036
2956	2024-05-03 03:00:00	7	brindisi_sisri	12.43	1	79.87	1	0.0	1	3.17	1	222.19	1	0.0	1	1007.59	1	40.624723	17.975036
2957	2024-05-03 04:00:00	7	brindisi_sisri	11.41	1	82.5	1	0.0	1	2.17	1	212.36	1	0.0	1	1007.33	1	40.624723	17.975036
2958	2024-05-03 05:00:00	7	brindisi_sisri	10.54	1	84.94	1	0.0	1	2.49	1	202.42	1	0.0	5	1007.05	1	40.624723	17.975036
2959	2024-05-03 06:00:00	7	brindisi_sisri	12.36	1	81.18	1	0.0	1	2.08	1	217.0	1	105.0	1	1007.24	1	40.624723	17.975036
2960	2024-05-03 07:00:00	7	brindisi_sisri	15.65	1	67.43	1	0.0	1	3.37	1	215.97	1	304.88	1	1007.62	1	40.624723	17.975036
2961	2024-05-03 08:00:00	7	brindisi_sisri	17.34	1	54.56	1	0.0	1	4.69	1	227.34	1	359.1	1	1008.0	1	40.624723	17.975036
2962	2024-05-03 09:00:00	7	brindisi_sisri	19.36	1	42.02	1	0.0	1	4.36	1	251.1	1	673.99	1	1008.15	1	40.624723	17.975036
2963	2024-05-03 10:00:00	7	brindisi_sisri	19.55	1	47.16	1	0.0	1	4.54	1	307.84	1	796.34	1	1008.26	1	40.624723	17.975036
2964	2024-05-03 11:00:00	7	brindisi_sisri	19.07	1	49.02	1	0.0	1	5.66	1	322.8	1	950.94	1	1008.3	1	40.624723	17.975036
2965	2024-05-03 12:00:00	7	brindisi_sisri	19.15	1	50.77	1	0.0	1	5.71	1	319.34	1	1005.55	1	1008.24	1	40.624723	17.975036
2966	2024-05-03 13:00:00	7	brindisi_sisri	19.05	1	52.47	1	0.0	1	5.4	1	317.83	1	667.84	1	1008.07	1	40.624723	17.975036
2967	2024-05-03 14:00:00	7	brindisi_sisri	18.48	1	54.61	1	0.0	1	3.97	1	321.83	1	433.25	1	1007.85	1	40.624723	17.975036
2968	2024-05-03 15:00:00	7	brindisi_sisri	19.19	1	53.76	1	0.0	1	3.43	1	327.63	1	458.05	1	1007.64	1	40.624723	17.975036
2969	2024-05-03 16:00:00	7	brindisi_sisri	17.82	1	58.4	1	0.2	1	2.55	1	338.68	1	139.7	1	1007.7	1	40.624723	17.975036
2970	2024-05-03 17:00:00	7	brindisi_sisri	15.13	1	76.85	1	0.6	1	2.92	1	334.67	1	35.01	1	1007.63	1	40.624723	17.975036
2971	2024-05-03 18:00:00	7	brindisi_sisri	13.84	1	85.28	1	2.0	1	2.09	1	304.5	1	25.3	1	1008.17	1	40.624723	17.975036
2972	2024-05-03 19:00:00	7	brindisi_sisri	13.62	1	91.5	1	0.2	1	1.14	1	188.64	1	25.04	1	1008.24	1	40.624723	17.975036
2973	2024-05-03 20:00:00	7	brindisi_sisri	13.52	1	94.18	1	0.0	1	1.4	1	173.39	1	0.0	5	1008.39	1	40.624723	17.975036
2974	2024-05-03 21:00:00	7	brindisi_sisri	13.4	1	96.67	1	0.2	1	0.91	1	184.89	1	0.0	5	1008.59	1	40.624723	17.975036
2975	2024-05-03 22:00:00	7	brindisi_sisri	12.79	1	97.96	1	0.0	1	1.99	1	188.57	1	0.0	5	1008.33	1	40.624723	17.975036
2976	2024-05-03 23:00:00	7	brindisi_sisri	12.05	1	98.7	1	0.2	1	2.2	1	170.23	1	0.0	5	1008.03	1	40.624723	17.975036
2977	2024-05-04 00:00:00	7	brindisi_sisri	11.57	1	98.89	1	0.0	1	2.45	1	214.99	1	0.0	5	1007.88	1	40.624723	17.975036
2978	2024-05-04 01:00:00	7	brindisi_sisri	11.58	1	98.44	1	0.0	1	1.95	1	244.67	1	0.0	5	1007.59	1	40.624723	17.975036
2979	2024-05-04 02:00:00	7	brindisi_sisri	12.09	1	95.11	1	3.4	1	1.09	1	240.99	1	0.0	5	1007.36	1	40.624723	17.975036
2980	2024-05-04 03:00:00	7	brindisi_sisri	11.97	1	93.59	1	0.4	1	1.9	1	253.65	1	0.0	5	1006.88	1	40.624723	17.975036
2981	2024-05-04 04:00:00	7	brindisi_sisri	11.85	1	94.49	1	0.0	1	2.68	1	243.67	1	0.0	5	1007.0	1	40.624723	17.975036
2982	2024-05-04 05:00:00	7	brindisi_sisri	11.79	1	93.64	1	0.0	1	3.29	1	260.7	1	0.0	5	1007.32	1	40.624723	17.975036
2983	2024-05-04 06:00:00	7	brindisi_sisri	12.63	1	85.24	1	0.0	1	3.56	1	261.51	1	101.77	1	1007.71	1	40.624723	17.975036
2984	2024-05-04 07:00:00	7	brindisi_sisri	15.23	1	73.52	1	0.2	1	3.69	1	259.7	1	311.52	1	1007.86	1	40.624723	17.975036
2985	2024-05-04 08:00:00	7	brindisi_sisri	16.83	1	68.68	1	0.0	1	5.06	1	276.38	1	348.26	1	1008.12	1	40.624723	17.975036
2986	2024-05-04 09:00:00	7	brindisi_sisri	17.99	1	64.56	1	0.0	1	5.53	1	282.46	1	696.69	1	1008.55	1	40.624723	17.975036
2987	2024-05-04 10:00:00	7	brindisi_sisri	18.31	1	60.95	1	0.0	1	6.65	1	283.11	1	839.75	1	1008.68	1	40.624723	17.975036
2988	2024-05-04 11:00:00	7	brindisi_sisri	18.7	1	61.32	1	0.0	1	7.18	1	281.33	1	943.04	1	1008.69	1	40.624723	17.975036
2989	2024-05-04 12:00:00	7	brindisi_sisri	18.77	1	63.26	1	0.0	1	7.82	1	294.64	1	954.97	1	1008.86	1	40.624723	17.975036
2990	2024-05-04 13:00:00	7	brindisi_sisri	19.02	1	64.1	1	0.0	1	8.48	1	295.67	1	818.71	1	1008.92	1	40.624723	17.975036
2991	2024-05-04 14:00:00	7	brindisi_sisri	19.16	1	63.41	1	0.0	1	8.6	1	290.02	1	716.01	1	1008.92	1	40.624723	17.975036
2992	2024-05-04 15:00:00	7	brindisi_sisri	19.09	1	64.74	1	0.0	1	8.56	1	296.28	1	475.38	1	1008.98	1	40.624723	17.975036
2993	2024-05-04 16:00:00	7	brindisi_sisri	18.98	1	66.44	1	0.0	1	7.98	1	294.35	1	290.15	1	1009.07	1	40.624723	17.975036
2994	2024-05-04 17:00:00	7	brindisi_sisri	18.47	1	66.01	1	0.0	1	8.01	1	298.55	1	367.42	1	1009.32	1	40.624723	17.975036
2995	2024-05-04 18:00:00	7	brindisi_sisri	17.72	1	70.09	1	0.0	1	7.38	1	299.38	1	202.58	1	1009.41	1	40.624723	17.975036
2996	2024-05-04 19:00:00	7	brindisi_sisri	16.5	1	79.54	1	0.0	1	6.67	1	297.92	1	18.27	1	1009.66	1	40.624723	17.975036
2997	2024-05-04 20:00:00	7	brindisi_sisri	16.04	1	84.23	1	0.0	1	6.65	1	302.43	1	0.0	5	1010.02	1	40.624723	17.975036
2998	2024-05-04 21:00:00	7	brindisi_sisri	15.98	1	85.83	1	0.0	1	6.09	1	302.78	1	0.0	5	1010.71	1	40.624723	17.975036
2999	2024-05-04 22:00:00	7	brindisi_sisri	15.86	1	86.59	1	0.0	1	5.53	1	301.13	1	0.0	5	1011.04	1	40.624723	17.975036
3000	2024-05-04 23:00:00	7	brindisi_sisri	15.8	1	88.41	1	0.0	1	5.3	1	300.9	1	0.0	5	1011.47	1	40.624723	17.975036
3001	2024-05-05 00:00:00	7	brindisi_sisri	15.69	1	89.5	1	0.0	1	4.94	1	302.77	1	0.0	5	1011.41	1	40.624723	17.975036
3002	2024-05-05 01:00:00	7	brindisi_sisri	15.66	1	91.18	1	0.0	1	5.18	1	295.47	1	0.0	5	1011.34	1	40.624723	17.975036
3003	2024-05-05 02:00:00	7	brindisi_sisri	15.54	1	91.55	1	0.0	1	5.23	1	293.62	1	0.0	5	1011.08	1	40.624723	17.975036
3004	2024-05-05 03:00:00	7	brindisi_sisri	15.06	1	91.63	1	0.0	1	3.82	1	281.01	1	0.0	5	1011.12	1	40.624723	17.975036
3005	2024-05-05 04:00:00	7	brindisi_sisri	14.43	1	91.92	1	0.0	1	3.14	1	286.49	1	0.0	5	1011.13	1	40.624723	17.975036
3006	2024-05-05 05:00:00	7	brindisi_sisri	14.4	1	91.11	1	0.0	1	3.25	1	290.72	1	0.0	5	1011.45	1	40.624723	17.975036
3007	2024-05-05 06:00:00	7	brindisi_sisri	15.13	1	86.44	1	0.0	1	3.21	1	285.9	1	103.01	1	1011.79	1	40.624723	17.975036
3008	2024-05-05 07:00:00	7	brindisi_sisri	17.21	1	79.4	1	0.0	1	4.46	1	296.2	1	299.72	1	1012.15	1	40.624723	17.975036
3009	2024-05-05 08:00:00	7	brindisi_sisri	18.14	1	75.55	1	0.0	1	5.2	1	302.16	1	341.62	1	1012.58	1	40.624723	17.975036
3010	2024-05-05 09:00:00	7	brindisi_sisri	19.2	1	71.31	1	0.0	1	5.22	1	302.45	1	685.3	1	1012.82	1	40.624723	17.975036
3011	2024-05-05 10:00:00	7	brindisi_sisri	19.58	1	69.08	1	0.0	1	5.21	1	313.4	1	829.77	1	1012.9	1	40.624723	17.975036
3012	2024-05-05 11:00:00	7	brindisi_sisri	19.56	1	71.23	1	0.0	1	5.12	1	318.27	1	934.33	1	1012.99	1	40.624723	17.975036
3013	2024-05-05 12:00:00	7	brindisi_sisri	19.79	1	72.77	1	0.0	1	4.53	1	339.73	1	991.02	1	1012.73	1	40.624723	17.975036
3014	2024-05-05 13:00:00	7	brindisi_sisri	19.7	1	73.37	1	0.0	1	4.67	1	336.95	1	856.73	1	1012.45	1	40.624723	17.975036
3015	2024-05-05 14:00:00	7	brindisi_sisri	19.91	1	71.78	1	0.0	1	4.74	1	340.1	1	692.05	1	1012.13	1	40.624723	17.975036
3016	2024-05-05 15:00:00	7	brindisi_sisri	20.08	1	70.05	1	0.0	1	4.14	1	347.37	1	527.55	1	1011.67	1	40.624723	17.975036
3017	2024-05-05 16:00:00	7	brindisi_sisri	20.23	1	69.97	1	0.0	1	3.3	1	348.96	1	273.25	1	1011.3	1	40.624723	17.975036
3018	2024-05-05 17:00:00	7	brindisi_sisri	19.98	1	71.48	1	0.0	1	2.4	1	6.86	1	372.29	1	1011.03	1	40.624723	17.975036
3019	2024-05-05 18:00:00	7	brindisi_sisri	19.46	1	74.17	1	0.0	1	1.89	1	85.13	1	196.68	1	1010.88	1	40.624723	17.975036
3020	2024-05-05 19:00:00	7	brindisi_sisri	17.64	1	84.12	1	0.0	1	1.41	1	78.5	1	17.44	1	1011.1	1	40.624723	17.975036
3021	2024-05-05 20:00:00	7	brindisi_sisri	16.21	1	90.97	1	0.0	1	0.83	1	105.25	1	0.0	5	1011.42	1	40.624723	17.975036
3022	2024-05-05 21:00:00	7	brindisi_sisri	15.4	1	93.83	1	0.0	1	1.68	1	129.55	1	0.0	5	1011.77	1	40.624723	17.975036
3023	2024-05-05 22:00:00	7	brindisi_sisri	14.3	1	95.53	1	0.0	1	1.1	1	128.93	1	0.0	5	1011.96	1	40.624723	17.975036
3024	2024-05-05 23:00:00	7	brindisi_sisri	13.28	1	96.92	1	0.0	1	0.93	1	168.39	1	0.0	5	1011.97	1	40.624723	17.975036
3025	2024-05-06 00:00:00	7	brindisi_sisri	12.83	1	97.7	1	0.0	1	1.09	1	142.77	1	0.0	5	1011.71	1	40.624723	17.975036
3026	2024-05-06 01:00:00	7	brindisi_sisri	11.88	1	98.41	1	0.0	1	1.35	1	165.86	1	0.0	5	1011.37	1	40.624723	17.975036
3027	2024-05-06 02:00:00	7	brindisi_sisri	11.64	1	99.02	1	0.0	1	0.88	1	198.38	1	0.0	5	1011.16	1	40.624723	17.975036
3028	2024-05-06 03:00:00	7	brindisi_sisri	11.44	1	99.02	1	0.0	1	0.96	1	167.0	1	0.0	5	1011.06	1	40.624723	17.975036
3029	2024-05-06 04:00:00	7	brindisi_sisri	11.05	1	99.03	1	0.0	1	1.11	1	157.77	1	0.0	5	1010.94	1	40.624723	17.975036
3030	2024-05-06 05:00:00	7	brindisi_sisri	11.84	1	99.05	1	0.0	1	1.31	1	209.61	1	6.03	1	1011.12	1	40.624723	17.975036
3031	2024-05-06 06:00:00	7	brindisi_sisri	13.09	1	98.75	1	0.0	1	0.83	1	116.14	1	101.57	1	1011.33	1	40.624723	17.975036
3032	2024-05-06 07:00:00	7	brindisi_sisri	16.24	1	95.81	1	0.0	1	1.6	1	114.11	1	290.58	1	1011.65	1	40.624723	17.975036
3033	2024-05-06 08:00:00	7	brindisi_sisri	20.01	1	80.64	1	0.0	1	1.85	1	105.7	1	358.11	1	1011.89	1	40.624723	17.975036
3034	2024-05-06 09:00:00	7	brindisi_sisri	22.04	1	64.06	1	0.0	1	2.46	1	87.46	1	676.47	1	1012.07	1	40.624723	17.975036
3035	2024-05-06 10:00:00	7	brindisi_sisri	22.72	1	57.04	1	0.0	1	3.59	1	84.07	1	821.24	1	1011.93	1	40.624723	17.975036
3036	2024-05-06 11:00:00	7	brindisi_sisri	22.86	1	56.72	1	0.0	1	5.02	1	76.48	1	930.84	1	1011.73	1	40.624723	17.975036
3037	2024-05-06 12:00:00	7	brindisi_sisri	23.21	1	51.44	1	0.0	1	5.54	1	88.59	1	975.94	1	1011.55	1	40.624723	17.975036
3038	2024-05-06 13:00:00	7	brindisi_sisri	23.69	1	49.13	1	0.0	1	5.61	1	86.26	1	770.54	1	1011.2	1	40.624723	17.975036
3039	2024-05-06 14:00:00	7	brindisi_sisri	23.82	1	55.23	1	0.0	1	5.05	1	80.51	1	534.99	1	1010.82	1	40.624723	17.975036
3040	2024-05-06 15:00:00	7	brindisi_sisri	24.93	1	40.37	1	0.0	1	5.11	1	169.73	1	381.2	1	1010.41	1	40.624723	17.975036
3041	2024-05-06 16:00:00	7	brindisi_sisri	24.33	1	40.1	1	0.0	1	5.92	1	179.08	1	280.26	1	1010.39	1	40.624723	17.975036
3042	2024-05-06 17:00:00	7	brindisi_sisri	23.18	1	41.43	1	0.0	1	5.77	1	174.67	1	274.04	1	1010.57	1	40.624723	17.975036
3043	2024-05-06 18:00:00	7	brindisi_sisri	22.12	1	49.42	1	0.0	1	5.21	1	171.0	1	208.29	1	1010.66	1	40.624723	17.975036
3044	2024-05-06 19:00:00	7	brindisi_sisri	19.38	1	61.18	1	0.0	1	3.05	1	169.25	1	18.1	1	1010.78	1	40.624723	17.975036
3045	2024-05-06 20:00:00	7	brindisi_sisri	16.87	1	73.02	1	0.0	1	1.86	1	176.3	1	0.0	5	1010.91	1	40.624723	17.975036
3046	2024-05-06 21:00:00	7	brindisi_sisri	15.47	1	83.51	1	0.0	1	1.53	1	168.86	1	0.0	5	1011.45	1	40.624723	17.975036
3047	2024-05-06 22:00:00	7	brindisi_sisri	14.05	1	89.49	1	0.0	1	1.91	1	158.17	1	0.0	5	1011.38	1	40.624723	17.975036
3048	2024-05-06 23:00:00	7	brindisi_sisri	13.59	1	92.38	1	0.0	1	1.55	1	145.94	1	0.0	5	1011.36	1	40.624723	17.975036
3049	2024-05-07 00:00:00	7	brindisi_sisri	13.03	1	94.34	1	0.0	1	1.62	1	149.04	1	0.0	5	1011.19	1	40.624723	17.975036
3050	2024-05-07 01:00:00	7	brindisi_sisri	12.79	1	97.02	1	0.0	1	1.57	1	149.08	1	0.0	5	1010.9	1	40.624723	17.975036
3051	2024-05-07 02:00:00	7	brindisi_sisri	12.61	1	98.69	1	0.0	1	1.26	1	159.44	1	0.0	5	1010.67	1	40.624723	17.975036
3052	2024-05-07 03:00:00	7	brindisi_sisri	12.52	1	99.01	1	0.0	1	1.6	1	117.17	1	0.0	5	1010.32	1	40.624723	17.975036
3053	2024-05-07 04:00:00	7	brindisi_sisri	13.05	1	99.03	1	0.0	1	2.01	1	116.72	1	0.0	5	1010.19	1	40.624723	17.975036
3054	2024-05-07 05:00:00	7	brindisi_sisri	13.36	1	99.06	1	0.0	1	2.48	1	115.11	1	6.61	1	1010.2	1	40.624723	17.975036
3055	2024-05-07 06:00:00	7	brindisi_sisri	14.96	1	99.07	1	0.0	1	2.89	1	113.35	1	79.46	1	1010.32	1	40.624723	17.975036
3056	2024-05-07 07:00:00	7	brindisi_sisri	16.53	1	97.08	1	0.0	1	3.4	1	126.52	1	215.8	1	1010.54	1	40.624723	17.975036
3057	2024-05-07 08:00:00	7	brindisi_sisri	18.53	1	82.79	1	0.0	1	5.24	1	133.3	1	306.72	1	1010.56	1	40.624723	17.975036
3058	2024-05-07 09:00:00	7	brindisi_sisri	20.28	1	71.83	1	0.0	1	5.13	1	143.49	1	522.06	1	1010.62	1	40.624723	17.975036
3059	2024-05-07 10:00:00	7	brindisi_sisri	21.88	1	64.43	1	0.0	1	5.15	1	150.79	1	594.89	1	1010.68	1	40.624723	17.975036
3060	2024-05-07 11:00:00	7	brindisi_sisri	22.85	1	62.68	1	0.0	1	6.26	1	164.7	1	623.91	1	1010.8	1	40.624723	17.975036
3061	2024-05-07 12:00:00	7	brindisi_sisri	22.55	1	61.67	1	0.0	1	6.41	1	159.61	1	797.78	1	1010.45	1	40.624723	17.975036
3062	2024-05-07 13:00:00	7	brindisi_sisri	23.44	1	59.13	1	0.0	1	6.29	1	161.01	1	724.41	1	1010.04	1	40.624723	17.975036
3063	2024-05-07 14:00:00	7	brindisi_sisri	24.07	1	55.99	1	0.0	1	6.22	1	158.86	1	526.31	1	1009.73	1	40.624723	17.975036
3064	2024-05-07 15:00:00	7	brindisi_sisri	24.09	1	52.25	1	0.0	1	6.39	1	161.68	1	426.62	1	1009.19	1	40.624723	17.975036
3065	2024-05-07 16:00:00	7	brindisi_sisri	24.39	1	54.64	1	0.0	1	5.18	1	172.56	1	284.56	1	1008.86	1	40.624723	17.975036
3066	2024-05-07 17:00:00	7	brindisi_sisri	23.44	1	58.77	1	0.0	1	6.27	1	180.56	1	216.23	1	1009.05	1	40.624723	17.975036
3067	2024-05-07 18:00:00	7	brindisi_sisri	20.03	1	69.15	1	0.0	1	6.65	1	173.19	1	75.75	1	1009.42	1	40.624723	17.975036
3068	2024-05-07 19:00:00	7	brindisi_sisri	18.47	1	80.09	1	0.0	1	5.07	1	165.62	1	15.41	1	1009.55	1	40.624723	17.975036
3069	2024-05-07 20:00:00	7	brindisi_sisri	17.74	1	85.7	1	0.0	1	3.52	1	157.27	1	0.0	5	1009.62	1	40.624723	17.975036
3070	2024-05-07 21:00:00	7	brindisi_sisri	17.1	1	88.6	1	0.0	1	1.98	1	149.66	1	0.0	5	1009.79	1	40.624723	17.975036
3071	2024-05-07 22:00:00	7	brindisi_sisri	16.58	1	88.98	1	0.0	1	2.48	1	128.76	1	0.0	5	1009.73	1	40.624723	17.975036
3072	2024-05-07 23:00:00	7	brindisi_sisri	16.57	1	89.29	1	0.0	1	1.85	1	176.55	1	0.0	5	1010.04	1	40.624723	17.975036
3073	2024-05-08 00:00:00	7	brindisi_sisri	16.35	1	91.47	1	0.0	1	1.76	1	178.24	1	0.0	5	1010.46	1	40.624723	17.975036
3074	2024-05-08 01:00:00	7	brindisi_sisri	16.22	1	94.17	1	0.0	1	1.86	1	143.13	1	0.0	5	1010.13	1	40.624723	17.975036
3075	2024-05-08 02:00:00	7	brindisi_sisri	15.92	1	96.7	1	0.0	1	1.59	1	145.27	1	0.0	5	1009.59	1	40.624723	17.975036
3076	2024-05-08 03:00:00	7	brindisi_sisri	15.74	1	98.52	1	0.0	1	1.43	1	178.3	1	0.0	5	1009.53	1	40.624723	17.975036
3077	2024-05-08 04:00:00	7	brindisi_sisri	15.96	1	99.02	1	0.0	1	1.48	1	190.55	1	0.0	5	1009.21	1	40.624723	17.975036
3078	2024-05-08 05:00:00	7	brindisi_sisri	15.16	1	99.03	1	0.0	1	1.06	1	110.22	1	5.4	1	1009.12	1	40.624723	17.975036
3079	2024-05-08 06:00:00	7	brindisi_sisri	15.62	1	99.04	1	0.0	1	0.65	1	186.85	1	90.53	1	1009.42	1	40.624723	17.975036
3080	2024-05-08 07:00:00	7	brindisi_sisri	18.42	1	95.86	1	0.0	1	0.76	1	79.32	1	269.44	1	1009.47	1	40.624723	17.975036
3081	2024-05-08 08:00:00	7	brindisi_sisri	20.35	1	82.31	1	0.0	1	2.1	1	26.21	1	345.31	1	1009.82	1	40.624723	17.975036
3082	2024-05-08 09:00:00	7	brindisi_sisri	20.84	1	77.34	1	0.0	1	2.57	1	41.7	1	582.91	1	1010.07	1	40.624723	17.975036
3083	2024-05-08 10:00:00	7	brindisi_sisri	21.35	1	74.54	1	0.0	1	2.71	1	71.95	1	747.76	1	1010.26	1	40.624723	17.975036
3084	2024-05-08 11:00:00	7	brindisi_sisri	21.96	1	70.29	1	0.0	1	2.51	1	61.93	1	819.16	1	1010.08	1	40.624723	17.975036
3085	2024-05-08 12:00:00	7	brindisi_sisri	22.34	1	68.63	1	0.0	1	2.68	1	41.42	1	902.66	1	1009.62	1	40.624723	17.975036
3086	2024-05-08 13:00:00	7	brindisi_sisri	22.58	1	63.18	1	0.0	1	3.77	1	328.43	1	750.04	1	1009.16	1	40.624723	17.975036
3087	2024-05-08 14:00:00	7	brindisi_sisri	22.15	1	66.85	1	0.0	1	5.04	1	318.6	1	714.86	1	1008.6	1	40.624723	17.975036
3088	2024-05-08 15:00:00	7	brindisi_sisri	21.12	1	73.7	1	0.0	1	5.73	1	322.88	1	487.53	1	1007.97	1	40.624723	17.975036
3089	2024-05-08 16:00:00	7	brindisi_sisri	20.48	1	79.2	1	0.0	1	6.25	1	318.3	1	336.36	1	1007.74	1	40.624723	17.975036
3090	2024-05-08 17:00:00	7	brindisi_sisri	20.01	1	81.9	1	0.0	1	5.22	1	330.1	1	330.6	1	1007.7	1	40.624723	17.975036
3091	2024-05-08 18:00:00	7	brindisi_sisri	18.93	1	87.82	1	0.0	1	4.22	1	333.69	1	110.09	1	1007.73	1	40.624723	17.975036
3092	2024-05-08 19:00:00	7	brindisi_sisri	18.05	1	91.79	1	0.0	1	3.12	1	315.68	1	21.24	1	1007.97	1	40.624723	17.975036
3093	2024-05-08 20:00:00	7	brindisi_sisri	17.58	1	93.0	1	0.0	1	3.13	1	296.2	1	0.0	5	1008.1	1	40.624723	17.975036
3094	2024-05-08 21:00:00	7	brindisi_sisri	17.45	1	93.75	1	0.0	1	3.32	1	300.99	1	0.0	5	1008.86	1	40.624723	17.975036
3095	2024-05-08 22:00:00	7	brindisi_sisri	17.59	1	93.65	1	0.0	1	4.75	1	295.47	1	0.0	5	1008.87	1	40.624723	17.975036
3096	2024-05-08 23:00:00	7	brindisi_sisri	17.68	1	93.77	1	0.0	1	3.34	1	316.3	1	0.0	5	1009.38	1	40.624723	17.975036
3097	2024-05-09 00:00:00	7	brindisi_sisri	17.55	1	95.61	1	0.0	1	5.14	1	303.78	1	0.0	5	1008.55	1	40.624723	17.975036
3098	2024-05-09 01:00:00	7	brindisi_sisri	17.45	1	97.56	1	0.0	1	5.51	1	307.0	1	0.0	5	1008.03	1	40.624723	17.975036
3099	2024-05-09 02:00:00	7	brindisi_sisri	17.4	1	98.04	1	0.2	1	5.8	1	302.89	1	0.0	5	1007.52	1	40.624723	17.975036
3100	2024-05-09 03:00:00	7	brindisi_sisri	17.32	1	98.18	1	0.0	1	5.94	1	301.38	1	0.0	5	1007.31	1	40.624723	17.975036
3101	2024-05-09 04:00:00	7	brindisi_sisri	17.21	1	97.21	1	0.0	1	5.78	1	305.81	1	0.0	5	1007.39	1	40.624723	17.975036
3102	2024-05-09 05:00:00	7	brindisi_sisri	17.16	1	95.84	1	0.0	1	5.4	1	309.66	1	0.0	5	1007.67	1	40.624723	17.975036
3103	2024-05-09 06:00:00	7	brindisi_sisri	17.37	1	93.07	1	0.0	1	5.96	1	309.92	1	35.77	1	1008.05	1	40.624723	17.975036
3104	2024-05-09 07:00:00	7	brindisi_sisri	17.86	1	89.88	1	0.0	1	5.76	1	306.8	1	121.44	1	1008.46	1	40.624723	17.975036
3105	2024-05-09 08:00:00	7	brindisi_sisri	18.5	1	88.73	1	0.0	1	4.92	1	302.75	1	193.19	1	1008.58	1	40.624723	17.975036
3106	2024-05-09 09:00:00	7	brindisi_sisri	19.0	1	84.95	1	0.0	1	5.5	1	301.2	1	325.4	1	1008.33	1	40.624723	17.975036
3107	2024-05-09 10:00:00	7	brindisi_sisri	18.73	1	86.01	1	0.0	1	5.36	1	295.81	1	171.3	1	1008.18	1	40.624723	17.975036
3108	2024-05-09 11:00:00	7	brindisi_sisri	18.25	1	90.67	1	0.0	1	5.54	1	301.94	1	211.37	1	1008.42	1	40.624723	17.975036
3109	2024-05-09 12:00:00	7	brindisi_sisri	20.75	1	79.64	1	0.0	1	6.2	1	291.7	1	913.57	1	1008.2	1	40.624723	17.975036
3110	2024-05-09 13:00:00	7	brindisi_sisri	21.51	1	73.56	1	0.0	1	6.98	1	299.01	1	815.01	1	1007.77	1	40.624723	17.975036
3111	2024-05-09 14:00:00	7	brindisi_sisri	22.02	1	67.95	1	0.0	1	6.37	1	307.51	1	743.69	1	1007.22	1	40.624723	17.975036
3112	2024-05-09 15:00:00	7	brindisi_sisri	22.34	1	63.62	1	0.0	1	6.47	1	313.35	1	574.79	1	1006.57	1	40.624723	17.975036
3113	2024-05-09 16:00:00	7	brindisi_sisri	21.43	1	65.7	1	0.0	1	6.44	1	310.33	1	279.57	1	1006.26	1	40.624723	17.975036
3114	2024-05-09 17:00:00	7	brindisi_sisri	21.04	1	69.16	1	0.0	1	5.77	1	307.24	1	285.82	1	1006.16	1	40.624723	17.975036
3115	2024-05-09 18:00:00	7	brindisi_sisri	20.24	1	72.13	1	0.0	1	5.61	1	299.96	1	144.26	1	1006.28	1	40.624723	17.975036
3116	2024-05-09 19:00:00	7	brindisi_sisri	19.49	1	74.13	1	0.0	1	4.71	1	293.14	1	31.44	1	1006.89	1	40.624723	17.975036
3117	2024-05-09 20:00:00	7	brindisi_sisri	18.95	1	81.48	1	0.0	1	4.19	1	294.93	1	0.0	5	1007.39	1	40.624723	17.975036
3118	2024-05-09 21:00:00	7	brindisi_sisri	18.88	1	85.8	1	0.0	1	4.1	1	295.64	1	0.0	5	1007.9	1	40.624723	17.975036
3119	2024-05-09 22:00:00	7	brindisi_sisri	18.74	1	86.59	1	0.0	1	3.03	1	279.28	1	0.0	5	1007.9	1	40.624723	17.975036
3120	2024-05-09 23:00:00	7	brindisi_sisri	18.88	1	84.41	1	0.0	1	2.83	1	286.77	1	0.0	5	1007.92	1	40.624723	17.975036
3121	2024-05-10 00:00:00	7	brindisi_sisri	18.62	1	86.91	1	0.0	1	2.23	1	300.55	1	0.0	5	1008.11	1	40.624723	17.975036
3122	2024-05-10 01:00:00	7	brindisi_sisri	18.22	1	90.23	1	0.0	1	1.23	1	6.55	1	0.0	5	1008.02	1	40.624723	17.975036
3123	2024-05-10 02:00:00	7	brindisi_sisri	17.81	1	91.74	1	0.0	1	0.17	1	270.07	1	0.0	5	1007.87	1	40.624723	17.975036
3124	2024-05-10 03:00:00	7	brindisi_sisri	17.72	1	92.85	1	0.0	1	1.5	1	295.79	1	0.0	5	1007.69	1	40.624723	17.975036
3125	2024-05-10 04:00:00	7	brindisi_sisri	17.47	1	94.34	1	0.0	1	2.66	1	301.93	1	0.0	5	1007.5	1	40.624723	17.975036
3126	2024-05-10 05:00:00	7	brindisi_sisri	17.29	1	93.39	1	0.0	1	2.94	1	304.85	1	8.24	1	1007.52	1	40.624723	17.975036
3127	2024-05-10 06:00:00	7	brindisi_sisri	18.34	1	83.28	1	0.0	1	3.95	1	321.91	1	111.96	1	1007.91	1	40.624723	17.975036
3128	2024-05-10 07:00:00	7	brindisi_sisri	19.77	1	76.22	1	0.0	1	3.24	1	320.74	1	289.53	1	1008.32	1	40.624723	17.975036
3129	2024-05-10 08:00:00	7	brindisi_sisri	20.92	1	70.04	1	0.0	1	4.56	1	320.48	1	347.02	1	1008.77	1	40.624723	17.975036
3130	2024-05-10 09:00:00	7	brindisi_sisri	21.43	1	66.71	1	0.0	1	5.76	1	315.0	1	687.73	1	1009.18	1	40.624723	17.975036
3131	2024-05-10 10:00:00	7	brindisi_sisri	21.83	5	null	6	0.0	5	null	6	null	6	null	6	1009.21	5	40.624723	17.975036
3132	2024-05-10 11:00:00	7	brindisi_sisri	22.23	1	62.3	1	0.0	1	6.3	1	308.67	1	934.04	1	1009.24	1	40.624723	17.975036
3133	2024-05-10 12:00:00	7	brindisi_sisri	21.91	1	67.06	1	0.0	1	6.93	1	311.51	1	961.95	1	1009.18	1	40.624723	17.975036
3134	2024-05-10 13:00:00	7	brindisi_sisri	21.64	1	66.45	1	0.0	1	7.17	1	314.22	1	805.46	1	1009.15	1	40.624723	17.975036
3135	2024-05-10 14:00:00	7	brindisi_sisri	21.94	1	58.51	1	0.0	1	6.89	1	313.01	1	770.28	1	1008.79	1	40.624723	17.975036
3136	2024-05-10 15:00:00	7	brindisi_sisri	22.01	1	62.06	1	0.0	1	6.88	1	301.38	1	479.79	1	1008.35	1	40.624723	17.975036
3137	2024-05-10 16:00:00	7	brindisi_sisri	21.68	1	65.87	1	0.0	1	6.76	1	302.48	1	317.11	1	1008.33	1	40.624723	17.975036
3138	2024-05-10 17:00:00	7	brindisi_sisri	20.94	1	65.88	1	0.0	1	6.89	1	312.69	1	349.23	1	1008.24	1	40.624723	17.975036
3139	2024-05-10 18:00:00	7	brindisi_sisri	20.6	1	64.4	1	0.0	1	6.44	1	303.1	1	231.55	1	1008.1	1	40.624723	17.975036
3140	2024-05-10 19:00:00	7	brindisi_sisri	18.92	1	74.71	1	0.0	1	5.37	1	297.03	1	25.0	1	1008.3	1	40.624723	17.975036
3141	2024-05-10 20:00:00	7	brindisi_sisri	18.06	1	85.35	1	0.0	1	4.15	1	292.14	1	0.0	5	1008.68	1	40.624723	17.975036
3142	2024-05-10 21:00:00	7	brindisi_sisri	17.75	1	88.8	1	0.0	1	3.56	1	291.43	1	0.0	5	1009.08	1	40.624723	17.975036
3143	2024-05-10 22:00:00	7	brindisi_sisri	17.58	1	90.08	1	0.0	1	3.71	1	281.62	1	0.0	5	1009.14	1	40.624723	17.975036
3144	2024-05-10 23:00:00	7	brindisi_sisri	17.58	1	89.78	1	0.0	1	4.33	1	285.9	1	0.0	5	1009.19	1	40.624723	17.975036
3145	2024-05-11 00:00:00	7	brindisi_sisri	17.63	1	87.94	1	0.0	1	4.01	1	284.23	1	0.0	5	1009.12	1	40.624723	17.975036
3146	2024-05-11 01:00:00	7	brindisi_sisri	17.61	1	87.78	1	0.0	1	3.93	1	286.3	1	0.0	5	1008.75	1	40.624723	17.975036
3147	2024-05-11 02:00:00	7	brindisi_sisri	17.53	1	90.66	1	0.0	1	3.44	1	295.78	1	0.0	5	1008.59	1	40.624723	17.975036
3148	2024-05-11 03:00:00	7	brindisi_sisri	17.45	1	83.55	1	0.0	1	3.1	1	308.31	1	0.0	5	1008.6	1	40.624723	17.975036
3149	2024-05-11 04:00:00	7	brindisi_sisri	17.49	1	74.27	1	0.0	1	2.99	1	313.5	1	0.0	5	1008.57	1	40.624723	17.975036
3150	2024-05-11 05:00:00	7	brindisi_sisri	17.31	1	72.44	1	0.0	1	3.36	1	327.15	1	10.32	1	1008.68	1	40.624723	17.975036
3151	2024-05-11 06:00:00	7	brindisi_sisri	18.48	1	66.26	1	0.0	1	5.09	1	342.03	1	135.38	1	1009.03	1	40.624723	17.975036
3152	2024-05-11 07:00:00	7	brindisi_sisri	19.38	1	61.35	1	0.0	1	6.22	1	340.85	1	321.55	1	1009.47	1	40.624723	17.975036
3153	2024-05-11 08:00:00	7	brindisi_sisri	20.24	1	58.57	1	0.0	1	6.56	1	341.98	1	352.44	1	1010.04	1	40.624723	17.975036
3154	2024-05-11 09:00:00	7	brindisi_sisri	20.89	1	55.57	1	0.0	1	6.38	1	332.42	1	692.24	1	1010.42	1	40.624723	17.975036
3155	2024-05-11 10:00:00	7	brindisi_sisri	21.15	1	58.67	1	0.0	1	6.82	1	319.4	1	838.43	1	1010.89	1	40.624723	17.975036
3156	2024-05-11 11:00:00	7	brindisi_sisri	21.31	1	56.33	1	0.0	1	6.89	1	322.92	1	940.69	1	1011.26	1	40.624723	17.975036
3157	2024-05-11 12:00:00	7	brindisi_sisri	21.7	1	56.39	1	0.0	1	6.35	1	321.55	1	1000.07	1	1011.4	1	40.624723	17.975036
3158	2024-05-11 13:00:00	7	brindisi_sisri	21.63	1	54.55	1	0.0	1	6.12	1	328.66	1	841.58	1	1011.49	1	40.624723	17.975036
3159	2024-05-11 14:00:00	7	brindisi_sisri	21.4	1	59.24	1	0.0	1	6.19	1	317.22	1	838.3	1	1011.6	1	40.624723	17.975036
3160	2024-05-11 15:00:00	7	brindisi_sisri	21.5	1	60.29	1	0.0	1	5.75	1	315.13	1	519.86	1	1011.34	1	40.624723	17.975036
3161	2024-05-11 16:00:00	7	brindisi_sisri	21.47	1	54.72	1	0.0	1	5.58	1	313.7	1	292.15	1	1011.21	1	40.624723	17.975036
3162	2024-05-11 17:00:00	7	brindisi_sisri	21.11	1	54.86	1	0.0	1	4.5	1	316.46	1	398.06	1	1011.26	1	40.624723	17.975036
3163	2024-05-11 18:00:00	7	brindisi_sisri	20.59	1	55.43	1	0.0	1	3.61	1	313.4	1	202.42	1	1011.31	1	40.624723	17.975036
3164	2024-05-11 19:00:00	7	brindisi_sisri	18.86	1	68.13	1	0.0	1	3.18	1	297.23	1	21.2	1	1011.65	1	40.624723	17.975036
3165	2024-05-11 20:00:00	7	brindisi_sisri	17.89	1	75.9	1	0.0	1	3.23	1	298.17	1	0.0	5	1012.04	1	40.624723	17.975036
3166	2024-05-11 21:00:00	7	brindisi_sisri	17.33	1	75.82	1	0.0	1	2.38	1	295.71	1	0.0	5	1012.67	1	40.624723	17.975036
3167	2024-05-11 22:00:00	7	brindisi_sisri	16.74	1	79.29	1	0.0	1	1.45	1	291.55	1	0.0	5	1013.05	1	40.624723	17.975036
3168	2024-05-11 23:00:00	7	brindisi_sisri	15.59	1	84.75	1	0.0	1	1.15	1	265.77	1	0.0	5	1013.09	1	40.624723	17.975036
3169	2024-05-12 00:00:00	7	brindisi_sisri	16.13	1	88.38	1	0.0	1	1.34	1	272.5	1	0.0	5	1013.04	1	40.624723	17.975036
3170	2024-05-12 01:00:00	7	brindisi_sisri	14.47	1	89.64	1	0.0	1	0.9	1	236.01	1	0.0	5	1012.77	1	40.624723	17.975036
3171	2024-05-12 02:00:00	7	brindisi_sisri	14.74	1	89.17	1	0.0	1	1.42	1	263.38	1	0.0	5	1012.58	1	40.624723	17.975036
3172	2024-05-12 03:00:00	7	brindisi_sisri	15.27	1	80.47	1	0.0	1	2.11	1	276.41	1	0.0	5	1012.62	1	40.624723	17.975036
3173	2024-05-12 04:00:00	7	brindisi_sisri	14.05	1	79.6	1	0.0	1	1.02	1	255.85	1	0.0	5	1012.62	1	40.624723	17.975036
3174	2024-05-12 05:00:00	7	brindisi_sisri	12.83	1	84.39	1	0.0	1	1.18	1	221.26	1	8.37	1	1012.71	1	40.624723	17.975036
3175	2024-05-12 06:00:00	7	brindisi_sisri	14.05	1	82.98	1	0.0	1	0.9	1	205.15	1	110.56	1	1012.95	1	40.624723	17.975036
3176	2024-05-12 07:00:00	7	brindisi_sisri	18.77	1	68.9	1	0.0	1	0.93	1	201.19	1	314.29	1	1013.14	1	40.624723	17.975036
3177	2024-05-12 08:00:00	7	brindisi_sisri	20.75	1	60.63	1	0.0	1	2.6	1	313.1	1	342.86	1	1013.35	1	40.624723	17.975036
3178	2024-05-12 09:00:00	7	brindisi_sisri	21.27	1	56.1	1	0.0	1	3.33	1	321.75	1	637.23	1	1013.56	1	40.624723	17.975036
3179	2024-05-12 10:00:00	7	brindisi_sisri	21.63	1	52.11	1	0.0	1	4.21	1	326.03	1	783.4	1	1013.67	1	40.624723	17.975036
3180	2024-05-12 11:00:00	7	brindisi_sisri	22.01	1	51.97	1	0.0	1	4.23	1	324.45	1	944.56	1	1013.77	1	40.624723	17.975036
3181	2024-05-12 12:00:00	7	brindisi_sisri	22.62	1	43.62	1	0.0	1	4.22	1	339.13	1	1002.16	1	1013.56	1	40.624723	17.975036
3182	2024-05-12 13:00:00	7	brindisi_sisri	23.1	1	42.86	1	0.0	1	3.81	1	344.26	1	797.26	1	1013.26	1	40.624723	17.975036
3183	2024-05-12 14:00:00	7	brindisi_sisri	22.79	1	44.48	1	0.0	1	4.03	1	349.45	1	825.67	1	1012.94	1	40.624723	17.975036
3184	2024-05-12 15:00:00	7	brindisi_sisri	22.44	1	50.23	1	0.0	1	4.37	1	350.82	1	534.13	1	1012.49	1	40.624723	17.975036
3185	2024-05-12 16:00:00	7	brindisi_sisri	21.91	1	53.54	1	0.0	1	3.62	1	2.25	1	268.21	1	1012.41	1	40.624723	17.975036
3186	2024-05-12 17:00:00	7	brindisi_sisri	22.46	1	46.05	1	0.0	1	2.64	1	352.88	1	377.93	1	1011.91	1	40.624723	17.975036
3187	2024-05-12 18:00:00	7	brindisi_sisri	21.81	1	48.02	1	0.0	1	1.84	1	3.49	1	217.99	1	1011.78	1	40.624723	17.975036
3188	2024-05-12 19:00:00	7	brindisi_sisri	19.74	1	58.55	1	0.0	1	0.98	1	152.02	1	21.86	1	1012.07	1	40.624723	17.975036
3189	2024-05-12 20:00:00	7	brindisi_sisri	17.89	1	63.25	1	0.0	1	1.32	1	156.04	1	0.0	5	1012.3	1	40.624723	17.975036
3190	2024-05-12 21:00:00	7	brindisi_sisri	15.89	1	67.65	1	0.0	1	1.51	1	174.39	1	0.0	5	1012.76	1	40.624723	17.975036
3191	2024-05-12 22:00:00	7	brindisi_sisri	15.47	1	67.87	1	0.0	1	1.7	1	143.11	1	0.0	5	1012.96	1	40.624723	17.975036
3192	2024-05-12 23:00:00	7	brindisi_sisri	14.51	1	73.08	1	0.0	1	1.56	1	169.21	1	0.0	5	1012.81	1	40.624723	17.975036
3193	2024-05-13 00:00:00	7	brindisi_sisri	13.77	1	77.69	1	0.0	1	1.41	1	201.16	1	0.0	5	1012.49	1	40.624723	17.975036
3194	2024-05-13 01:00:00	7	brindisi_sisri	13.46	1	81.1	1	0.0	1	1.89	1	203.67	1	0.0	5	1012.12	1	40.624723	17.975036
3195	2024-05-13 02:00:00	7	brindisi_sisri	13.44	1	81.19	1	0.0	1	2.04	1	210.57	1	0.0	5	1011.7	1	40.624723	17.975036
3196	2024-05-13 03:00:00	7	brindisi_sisri	13.63	1	75.93	1	0.0	1	2.14	1	214.08	1	0.0	5	1011.65	1	40.624723	17.975036
3197	2024-05-13 04:00:00	7	brindisi_sisri	13.55	1	73.53	1	0.0	1	1.6	1	221.76	1	0.0	5	1011.59	1	40.624723	17.975036
3198	2024-05-13 05:00:00	7	brindisi_sisri	12.91	1	73.69	1	0.0	1	1.46	1	212.31	1	12.32	1	1011.53	1	40.624723	17.975036
3199	2024-05-13 06:00:00	7	brindisi_sisri	15.36	1	70.6	1	0.0	1	0.59	1	42.81	1	130.45	1	1011.94	1	40.624723	17.975036
3200	2024-05-13 07:00:00	7	brindisi_sisri	20.47	1	65.81	1	0.0	1	1.91	1	59.96	1	317.14	1	1012.26	1	40.624723	17.975036
3201	2024-05-13 08:00:00	7	brindisi_sisri	21.07	1	70.21	1	0.0	1	2.69	1	68.61	1	355.55	1	1012.37	1	40.624723	17.975036
3202	2024-05-13 09:00:00	7	brindisi_sisri	22.21	1	61.87	1	0.0	1	2.3	1	76.3	1	667.31	1	1012.39	1	40.624723	17.975036
3203	2024-05-13 10:00:00	7	brindisi_sisri	22.73	1	53.63	1	0.0	1	2.75	1	54.42	1	840.14	1	1012.17	1	40.624723	17.975036
3204	2024-05-13 11:00:00	7	brindisi_sisri	23.4	1	44.82	1	0.0	1	3.25	1	56.03	1	937.89	1	1011.83	1	40.624723	17.975036
3205	2024-05-13 12:00:00	7	brindisi_sisri	23.79	1	39.98	1	0.0	1	3.38	1	52.93	1	923.48	1	1011.55	1	40.624723	17.975036
3206	2024-05-13 13:00:00	7	brindisi_sisri	24.12	1	38.45	1	0.0	1	4.17	1	51.03	1	737.9	1	1011.03	1	40.624723	17.975036
3207	2024-05-13 14:00:00	7	brindisi_sisri	23.61	1	42.64	1	0.0	1	4.28	1	71.25	1	408.34	1	1010.58	1	40.624723	17.975036
3208	2024-05-13 15:00:00	7	brindisi_sisri	22.48	1	45.89	1	0.0	1	3.56	1	90.09	1	267.78	1	1010.38	1	40.624723	17.975036
3209	2024-05-13 16:00:00	7	brindisi_sisri	24.55	1	30.17	1	0.0	1	3.45	1	58.09	1	283.24	1	1009.46	1	40.624723	17.975036
3210	2024-05-13 17:00:00	7	brindisi_sisri	24.21	1	38.41	1	0.0	1	3.45	1	89.74	1	316.74	1	1009.09	1	40.624723	17.975036
3211	2024-05-13 18:00:00	7	brindisi_sisri	24.06	1	42.17	1	0.0	1	3.13	1	166.4	1	157.7	1	1008.83	1	40.624723	17.975036
3212	2024-05-13 19:00:00	7	brindisi_sisri	21.2	1	61.32	1	0.0	1	2.66	1	164.57	1	23.7	1	1009.04	1	40.624723	17.975036
3213	2024-05-13 20:00:00	7	brindisi_sisri	18.92	1	70.74	1	0.0	1	2.53	1	171.08	1	0.0	5	1009.0	1	40.624723	17.975036
3214	2024-05-13 21:00:00	7	brindisi_sisri	18.02	1	84.26	1	0.0	1	2.84	1	186.35	1	0.0	5	1009.11	1	40.624723	17.975036
3215	2024-05-13 22:00:00	7	brindisi_sisri	16.65	1	89.23	1	0.0	1	1.33	1	163.65	1	0.0	5	1009.15	1	40.624723	17.975036
3216	2024-05-13 23:00:00	7	brindisi_sisri	16.3	1	91.14	1	0.0	1	1.05	1	138.04	1	0.0	5	1008.89	1	40.624723	17.975036
3217	2024-05-14 00:00:00	7	brindisi_sisri	16.13	1	91.27	1	0.0	1	1.4	1	99.93	1	0.0	5	1008.54	1	40.624723	17.975036
3218	2024-05-14 01:00:00	7	brindisi_sisri	16.41	1	92.03	1	0.0	1	2.25	1	125.66	1	0.0	5	1008.28	1	40.624723	17.975036
3219	2024-05-14 02:00:00	7	brindisi_sisri	16.4	1	91.57	1	0.0	1	2.25	1	113.82	1	0.0	5	1007.83	1	40.624723	17.975036
3220	2024-05-14 03:00:00	7	brindisi_sisri	16.54	1	93.27	1	0.0	1	1.63	1	110.98	1	0.0	5	1007.42	1	40.624723	17.975036
3221	2024-05-14 04:00:00	7	brindisi_sisri	16.61	1	94.4	1	0.0	1	1.87	1	114.54	1	0.0	5	1007.12	1	40.624723	17.975036
3222	2024-05-14 05:00:00	7	brindisi_sisri	16.58	1	94.35	1	0.0	1	2.23	1	126.31	1	0.0	5	1007.05	1	40.624723	17.975036
3223	2024-05-14 06:00:00	7	brindisi_sisri	17.02	1	93.78	1	0.0	1	2.16	1	118.48	1	67.32	1	1007.28	1	40.624723	17.975036
3224	2024-05-14 07:00:00	7	brindisi_sisri	18.56	1	87.51	1	0.0	1	4.04	1	134.55	1	154.67	1	1007.5	1	40.624723	17.975036
3225	2024-05-14 08:00:00	7	brindisi_sisri	19.75	1	75.37	1	0.0	1	5.73	1	144.2	1	279.51	1	1007.55	1	40.624723	17.975036
3226	2024-05-14 09:00:00	7	brindisi_sisri	21.11	1	66.36	1	0.0	1	5.79	1	147.55	1	302.99	1	1007.61	1	40.624723	17.975036
3227	2024-05-14 10:00:00	7	brindisi_sisri	21.94	1	59.4	1	0.0	1	6.21	1	146.66	1	463.05	1	1007.56	1	40.624723	17.975036
3228	2024-05-14 11:00:00	7	brindisi_sisri	23.0	1	55.92	1	0.0	1	5.72	1	146.56	1	475.55	1	1007.27	1	40.624723	17.975036
3229	2024-05-14 12:00:00	7	brindisi_sisri	23.23	1	56.77	1	0.0	1	6.23	1	161.7	1	413.96	1	1007.04	1	40.624723	17.975036
3230	2024-05-14 13:00:00	7	brindisi_sisri	23.51	1	53.64	1	0.0	1	6.79	1	157.41	1	424.09	1	1006.85	1	40.624723	17.975036
3231	2024-05-14 14:00:00	7	brindisi_sisri	23.44	1	54.96	1	0.0	1	5.28	1	128.56	1	329.79	1	1006.5	1	40.624723	17.975036
3232	2024-05-14 15:00:00	7	brindisi_sisri	23.37	1	57.86	1	0.0	1	7.21	1	163.86	1	316.73	1	1006.17	1	40.624723	17.975036
3233	2024-05-14 16:00:00	7	brindisi_sisri	23.12	1	58.61	1	0.0	1	6.92	1	158.59	1	228.42	1	1006.02	1	40.624723	17.975036
3234	2024-05-14 17:00:00	7	brindisi_sisri	22.41	1	58.43	1	0.0	1	6.77	1	160.72	1	218.18	1	1006.16	1	40.624723	17.975036
3235	2024-05-14 18:00:00	7	brindisi_sisri	21.54	1	63.55	1	0.0	1	7.33	1	148.62	1	138.56	1	1006.24	1	40.624723	17.975036
3236	2024-05-14 19:00:00	7	brindisi_sisri	20.26	1	66.65	1	0.0	1	6.66	1	153.22	1	36.21	1	1006.59	1	40.624723	17.975036
3237	2024-05-14 20:00:00	7	brindisi_sisri	18.99	1	72.79	1	0.0	1	5.19	1	137.4	1	0.0	5	1007.1	1	40.624723	17.975036
3238	2024-05-14 21:00:00	7	brindisi_sisri	18.61	1	74.99	1	0.0	1	4.68	1	132.24	1	0.0	5	1007.78	1	40.624723	17.975036
3239	2024-05-14 22:00:00	7	brindisi_sisri	18.13	1	79.87	1	0.0	1	4.12	1	121.97	1	0.0	5	1008.13	1	40.624723	17.975036
3240	2024-05-14 23:00:00	7	brindisi_sisri	17.75	1	82.83	1	0.0	1	4.17	1	121.65	1	0.0	5	1007.99	1	40.624723	17.975036
3241	2024-05-15 00:00:00	7	brindisi_sisri	17.74	1	82.22	1	0.0	1	4.37	1	125.17	1	0.0	5	1007.66	1	40.624723	17.975036
3242	2024-05-15 01:00:00	7	brindisi_sisri	17.84	1	81.39	1	0.0	1	3.9	1	133.75	1	0.0	5	1007.4	1	40.624723	17.975036
3243	2024-05-15 02:00:00	7	brindisi_sisri	17.88	1	81.62	1	0.0	1	3.19	1	124.66	1	0.0	5	1007.04	1	40.624723	17.975036
3244	2024-05-15 03:00:00	7	brindisi_sisri	17.7	1	83.43	1	0.0	1	2.9	1	120.93	1	0.0	5	1006.85	1	40.624723	17.975036
3245	2024-05-15 04:00:00	7	brindisi_sisri	17.64	1	85.04	1	0.0	1	3.76	1	124.13	1	0.0	5	1006.67	1	40.624723	17.975036
3246	2024-05-15 05:00:00	7	brindisi_sisri	17.98	1	83.18	1	0.0	1	4.07	1	124.22	1	5.08	1	1006.56	1	40.624723	17.975036
3247	2024-05-15 06:00:00	7	brindisi_sisri	18.19	1	82.78	1	0.0	1	3.87	1	129.72	1	29.43	1	1006.74	1	40.624723	17.975036
3248	2024-05-15 07:00:00	7	brindisi_sisri	18.62	1	80.49	1	0.0	1	5.36	1	124.36	1	78.49	1	1007.18	1	40.624723	17.975036
3249	2024-05-15 08:00:00	7	brindisi_sisri	19.19	1	78.18	1	0.0	1	4.71	1	121.31	1	133.32	1	1007.53	1	40.624723	17.975036
3250	2024-05-15 09:00:00	7	brindisi_sisri	19.92	1	72.45	1	0.0	1	5.09	1	124.41	1	169.98	1	1007.66	1	40.624723	17.975036
3251	2024-05-15 10:00:00	7	brindisi_sisri	21.0	1	66.06	1	0.0	1	5.68	1	124.94	1	373.78	1	1007.72	1	40.624723	17.975036
3252	2024-05-15 11:00:00	7	brindisi_sisri	21.23	1	68.08	1	0.0	1	6.19	1	94.46	1	315.4	1	1007.82	1	40.624723	17.975036
3253	2024-05-15 12:00:00	7	brindisi_sisri	20.85	1	71.38	1	0.0	1	6.77	1	92.09	1	313.34	1	1007.87	1	40.624723	17.975036
3254	2024-05-15 13:00:00	7	brindisi_sisri	21.35	1	69.94	1	0.0	1	6.6	1	91.17	1	428.27	1	1007.75	1	40.624723	17.975036
3255	2024-05-15 14:00:00	7	brindisi_sisri	20.91	1	69.78	1	0.0	1	5.06	1	94.85	1	148.5	1	1007.47	1	40.624723	17.975036
3256	2024-05-15 15:00:00	7	brindisi_sisri	21.41	1	62.99	1	0.0	1	5.13	1	127.39	1	147.91	1	1007.21	1	40.624723	17.975036
3257	2024-05-15 16:00:00	7	brindisi_sisri	21.61	1	62.94	1	0.0	1	4.91	1	100.63	1	143.12	1	1006.88	1	40.624723	17.975036
3258	2024-05-15 17:00:00	7	brindisi_sisri	22.03	1	58.98	1	0.0	1	5.07	1	127.57	1	169.08	1	1006.7	1	40.624723	17.975036
3259	2024-05-15 18:00:00	7	brindisi_sisri	21.55	1	61.91	1	0.0	1	5.64	1	128.53	1	158.51	1	1006.74	1	40.624723	17.975036
3260	2024-05-15 19:00:00	7	brindisi_sisri	20.22	1	66.43	1	0.0	1	4.25	1	128.02	1	30.57	1	1006.87	1	40.624723	17.975036
3261	2024-05-15 20:00:00	7	brindisi_sisri	18.79	1	73.93	1	0.0	1	2.99	1	120.0	1	0.0	5	1006.81	1	40.624723	17.975036
3262	2024-05-15 21:00:00	7	brindisi_sisri	17.93	1	79.07	1	0.0	1	2.72	1	124.97	1	0.0	5	1007.19	1	40.624723	17.975036
3263	2024-05-15 22:00:00	7	brindisi_sisri	17.13	1	84.05	1	0.0	1	2.89	1	152.61	1	0.0	5	1007.78	1	40.624723	17.975036
3264	2024-05-15 23:00:00	7	brindisi_sisri	17.86	1	83.36	1	0.0	1	3.87	1	148.88	1	0.0	5	1007.6	1	40.624723	17.975036
3265	2024-05-16 00:00:00	7	brindisi_sisri	17.66	1	86.3	1	0.4	1	3.49	1	119.63	1	0.0	5	1007.57	1	40.624723	17.975036
3266	2024-05-16 01:00:00	7	brindisi_sisri	17.31	1	92.58	1	0.4	1	4.0	1	117.9	1	0.0	5	1007.09	1	40.624723	17.975036
3267	2024-05-16 02:00:00	7	brindisi_sisri	17.55	1	94.69	1	0.0	1	2.86	1	121.5	1	0.0	5	1006.6	1	40.624723	17.975036
3268	2024-05-16 03:00:00	7	brindisi_sisri	17.75	1	95.06	1	0.0	1	3.39	1	122.74	1	0.0	5	1006.31	1	40.624723	17.975036
3269	2024-05-16 04:00:00	7	brindisi_sisri	18.25	1	93.49	1	0.0	1	4.06	1	133.16	1	0.0	5	1006.15	1	40.624723	17.975036
3270	2024-05-16 05:00:00	7	brindisi_sisri	18.64	1	89.79	1	0.0	1	5.07	1	123.93	1	0.0	5	1006.27	1	40.624723	17.975036
3271	2024-05-16 06:00:00	7	brindisi_sisri	18.85	1	86.07	1	0.0	1	4.84	1	121.39	1	16.65	1	1006.2	1	40.624723	17.975036
3272	2024-05-16 07:00:00	7	brindisi_sisri	19.33	1	79.55	1	0.0	1	4.85	1	121.04	1	73.43	1	1006.49	1	40.624723	17.975036
3273	2024-05-16 08:00:00	7	brindisi_sisri	20.5	1	69.39	1	0.0	1	6.55	1	123.53	1	193.05	1	1006.32	1	40.624723	17.975036
3274	2024-05-16 09:00:00	7	brindisi_sisri	21.71	1	61.86	1	0.0	1	7.72	1	121.96	1	311.4	1	1005.5	1	40.624723	17.975036
3275	2024-05-16 10:00:00	7	brindisi_sisri	22.89	1	54.16	1	0.0	1	7.07	1	115.94	1	404.74	1	1004.69	1	40.624723	17.975036
3276	2024-05-16 11:00:00	7	brindisi_sisri	22.27	1	62.77	1	0.0	1	6.41	1	95.92	1	432.14	1	1003.81	1	40.624723	17.975036
3277	2024-05-16 12:00:00	7	brindisi_sisri	25.02	1	51.96	1	0.0	1	5.56	1	152.62	1	756.9	1	1004.08	1	40.624723	17.975036
3278	2024-05-16 13:00:00	7	brindisi_sisri	25.92	1	48.37	1	0.0	1	9.2	1	165.15	1	625.69	1	1004.03	1	40.624723	17.975036
3279	2024-05-16 14:00:00	7	brindisi_sisri	26.12	1	45.74	1	0.0	1	10.39	1	156.12	1	512.44	1	1003.57	1	40.624723	17.975036
3280	2024-05-16 15:00:00	7	brindisi_sisri	25.57	1	45.88	1	0.0	1	10.31	1	149.22	1	316.72	1	1002.68	1	40.624723	17.975036
3281	2024-05-16 16:00:00	7	brindisi_sisri	25.16	1	46.43	1	0.0	1	9.25	1	144.93	1	278.6	1	1002.39	1	40.624723	17.975036
3282	2024-05-16 17:00:00	7	brindisi_sisri	24.32	1	48.82	1	0.0	1	9.74	1	148.09	1	174.43	1	1002.25	1	40.624723	17.975036
3283	2024-05-16 18:00:00	7	brindisi_sisri	23.11	1	55.86	1	0.0	1	7.66	1	145.34	1	80.2	1	1002.76	1	40.624723	17.975036
3284	2024-05-16 19:00:00	7	brindisi_sisri	21.98	1	62.38	1	0.0	1	6.19	1	143.64	1	22.61	1	1003.34	1	40.624723	17.975036
3285	2024-05-16 20:00:00	7	brindisi_sisri	20.99	1	67.71	1	0.0	1	5.66	1	137.35	1	0.0	5	1003.59	1	40.624723	17.975036
3286	2024-05-16 21:00:00	7	brindisi_sisri	20.34	1	72.17	1	0.0	1	6.73	1	137.26	1	0.0	5	1003.93	1	40.624723	17.975036
3287	2024-05-16 22:00:00	7	brindisi_sisri	19.95	1	75.74	1	0.0	1	6.62	1	143.11	1	0.0	5	1004.52	1	40.624723	17.975036
3288	2024-05-16 23:00:00	7	brindisi_sisri	19.68	1	78.47	1	0.0	1	3.78	1	133.69	1	0.0	5	1004.78	1	40.624723	17.975036
3289	2024-05-17 00:00:00	7	brindisi_sisri	19.19	1	81.84	1	0.0	1	3.34	1	137.79	1	0.0	5	1004.91	1	40.624723	17.975036
3290	2024-05-17 01:00:00	7	brindisi_sisri	18.59	1	85.48	1	0.0	1	3.12	1	148.1	1	0.0	5	1005.24	1	40.624723	17.975036
3291	2024-05-17 02:00:00	7	brindisi_sisri	18.19	1	87.87	1	0.0	1	2.42	1	139.07	1	0.0	5	1005.47	1	40.624723	17.975036
3292	2024-05-17 03:00:00	7	brindisi_sisri	17.63	1	90.51	1	0.0	1	2.33	1	142.25	1	0.0	5	1005.66	1	40.624723	17.975036
3293	2024-05-17 04:00:00	7	brindisi_sisri	17.17	1	92.02	1	0.0	1	1.74	1	119.07	1	0.0	5	1005.64	1	40.624723	17.975036
3294	2024-05-17 05:00:00	7	brindisi_sisri	17.61	1	92.08	1	0.0	1	2.7	1	131.28	1	11.51	1	1005.74	1	40.624723	17.975036
3295	2024-05-17 06:00:00	7	brindisi_sisri	18.59	1	90.21	1	0.0	1	2.51	1	164.7	1	98.96	1	1006.19	1	40.624723	17.975036
3296	2024-05-17 07:00:00	7	brindisi_sisri	21.02	1	81.85	1	0.0	1	3.19	1	199.27	1	259.51	1	1006.79	1	40.624723	17.975036
3297	2024-05-17 08:00:00	7	brindisi_sisri	22.88	1	73.47	1	0.0	1	3.25	1	192.1	1	315.3	1	1007.12	1	40.624723	17.975036
3298	2024-05-17 09:00:00	7	brindisi_sisri	25.46	1	62.59	1	0.0	1	2.5	1	178.5	1	658.94	1	1007.35	1	40.624723	17.975036
3299	2024-05-17 10:00:00	7	brindisi_sisri	27.41	1	50.51	1	0.0	1	1.41	1	null	3	802.83	1	1007.62	1	40.624723	17.975036
3300	2024-05-17 11:00:00	7	brindisi_sisri	26.81	1	39.51	1	0.0	1	4.19	1	345.19	1	903.03	1	1007.7	1	40.624723	17.975036
3301	2024-05-17 12:00:00	7	brindisi_sisri	26.56	1	37.01	1	0.0	1	4.82	1	348.13	1	967.87	1	1007.79	1	40.624723	17.975036
3302	2024-05-17 13:00:00	7	brindisi_sisri	25.7	1	49.74	1	0.0	1	4.67	1	10.98	1	857.14	1	1007.96	1	40.624723	17.975036
3303	2024-05-17 14:00:00	7	brindisi_sisri	24.99	1	55.67	1	0.0	1	4.61	1	22.56	1	639.44	1	1007.97	1	40.624723	17.975036
3304	2024-05-17 15:00:00	7	brindisi_sisri	24.95	1	60.7	1	0.0	1	3.69	1	39.69	1	479.13	1	1008.1	1	40.624723	17.975036
3305	2024-05-17 16:00:00	7	brindisi_sisri	24.3	1	66.32	1	0.0	1	4.18	1	48.63	1	235.76	1	1008.1	1	40.624723	17.975036
3306	2024-05-17 17:00:00	7	brindisi_sisri	22.57	1	75.99	1	0.0	1	4.46	1	43.71	1	293.81	1	1007.78	1	40.624723	17.975036
3307	2024-05-17 18:00:00	7	brindisi_sisri	21.36	1	83.59	1	0.0	1	3.51	1	49.89	1	186.67	1	1007.78	1	40.624723	17.975036
3308	2024-05-17 19:00:00	7	brindisi_sisri	19.95	1	89.51	1	0.0	1	2.65	1	45.21	1	33.88	1	1008.15	1	40.624723	17.975036
3309	2024-05-17 20:00:00	7	brindisi_sisri	19.4	1	92.88	1	0.0	1	1.4	1	213.78	1	0.0	5	1008.66	1	40.624723	17.975036
3310	2024-05-17 21:00:00	7	brindisi_sisri	19.49	1	91.1	1	0.0	1	2.83	1	198.26	1	0.0	5	1009.44	1	40.624723	17.975036
3311	2024-05-17 22:00:00	7	brindisi_sisri	19.07	1	89.57	1	0.0	1	1.48	1	110.35	1	0.0	5	1009.49	1	40.624723	17.975036
3312	2024-05-17 23:00:00	7	brindisi_sisri	18.07	1	92.59	1	0.0	1	1.48	1	141.85	1	0.0	5	1009.75	1	40.624723	17.975036
3313	2024-05-18 00:00:00	7	brindisi_sisri	17.29	1	95.28	1	0.0	1	1.13	1	137.64	1	0.0	5	1009.6	1	40.624723	17.975036
3314	2024-05-18 01:00:00	7	brindisi_sisri	16.59	1	97.01	1	0.0	1	1.15	1	86.19	1	0.0	5	1009.15	1	40.624723	17.975036
3315	2024-05-18 02:00:00	7	brindisi_sisri	16.04	1	98.21	1	0.0	1	1.57	1	136.21	1	0.0	5	1009.02	1	40.624723	17.975036
3316	2024-05-18 03:00:00	7	brindisi_sisri	15.82	1	98.97	1	0.0	1	1.51	1	169.4	1	0.0	5	1008.88	1	40.624723	17.975036
3317	2024-05-18 04:00:00	7	brindisi_sisri	16.58	1	99.09	1	0.0	1	2.13	1	155.92	1	0.0	5	1008.74	1	40.624723	17.975036
3318	2024-05-18 05:00:00	7	brindisi_sisri	16.75	1	99.11	1	0.0	1	1.42	1	153.48	1	9.99	1	1008.93	1	40.624723	17.975036
3319	2024-05-18 06:00:00	7	brindisi_sisri	16.73	1	99.13	1	0.0	1	0.91	1	156.05	1	57.86	1	1009.41	1	40.624723	17.975036
3320	2024-05-18 07:00:00	7	brindisi_sisri	17.59	1	99.14	1	0.0	1	1.65	1	126.2	1	138.73	1	1009.53	1	40.624723	17.975036
3321	2024-05-18 08:00:00	7	brindisi_sisri	19.29	1	98.74	1	0.0	1	1.85	1	44.95	1	308.35	1	1009.71	1	40.624723	17.975036
3322	2024-05-18 09:00:00	7	brindisi_sisri	21.54	1	88.79	1	0.0	1	3.1	1	78.47	1	544.14	1	1009.77	1	40.624723	17.975036
3323	2024-05-18 10:00:00	7	brindisi_sisri	23.76	1	72.6	1	0.0	1	3.61	1	83.13	1	632.31	1	1009.28	1	40.624723	17.975036
3324	2024-05-18 11:00:00	7	brindisi_sisri	25.47	1	65.07	1	0.0	1	3.07	1	55.59	1	687.62	1	1009.23	1	40.624723	17.975036
3325	2024-05-18 12:00:00	7	brindisi_sisri	26.94	1	57.53	1	0.0	1	4.2	1	67.15	1	788.79	1	1008.76	1	40.624723	17.975036
3326	2024-05-18 13:00:00	7	brindisi_sisri	26.39	1	58.77	1	0.0	1	4.63	1	78.91	1	721.44	1	1008.31	1	40.624723	17.975036
3327	2024-05-18 14:00:00	7	brindisi_sisri	25.27	1	65.18	1	0.0	1	4.78	1	74.62	1	535.89	1	1007.87	1	40.624723	17.975036
3328	2024-05-18 15:00:00	7	brindisi_sisri	25.59	1	62.98	1	0.0	1	5.15	1	91.56	1	371.32	1	1007.08	1	40.624723	17.975036
3329	2024-05-18 16:00:00	7	brindisi_sisri	25.77	1	61.92	1	0.0	1	7.21	1	167.2	1	230.53	1	1006.94	1	40.624723	17.975036
3330	2024-05-18 17:00:00	7	brindisi_sisri	23.15	1	70.71	1	0.0	1	6.59	1	183.97	1	73.95	1	1007.78	1	40.624723	17.975036
3331	2024-05-18 18:00:00	7	brindisi_sisri	21.29	1	81.18	1	1.0	1	5.48	1	277.75	1	21.58	1	1008.91	1	40.624723	17.975036
3332	2024-05-18 19:00:00	7	brindisi_sisri	18.96	1	95.83	1	1.0	1	4.98	1	290.74	1	0.0	5	1008.75	1	40.624723	17.975036
3333	2024-05-18 20:00:00	7	brindisi_sisri	18.67	1	98.83	1	0.8	1	5.5	1	284.09	1	0.0	5	1009.05	1	40.624723	17.975036
3334	2024-05-18 21:00:00	7	brindisi_sisri	18.52	1	99.11	1	7.2	1	3.53	1	316.44	1	0.0	5	1009.47	1	40.624723	17.975036
3335	2024-05-18 22:00:00	7	brindisi_sisri	18.53	1	99.14	1	0.8	1	1.13	1	330.16	1	0.0	5	1009.11	1	40.624723	17.975036
3336	2024-05-18 23:00:00	7	brindisi_sisri	18.67	1	99.14	1	0.2	1	1.17	1	13.56	1	0.0	5	1008.19	1	40.624723	17.975036
3337	2024-05-19 00:00:00	7	brindisi_sisri	18.68	1	99.14	1	0.0	1	1.86	1	235.22	1	0.0	5	1008.01	1	40.624723	17.975036
3338	2024-05-19 01:00:00	7	brindisi_sisri	18.4	1	99.15	1	0.0	1	1.68	1	252.75	1	0.0	5	1007.5	1	40.624723	17.975036
3339	2024-05-19 02:00:00	7	brindisi_sisri	18.18	1	99.15	1	0.0	1	1.25	1	179.18	1	0.0	5	1007.13	1	40.624723	17.975036
3340	2024-05-19 03:00:00	7	brindisi_sisri	18.11	1	99.15	1	0.0	1	1.5	1	260.5	1	0.0	5	1006.88	1	40.624723	17.975036
3341	2024-05-19 04:00:00	7	brindisi_sisri	17.97	1	99.15	1	0.0	1	1.08	1	252.16	1	0.0	5	1006.58	1	40.624723	17.975036
3342	2024-05-19 05:00:00	7	brindisi_sisri	17.77	1	99.15	1	0.0	1	0.93	1	287.05	1	9.48	1	1007.06	1	40.624723	17.975036
3343	2024-05-19 06:00:00	7	brindisi_sisri	18.18	1	99.15	1	0.0	1	1.44	1	299.6	1	41.19	1	1007.48	1	40.624723	17.975036
3344	2024-05-19 07:00:00	7	brindisi_sisri	18.93	1	99.14	1	0.0	1	2.14	1	310.71	1	190.08	1	1007.9	1	40.624723	17.975036
3345	2024-05-19 08:00:00	7	brindisi_sisri	19.93	1	98.67	1	0.0	1	2.24	1	312.65	1	271.37	1	1008.33	1	40.624723	17.975036
3346	2024-05-19 09:00:00	7	brindisi_sisri	21.26	1	86.62	1	0.0	1	2.37	1	323.95	1	335.43	1	1008.58	1	40.624723	17.975036
3347	2024-05-19 10:00:00	7	brindisi_sisri	21.85	1	77.34	1	0.0	1	2.55	1	324.91	1	339.84	1	1008.7	1	40.624723	17.975036
3348	2024-05-19 11:00:00	7	brindisi_sisri	22.69	1	74.05	1	0.0	1	3.25	1	333.84	1	670.4	1	1008.64	1	40.624723	17.975036
3349	2024-05-19 12:00:00	7	brindisi_sisri	22.86	1	70.87	1	0.0	1	3.54	1	351.29	1	726.18	1	1008.34	1	40.624723	17.975036
3350	2024-05-19 13:00:00	7	brindisi_sisri	23.44	1	69.71	1	0.0	1	2.73	1	342.65	1	733.54	1	1007.57	1	40.624723	17.975036
3351	2024-05-19 14:00:00	7	brindisi_sisri	24.38	1	67.65	1	0.0	1	2.55	1	1.61	1	658.34	1	1007.34	1	40.624723	17.975036
3352	2024-05-19 15:00:00	7	brindisi_sisri	24.28	1	69.48	1	0.0	1	2.75	1	354.93	1	531.41	1	1006.94	1	40.624723	17.975036
3353	2024-05-19 16:00:00	7	brindisi_sisri	24.06	1	70.84	1	0.0	1	2.34	1	55.25	1	272.19	1	1006.68	1	40.624723	17.975036
3354	2024-05-19 17:00:00	7	brindisi_sisri	23.01	1	75.88	1	0.0	1	2.91	1	63.11	1	176.18	1	1006.16	1	40.624723	17.975036
3355	2024-05-19 18:00:00	7	brindisi_sisri	21.81	1	82.23	1	0.0	1	2.04	1	104.51	1	76.15	1	1006.02	1	40.624723	17.975036
3356	2024-05-19 19:00:00	7	brindisi_sisri	21.46	1	82.56	1	0.0	1	1.78	1	95.9	1	21.81	1	1005.52	1	40.624723	17.975036
3357	2024-05-19 20:00:00	7	brindisi_sisri	20.48	1	88.02	1	0.0	1	1.7	1	108.55	1	0.0	5	1005.54	1	40.624723	17.975036
3358	2024-05-19 21:00:00	7	brindisi_sisri	20.34	1	90.61	1	0.0	1	1.14	1	84.59	1	0.0	5	1006.16	1	40.624723	17.975036
3359	2024-05-19 22:00:00	7	brindisi_sisri	20.07	1	93.42	1	0.0	1	2.59	1	22.35	1	0.0	5	1006.31	1	40.624723	17.975036
3360	2024-05-19 23:00:00	7	brindisi_sisri	20.06	1	94.98	1	0.0	1	1.25	1	61.12	1	0.0	5	1006.66	1	40.624723	17.975036
3361	2024-05-20 00:00:00	7	brindisi_sisri	19.53	1	95.79	1	0.0	1	0.35	1	134.18	1	0.0	5	1006.66	1	40.624723	17.975036
3362	2024-05-20 01:00:00	7	brindisi_sisri	18.87	1	97.32	1	0.0	1	0.8	1	202.65	1	0.0	5	1006.46	1	40.624723	17.975036
3363	2024-05-20 02:00:00	7	brindisi_sisri	18.21	1	98.51	1	0.0	1	0.86	1	220.66	1	0.0	5	1006.18	1	40.624723	17.975036
3364	2024-05-20 03:00:00	7	brindisi_sisri	17.8	1	99.07	1	0.0	1	0.78	1	190.08	1	0.0	5	1006.19	1	40.624723	17.975036
3365	2024-05-20 04:00:00	7	brindisi_sisri	17.02	1	99.09	1	0.0	1	0.32	1	284.05	1	0.0	5	1006.34	1	40.624723	17.975036
3366	2024-05-20 05:00:00	7	brindisi_sisri	18.1	1	99.13	1	0.0	1	0.86	1	299.76	1	6.06	1	1006.59	1	40.624723	17.975036
3367	2024-05-20 06:00:00	7	brindisi_sisri	19.27	1	99.15	1	0.0	1	1.63	1	351.14	1	48.35	1	1006.83	1	40.624723	17.975036
3368	2024-05-20 07:00:00	7	brindisi_sisri	19.7	1	99.13	1	0.0	1	1.99	1	348.9	1	101.22	1	1007.05	1	40.624723	17.975036
3369	2024-05-20 08:00:00	7	brindisi_sisri	19.97	1	98.59	1	0.0	1	2.04	1	5.36	1	125.12	1	1007.49	1	40.624723	17.975036
3370	2024-05-20 09:00:00	7	brindisi_sisri	20.35	1	95.07	1	0.0	1	2.1	1	46.79	1	148.88	1	1007.39	1	40.624723	17.975036
3371	2024-05-20 10:00:00	7	brindisi_sisri	22.55	1	81.81	1	0.0	1	2.38	1	59.29	1	599.26	1	1007.21	1	40.624723	17.975036
3372	2024-05-20 11:00:00	7	brindisi_sisri	23.48	1	75.58	1	0.0	1	3.56	1	16.6	1	679.09	1	1006.96	1	40.624723	17.975036
3373	2024-05-20 12:00:00	7	brindisi_sisri	24.36	1	72.52	1	0.0	1	3.64	1	18.5	1	881.0	1	1006.75	1	40.624723	17.975036
3374	2024-05-20 13:00:00	7	brindisi_sisri	24.28	1	70.85	1	0.0	1	3.26	1	61.11	1	790.26	1	1006.7	1	40.624723	17.975036
3375	2024-05-20 14:00:00	7	brindisi_sisri	24.7	1	68.91	1	0.0	1	3.15	1	45.24	1	485.86	1	1006.28	1	40.624723	17.975036
3376	2024-05-20 15:00:00	7	brindisi_sisri	24.65	1	66.46	1	0.0	1	3.14	1	54.57	1	411.84	1	1005.7	1	40.624723	17.975036
3377	2024-05-20 16:00:00	7	brindisi_sisri	24.41	1	71.35	1	0.0	1	3.18	1	60.1	1	282.98	1	1005.37	1	40.624723	17.975036
3378	2024-05-20 17:00:00	7	brindisi_sisri	24.31	1	71.4	1	0.0	1	3.41	1	55.08	1	259.54	1	1004.88	1	40.624723	17.975036
3379	2024-05-20 18:00:00	7	brindisi_sisri	23.21	1	77.42	1	0.0	1	2.83	1	63.99	1	154.91	1	1004.73	1	40.624723	17.975036
3380	2024-05-20 19:00:00	7	brindisi_sisri	22.22	1	83.13	1	0.0	1	2.21	1	76.91	1	38.46	1	1004.67	1	40.624723	17.975036
3381	2024-05-20 20:00:00	7	brindisi_sisri	21.17	1	87.43	1	0.0	1	1.34	1	67.36	1	0.0	5	1004.62	1	40.624723	17.975036
3382	2024-05-20 21:00:00	7	brindisi_sisri	20.47	1	90.76	1	0.0	1	0.91	1	112.04	1	0.0	5	1004.85	1	40.624723	17.975036
3383	2024-05-20 22:00:00	7	brindisi_sisri	19.64	1	93.26	1	0.0	1	0.67	1	138.43	1	0.0	5	1004.58	1	40.624723	17.975036
3384	2024-05-20 23:00:00	7	brindisi_sisri	19.19	1	95.34	1	0.0	1	0.92	1	89.66	1	0.0	5	1004.46	1	40.624723	17.975036
3385	2024-05-21 00:00:00	7	brindisi_sisri	19.04	1	97.15	1	0.0	1	1.62	1	128.27	1	0.0	5	1004.23	1	40.624723	17.975036
3386	2024-05-21 01:00:00	7	brindisi_sisri	18.38	1	97.17	1	0.0	1	2.16	1	113.17	1	0.0	5	1003.85	1	40.624723	17.975036
3387	2024-05-21 02:00:00	7	brindisi_sisri	18.09	1	96.47	1	0.0	1	1.78	1	152.69	1	0.0	5	1003.53	1	40.624723	17.975036
3388	2024-05-21 03:00:00	7	brindisi_sisri	17.75	1	97.16	1	0.0	1	1.89	1	126.12	1	0.0	5	1003.52	1	40.624723	17.975036
3389	2024-05-21 04:00:00	7	brindisi_sisri	17.75	1	96.05	1	0.0	1	2.26	1	115.26	1	0.0	5	1003.3	1	40.624723	17.975036
3390	2024-05-21 05:00:00	7	brindisi_sisri	18.25	1	94.53	1	0.0	1	2.97	1	96.99	1	9.02	1	1002.79	1	40.624723	17.975036
3391	2024-05-21 06:00:00	7	brindisi_sisri	19.68	1	94.25	1	0.0	1	3.8	1	108.17	1	94.88	1	1002.82	1	40.624723	17.975036
3392	2024-05-21 07:00:00	7	brindisi_sisri	21.39	1	83.88	1	0.0	1	5.71	1	141.56	1	256.49	1	1003.24	1	40.624723	17.975036
3393	2024-05-21 08:00:00	7	brindisi_sisri	23.24	1	73.98	1	0.0	1	6.62	1	147.67	1	374.12	1	1003.66	1	40.624723	17.975036
3394	2024-05-21 09:00:00	7	brindisi_sisri	24.95	1	65.68	1	0.0	1	5.46	1	151.15	1	608.16	1	1003.9	1	40.624723	17.975036
3395	2024-05-21 10:00:00	7	brindisi_sisri	27.2	1	57.05	1	0.0	1	3.23	1	185.47	1	745.71	1	1004.04	1	40.624723	17.975036
3396	2024-05-21 11:00:00	7	brindisi_sisri	28.22	1	52.3	1	0.0	1	4.21	1	171.46	1	783.49	1	1004.4	1	40.624723	17.975036
3397	2024-05-21 12:00:00	7	brindisi_sisri	28.8	1	49.82	1	0.0	1	4.18	1	161.6	1	857.39	1	1004.31	1	40.624723	17.975036
3398	2024-05-21 13:00:00	7	brindisi_sisri	29.78	1	46.78	1	0.0	1	4.17	1	182.11	1	687.01	1	1004.21	1	40.624723	17.975036
3399	2024-05-21 14:00:00	7	brindisi_sisri	30.69	1	42.41	1	0.0	1	4.3	1	181.82	1	614.25	1	1004.16	1	40.624723	17.975036
3400	2024-05-21 15:00:00	7	brindisi_sisri	30.92	1	37.9	1	0.0	1	5.72	1	198.58	1	534.33	1	1003.97	1	40.624723	17.975036
3401	2024-05-21 16:00:00	7	brindisi_sisri	30.6	1	36.73	1	0.0	1	5.9	1	193.07	1	288.79	1	1003.93	1	40.624723	17.975036
3402	2024-05-21 17:00:00	7	brindisi_sisri	29.86	1	37.28	1	0.0	1	6.2	1	182.64	1	269.0	1	1003.92	1	40.624723	17.975036
3403	2024-05-21 18:00:00	7	brindisi_sisri	28.9	1	38.67	1	0.0	1	5.61	1	188.52	1	214.14	1	1004.09	1	40.624723	17.975036
3404	2024-05-21 19:00:00	7	brindisi_sisri	25.91	1	47.7	1	0.0	1	3.42	1	201.54	1	30.96	1	1004.5	1	40.624723	17.975036
3405	2024-05-21 20:00:00	7	brindisi_sisri	23.21	1	56.9	1	0.0	1	2.26	1	192.53	1	0.0	5	1005.1	1	40.624723	17.975036
3406	2024-05-21 21:00:00	7	brindisi_sisri	21.68	1	63.86	1	0.0	1	2.23	1	198.37	1	0.0	5	1005.98	1	40.624723	17.975036
3407	2024-05-21 22:00:00	7	brindisi_sisri	21.16	1	68.07	1	0.0	1	1.87	1	216.95	1	0.0	5	1006.59	1	40.624723	17.975036
3408	2024-05-21 23:00:00	7	brindisi_sisri	21.78	1	67.25	1	0.0	1	2.44	1	270.09	1	0.0	5	1007.13	1	40.624723	17.975036
3409	2024-05-22 00:00:00	7	brindisi_sisri	21.52	1	60.86	1	0.0	1	3.23	1	232.39	1	0.0	5	1007.41	1	40.624723	17.975036
3410	2024-05-22 01:00:00	7	brindisi_sisri	20.95	1	50.51	1	0.0	1	3.24	1	248.27	1	0.0	5	1007.42	1	40.624723	17.975036
3411	2024-05-22 02:00:00	7	brindisi_sisri	20.56	1	45.53	1	0.0	1	3.46	1	251.37	1	0.0	5	1007.43	1	40.624723	17.975036
3412	2024-05-22 03:00:00	7	brindisi_sisri	19.72	1	46.93	1	0.0	1	2.9	1	248.37	1	0.0	5	1007.4	1	40.624723	17.975036
3413	2024-05-22 04:00:00	7	brindisi_sisri	19.07	1	49.06	1	0.0	1	3.47	1	232.0	1	0.0	5	1007.58	1	40.624723	17.975036
3414	2024-05-22 05:00:00	7	brindisi_sisri	18.77	1	50.27	1	0.0	1	2.88	1	239.24	1	17.92	1	1007.76	1	40.624723	17.975036
3415	2024-05-22 06:00:00	7	brindisi_sisri	20.21	1	49.45	1	0.0	1	2.43	1	224.21	1	145.79	1	1008.28	1	40.624723	17.975036
3416	2024-05-22 07:00:00	7	brindisi_sisri	22.04	1	46.84	1	0.0	1	2.46	1	214.7	1	353.08	1	1008.51	1	40.624723	17.975036
3417	2024-05-22 08:00:00	7	brindisi_sisri	24.19	1	39.89	1	0.0	1	2.48	1	269.0	1	359.24	1	1008.66	1	40.624723	17.975036
3418	2024-05-22 09:00:00	7	brindisi_sisri	24.57	1	39.81	1	0.0	1	3.3	1	333.83	1	708.32	1	1008.83	1	40.624723	17.975036
3419	2024-05-22 10:00:00	7	brindisi_sisri	24.25	1	43.97	1	0.0	1	4.28	1	339.68	1	800.01	1	1008.98	1	40.624723	17.975036
3420	2024-05-22 11:00:00	7	brindisi_sisri	24.07	1	49.0	1	0.0	1	4.62	1	322.38	1	849.71	1	1009.19	1	40.624723	17.975036
3421	2024-05-22 12:00:00	7	brindisi_sisri	24.64	1	45.86	1	0.0	1	4.77	1	319.35	1	1008.84	1	1009.13	1	40.624723	17.975036
3422	2024-05-22 13:00:00	7	brindisi_sisri	24.71	1	46.03	1	0.0	1	4.42	1	337.22	1	867.75	1	1009.08	1	40.624723	17.975036
3423	2024-05-22 14:00:00	7	brindisi_sisri	24.82	1	44.9	1	0.0	1	3.42	1	337.19	1	766.42	1	1009.06	1	40.624723	17.975036
3424	2024-05-22 15:00:00	7	brindisi_sisri	24.31	1	44.76	1	0.0	1	2.74	1	337.0	1	458.94	1	1008.84	1	40.624723	17.975036
3425	2024-05-22 16:00:00	7	brindisi_sisri	23.41	1	49.39	1	0.0	1	2.19	1	358.62	1	223.96	1	1008.74	1	40.624723	17.975036
3426	2024-05-22 17:00:00	7	brindisi_sisri	24.32	1	48.54	1	0.0	1	2.07	1	18.26	1	311.62	1	1008.7	1	40.624723	17.975036
3427	2024-05-22 18:00:00	7	brindisi_sisri	23.23	1	52.43	1	0.0	1	1.93	1	44.68	1	207.24	1	1008.56	1	40.624723	17.975036
3428	2024-05-22 19:00:00	7	brindisi_sisri	21.45	1	59.66	1	0.0	1	1.45	1	32.01	1	46.21	1	1008.83	1	40.624723	17.975036
3429	2024-05-22 20:00:00	7	brindisi_sisri	20.09	1	66.92	1	0.0	1	0.81	1	76.15	1	0.0	5	1009.3	1	40.624723	17.975036
3430	2024-05-22 21:00:00	7	brindisi_sisri	19.5	1	71.12	1	0.0	1	0.92	1	52.18	1	0.0	5	1009.96	1	40.624723	17.975036
3431	2024-05-22 22:00:00	7	brindisi_sisri	19.31	1	73.8	1	0.0	1	1.28	1	301.75	1	0.0	5	1010.5	1	40.624723	17.975036
3432	2024-05-22 23:00:00	7	brindisi_sisri	18.11	1	79.15	1	0.0	1	0.98	1	208.82	1	0.0	5	1010.72	1	40.624723	17.975036
3433	2024-05-23 00:00:00	7	brindisi_sisri	17.45	1	83.72	1	0.0	1	1.35	1	224.39	1	0.0	5	1010.69	1	40.624723	17.975036
3434	2024-05-23 01:00:00	7	brindisi_sisri	17.3	1	80.78	1	0.0	1	2.4	1	229.58	1	0.0	5	1010.7	1	40.624723	17.975036
3435	2024-05-23 02:00:00	7	brindisi_sisri	18.04	1	65.88	1	0.0	1	2.31	1	242.27	1	0.0	5	1010.49	1	40.624723	17.975036
3436	2024-05-23 03:00:00	7	brindisi_sisri	18.1	1	60.4	1	0.0	1	2.34	1	256.54	1	0.0	5	1010.58	1	40.624723	17.975036
3437	2024-05-23 04:00:00	7	brindisi_sisri	17.45	1	61.54	1	0.0	1	2.01	1	253.13	1	0.0	5	1010.81	1	40.624723	17.975036
3438	2024-05-23 05:00:00	7	brindisi_sisri	15.92	1	68.84	1	0.0	1	2.04	1	218.43	1	17.08	1	1011.06	1	40.624723	17.975036
3439	2024-05-23 06:00:00	7	brindisi_sisri	17.61	1	67.96	1	0.0	1	1.3	1	222.14	1	149.83	1	1011.28	1	40.624723	17.975036
3440	2024-05-23 07:00:00	7	brindisi_sisri	20.96	1	59.64	1	0.0	1	2.8	1	276.67	1	344.67	1	1011.57	1	40.624723	17.975036
3441	2024-05-23 08:00:00	7	brindisi_sisri	22.08	1	63.18	1	0.0	1	4.96	1	289.94	1	360.59	1	1011.95	1	40.624723	17.975036
3442	2024-05-23 09:00:00	7	brindisi_sisri	22.84	1	65.95	1	0.0	1	5.23	1	302.16	1	680.57	1	1011.93	1	40.624723	17.975036
3443	2024-05-23 10:00:00	7	brindisi_sisri	22.86	1	67.22	1	0.0	1	5.46	1	303.63	1	759.79	1	1012.14	1	40.624723	17.975036
3444	2024-05-23 11:00:00	7	brindisi_sisri	23.28	1	65.13	1	0.0	1	5.35	1	312.53	1	951.05	1	1012.51	1	40.624723	17.975036
3445	2024-05-23 12:00:00	7	brindisi_sisri	23.33	1	64.08	1	0.0	1	4.97	1	316.62	1	1010.28	1	1012.82	1	40.624723	17.975036
3446	2024-05-23 13:00:00	7	brindisi_sisri	23.8	1	58.89	1	0.0	1	4.33	1	328.94	1	871.02	1	1012.83	1	40.624723	17.975036
3447	2024-05-23 14:00:00	7	brindisi_sisri	23.95	1	51.58	1	0.0	1	4.36	1	340.28	1	847.99	1	1012.75	1	40.624723	17.975036
3448	2024-05-23 15:00:00	7	brindisi_sisri	23.99	1	52.59	1	0.0	1	4.84	1	337.71	1	661.96	1	1012.47	1	40.624723	17.975036
3449	2024-05-23 16:00:00	7	brindisi_sisri	23.86	1	53.61	1	0.0	1	3.34	1	349.39	1	318.58	1	1012.14	1	40.624723	17.975036
3450	2024-05-23 17:00:00	7	brindisi_sisri	23.93	1	50.79	1	0.0	1	2.57	1	1.81	1	347.18	1	1011.84	1	40.624723	17.975036
3451	2024-05-23 18:00:00	7	brindisi_sisri	23.16	1	57.53	1	0.0	1	2.34	1	39.62	1	242.61	1	1011.74	1	40.624723	17.975036
3452	2024-05-23 19:00:00	7	brindisi_sisri	21.33	1	65.04	1	0.0	1	1.71	1	78.71	1	39.05	1	1012.06	1	40.624723	17.975036
3453	2024-05-23 20:00:00	7	brindisi_sisri	19.76	1	73.72	1	0.0	1	1.05	1	74.54	1	0.0	5	1012.26	1	40.624723	17.975036
3454	2024-05-23 21:00:00	7	brindisi_sisri	18.23	1	78.75	1	0.0	1	1.34	1	158.1	1	0.0	5	1012.74	1	40.624723	17.975036
3455	2024-05-23 22:00:00	7	brindisi_sisri	16.79	1	84.16	1	0.0	1	1.35	1	172.47	1	0.0	5	1013.18	1	40.624723	17.975036
3456	2024-05-23 23:00:00	7	brindisi_sisri	16.68	1	86.78	1	0.0	1	1.48	1	183.44	1	0.0	5	1013.34	1	40.624723	17.975036
3457	2024-05-24 00:00:00	7	brindisi_sisri	16.58	1	87.0	1	0.0	1	1.54	1	187.98	1	0.0	5	1013.16	1	40.624723	17.975036
3458	2024-05-24 01:00:00	7	brindisi_sisri	16.4	1	86.18	1	0.0	1	1.19	1	198.49	1	0.0	5	1012.87	1	40.624723	17.975036
3459	2024-05-24 02:00:00	7	brindisi_sisri	15.88	1	88.2	1	0.0	1	0.92	1	206.83	1	0.0	5	1012.66	1	40.624723	17.975036
3460	2024-05-24 03:00:00	7	brindisi_sisri	14.97	1	90.44	1	0.0	1	1.11	1	187.81	1	0.0	5	1012.63	1	40.624723	17.975036
3461	2024-05-24 04:00:00	7	brindisi_sisri	14.62	1	92.58	1	0.0	1	1.44	1	204.35	1	0.0	5	1012.59	1	40.624723	17.975036
3462	2024-05-24 05:00:00	7	brindisi_sisri	14.51	1	93.44	1	0.0	1	1.33	1	203.8	1	21.99	1	1012.71	1	40.624723	17.975036
3463	2024-05-24 06:00:00	7	brindisi_sisri	17.48	1	87.48	1	0.0	1	0.59	1	197.14	1	145.7	1	1013.1	1	40.624723	17.975036
3464	2024-05-24 07:00:00	7	brindisi_sisri	21.24	1	67.0	1	0.0	1	1.18	1	63.22	1	334.77	1	1013.57	1	40.624723	17.975036
3465	2024-05-24 08:00:00	7	brindisi_sisri	23.33	1	57.04	1	0.0	1	1.86	1	353.3	1	350.83	1	1013.94	1	40.624723	17.975036
3466	2024-05-24 09:00:00	7	brindisi_sisri	24.52	1	46.03	1	0.0	1	2.47	1	315.57	1	682.23	1	1013.83	1	40.624723	17.975036
3467	2024-05-24 10:00:00	7	brindisi_sisri	24.27	1	50.18	1	0.0	1	3.49	1	332.05	1	831.99	1	1014.12	1	40.624723	17.975036
3468	2024-05-24 11:00:00	7	brindisi_sisri	24.12	1	56.17	1	0.0	1	3.54	1	330.47	1	939.39	1	1014.52	1	40.624723	17.975036
3469	2024-05-24 12:00:00	7	brindisi_sisri	24.11	1	62.09	1	0.0	1	4.19	1	8.3	1	994.23	1	1014.3	1	40.624723	17.975036
3470	2024-05-24 13:00:00	7	brindisi_sisri	23.97	1	60.49	1	0.0	1	4.88	1	19.89	1	894.51	1	1013.96	1	40.624723	17.975036
3471	2024-05-24 14:00:00	7	brindisi_sisri	24.19	1	56.47	1	0.0	1	3.63	1	36.01	1	609.74	1	1013.79	1	40.624723	17.975036
3472	2024-05-24 15:00:00	7	brindisi_sisri	23.7	1	52.18	1	0.0	1	2.91	1	45.0	1	415.2	1	1013.34	1	40.624723	17.975036
3473	2024-05-24 16:00:00	7	brindisi_sisri	24.94	1	43.26	1	0.0	1	2.85	1	22.3	1	223.98	1	1013.06	1	40.624723	17.975036
3474	2024-05-24 17:00:00	7	brindisi_sisri	23.6	1	48.14	1	0.0	1	1.91	1	19.62	1	185.04	1	1012.9	1	40.624723	17.975036
3475	2024-05-24 18:00:00	7	brindisi_sisri	22.08	1	56.96	1	0.0	1	1.38	1	10.37	1	77.97	1	1012.92	1	40.624723	17.975036
3476	2024-05-24 19:00:00	7	brindisi_sisri	21.15	1	61.9	1	0.0	1	0.65	1	9.42	1	27.76	1	1012.84	1	40.624723	17.975036
3477	2024-05-24 20:00:00	7	brindisi_sisri	20.66	1	59.03	1	0.0	1	1.03	1	298.84	1	0.0	5	1012.83	1	40.624723	17.975036
3478	2024-05-24 21:00:00	7	brindisi_sisri	19.11	1	65.74	1	0.0	1	0.93	1	197.02	1	0.0	5	1013.2	1	40.624723	17.975036
3479	2024-05-24 22:00:00	7	brindisi_sisri	17.92	1	71.04	1	0.0	1	0.48	1	161.65	1	0.0	5	1013.3	1	40.624723	17.975036
3480	2024-05-24 23:00:00	7	brindisi_sisri	16.9	1	76.21	1	0.0	1	0.7	1	173.05	1	0.0	5	1013.24	1	40.624723	17.975036
3481	2024-05-25 00:00:00	7	brindisi_sisri	16.15	1	82.01	1	0.0	1	0.36	1	220.88	1	0.0	5	1012.87	1	40.624723	17.975036
3482	2024-05-25 01:00:00	7	brindisi_sisri	15.83	1	83.99	1	0.0	1	0.99	1	230.43	1	0.0	5	1012.58	1	40.624723	17.975036
3483	2024-05-25 02:00:00	7	brindisi_sisri	15.42	1	86.13	1	0.0	1	0.98	1	233.17	1	0.0	5	1012.3	1	40.624723	17.975036
3484	2024-05-25 03:00:00	7	brindisi_sisri	14.67	1	87.88	1	0.0	1	0.83	1	245.63	1	0.0	5	1011.96	1	40.624723	17.975036
3485	2024-05-25 04:00:00	7	brindisi_sisri	15.84	1	91.05	1	0.0	1	1.11	1	249.31	1	0.0	5	1011.58	1	40.624723	17.975036
3486	2024-05-25 05:00:00	7	brindisi_sisri	16.48	1	92.9	1	0.0	1	1.59	1	276.5	1	20.45	1	1011.36	1	40.624723	17.975036
3487	2024-05-25 06:00:00	7	brindisi_sisri	19.04	1	88.33	1	0.0	1	1.98	1	278.96	1	148.4	1	1011.38	1	40.624723	17.975036
3488	2024-05-25 07:00:00	7	brindisi_sisri	21.33	1	79.93	1	0.0	1	3.01	1	301.87	1	345.7	1	1011.17	1	40.624723	17.975036
3489	2024-05-25 08:00:00	7	brindisi_sisri	22.67	1	68.94	1	0.0	1	3.49	1	315.37	1	403.01	1	1011.07	1	40.624723	17.975036
3490	2024-05-25 09:00:00	7	brindisi_sisri	23.02	1	62.83	1	0.0	1	3.47	1	315.51	1	521.6	1	1010.78	1	40.624723	17.975036
3491	2024-05-25 10:00:00	7	brindisi_sisri	24.35	1	54.64	1	0.0	1	4.17	1	313.79	1	857.98	1	1010.61	1	40.624723	17.975036
3492	2024-05-25 11:00:00	7	brindisi_sisri	24.21	1	58.53	1	0.0	1	4.49	1	312.38	1	929.12	1	1010.51	1	40.624723	17.975036
3493	2024-05-25 12:00:00	7	brindisi_sisri	24.2	1	61.95	1	0.0	1	4.93	1	308.82	1	939.48	1	1010.2	1	40.624723	17.975036
3494	2024-05-25 13:00:00	7	brindisi_sisri	23.49	1	66.35	1	0.0	1	5.5	1	315.86	1	670.77	1	1010.03	1	40.624723	17.975036
3495	2024-05-25 14:00:00	7	brindisi_sisri	23.09	1	68.42	1	0.0	1	4.88	1	318.84	1	413.91	1	1009.8	1	40.624723	17.975036
3496	2024-05-25 15:00:00	7	brindisi_sisri	23.03	1	63.51	1	0.0	1	4.73	1	301.04	1	302.56	1	1009.53	1	40.624723	17.975036
3497	2024-05-25 16:00:00	7	brindisi_sisri	22.21	1	69.98	1	0.0	1	5.38	1	293.72	1	177.4	1	1009.17	1	40.624723	17.975036
3498	2024-05-25 17:00:00	7	brindisi_sisri	21.3	1	71.39	1	0.0	1	5.82	1	298.61	1	103.71	1	1008.91	1	40.624723	17.975036
3499	2024-05-25 18:00:00	7	brindisi_sisri	20.94	1	63.09	1	0.0	1	4.76	1	289.36	1	47.19	1	1009.07	1	40.624723	17.975036
3500	2024-05-25 19:00:00	7	brindisi_sisri	20.58	1	65.16	1	0.0	1	5.08	1	295.35	1	21.64	1	1009.4	1	40.624723	17.975036
3501	2024-05-25 20:00:00	7	brindisi_sisri	19.9	1	67.71	1	0.0	1	4.42	1	297.04	1	0.0	5	1009.83	1	40.624723	17.975036
3502	2024-05-25 21:00:00	7	brindisi_sisri	19.82	1	65.16	1	0.0	1	3.51	1	280.72	1	0.0	5	1010.26	1	40.624723	17.975036
3503	2024-05-25 22:00:00	7	brindisi_sisri	19.67	1	66.14	1	0.0	1	4.02	1	300.4	1	0.0	5	1010.42	1	40.624723	17.975036
3504	2024-05-25 23:00:00	7	brindisi_sisri	19.38	1	68.32	1	0.0	1	3.97	1	281.35	1	0.0	5	1010.45	1	40.624723	17.975036
3505	2024-05-26 00:00:00	7	brindisi_sisri	18.98	1	70.52	1	0.0	1	2.78	1	263.55	1	0.0	5	1010.5	1	40.624723	17.975036
3506	2024-05-26 01:00:00	7	brindisi_sisri	18.46	1	68.02	1	0.0	1	2.46	1	272.02	1	0.0	5	1010.26	1	40.624723	17.975036
3507	2024-05-26 02:00:00	7	brindisi_sisri	18.33	1	65.42	1	0.0	1	2.57	1	277.17	1	0.0	5	1010.11	1	40.624723	17.975036
3508	2024-05-26 03:00:00	7	brindisi_sisri	17.97	1	67.14	1	0.0	1	1.45	1	310.98	1	0.0	5	1009.89	1	40.624723	17.975036
3509	2024-05-26 04:00:00	7	brindisi_sisri	18.27	1	77.91	1	0.0	1	1.78	1	315.62	1	0.0	5	1009.55	1	40.624723	17.975036
3510	2024-05-26 05:00:00	7	brindisi_sisri	18.61	1	78.87	1	0.0	1	2.72	1	301.89	1	7.11	1	1009.44	1	40.624723	17.975036
3511	2024-05-26 06:00:00	7	brindisi_sisri	18.88	1	78.03	1	0.0	1	2.73	1	333.8	1	37.15	1	1009.81	1	40.624723	17.975036
3512	2024-05-26 07:00:00	7	brindisi_sisri	19.76	1	76.77	1	0.0	1	2.36	1	345.57	1	238.28	1	1010.07	1	40.624723	17.975036
3513	2024-05-26 08:00:00	7	brindisi_sisri	20.86	1	72.47	1	0.0	1	3.28	1	332.17	1	309.8	1	1010.53	1	40.624723	17.975036
3514	2024-05-26 09:00:00	7	brindisi_sisri	21.23	1	63.06	1	0.0	1	4.42	1	315.53	1	456.03	1	1010.82	1	40.624723	17.975036
3515	2024-05-26 10:00:00	7	brindisi_sisri	21.67	1	66.05	1	0.0	1	4.7	1	321.0	1	564.66	1	1010.97	1	40.624723	17.975036
3516	2024-05-26 11:00:00	7	brindisi_sisri	21.49	1	65.6	1	0.0	1	5.01	1	314.46	1	593.37	1	1011.32	1	40.624723	17.975036
3517	2024-05-26 12:00:00	7	brindisi_sisri	20.65	1	67.09	1	0.0	1	4.73	1	313.14	1	288.06	1	1011.68	1	40.624723	17.975036
3518	2024-05-26 13:00:00	7	brindisi_sisri	19.33	1	79.44	1	0.0	1	5.19	1	316.39	1	320.9	1	1011.88	1	40.624723	17.975036
3519	2024-05-26 14:00:00	7	brindisi_sisri	21.43	1	67.06	1	0.0	1	5.43	1	318.38	1	668.66	1	1011.79	1	40.624723	17.975036
3520	2024-05-26 15:00:00	7	brindisi_sisri	21.88	1	66.3	1	0.0	1	5.02	1	316.86	1	629.49	1	1011.37	1	40.624723	17.975036
3521	2024-05-26 16:00:00	7	brindisi_sisri	22.04	1	65.04	1	0.0	1	4.88	1	321.59	1	445.79	1	1011.27	1	40.624723	17.975036
3522	2024-05-26 17:00:00	7	brindisi_sisri	21.62	1	68.15	1	0.0	1	5.04	1	315.81	1	348.19	1	1011.41	1	40.624723	17.975036
3523	2024-05-26 18:00:00	7	brindisi_sisri	20.8	1	70.89	1	0.0	1	4.72	1	317.45	1	240.7	1	1011.47	1	40.624723	17.975036
3524	2024-05-26 19:00:00	7	brindisi_sisri	19.73	1	74.86	1	0.0	1	3.91	1	318.4	1	42.73	1	1011.78	1	40.624723	17.975036
3525	2024-05-26 20:00:00	7	brindisi_sisri	19.04	1	78.4	1	0.0	1	3.76	1	322.25	1	0.0	5	1012.16	1	40.624723	17.975036
3526	2024-05-26 21:00:00	7	brindisi_sisri	18.88	1	79.44	1	0.0	1	3.12	1	320.59	1	0.0	5	1012.89	1	40.624723	17.975036
3527	2024-05-26 22:00:00	7	brindisi_sisri	18.67	1	81.3	1	0.0	1	2.71	1	317.07	1	0.0	5	1013.07	1	40.624723	17.975036
3528	2024-05-26 23:00:00	7	brindisi_sisri	18.08	1	82.64	1	0.0	1	1.84	1	295.46	1	0.0	5	1012.89	1	40.624723	17.975036
3529	2024-05-27 00:00:00	7	brindisi_sisri	17.78	1	84.27	1	0.0	1	2.03	1	290.39	1	0.0	5	1012.9	1	40.624723	17.975036
3530	2024-05-27 01:00:00	7	brindisi_sisri	17.47	1	84.43	1	0.0	1	1.62	1	276.6	1	0.0	5	1012.75	1	40.624723	17.975036
3531	2024-05-27 02:00:00	7	brindisi_sisri	17.0	1	86.21	1	0.0	1	1.44	1	248.38	1	0.0	5	1012.64	1	40.624723	17.975036
3532	2024-05-27 03:00:00	7	brindisi_sisri	16.5	1	87.4	1	0.0	1	1.32	1	223.18	1	0.0	5	1012.46	1	40.624723	17.975036
3533	2024-05-27 04:00:00	7	brindisi_sisri	16.59	1	89.64	1	0.0	1	1.37	1	274.01	1	0.0	5	1012.34	1	40.624723	17.975036
3534	2024-05-27 05:00:00	7	brindisi_sisri	16.81	1	90.84	1	0.0	1	1.62	1	285.73	1	16.17	1	1012.34	1	40.624723	17.975036
3535	2024-05-27 06:00:00	7	brindisi_sisri	19.01	1	83.2	1	0.0	1	1.97	1	287.3	1	121.46	1	1012.68	1	40.624723	17.975036
3536	2024-05-27 07:00:00	7	brindisi_sisri	20.84	1	74.47	1	0.0	1	3.54	1	317.19	1	332.45	1	1012.95	1	40.624723	17.975036
3537	2024-05-27 08:00:00	7	brindisi_sisri	21.98	1	68.19	1	0.0	1	4.01	1	333.68	1	392.97	1	1013.34	1	40.624723	17.975036
3538	2024-05-27 09:00:00	7	brindisi_sisri	22.58	1	64.53	1	0.0	1	4.05	1	335.05	1	667.58	1	1013.34	1	40.624723	17.975036
3539	2024-05-27 10:00:00	7	brindisi_sisri	23.26	1	64.21	1	0.0	1	3.65	1	348.11	1	860.05	1	1013.34	1	40.624723	17.975036
3540	2024-05-27 11:00:00	7	brindisi_sisri	23.31	1	62.09	1	0.0	1	3.99	1	357.6	1	936.39	1	1013.59	1	40.624723	17.975036
3541	2024-05-27 12:00:00	7	brindisi_sisri	23.2	1	62.94	1	0.0	1	4.09	1	343.66	1	989.71	1	1013.46	1	40.624723	17.975036
3542	2024-05-27 13:00:00	7	brindisi_sisri	23.72	1	60.35	1	0.0	1	4.29	1	327.16	1	899.98	1	1013.08	1	40.624723	17.975036
3543	2024-05-27 14:00:00	7	brindisi_sisri	23.48	1	61.52	1	0.0	1	4.73	1	337.84	1	882.77	1	1012.57	1	40.624723	17.975036
3544	2024-05-27 15:00:00	7	brindisi_sisri	23.68	1	60.97	1	0.0	1	3.87	1	332.5	1	642.72	1	1012.44	1	40.624723	17.975036
3545	2024-05-27 16:00:00	7	brindisi_sisri	23.7	1	60.42	1	0.0	1	3.99	1	312.6	1	321.56	1	1011.99	1	40.624723	17.975036
3546	2024-05-27 17:00:00	7	brindisi_sisri	23.14	1	61.18	1	0.0	1	3.46	1	324.66	1	318.56	1	1011.68	1	40.624723	17.975036
3547	2024-05-27 18:00:00	7	brindisi_sisri	22.25	1	65.38	1	0.0	1	3.36	1	329.5	1	229.32	1	1011.54	1	40.624723	17.975036
3548	2024-05-27 19:00:00	7	brindisi_sisri	20.76	1	72.99	1	0.0	1	3.2	1	334.85	1	42.18	1	1011.82	1	40.624723	17.975036
3549	2024-05-27 20:00:00	7	brindisi_sisri	19.68	1	77.79	1	0.0	1	2.58	1	350.02	1	0.0	5	1011.79	1	40.624723	17.975036
3550	2024-05-27 21:00:00	7	brindisi_sisri	19.46	1	78.38	1	0.0	1	1.88	1	3.68	1	0.0	5	1012.27	1	40.624723	17.975036
3551	2024-05-27 22:00:00	7	brindisi_sisri	18.47	1	81.02	1	0.0	1	1.22	1	198.99	1	0.0	5	1012.36	1	40.624723	17.975036
3552	2024-05-27 23:00:00	7	brindisi_sisri	17.29	1	84.29	1	0.0	1	0.86	1	202.83	1	0.0	5	1012.14	1	40.624723	17.975036
3553	2024-05-28 00:00:00	7	brindisi_sisri	16.56	1	87.06	1	0.0	1	1.05	1	215.6	1	0.0	5	1011.65	1	40.624723	17.975036
3554	2024-05-28 01:00:00	7	brindisi_sisri	15.97	1	89.15	1	0.0	1	1.13	1	204.14	1	0.0	5	1011.27	1	40.624723	17.975036
3555	2024-05-28 02:00:00	7	brindisi_sisri	15.69	1	91.03	1	0.0	1	1.3	1	207.27	1	0.0	5	1010.85	1	40.624723	17.975036
3556	2024-05-28 03:00:00	7	brindisi_sisri	15.02	1	91.97	1	0.0	1	1.36	1	179.29	1	0.0	5	1010.63	1	40.624723	17.975036
3557	2024-05-28 04:00:00	7	brindisi_sisri	14.92	1	93.66	1	0.0	1	1.45	1	212.24	1	0.0	5	1010.43	1	40.624723	17.975036
3558	2024-05-28 05:00:00	7	brindisi_sisri	15.21	1	93.98	1	0.0	1	1.17	1	207.66	1	20.56	1	1010.42	1	40.624723	17.975036
3559	2024-05-28 06:00:00	7	brindisi_sisri	17.92	1	90.02	1	0.0	1	1.05	1	220.4	1	107.82	1	1010.51	1	40.624723	17.975036
3560	2024-05-28 07:00:00	7	brindisi_sisri	21.11	1	76.92	1	0.0	1	1.5	1	209.08	1	309.7	1	1010.65	1	40.624723	17.975036
3561	2024-05-28 08:00:00	7	brindisi_sisri	24.56	1	56.49	1	0.0	1	1.29	1	223.01	1	409.38	1	1010.74	1	40.624723	17.975036
3562	2024-05-28 09:00:00	7	brindisi_sisri	25.79	1	50.01	1	0.0	1	1.11	1	187.04	1	587.18	1	1010.65	1	40.624723	17.975036
3563	2024-05-28 10:00:00	7	brindisi_sisri	24.97	1	56.13	1	0.0	1	3.75	1	27.7	1	697.35	1	1010.41	1	40.624723	17.975036
3564	2024-05-28 11:00:00	7	brindisi_sisri	23.87	1	57.32	1	0.0	1	4.15	1	21.44	1	613.56	1	1010.35	1	40.624723	17.975036
3565	2024-05-28 12:00:00	7	brindisi_sisri	17.74	1	84.11	1	17.6	1	3.02	1	186.29	1	39.54	1	1011.06	1	40.624723	17.975036
3566	2024-05-28 13:00:00	7	brindisi_sisri	17.64	1	94.14	1	0.0	1	2.2	1	149.38	1	200.62	1	1010.35	1	40.624723	17.975036
3567	2024-05-28 14:00:00	7	brindisi_sisri	20.05	1	85.71	1	0.0	1	4.24	1	130.16	1	495.68	1	1009.53	1	40.624723	17.975036
3568	2024-05-28 15:00:00	7	brindisi_sisri	23.93	1	61.77	1	0.0	1	3.05	1	127.13	1	517.37	1	1008.76	1	40.624723	17.975036
3569	2024-05-28 16:00:00	7	brindisi_sisri	26.34	1	50.08	1	0.0	1	2.7	1	158.97	1	234.81	1	1008.46	1	40.624723	17.975036
3570	2024-05-28 17:00:00	7	brindisi_sisri	25.94	1	46.89	1	0.0	1	4.37	1	183.46	1	242.7	1	1008.76	1	40.624723	17.975036
3571	2024-05-28 18:00:00	7	brindisi_sisri	23.66	1	54.08	1	0.0	1	3.43	1	186.3	1	89.51	1	1008.97	1	40.624723	17.975036
3572	2024-05-28 19:00:00	7	brindisi_sisri	22.28	1	61.51	1	0.0	1	2.68	1	172.98	1	44.41	1	1008.9	1	40.624723	17.975036
3573	2024-05-28 20:00:00	7	brindisi_sisri	20.05	1	70.3	1	0.0	1	1.52	1	149.36	1	0.0	5	1008.9	1	40.624723	17.975036
3574	2024-05-28 21:00:00	7	brindisi_sisri	18.69	1	77.02	1	0.0	1	1.56	1	152.14	1	0.0	5	1009.22	1	40.624723	17.975036
3575	2024-05-28 22:00:00	7	brindisi_sisri	17.49	1	84.61	1	0.0	1	1.45	1	169.2	1	0.0	5	1009.38	1	40.624723	17.975036
3576	2024-05-28 23:00:00	7	brindisi_sisri	16.74	1	89.71	1	0.0	1	0.82	1	182.46	1	0.0	5	1009.44	1	40.624723	17.975036
3577	2024-05-29 00:00:00	7	brindisi_sisri	16.2	1	92.65	1	0.0	1	1.01	1	167.83	1	0.0	5	1009.49	1	40.624723	17.975036
3578	2024-05-29 01:00:00	7	brindisi_sisri	15.75	1	94.8	1	0.0	1	0.89	1	145.7	1	0.0	5	1009.35	1	40.624723	17.975036
3579	2024-05-29 02:00:00	7	brindisi_sisri	15.58	1	96.54	1	0.0	1	1.37	1	153.07	1	0.0	5	1009.09	1	40.624723	17.975036
3580	2024-05-29 03:00:00	7	brindisi_sisri	15.25	1	97.91	1	0.0	1	1.34	1	166.56	1	0.0	5	1008.86	1	40.624723	17.975036
3581	2024-05-29 04:00:00	7	brindisi_sisri	14.97	1	98.64	1	0.0	1	1.02	1	165.86	1	0.0	5	1008.59	1	40.624723	17.975036
3582	2024-05-29 05:00:00	7	brindisi_sisri	14.43	1	98.99	1	0.0	1	1.18	1	202.54	1	10.66	1	1008.46	1	40.624723	17.975036
3583	2024-05-29 06:00:00	7	brindisi_sisri	17.02	1	97.97	1	0.0	1	0.12	1	209.05	1	149.68	1	1008.51	1	40.624723	17.975036
3584	2024-05-29 07:00:00	7	brindisi_sisri	20.5	1	86.16	1	0.0	1	1.84	1	359.44	1	287.35	1	1008.98	1	40.624723	17.975036
3585	2024-05-29 08:00:00	7	brindisi_sisri	22.11	1	78.32	1	0.0	1	3.54	1	3.65	1	358.72	1	1009.36	1	40.624723	17.975036
3586	2024-05-29 09:00:00	7	brindisi_sisri	22.09	1	76.76	1	0.0	1	3.3	1	42.93	1	467.71	1	1009.37	1	40.624723	17.975036
3587	2024-05-29 10:00:00	7	brindisi_sisri	24.43	1	61.93	1	0.0	1	2.39	1	56.51	1	815.48	1	1009.08	1	40.624723	17.975036
3588	2024-05-29 11:00:00	7	brindisi_sisri	24.16	1	64.53	1	0.0	1	3.66	1	19.82	1	738.62	1	1009.14	1	40.624723	17.975036
3589	2024-05-29 12:00:00	7	brindisi_sisri	23.85	1	64.7	1	0.0	1	4.03	1	12.7	1	854.92	1	1008.93	1	40.624723	17.975036
3590	2024-05-29 13:00:00	7	brindisi_sisri	23.97	1	62.64	1	0.0	1	4.21	1	20.25	1	796.35	1	1008.59	1	40.624723	17.975036
3591	2024-05-29 14:00:00	7	brindisi_sisri	23.73	1	64.22	1	0.0	1	3.39	1	44.21	1	605.47	1	1008.41	1	40.624723	17.975036
3592	2024-05-29 15:00:00	7	brindisi_sisri	24.46	1	57.86	1	0.0	1	2.89	1	37.51	1	603.11	1	1007.38	1	40.624723	17.975036
3593	2024-05-29 16:00:00	7	brindisi_sisri	24.59	1	57.4	1	0.0	1	2.73	1	24.17	1	239.73	1	1006.93	1	40.624723	17.975036
3594	2024-05-29 17:00:00	7	brindisi_sisri	24.05	1	60.19	1	0.0	1	2.81	1	353.03	1	344.67	1	1006.87	1	40.624723	17.975036
3595	2024-05-29 18:00:00	7	brindisi_sisri	23.3	1	61.05	1	0.0	1	2.53	1	6.06	1	250.2	1	1007.1	1	40.624723	17.975036
3596	2024-05-29 19:00:00	7	brindisi_sisri	21.52	1	70.1	1	0.0	1	2.23	1	22.86	1	52.05	1	1007.31	1	40.624723	17.975036
3597	2024-05-29 20:00:00	7	brindisi_sisri	20.26	1	77.65	1	0.0	1	0.94	1	104.74	1	0.0	5	1007.31	1	40.624723	17.975036
3598	2024-05-29 21:00:00	7	brindisi_sisri	19.41	1	82.4	1	0.0	1	0.87	1	100.67	1	0.0	5	1007.63	1	40.624723	17.975036
3599	2024-05-29 22:00:00	7	brindisi_sisri	18.27	1	87.21	1	0.0	1	1.18	1	173.7	1	0.0	5	1007.77	1	40.624723	17.975036
3600	2024-05-29 23:00:00	7	brindisi_sisri	17.67	1	91.22	1	0.0	1	0.93	1	169.5	1	0.0	5	1007.61	1	40.624723	17.975036
3601	2024-05-30 00:00:00	7	brindisi_sisri	17.32	1	93.08	1	0.0	1	0.57	1	223.0	1	0.0	5	1007.48	1	40.624723	17.975036
3602	2024-05-30 01:00:00	7	brindisi_sisri	16.68	1	94.13	1	0.0	1	0.86	1	199.77	1	0.0	5	1007.03	1	40.624723	17.975036
3603	2024-05-30 02:00:00	7	brindisi_sisri	15.89	1	95.28	1	0.0	1	0.88	1	202.26	1	0.0	5	1006.56	1	40.624723	17.975036
3604	2024-05-30 03:00:00	7	brindisi_sisri	15.37	1	96.39	1	0.0	1	1.5	1	185.76	1	0.0	5	1006.25	1	40.624723	17.975036
3605	2024-05-30 04:00:00	7	brindisi_sisri	15.38	1	97.47	1	0.0	1	1.34	1	198.8	1	0.0	5	1006.04	1	40.624723	17.975036
3606	2024-05-30 05:00:00	7	brindisi_sisri	15.41	1	97.56	1	0.0	1	1.43	1	193.09	1	22.31	1	1006.06	1	40.624723	17.975036
3607	2024-05-30 06:00:00	7	brindisi_sisri	18.14	1	94.28	1	0.0	1	1.19	1	194.37	1	147.93	1	1006.21	1	40.624723	17.975036
3608	2024-05-30 07:00:00	7	brindisi_sisri	21.74	1	79.91	1	0.0	1	1.31	1	139.6	1	330.9	1	1006.28	1	40.624723	17.975036
3609	2024-05-30 08:00:00	7	brindisi_sisri	24.33	1	63.58	1	0.0	1	1.73	1	154.07	1	407.87	1	1006.42	1	40.624723	17.975036
3610	2024-05-30 09:00:00	7	brindisi_sisri	25.78	1	55.17	1	0.0	1	1.97	1	126.03	1	543.68	1	1006.35	1	40.624723	17.975036
3611	2024-05-30 10:00:00	7	brindisi_sisri	24.98	1	58.97	1	0.0	1	4.65	1	73.38	1	840.87	1	1006.21	1	40.624723	17.975036
3612	2024-05-30 11:00:00	7	brindisi_sisri	23.94	1	62.6	1	0.0	1	4.86	1	75.56	1	613.16	1	1006.1	1	40.624723	17.975036
3613	2024-05-30 12:00:00	7	brindisi_sisri	24.37	1	60.21	1	0.0	1	5.57	1	78.38	1	1002.62	1	1005.78	1	40.624723	17.975036
3614	2024-05-30 13:00:00	7	brindisi_sisri	25.1	1	54.28	1	0.0	1	6.09	1	81.61	1	891.82	1	1005.39	1	40.624723	17.975036
3615	2024-05-30 14:00:00	7	brindisi_sisri	25.45	1	51.5	1	0.0	1	6.24	1	95.92	1	418.24	1	1005.11	1	40.624723	17.975036
3616	2024-05-30 15:00:00	7	brindisi_sisri	27.02	1	42.68	1	0.0	1	5.71	1	171.06	1	516.77	1	1004.6	1	40.624723	17.975036
3617	2024-05-30 16:00:00	7	brindisi_sisri	26.84	1	42.72	1	0.0	1	6.29	1	162.13	1	237.24	1	1004.4	1	40.624723	17.975036
3618	2024-05-30 17:00:00	7	brindisi_sisri	26.15	1	46.58	1	0.0	1	6.67	1	163.86	1	279.99	1	1004.24	1	40.624723	17.975036
3619	2024-05-30 18:00:00	7	brindisi_sisri	24.02	1	54.91	1	0.0	1	6.54	1	165.8	1	144.6	1	1004.36	1	40.624723	17.975036
3620	2024-05-30 19:00:00	7	brindisi_sisri	22.47	1	59.71	1	0.0	1	4.76	1	167.43	1	38.83	1	1004.61	1	40.624723	17.975036
3621	2024-05-30 20:00:00	7	brindisi_sisri	20.96	1	63.32	1	0.0	1	3.26	1	157.27	1	0.0	5	1004.62	1	40.624723	17.975036
3622	2024-05-30 21:00:00	7	brindisi_sisri	20.35	1	71.53	1	0.0	1	3.49	1	146.48	1	0.0	5	1005.04	1	40.624723	17.975036
3623	2024-05-30 22:00:00	7	brindisi_sisri	20.06	1	76.67	1	0.0	1	3.27	1	135.15	1	0.0	5	1005.13	1	40.624723	17.975036
3624	2024-05-30 23:00:00	7	brindisi_sisri	19.83	1	84.39	1	0.0	1	3.59	1	141.55	1	0.0	5	1004.92	1	40.624723	17.975036
3625	2024-05-31 00:00:00	7	brindisi_sisri	19.89	1	87.81	1	0.0	1	3.82	1	139.97	1	0.0	5	1004.85	1	40.624723	17.975036
3626	2024-05-31 01:00:00	7	brindisi_sisri	19.55	1	90.53	1	0.0	1	3.01	1	130.36	1	0.0	5	1004.71	1	40.624723	17.975036
3627	2024-05-31 02:00:00	7	brindisi_sisri	19.29	1	91.9	1	0.0	1	3.71	1	130.32	1	0.0	5	1004.42	1	40.624723	17.975036
3628	2024-05-31 03:00:00	7	brindisi_sisri	19.3	1	92.64	1	0.0	1	3.94	1	130.52	1	0.0	5	1004.14	1	40.624723	17.975036
3629	2024-05-31 04:00:00	7	brindisi_sisri	19.33	1	93.39	1	0.0	1	4.53	1	142.63	1	0.0	5	1004.05	1	40.624723	17.975036
3630	2024-05-31 05:00:00	7	brindisi_sisri	19.64	1	92.88	1	0.0	1	4.72	1	145.05	1	11.49	1	1004.55	1	40.624723	17.975036
3631	2024-05-31 06:00:00	7	brindisi_sisri	20.2	1	90.87	1	0.0	1	4.15	1	148.34	1	67.27	1	1005.11	1	40.624723	17.975036
3632	2024-05-31 07:00:00	7	brindisi_sisri	21.93	1	79.95	1	0.0	1	6.01	1	150.41	1	312.89	1	1005.4	1	40.624723	17.975036
3633	2024-05-31 08:00:00	7	brindisi_sisri	22.92	1	67.85	1	0.0	1	7.17	1	154.6	1	348.24	1	1005.74	1	40.624723	17.975036
3634	2024-05-31 09:00:00	7	brindisi_sisri	23.64	1	63.26	1	0.0	1	7.24	1	160.85	1	477.28	1	1005.77	1	40.624723	17.975036
3635	2024-05-31 10:00:00	7	brindisi_sisri	24.87	1	57.74	1	0.0	1	8.1	1	158.19	1	733.59	1	1005.8	1	40.624723	17.975036
3636	2024-05-31 11:00:00	7	brindisi_sisri	25.55	1	54.49	1	0.0	1	8.53	1	157.98	1	823.06	1	1006.05	1	40.624723	17.975036
3637	2024-05-31 12:00:00	7	brindisi_sisri	26.4	1	49.45	1	0.0	1	8.66	1	159.43	1	991.93	1	1006.03	1	40.624723	17.975036
3638	2024-05-31 13:00:00	7	brindisi_sisri	26.85	1	50.58	1	0.0	1	8.16	1	167.75	1	829.01	1	1006.26	1	40.624723	17.975036
3639	2024-05-31 14:00:00	7	brindisi_sisri	26.67	1	52.74	1	0.0	1	8.82	1	158.61	1	565.92	1	1006.09	1	40.624723	17.975036
3640	2024-05-31 15:00:00	7	brindisi_sisri	24.88	1	57.82	1	0.0	1	8.37	1	158.24	1	264.9	1	1006.49	1	40.624723	17.975036
3641	2024-05-31 16:00:00	7	brindisi_sisri	24.04	1	60.42	1	0.0	1	7.73	1	155.48	1	98.16	1	1006.47	1	40.624723	17.975036
3642	2024-05-31 17:00:00	7	brindisi_sisri	24.17	1	52.09	1	0.0	1	7.24	1	154.8	1	114.38	1	1006.36	1	40.624723	17.975036
3643	2024-05-31 18:00:00	7	brindisi_sisri	23.74	1	51.82	1	0.0	1	6.46	1	158.44	1	51.02	1	1006.76	1	40.624723	17.975036
3644	2024-05-31 19:00:00	7	brindisi_sisri	22.84	1	63.49	1	0.0	1	6.97	1	149.7	1	12.78	1	1006.91	1	40.624723	17.975036
3645	2024-05-31 20:00:00	7	brindisi_sisri	22.06	1	70.39	1	0.0	1	7.04	1	146.95	1	0.0	5	1006.91	1	40.624723	17.975036
3646	2024-05-31 21:00:00	7	brindisi_sisri	21.57	1	76.77	1	0.0	1	6.52	1	144.08	1	0.0	5	1007.43	1	40.624723	17.975036
3647	2024-05-31 22:00:00	7	brindisi_sisri	21.19	1	80.99	1	0.0	1	5.92	1	144.96	1	0.0	5	1007.91	1	40.624723	17.975036
3648	2024-05-31 23:00:00	7	brindisi_sisri	21.09	1	82.77	1	0.0	1	7.09	1	145.32	1	0.0	5	1007.69	1	40.624723	"17.975036	"
